<?xml version='1.0' encoding='UTF-8'?><gpx version="1.1" creator="JPX - https://github.com/jenetics/jpx" xmlns="http://www.topografix.com/GPX/1/1"><trk><trkseg><trkpt lat="43.8316817" lon="12.6842467"><ele>82.0</ele><time>2026-04-12T08:41:57.168Z</time></trkpt><trkpt lat="43.8317483" lon="12.6842817"><ele>82.0</ele><time>2026-04-12T08:41:58.165Z</time></trkpt><trkpt lat="43.8318333" lon="12.6843583"><ele>82.0</ele><time>2026-04-12T08:41:59.165Z</time></trkpt><trkpt lat="43.8319267" lon="12.68445"><ele>82.0</ele><time>2026-04-12T08:42:00.166Z</time></trkpt><trkpt lat="43.83203" lon="12.684555"><ele>82.0</ele><time>2026-04-12T08:42:01.165Z</time></trkpt><trkpt lat="43.8321633" lon="12.684675"><ele>81.33333333333333</ele><time>2026-04-12T08:42:02.166Z</time></trkpt><trkpt lat="43.83231" lon="12.6848083"><ele>80.66666666666667</ele><time>2026-04-12T08:42:03.165Z</time></trkpt><trkpt lat="43.8324533" lon="12.6849467"><ele>80.0</ele><time>2026-04-12T08:42:04.166Z</time></trkpt><trkpt lat="43.8326067" lon="12.68509"><ele>81.0</ele><time>2026-04-12T08:42:05.17Z</time></trkpt><trkpt lat="43.8327533" lon="12.6852283"><ele>82.0</ele><time>2026-04-12T08:42:06.167Z</time></trkpt><trkpt lat="43.8329033" lon="12.6853617"><ele>83.0</ele><time>2026-04-12T08:42:07.166Z</time></trkpt><trkpt lat="43.83305" lon="12.6854917"><ele>83.33333333333334</ele><time>2026-04-12T08:42:08.166Z</time></trkpt><trkpt lat="43.8331983" lon="12.68564"><ele>83.66666666666667</ele><time>2026-04-12T08:42:09.164Z</time></trkpt><trkpt lat="43.8333433" lon="12.68577"><ele>84.0</ele><time>2026-04-12T08:42:10.164Z</time></trkpt><trkpt lat="43.833495" lon="12.68592"><ele>84.0</ele><time>2026-04-12T08:42:11.166Z</time></trkpt><trkpt lat="43.833645" lon="12.6860633"><ele>84.0</ele><time>2026-04-12T08:42:12.165Z</time></trkpt><trkpt lat="43.8337967" lon="12.6862067"><ele>84.0</ele><time>2026-04-12T08:42:13.166Z</time></trkpt><trkpt lat="43.8339467" lon="12.6863683"><ele>84.0</ele><time>2026-04-12T08:42:14.165Z</time></trkpt><trkpt lat="43.834095" lon="12.686515"><ele>84.0</ele><time>2026-04-12T08:42:15.165Z</time></trkpt><trkpt lat="43.8342433" lon="12.68665"><ele>84.0</ele><time>2026-04-12T08:42:16.164Z</time></trkpt><trkpt lat="43.8343983" lon="12.6867883"><ele>85.33333333333333</ele><time>2026-04-12T08:42:17.164Z</time></trkpt><trkpt lat="43.834545" lon="12.6869233"><ele>86.66666666666666</ele><time>2026-04-12T08:42:18.166Z</time></trkpt><trkpt lat="43.83468" lon="12.687075"><ele>88.0</ele><time>2026-04-12T08:42:19.165Z</time></trkpt><trkpt lat="43.8348017" lon="12.6872433"><ele>88.0</ele><time>2026-04-12T08:42:20.167Z</time></trkpt><trkpt lat="43.8349033" lon="12.687425"><ele>88.0</ele><time>2026-04-12T08:42:21.166Z</time></trkpt><trkpt lat="43.83498" lon="12.687635"><ele>88.0</ele><time>2026-04-12T08:42:22.166Z</time></trkpt><trkpt lat="43.8350467" lon="12.6878483"><ele>87.33333333333333</ele><time>2026-04-12T08:42:23.166Z</time></trkpt><trkpt lat="43.8350983" lon="12.6880733"><ele>86.66666666666667</ele><time>2026-04-12T08:42:24.165Z</time></trkpt><trkpt lat="43.8351483" lon="12.6882933"><ele>86.0</ele><time>2026-04-12T08:42:25.166Z</time></trkpt><trkpt lat="43.8352033" lon="12.6885133"><ele>86.66666666666667</ele><time>2026-04-12T08:42:26.166Z</time></trkpt><trkpt lat="43.8352533" lon="12.68874"><ele>87.33333333333333</ele><time>2026-04-12T08:42:27.165Z</time></trkpt><trkpt lat="43.8353" lon="12.68897"><ele>88.0</ele><time>2026-04-12T08:42:28.165Z</time></trkpt><trkpt lat="43.83535" lon="12.6891917"><ele>88.0</ele><time>2026-04-12T08:42:29.165Z</time></trkpt><trkpt lat="43.8354" lon="12.68941"><ele>88.0</ele><time>2026-04-12T08:42:30.165Z</time></trkpt><trkpt lat="43.83545" lon="12.6896317"><ele>88.0</ele><time>2026-04-12T08:42:31.165Z</time></trkpt><trkpt lat="43.8355033" lon="12.68985"><ele>87.66666666666666</ele><time>2026-04-12T08:42:32.166Z</time></trkpt><trkpt lat="43.8355583" lon="12.6900717"><ele>87.33333333333333</ele><time>2026-04-12T08:42:33.166Z</time></trkpt><trkpt lat="43.83561" lon="12.69029"><ele>87.0</ele><time>2026-04-12T08:42:34.164Z</time></trkpt><trkpt lat="43.8356617" lon="12.6905167"><ele>86.66666666666667</ele><time>2026-04-12T08:42:35.165Z</time></trkpt><trkpt lat="43.8357167" lon="12.6907317"><ele>86.33333333333334</ele><time>2026-04-12T08:42:36.164Z</time></trkpt><trkpt lat="43.8357683" lon="12.6909533"><ele>86.0</ele><time>2026-04-12T08:42:37.175Z</time></trkpt><trkpt lat="43.83582" lon="12.691175"><ele>86.0</ele><time>2026-04-12T08:42:38.166Z</time></trkpt><trkpt lat="43.8358783" lon="12.6913967"><ele>86.0</ele><time>2026-04-12T08:42:39.167Z</time></trkpt><trkpt lat="43.8359317" lon="12.6916083"><ele>86.0</ele><time>2026-04-12T08:42:40.17Z</time></trkpt><trkpt lat="43.8359867" lon="12.69182"><ele>86.0</ele><time>2026-04-12T08:42:41.165Z</time></trkpt><trkpt lat="43.83604" lon="12.69202"><ele>86.0</ele><time>2026-04-12T08:42:42.167Z</time></trkpt><trkpt lat="43.8361017" lon="12.6922033"><ele>86.0</ele><time>2026-04-12T08:42:43.165Z</time></trkpt><trkpt lat="43.8361617" lon="12.69238"><ele>86.0</ele><time>2026-04-12T08:42:44.168Z</time></trkpt><trkpt lat="43.8362233" lon="12.69254"><ele>86.0</ele><time>2026-04-12T08:42:45.165Z</time></trkpt><trkpt lat="43.83628" lon="12.6926817"><ele>86.0</ele><time>2026-04-12T08:42:46.164Z</time></trkpt><trkpt lat="43.8363417" lon="12.69283"><ele>86.0</ele><time>2026-04-12T08:42:47.169Z</time></trkpt><trkpt lat="43.836405" lon="12.6929667"><ele>86.0</ele><time>2026-04-12T08:42:48.166Z</time></trkpt><trkpt lat="43.83647" lon="12.6931083"><ele>85.25</ele><time>2026-04-12T08:42:49.165Z</time></trkpt><trkpt lat="43.8365417" lon="12.693275"><ele>84.5</ele><time>2026-04-12T08:42:50.166Z</time></trkpt><trkpt lat="43.8366033" lon="12.6934483"><ele>83.75</ele><time>2026-04-12T08:42:51.165Z</time></trkpt><trkpt lat="43.8366683" lon="12.6936267"><ele>83.0</ele><time>2026-04-12T08:42:52.166Z</time></trkpt><trkpt lat="43.8367417" lon="12.6938133"><ele>83.0</ele><time>2026-04-12T08:42:53.166Z</time></trkpt><trkpt lat="43.83682" lon="12.6940017"><ele>83.0</ele><time>2026-04-12T08:42:54.165Z</time></trkpt><trkpt lat="43.8369017" lon="12.6941933"><ele>83.0</ele><time>2026-04-12T08:42:55.164Z</time></trkpt><trkpt lat="43.836985" lon="12.6943967"><ele>82.0</ele><time>2026-04-12T08:42:56.166Z</time></trkpt><trkpt lat="43.83707" lon="12.694595"><ele>81.0</ele><time>2026-04-12T08:42:57.166Z</time></trkpt><trkpt lat="43.837155" lon="12.694805"><ele>80.0</ele><time>2026-04-12T08:42:58.164Z</time></trkpt><trkpt lat="43.83724" lon="12.695015"><ele>80.0</ele><time>2026-04-12T08:42:59.166Z</time></trkpt><trkpt lat="43.8373283" lon="12.695225"><ele>80.0</ele><time>2026-04-12T08:43:00.166Z</time></trkpt><trkpt lat="43.837415" lon="12.69543"><ele>80.0</ele><time>2026-04-12T08:43:01.165Z</time></trkpt><trkpt lat="43.8374983" lon="12.69564"><ele>80.0</ele><time>2026-04-12T08:43:02.166Z</time></trkpt><trkpt lat="43.8375917" lon="12.6958417"><ele>80.0</ele><time>2026-04-12T08:43:03.164Z</time></trkpt><trkpt lat="43.8376733" lon="12.6960517"><ele>80.0</ele><time>2026-04-12T08:43:04.165Z</time></trkpt><trkpt lat="43.8377533" lon="12.6962617"><ele>81.0</ele><time>2026-04-12T08:43:05.164Z</time></trkpt><trkpt lat="43.8378333" lon="12.6964717"><ele>82.0</ele><time>2026-04-12T08:43:06.166Z</time></trkpt><trkpt lat="43.8379133" lon="12.6966733"><ele>83.0</ele><time>2026-04-12T08:43:07.165Z</time></trkpt><trkpt lat="43.8379933" lon="12.6968667"><ele>82.66666666666667</ele><time>2026-04-12T08:43:08.165Z</time></trkpt><trkpt lat="43.8380717" lon="12.6970633"><ele>82.33333333333333</ele><time>2026-04-12T08:43:09.165Z</time></trkpt><trkpt lat="43.838155" lon="12.6972683"><ele>82.0</ele><time>2026-04-12T08:43:10.166Z</time></trkpt><trkpt lat="43.8382367" lon="12.6974717"><ele>82.0</ele><time>2026-04-12T08:43:11.164Z</time></trkpt><trkpt lat="43.83832" lon="12.6976733"><ele>82.0</ele><time>2026-04-12T08:43:12.166Z</time></trkpt><trkpt lat="43.8383967" lon="12.6978733"><ele>82.0</ele><time>2026-04-12T08:43:13.172Z</time></trkpt><trkpt lat="43.838475" lon="12.6980633"><ele>82.0</ele><time>2026-04-12T08:43:14.169Z</time></trkpt><trkpt lat="43.83855" lon="12.698245"><ele>82.0</ele><time>2026-04-12T08:43:15.306Z</time></trkpt><trkpt lat="43.838685" lon="12.698565"><ele>82.0</ele><time>2026-04-12T08:43:17.165Z</time></trkpt><trkpt lat="43.8387567" lon="12.69874"><ele>82.0</ele><time>2026-04-12T08:43:18.166Z</time></trkpt><trkpt lat="43.8388267" lon="12.698925"><ele>82.0</ele><time>2026-04-12T08:43:19.165Z</time></trkpt><trkpt lat="43.8388983" lon="12.6991083"><ele>82.0</ele><time>2026-04-12T08:43:20.166Z</time></trkpt><trkpt lat="43.8389733" lon="12.699295"><ele>81.33333333333333</ele><time>2026-04-12T08:43:21.166Z</time></trkpt><trkpt lat="43.8390483" lon="12.6994883"><ele>80.66666666666667</ele><time>2026-04-12T08:43:22.165Z</time></trkpt><trkpt lat="43.8391233" lon="12.699685"><ele>80.0</ele><time>2026-04-12T08:43:23.165Z</time></trkpt><trkpt lat="43.8391883" lon="12.6998867"><ele>80.0</ele><time>2026-04-12T08:43:24.165Z</time></trkpt><trkpt lat="43.8392417" lon="12.700095"><ele>80.0</ele><time>2026-04-12T08:43:25.167Z</time></trkpt><trkpt lat="43.839275" lon="12.700315"><ele>80.0</ele><time>2026-04-12T08:43:26.166Z</time></trkpt><trkpt lat="43.8392933" lon="12.7005383"><ele>80.33333333333334</ele><time>2026-04-12T08:43:27.166Z</time></trkpt><trkpt lat="43.8393083" lon="12.70076"><ele>80.66666666666667</ele><time>2026-04-12T08:43:28.167Z</time></trkpt><trkpt lat="43.8393183" lon="12.7009917"><ele>81.0</ele><time>2026-04-12T08:43:29.167Z</time></trkpt><trkpt lat="43.8393233" lon="12.7012283"><ele>81.0</ele><time>2026-04-12T08:43:30.166Z</time></trkpt><trkpt lat="43.8393167" lon="12.7014667"><ele>81.0</ele><time>2026-04-12T08:43:31.167Z</time></trkpt><trkpt lat="43.8393167" lon="12.7017017"><ele>81.0</ele><time>2026-04-12T08:43:32.166Z</time></trkpt><trkpt lat="43.8393117" lon="12.7019317"><ele>81.0</ele><time>2026-04-12T08:43:33.166Z</time></trkpt><trkpt lat="43.8393083" lon="12.7021583"><ele>81.0</ele><time>2026-04-12T08:43:34.166Z</time></trkpt><trkpt lat="43.8393" lon="12.7023883"><ele>81.0</ele><time>2026-04-12T08:43:35.166Z</time></trkpt><trkpt lat="43.8392967" lon="12.7026117"><ele>78.66666666666667</ele><time>2026-04-12T08:43:36.167Z</time></trkpt><trkpt lat="43.8392967" lon="12.7028383"><ele>76.33333333333334</ele><time>2026-04-12T08:43:37.169Z</time></trkpt><trkpt lat="43.8392933" lon="12.7030667"><ele>74.0</ele><time>2026-04-12T08:43:38.167Z</time></trkpt><trkpt lat="43.8392983" lon="12.7032833"><ele>74.33333333333334</ele><time>2026-04-12T08:43:39.167Z</time></trkpt><trkpt lat="43.8393183" lon="12.703495"><ele>74.66666666666667</ele><time>2026-04-12T08:43:40.166Z</time></trkpt><trkpt lat="43.8393533" lon="12.7036967"><ele>75.0</ele><time>2026-04-12T08:43:41.166Z</time></trkpt><trkpt lat="43.8394033" lon="12.7038917"><ele>75.0</ele><time>2026-04-12T08:43:42.167Z</time></trkpt><trkpt lat="43.8394767" lon="12.7040833"><ele>75.0</ele><time>2026-04-12T08:43:43.167Z</time></trkpt><trkpt lat="43.8395633" lon="12.70427"><ele>75.0</ele><time>2026-04-12T08:43:44.167Z</time></trkpt><trkpt lat="43.8396583" lon="12.704455"><ele>73.66666666666667</ele><time>2026-04-12T08:43:45.166Z</time></trkpt><trkpt lat="43.8397517" lon="12.7046317"><ele>72.33333333333334</ele><time>2026-04-12T08:43:46.165Z</time></trkpt><trkpt lat="43.8398467" lon="12.7047983"><ele>71.0</ele><time>2026-04-12T08:43:47.167Z</time></trkpt><trkpt lat="43.8399383" lon="12.7049767"><ele>71.0</ele><time>2026-04-12T08:43:48.167Z</time></trkpt><trkpt lat="43.8400283" lon="12.705155"><ele>71.0</ele><time>2026-04-12T08:43:49.167Z</time></trkpt><trkpt lat="43.8401183" lon="12.70533"><ele>71.0</ele><time>2026-04-12T08:43:50.175Z</time></trkpt><trkpt lat="43.84021" lon="12.7055133"><ele>70.66666666666667</ele><time>2026-04-12T08:43:51.165Z</time></trkpt><trkpt lat="43.8403017" lon="12.7057017"><ele>70.33333333333333</ele><time>2026-04-12T08:43:52.167Z</time></trkpt><trkpt lat="43.8403933" lon="12.705885"><ele>70.0</ele><time>2026-04-12T08:43:53.166Z</time></trkpt><trkpt lat="43.84048" lon="12.7060683"><ele>69.66666666666666</ele><time>2026-04-12T08:43:54.167Z</time></trkpt><trkpt lat="43.8405683" lon="12.7062533"><ele>69.33333333333333</ele><time>2026-04-12T08:43:55.167Z</time></trkpt><trkpt lat="43.840655" lon="12.7064417"><ele>69.0</ele><time>2026-04-12T08:43:56.166Z</time></trkpt><trkpt lat="43.8407433" lon="12.70662"><ele>69.0</ele><time>2026-04-12T08:43:57.165Z</time></trkpt><trkpt lat="43.840835" lon="12.706805"><ele>69.0</ele><time>2026-04-12T08:43:58.165Z</time></trkpt><trkpt lat="43.8409267" lon="12.7069933"><ele>69.0</ele><time>2026-04-12T08:43:59.167Z</time></trkpt><trkpt lat="43.841025" lon="12.7071833"><ele>68.33333333333333</ele><time>2026-04-12T08:44:00.167Z</time></trkpt><trkpt lat="43.8411183" lon="12.7073733"><ele>67.66666666666666</ele><time>2026-04-12T08:44:01.166Z</time></trkpt><trkpt lat="43.8412083" lon="12.7075633"><ele>67.0</ele><time>2026-04-12T08:44:02.166Z</time></trkpt><trkpt lat="43.8413" lon="12.707755"><ele>67.0</ele><time>2026-04-12T08:44:03.167Z</time></trkpt><trkpt lat="43.8413933" lon="12.70795"><ele>67.0</ele><time>2026-04-12T08:44:04.165Z</time></trkpt><trkpt lat="43.8414883" lon="12.708135"><ele>67.0</ele><time>2026-04-12T08:44:05.165Z</time></trkpt><trkpt lat="43.84158" lon="12.7083333"><ele>67.0</ele><time>2026-04-12T08:44:06.167Z</time></trkpt><trkpt lat="43.8416733" lon="12.7085217"><ele>67.0</ele><time>2026-04-12T08:44:07.166Z</time></trkpt><trkpt lat="43.8417683" lon="12.7087083"><ele>67.0</ele><time>2026-04-12T08:44:08.167Z</time></trkpt><trkpt lat="43.8419083" lon="12.7088667"><ele>66.0</ele><time>2026-04-12T08:44:09.166Z</time></trkpt><trkpt lat="43.8420617" lon="12.709"><ele>65.0</ele><time>2026-04-12T08:44:10.166Z</time></trkpt><trkpt lat="43.8422183" lon="12.7091217"><ele>64.0</ele><time>2026-04-12T08:44:11.166Z</time></trkpt><trkpt lat="43.8423783" lon="12.7092383"><ele>64.0</ele><time>2026-04-12T08:44:12.167Z</time></trkpt><trkpt lat="43.84254" lon="12.7093533"><ele>64.0</ele><time>2026-04-12T08:44:13.167Z</time></trkpt><trkpt lat="43.8426969" lon="12.7094621"><ele>64.0</ele><time>2026-04-12T08:44:14.166Z</time></trkpt><trkpt lat="43.8428507" lon="12.7095769"><ele>62.33333333333333</ele><time>2026-04-12T08:44:15.166Z</time></trkpt><trkpt lat="43.8430051" lon="12.709696"><ele>60.66666666666667</ele><time>2026-04-12T08:44:16.165Z</time></trkpt><trkpt lat="43.8431599" lon="12.7098171"><ele>59.0</ele><time>2026-04-12T08:44:17.164Z</time></trkpt><trkpt lat="43.8433146" lon="12.7099335"><ele>59.0</ele><time>2026-04-12T08:44:18.165Z</time></trkpt><trkpt lat="43.8434624" lon="12.7100587"><ele>59.0</ele><time>2026-04-12T08:44:19.165Z</time></trkpt><trkpt lat="43.8435969" lon="12.7102054"><ele>59.0</ele><time>2026-04-12T08:44:20.166Z</time></trkpt><trkpt lat="43.8437219" lon="12.7103713"><ele>58.66666666666667</ele><time>2026-04-12T08:44:21.164Z</time></trkpt><trkpt lat="43.8438367" lon="12.7105556"><ele>58.33333333333333</ele><time>2026-04-12T08:44:22.165Z</time></trkpt><trkpt lat="43.8439455" lon="12.7107501"><ele>58.0</ele><time>2026-04-12T08:44:23.169Z</time></trkpt><trkpt lat="43.8440548" lon="12.7109482"><ele>58.0</ele><time>2026-04-12T08:44:24.166Z</time></trkpt><trkpt lat="43.8441621" lon="12.7111422"><ele>58.0</ele><time>2026-04-12T08:44:25.165Z</time></trkpt><trkpt lat="43.8442664" lon="12.7113358"><ele>58.0</ele><time>2026-04-12T08:44:26.166Z</time></trkpt><trkpt lat="43.8443692" lon="12.7115306"><ele>57.666666666666664</ele><time>2026-04-12T08:44:27.165Z</time></trkpt><trkpt lat="43.8444724" lon="12.7117231"><ele>57.33333333333333</ele><time>2026-04-12T08:44:28.165Z</time></trkpt><trkpt lat="43.8445759" lon="12.7119131"><ele>57.0</ele><time>2026-04-12T08:44:29.164Z</time></trkpt><trkpt lat="43.8446805" lon="12.7120981"><ele>57.0</ele><time>2026-04-12T08:44:30.166Z</time></trkpt><trkpt lat="43.8447854" lon="12.712283"><ele>57.0</ele><time>2026-04-12T08:44:31.166Z</time></trkpt><trkpt lat="43.8448892" lon="12.7124725"><ele>57.0</ele><time>2026-04-12T08:44:32.166Z</time></trkpt><trkpt lat="43.8449914" lon="12.7126587"><ele>57.66666666666667</ele><time>2026-04-12T08:44:33.164Z</time></trkpt><trkpt lat="43.8450886" lon="12.7128406"><ele>58.333333333333336</ele><time>2026-04-12T08:44:34.166Z</time></trkpt><trkpt lat="43.8451899" lon="12.7130259"><ele>59.0</ele><time>2026-04-12T08:44:35.164Z</time></trkpt><trkpt lat="43.8452876" lon="12.7132113"><ele>58.66666666666667</ele><time>2026-04-12T08:44:36.166Z</time></trkpt><trkpt lat="43.8453914" lon="12.7133967"><ele>58.33333333333333</ele><time>2026-04-12T08:44:37.165Z</time></trkpt><trkpt lat="43.8454975" lon="12.7135871"><ele>58.0</ele><time>2026-04-12T08:44:38.166Z</time></trkpt><trkpt lat="43.8456019" lon="12.713776"><ele>58.0</ele><time>2026-04-12T08:44:39.165Z</time></trkpt><trkpt lat="43.8457099" lon="12.7139659"><ele>58.0</ele><time>2026-04-12T08:44:40.165Z</time></trkpt><trkpt lat="43.8458163" lon="12.7141558"><ele>58.0</ele><time>2026-04-12T08:44:41.164Z</time></trkpt><trkpt lat="43.8459195" lon="12.7143518"><ele>56.33333333333333</ele><time>2026-04-12T08:44:42.165Z</time></trkpt><trkpt lat="43.8460199" lon="12.7145499"><ele>54.66666666666667</ele><time>2026-04-12T08:44:43.164Z</time></trkpt><trkpt lat="43.8461238" lon="12.7147418"><ele>53.0</ele><time>2026-04-12T08:44:44.165Z</time></trkpt><trkpt lat="43.8462244" lon="12.7149214"><ele>53.0</ele><time>2026-04-12T08:44:45.164Z</time></trkpt><trkpt lat="43.8463275" lon="12.715093"><ele>53.0</ele><time>2026-04-12T08:44:46.165Z</time></trkpt><trkpt lat="43.8464273" lon="12.7152667"><ele>53.0</ele><time>2026-04-12T08:44:47.165Z</time></trkpt><trkpt lat="43.8465185" lon="12.715443"><ele>53.66666666666667</ele><time>2026-04-12T08:44:48.166Z</time></trkpt><trkpt lat="43.8465948" lon="12.7156281"><ele>54.33333333333333</ele><time>2026-04-12T08:44:49.164Z</time></trkpt><trkpt lat="43.8466719" lon="12.7158175"><ele>55.0</ele><time>2026-04-12T08:44:50.166Z</time></trkpt><trkpt lat="43.8467372" lon="12.7160164"><ele>54.666666666666664</ele><time>2026-04-12T08:44:51.166Z</time></trkpt><trkpt lat="43.8467901" lon="12.7162232"><ele>54.33333333333333</ele><time>2026-04-12T08:44:52.165Z</time></trkpt><trkpt lat="43.846835" lon="12.7164385"><ele>54.0</ele><time>2026-04-12T08:44:53.165Z</time></trkpt><trkpt lat="43.8468714" lon="12.716659"><ele>54.0</ele><time>2026-04-12T08:44:54.165Z</time></trkpt><trkpt lat="43.8469035" lon="12.7168799"><ele>54.0</ele><time>2026-04-12T08:44:55.169Z</time></trkpt><trkpt lat="43.8469351" lon="12.7171025"><ele>54.0</ele><time>2026-04-12T08:44:56.164Z</time></trkpt><trkpt lat="43.8469715" lon="12.7173177"><ele>54.0</ele><time>2026-04-12T08:44:57.164Z</time></trkpt><trkpt lat="43.8470103" lon="12.7175319"><ele>54.0</ele><time>2026-04-12T08:44:58.167Z</time></trkpt><trkpt lat="43.8470486" lon="12.7177466"><ele>54.0</ele><time>2026-04-12T08:44:59.165Z</time></trkpt><trkpt lat="43.8470855" lon="12.7179617"><ele>54.0</ele><time>2026-04-12T08:45:00.165Z</time></trkpt><trkpt lat="43.8471208" lon="12.718174"><ele>54.0</ele><time>2026-04-12T08:45:01.165Z</time></trkpt><trkpt lat="43.8471598" lon="12.7183879"><ele>54.0</ele><time>2026-04-12T08:45:02.165Z</time></trkpt><trkpt lat="43.8471935" lon="12.7185969"><ele>54.25</ele><time>2026-04-12T08:45:03.165Z</time></trkpt><trkpt lat="43.8472266" lon="12.7187939"><ele>54.5</ele><time>2026-04-12T08:45:04.165Z</time></trkpt><trkpt lat="43.8472583" lon="12.7189783"><ele>54.75</ele><time>2026-04-12T08:45:05.165Z</time></trkpt><trkpt lat="43.8472866" lon="12.7191521"><ele>55.0</ele><time>2026-04-12T08:45:06.164Z</time></trkpt><trkpt lat="43.8473105" lon="12.7193218"><ele>54.75</ele><time>2026-04-12T08:45:07.17Z</time></trkpt><trkpt lat="43.8473321" lon="12.7194823"><ele>54.5</ele><time>2026-04-12T08:45:08.165Z</time></trkpt><trkpt lat="43.8473412" lon="12.7196384"><ele>54.25</ele><time>2026-04-12T08:45:09.165Z</time></trkpt><trkpt lat="43.8473313" lon="12.7197925"><ele>54.0</ele><time>2026-04-12T08:45:10.167Z</time></trkpt><trkpt lat="43.8472985" lon="12.7199447"><ele>54.0</ele><time>2026-04-12T08:45:11.165Z</time></trkpt><trkpt lat="43.8472443" lon="12.7200877"><ele>54.0</ele><time>2026-04-12T08:45:12.166Z</time></trkpt><trkpt lat="43.8471706" lon="12.7202244"><ele>54.0</ele><time>2026-04-12T08:45:13.165Z</time></trkpt><trkpt lat="43.8470717" lon="12.7203418"><ele>54.0</ele><time>2026-04-12T08:45:14.165Z</time></trkpt><trkpt lat="43.8469492" lon="12.7204359"><ele>53.75</ele><time>2026-04-12T08:45:15.165Z</time></trkpt><trkpt lat="43.8468133" lon="12.7205056"><ele>53.5</ele><time>2026-04-12T08:45:16.165Z</time></trkpt><trkpt lat="43.8466692" lon="12.7205552"><ele>53.25</ele><time>2026-04-12T08:45:17.165Z</time></trkpt><trkpt lat="43.846523" lon="12.7205907"><ele>53.0</ele><time>2026-04-12T08:45:18.166Z</time></trkpt><trkpt lat="43.8463761" lon="12.7206171"><ele>53.0</ele><time>2026-04-12T08:45:19.166Z</time></trkpt><trkpt lat="43.8462273" lon="12.7206326"><ele>53.0</ele><time>2026-04-12T08:45:20.165Z</time></trkpt><trkpt lat="43.8460753" lon="12.7206258"><ele>53.0</ele><time>2026-04-12T08:45:21.165Z</time></trkpt><trkpt lat="43.845923" lon="12.7206063"><ele>55.66666666666667</ele><time>2026-04-12T08:45:22.165Z</time></trkpt><trkpt lat="43.8457721" lon="12.7205794"><ele>58.33333333333333</ele><time>2026-04-12T08:45:23.167Z</time></trkpt><trkpt lat="43.8456206" lon="12.7205473"><ele>61.0</ele><time>2026-04-12T08:45:24.165Z</time></trkpt><trkpt lat="43.84547" lon="12.7205119"><ele>61.0</ele><time>2026-04-12T08:45:25.165Z</time></trkpt><trkpt lat="43.8453238" lon="12.720476"><ele>61.0</ele><time>2026-04-12T08:45:26.167Z</time></trkpt><trkpt lat="43.8451801" lon="12.7204365"><ele>61.0</ele><time>2026-04-12T08:45:27.165Z</time></trkpt><trkpt lat="43.8450315" lon="12.720396"><ele>61.0</ele><time>2026-04-12T08:45:28.166Z</time></trkpt><trkpt lat="43.8448803" lon="12.7203505"><ele>61.0</ele><time>2026-04-12T08:45:29.164Z</time></trkpt><trkpt lat="43.8447257" lon="12.7203019"><ele>61.0</ele><time>2026-04-12T08:45:30.167Z</time></trkpt><trkpt lat="43.8445679" lon="12.7202476"><ele>61.0</ele><time>2026-04-12T08:45:31.165Z</time></trkpt><trkpt lat="43.844409" lon="12.7201934"><ele>61.33333333333333</ele><time>2026-04-12T08:45:32.165Z</time></trkpt><trkpt lat="43.8442502" lon="12.720142"><ele>61.66666666666667</ele><time>2026-04-12T08:45:33.164Z</time></trkpt><trkpt lat="43.844089" lon="12.7200875"><ele>62.0</ele><time>2026-04-12T08:45:34.165Z</time></trkpt><trkpt lat="43.8439248" lon="12.7200332"><ele>62.0</ele><time>2026-04-12T08:45:35.165Z</time></trkpt><trkpt lat="43.8437596" lon="12.7199839"><ele>62.0</ele><time>2026-04-12T08:45:36.165Z</time></trkpt><trkpt lat="43.8435956" lon="12.7199345"><ele>62.0</ele><time>2026-04-12T08:45:37.165Z</time></trkpt><trkpt lat="43.8434307" lon="12.7198831"><ele>61.333333333333336</ele><time>2026-04-12T08:45:38.166Z</time></trkpt><trkpt lat="43.8432645" lon="12.7198339"><ele>60.66666666666667</ele><time>2026-04-12T08:45:39.165Z</time></trkpt><trkpt lat="43.8430992" lon="12.7197826"><ele>60.0</ele><time>2026-04-12T08:45:40.165Z</time></trkpt><trkpt lat="43.8429365" lon="12.7197299"><ele>60.0</ele><time>2026-04-12T08:45:41.164Z</time></trkpt><trkpt lat="43.8427745" lon="12.7196814"><ele>60.0</ele><time>2026-04-12T08:45:42.166Z</time></trkpt><trkpt lat="43.8426118" lon="12.7196295"><ele>60.0</ele><time>2026-04-12T08:45:43.166Z</time></trkpt><trkpt lat="43.8424502" lon="12.7195761"><ele>61.0</ele><time>2026-04-12T08:45:44.164Z</time></trkpt><trkpt lat="43.8422913" lon="12.7195237"><ele>62.0</ele><time>2026-04-12T08:45:45.165Z</time></trkpt><trkpt lat="43.8421367" lon="12.7194641"><ele>63.0</ele><time>2026-04-12T08:45:46.165Z</time></trkpt><trkpt lat="43.8419819" lon="12.719404"><ele>63.66666666666667</ele><time>2026-04-12T08:45:47.165Z</time></trkpt><trkpt lat="43.8418247" lon="12.7193451"><ele>64.33333333333334</ele><time>2026-04-12T08:45:48.165Z</time></trkpt><trkpt lat="43.8416668" lon="12.7192832"><ele>65.0</ele><time>2026-04-12T08:45:49.165Z</time></trkpt><trkpt lat="43.8415086" lon="12.719212"><ele>65.33333333333334</ele><time>2026-04-12T08:45:50.165Z</time></trkpt><trkpt lat="43.8413516" lon="12.7191296"><ele>65.66666666666667</ele><time>2026-04-12T08:45:51.165Z</time></trkpt><trkpt lat="43.8411937" lon="12.7190381"><ele>66.0</ele><time>2026-04-12T08:45:52.163Z</time></trkpt><trkpt lat="43.8410354" lon="12.718946"><ele>66.33333333333333</ele><time>2026-04-12T08:45:53.164Z</time></trkpt><trkpt lat="43.8408782" lon="12.7188592"><ele>66.66666666666666</ele><time>2026-04-12T08:45:54.164Z</time></trkpt><trkpt lat="43.8407201" lon="12.7187713"><ele>67.0</ele><time>2026-04-12T08:45:55.164Z</time></trkpt><trkpt lat="43.8405616" lon="12.7186854"><ele>67.0</ele><time>2026-04-12T08:45:56.164Z</time></trkpt><trkpt lat="43.8404044" lon="12.7185966"><ele>67.0</ele><time>2026-04-12T08:45:57.164Z</time></trkpt><trkpt lat="43.8402456" lon="12.7185056"><ele>67.0</ele><time>2026-04-12T08:45:58.163Z</time></trkpt><trkpt lat="43.840087" lon="12.718416"><ele>67.0</ele><time>2026-04-12T08:45:59.164Z</time></trkpt><trkpt lat="43.8399297" lon="12.7183271"><ele>67.0</ele><time>2026-04-12T08:46:00.164Z</time></trkpt><trkpt lat="43.8397702" lon="12.7182382"><ele>67.0</ele><time>2026-04-12T08:46:01.165Z</time></trkpt><trkpt lat="43.8396112" lon="12.71815"><ele>67.0</ele><time>2026-04-12T08:46:02.165Z</time></trkpt><trkpt lat="43.8394502" lon="12.7180645"><ele>67.0</ele><time>2026-04-12T08:46:03.163Z</time></trkpt><trkpt lat="43.8392897" lon="12.7179795"><ele>67.0</ele><time>2026-04-12T08:46:04.165Z</time></trkpt><trkpt lat="43.8391294" lon="12.7178925"><ele>67.0</ele><time>2026-04-12T08:46:05.164Z</time></trkpt><trkpt lat="43.8389679" lon="12.7178073"><ele>67.0</ele><time>2026-04-12T08:46:06.165Z</time></trkpt><trkpt lat="43.8388074" lon="12.7177244"><ele>67.0</ele><time>2026-04-12T08:46:07.163Z</time></trkpt><trkpt lat="43.8386432" lon="12.7176549"><ele>67.33333333333333</ele><time>2026-04-12T08:46:08.164Z</time></trkpt><trkpt lat="43.838477" lon="12.7176096"><ele>67.66666666666667</ele><time>2026-04-12T08:46:09.164Z</time></trkpt><trkpt lat="43.8383063" lon="12.7175735"><ele>68.0</ele><time>2026-04-12T08:46:10.164Z</time></trkpt><trkpt lat="43.8381334" lon="12.7175404"><ele>68.0</ele><time>2026-04-12T08:46:11.165Z</time></trkpt><trkpt lat="43.8379597" lon="12.7175089"><ele>68.0</ele><time>2026-04-12T08:46:12.164Z</time></trkpt><trkpt lat="43.8377833" lon="12.717487"><ele>68.0</ele><time>2026-04-12T08:46:13.163Z</time></trkpt><trkpt lat="43.8376063" lon="12.71747"><ele>68.33333333333334</ele><time>2026-04-12T08:46:14.165Z</time></trkpt><trkpt lat="43.8374333" lon="12.7174548"><ele>68.66666666666667</ele><time>2026-04-12T08:46:15.164Z</time></trkpt><trkpt lat="43.8372603" lon="12.717446"><ele>69.0</ele><time>2026-04-12T08:46:16.164Z</time></trkpt><trkpt lat="43.8370945" lon="12.7174313"><ele>69.0</ele><time>2026-04-12T08:46:17.165Z</time></trkpt><trkpt lat="43.8369247" lon="12.7174141"><ele>69.0</ele><time>2026-04-12T08:46:18.164Z</time></trkpt><trkpt lat="43.836751" lon="12.7173965"><ele>69.0</ele><time>2026-04-12T08:46:19.165Z</time></trkpt><trkpt lat="43.8365804" lon="12.7173765"><ele>70.0</ele><time>2026-04-12T08:46:20.163Z</time></trkpt><trkpt lat="43.8364153" lon="12.7173506"><ele>71.0</ele><time>2026-04-12T08:46:21.163Z</time></trkpt><trkpt lat="43.8362532" lon="12.7173243"><ele>72.0</ele><time>2026-04-12T08:46:22.164Z</time></trkpt><trkpt lat="43.8360961" lon="12.7172963"><ele>72.5</ele><time>2026-04-12T08:46:23.163Z</time></trkpt><trkpt lat="43.835953" lon="12.7172717"><ele>73.0</ele><time>2026-04-12T08:46:24.166Z</time></trkpt><trkpt lat="43.8358186" lon="12.7172455"><ele>73.5</ele><time>2026-04-12T08:46:25.164Z</time></trkpt><trkpt lat="43.8356969" lon="12.7172189"><ele>74.0</ele><time>2026-04-12T08:46:26.163Z</time></trkpt><trkpt lat="43.8355949" lon="12.7171912"><ele>74.0</ele><time>2026-04-12T08:46:27.164Z</time></trkpt><trkpt lat="43.835505" lon="12.717172"><ele>74.0</ele><time>2026-04-12T08:46:28.164Z</time></trkpt><trkpt lat="43.8354251" lon="12.7171805"><ele>74.0</ele><time>2026-04-12T08:46:29.165Z</time></trkpt><trkpt lat="43.8353649" lon="12.7172125"><ele>74.0</ele><time>2026-04-12T08:46:30.164Z</time></trkpt><trkpt lat="43.8353204" lon="12.7173662"><ele>74.0</ele><time>2026-04-12T08:46:32.164Z</time></trkpt><trkpt lat="43.8353562" lon="12.7175037"><ele>74.0</ele><time>2026-04-12T08:46:33.164Z</time></trkpt><trkpt lat="43.8354083" lon="12.7176687"><ele>74.0</ele><time>2026-04-12T08:46:34.164Z</time></trkpt><trkpt lat="43.8354649" lon="12.7178465"><ele>74.0</ele><time>2026-04-12T08:46:35.164Z</time></trkpt><trkpt lat="43.8355076" lon="12.7180441"><ele>74.0</ele><time>2026-04-12T08:46:36.164Z</time></trkpt><trkpt lat="43.8355366" lon="12.7182478"><ele>74.66666666666667</ele><time>2026-04-12T08:46:37.164Z</time></trkpt><trkpt lat="43.8355549" lon="12.71846"><ele>75.33333333333333</ele><time>2026-04-12T08:46:38.164Z</time></trkpt><trkpt lat="43.8355709" lon="12.7186795"><ele>76.0</ele><time>2026-04-12T08:46:39.164Z</time></trkpt><trkpt lat="43.8355884" lon="12.7189147"><ele>76.0</ele><time>2026-04-12T08:46:40.164Z</time></trkpt><trkpt lat="43.8356076" lon="12.7191685"><ele>76.0</ele><time>2026-04-12T08:46:41.164Z</time></trkpt><trkpt lat="43.8356225" lon="12.7194373"><ele>76.0</ele><time>2026-04-12T08:46:42.163Z</time></trkpt><trkpt lat="43.8356411" lon="12.7197078"><ele>76.0</ele><time>2026-04-12T08:46:43.164Z</time></trkpt><trkpt lat="43.8356596" lon="12.719992"><ele>76.0</ele><time>2026-04-12T08:46:44.164Z</time></trkpt><trkpt lat="43.8356758" lon="12.7202716"><ele>76.0</ele><time>2026-04-12T08:46:45.164Z</time></trkpt><trkpt lat="43.8356952" lon="12.7205526"><ele>76.0</ele><time>2026-04-12T08:46:46.164Z</time></trkpt><trkpt lat="43.835714" lon="12.720831"><ele>76.0</ele><time>2026-04-12T08:46:47.164Z</time></trkpt><trkpt lat="43.8357326" lon="12.7211092"><ele>76.0</ele><time>2026-04-12T08:46:48.163Z</time></trkpt><trkpt lat="43.8357522" lon="12.7213862"><ele>76.0</ele><time>2026-04-12T08:46:49.164Z</time></trkpt><trkpt lat="43.8357708" lon="12.7216601"><ele>76.0</ele><time>2026-04-12T08:46:50.165Z</time></trkpt><trkpt lat="43.8357892" lon="12.7219344"><ele>76.0</ele><time>2026-04-12T08:46:51.163Z</time></trkpt><trkpt lat="43.8358076" lon="12.7222079"><ele>76.0</ele><time>2026-04-12T08:46:52.163Z</time></trkpt><trkpt lat="43.8358299" lon="12.7224799"><ele>76.0</ele><time>2026-04-12T08:46:53.163Z</time></trkpt><trkpt lat="43.8358529" lon="12.7227487"><ele>76.0</ele><time>2026-04-12T08:46:54.164Z</time></trkpt><trkpt lat="43.8358797" lon="12.723008"><ele>75.66666666666666</ele><time>2026-04-12T08:46:55.163Z</time></trkpt><trkpt lat="43.8359113" lon="12.7232506"><ele>75.33333333333333</ele><time>2026-04-12T08:46:56.165Z</time></trkpt><trkpt lat="43.8359525" lon="12.7234795"><ele>75.0</ele><time>2026-04-12T08:46:57.164Z</time></trkpt><trkpt lat="43.8359952" lon="12.7236935"><ele>74.0</ele><time>2026-04-12T08:46:58.163Z</time></trkpt><trkpt lat="43.8360599" lon="12.7238824"><ele>73.0</ele><time>2026-04-12T08:46:59.164Z</time></trkpt><trkpt lat="43.8361514" lon="12.7240418"><ele>72.0</ele><time>2026-04-12T08:47:00.163Z</time></trkpt><trkpt lat="43.8362742" lon="12.7241755"><ele>72.0</ele><time>2026-04-12T08:47:01.164Z</time></trkpt><trkpt lat="43.8364067" lon="12.7243046"><ele>72.0</ele><time>2026-04-12T08:47:02.164Z</time></trkpt><trkpt lat="43.8365399" lon="12.724432"><ele>72.0</ele><time>2026-04-12T08:47:03.165Z</time></trkpt><trkpt lat="43.8366653" lon="12.7245585"><ele>72.25</ele><time>2026-04-12T08:47:04.163Z</time></trkpt><trkpt lat="43.8367831" lon="12.724681"><ele>72.5</ele><time>2026-04-12T08:47:05.164Z</time></trkpt><trkpt lat="43.8368804" lon="12.7248083"><ele>72.75</ele><time>2026-04-12T08:47:06.164Z</time></trkpt><trkpt lat="43.8369579" lon="12.7249389"><ele>73.0</ele><time>2026-04-12T08:47:07.165Z</time></trkpt><trkpt lat="43.8370147" lon="12.7250704"><ele>72.33333333333333</ele><time>2026-04-12T08:47:08.164Z</time></trkpt><trkpt lat="43.8370529" lon="12.7251978"><ele>71.66666666666666</ele><time>2026-04-12T08:47:09.165Z</time></trkpt><trkpt lat="43.8370634" lon="12.7253192"><ele>71.0</ele><time>2026-04-12T08:47:10.163Z</time></trkpt><trkpt lat="43.8370492" lon="12.7254373"><ele>70.33333333333333</ele><time>2026-04-12T08:47:11.166Z</time></trkpt><trkpt lat="43.8370247" lon="12.7255418"><ele>69.66666666666667</ele><time>2026-04-12T08:47:12.165Z</time></trkpt><trkpt lat="43.8370062" lon="12.7256388"><ele>69.0</ele><time>2026-04-12T08:47:13.168Z</time></trkpt><trkpt lat="43.8370066" lon="12.7257294"><ele>69.0</ele><time>2026-04-12T08:47:14.165Z</time></trkpt><trkpt lat="43.8370455" lon="12.725812"><ele>69.0</ele><time>2026-04-12T08:47:15.164Z</time></trkpt><trkpt lat="43.8370992" lon="12.725898"><ele>69.0</ele><time>2026-04-12T08:47:16.163Z</time></trkpt><trkpt lat="43.8371413" lon="12.726006"><ele>69.0</ele><time>2026-04-12T08:47:17.164Z</time></trkpt><trkpt lat="43.8371608" lon="12.7261378"><ele>69.0</ele><time>2026-04-12T08:47:18.164Z</time></trkpt><trkpt lat="43.8371612" lon="12.7262836"><ele>69.0</ele><time>2026-04-12T08:47:19.165Z</time></trkpt><trkpt lat="43.8371467" lon="12.7264367"><ele>69.25</ele><time>2026-04-12T08:47:20.17Z</time></trkpt><trkpt lat="43.8371287" lon="12.7265857"><ele>69.5</ele><time>2026-04-12T08:47:21.17Z</time></trkpt><trkpt lat="43.8371135" lon="12.7267392"><ele>69.75</ele><time>2026-04-12T08:47:22.164Z</time></trkpt><trkpt lat="43.8370985" lon="12.7269013"><ele>70.0</ele><time>2026-04-12T08:47:23.164Z</time></trkpt><trkpt lat="43.8370824" lon="12.7270711"><ele>70.25</ele><time>2026-04-12T08:47:24.165Z</time></trkpt><trkpt lat="43.8370668" lon="12.7272435"><ele>70.5</ele><time>2026-04-12T08:47:25.164Z</time></trkpt><trkpt lat="43.8370524" lon="12.7274129"><ele>70.75</ele><time>2026-04-12T08:47:26.165Z</time></trkpt><trkpt lat="43.8370403" lon="12.7275842"><ele>71.0</ele><time>2026-04-12T08:47:27.164Z</time></trkpt><trkpt lat="43.837022" lon="12.7277612"><ele>71.5</ele><time>2026-04-12T08:47:28.162Z</time></trkpt><trkpt lat="43.8370034" lon="12.7279459"><ele>72.0</ele><time>2026-04-12T08:47:29.164Z</time></trkpt><trkpt lat="43.8369843" lon="12.7281381"><ele>72.5</ele><time>2026-04-12T08:47:30.164Z</time></trkpt><trkpt lat="43.8369634" lon="12.7283365"><ele>73.0</ele><time>2026-04-12T08:47:31.163Z</time></trkpt><trkpt lat="43.8369418" lon="12.7285404"><ele>73.25</ele><time>2026-04-12T08:47:32.164Z</time></trkpt><trkpt lat="43.8369239" lon="12.7287463"><ele>73.5</ele><time>2026-04-12T08:47:33.164Z</time></trkpt><trkpt lat="43.8369161" lon="12.7289546"><ele>73.75</ele><time>2026-04-12T08:47:34.164Z</time></trkpt><trkpt lat="43.836927" lon="12.7291593"><ele>74.0</ele><time>2026-04-12T08:47:35.169Z</time></trkpt><trkpt lat="43.8369618" lon="12.7293578"><ele>74.0</ele><time>2026-04-12T08:47:36.167Z</time></trkpt><trkpt lat="43.8370084" lon="12.7295511"><ele>74.0</ele><time>2026-04-12T08:47:37.167Z</time></trkpt><trkpt lat="43.8370678" lon="12.72974"><ele>74.0</ele><time>2026-04-12T08:47:38.166Z</time></trkpt><trkpt lat="43.8371342" lon="12.7299364"><ele>74.5</ele><time>2026-04-12T08:47:39.274Z</time></trkpt><trkpt lat="43.8372604" lon="12.7303275"><ele>75.0</ele><time>2026-04-12T08:47:41.164Z</time></trkpt><trkpt lat="43.837321" lon="12.7305336"><ele>75.0</ele><time>2026-04-12T08:47:42.163Z</time></trkpt><trkpt lat="43.8373846" lon="12.7307397"><ele>75.0</ele><time>2026-04-12T08:47:43.163Z</time></trkpt><trkpt lat="43.8374453" lon="12.7309478"><ele>75.0</ele><time>2026-04-12T08:47:44.163Z</time></trkpt><trkpt lat="43.8375083" lon="12.7311604"><ele>74.66666666666667</ele><time>2026-04-12T08:47:45.17Z</time></trkpt><trkpt lat="43.8375759" lon="12.7313745"><ele>74.33333333333334</ele><time>2026-04-12T08:47:46.162Z</time></trkpt><trkpt lat="43.8376459" lon="12.7315917"><ele>74.0</ele><time>2026-04-12T08:47:47.17Z</time></trkpt><trkpt lat="43.8377146" lon="12.7318102"><ele>72.33333333333334</ele><time>2026-04-12T08:47:48.169Z</time></trkpt><trkpt lat="43.837779" lon="12.7320314"><ele>70.66666666666667</ele><time>2026-04-12T08:47:49.163Z</time></trkpt><trkpt lat="43.8378384" lon="12.7322543"><ele>69.0</ele><time>2026-04-12T08:47:50.166Z</time></trkpt><trkpt lat="43.8378904" lon="12.7324818"><ele>69.0</ele><time>2026-04-12T08:47:51.164Z</time></trkpt><trkpt lat="43.8379469" lon="12.7327091"><ele>69.0</ele><time>2026-04-12T08:47:52.164Z</time></trkpt><trkpt lat="43.8380041" lon="12.7329375"><ele>69.0</ele><time>2026-04-12T08:47:53.164Z</time></trkpt><trkpt lat="43.8380593" lon="12.7331701"><ele>69.0</ele><time>2026-04-12T08:47:54.165Z</time></trkpt><trkpt lat="43.8381169" lon="12.7334021"><ele>69.0</ele><time>2026-04-12T08:47:55.163Z</time></trkpt><trkpt lat="43.8381768" lon="12.7336357"><ele>69.0</ele><time>2026-04-12T08:47:56.163Z</time></trkpt><trkpt lat="43.8382394" lon="12.7338697"><ele>69.0</ele><time>2026-04-12T08:47:57.165Z</time></trkpt><trkpt lat="43.8383002" lon="12.7341044"><ele>69.0</ele><time>2026-04-12T08:47:58.164Z</time></trkpt><trkpt lat="43.8383616" lon="12.7343398"><ele>69.0</ele><time>2026-04-12T08:47:59.163Z</time></trkpt><trkpt lat="43.8384218" lon="12.7345763"><ele>69.0</ele><time>2026-04-12T08:48:00.164Z</time></trkpt><trkpt lat="43.8384832" lon="12.7348105"><ele>69.0</ele><time>2026-04-12T08:48:01.164Z</time></trkpt><trkpt lat="43.8385424" lon="12.7350431"><ele>69.0</ele><time>2026-04-12T08:48:02.164Z</time></trkpt><trkpt lat="43.8385992" lon="12.7352776"><ele>68.66666666666667</ele><time>2026-04-12T08:48:03.163Z</time></trkpt><trkpt lat="43.83865" lon="12.7355141"><ele>68.33333333333334</ele><time>2026-04-12T08:48:04.163Z</time></trkpt><trkpt lat="43.8386916" lon="12.7357571"><ele>68.0</ele><time>2026-04-12T08:48:05.164Z</time></trkpt><trkpt lat="43.8387294" lon="12.736002"><ele>67.66666666666667</ele><time>2026-04-12T08:48:06.164Z</time></trkpt><trkpt lat="43.8387687" lon="12.7362508"><ele>67.33333333333333</ele><time>2026-04-12T08:48:07.163Z</time></trkpt><trkpt lat="43.8387937" lon="12.7364997"><ele>67.0</ele><time>2026-04-12T08:48:08.164Z</time></trkpt><trkpt lat="43.8388113" lon="12.7367488"><ele>66.66666666666666</ele><time>2026-04-12T08:48:09.164Z</time></trkpt><trkpt lat="43.8388252" lon="12.7370017"><ele>66.33333333333333</ele><time>2026-04-12T08:48:10.163Z</time></trkpt><trkpt lat="43.8388344" lon="12.7372584"><ele>66.0</ele><time>2026-04-12T08:48:11.163Z</time></trkpt><trkpt lat="43.8388478" lon="12.7375182"><ele>65.66666666666667</ele><time>2026-04-12T08:48:12.163Z</time></trkpt><trkpt lat="43.8388615" lon="12.7377751"><ele>65.33333333333334</ele><time>2026-04-12T08:48:13.164Z</time></trkpt><trkpt lat="43.8388645" lon="12.7380321"><ele>65.0</ele><time>2026-04-12T08:48:14.164Z</time></trkpt><trkpt lat="43.838865" lon="12.7382875"><ele>65.0</ele><time>2026-04-12T08:48:15.164Z</time></trkpt><trkpt lat="43.83887" lon="12.7385414"><ele>65.0</ele><time>2026-04-12T08:48:16.164Z</time></trkpt><trkpt lat="43.8388739" lon="12.7387971"><ele>65.0</ele><time>2026-04-12T08:48:17.163Z</time></trkpt><trkpt lat="43.838877" lon="12.7390522"><ele>65.33333333333334</ele><time>2026-04-12T08:48:18.165Z</time></trkpt><trkpt lat="43.8388821" lon="12.7393043"><ele>65.66666666666667</ele><time>2026-04-12T08:48:19.164Z</time></trkpt><trkpt lat="43.8388842" lon="12.739556"><ele>66.0</ele><time>2026-04-12T08:48:20.164Z</time></trkpt><trkpt lat="43.8388863" lon="12.7398075"><ele>66.33333333333333</ele><time>2026-04-12T08:48:21.163Z</time></trkpt><trkpt lat="43.8388884" lon="12.7400576"><ele>66.66666666666666</ele><time>2026-04-12T08:48:22.163Z</time></trkpt><trkpt lat="43.8388918" lon="12.7403062"><ele>67.0</ele><time>2026-04-12T08:48:23.162Z</time></trkpt><trkpt lat="43.8389017" lon="12.7405545"><ele>67.0</ele><time>2026-04-12T08:48:24.164Z</time></trkpt><trkpt lat="43.8389144" lon="12.7408011"><ele>67.0</ele><time>2026-04-12T08:48:25.162Z</time></trkpt><trkpt lat="43.838924" lon="12.7410477"><ele>67.0</ele><time>2026-04-12T08:48:26.163Z</time></trkpt><trkpt lat="43.8389299" lon="12.7412941"><ele>66.33333333333333</ele><time>2026-04-12T08:48:27.164Z</time></trkpt><trkpt lat="43.838936" lon="12.7415382"><ele>65.66666666666667</ele><time>2026-04-12T08:48:28.163Z</time></trkpt><trkpt lat="43.8389408" lon="12.7417842"><ele>65.0</ele><time>2026-04-12T08:48:29.164Z</time></trkpt><trkpt lat="43.8389442" lon="12.742029"><ele>65.0</ele><time>2026-04-12T08:48:30.164Z</time></trkpt><trkpt lat="43.8389443" lon="12.7422713"><ele>65.0</ele><time>2026-04-12T08:48:31.162Z</time></trkpt><trkpt lat="43.8389369" lon="12.7425101"><ele>65.0</ele><time>2026-04-12T08:48:32.164Z</time></trkpt><trkpt lat="43.8389183" lon="12.7427472"><ele>65.33333333333334</ele><time>2026-04-12T08:48:33.163Z</time></trkpt><trkpt lat="43.838877" lon="12.742974"><ele>65.66666666666667</ele><time>2026-04-12T08:48:34.164Z</time></trkpt><trkpt lat="43.8388193" lon="12.7431904"><ele>66.0</ele><time>2026-04-12T08:48:35.163Z</time></trkpt><trkpt lat="43.8387531" lon="12.743402"><ele>66.0</ele><time>2026-04-12T08:48:36.164Z</time></trkpt><trkpt lat="43.8386802" lon="12.7436058"><ele>66.0</ele><time>2026-04-12T08:48:37.162Z</time></trkpt><trkpt lat="43.8385974" lon="12.7437982"><ele>66.0</ele><time>2026-04-12T08:48:38.164Z</time></trkpt><trkpt lat="43.8385103" lon="12.7439845"><ele>65.66666666666667</ele><time>2026-04-12T08:48:39.164Z</time></trkpt><trkpt lat="43.838419" lon="12.744165"><ele>65.33333333333334</ele><time>2026-04-12T08:48:40.164Z</time></trkpt><trkpt lat="43.838329" lon="12.7443392"><ele>65.0</ele><time>2026-04-12T08:48:41.163Z</time></trkpt><trkpt lat="43.8382467" lon="12.7445058"><ele>65.0</ele><time>2026-04-12T08:48:42.165Z</time></trkpt><trkpt lat="43.8381691" lon="12.7446618"><ele>65.0</ele><time>2026-04-12T08:48:43.164Z</time></trkpt><trkpt lat="43.8380954" lon="12.7448072"><ele>65.0</ele><time>2026-04-12T08:48:44.181Z</time></trkpt><trkpt lat="43.838031" lon="12.7449451"><ele>65.0</ele><time>2026-04-12T08:48:45.17Z</time></trkpt><trkpt lat="43.8379706" lon="12.7450781"><ele>65.0</ele><time>2026-04-12T08:48:46.164Z</time></trkpt><trkpt lat="43.8379135" lon="12.7452029"><ele>65.0</ele><time>2026-04-12T08:48:47.164Z</time></trkpt><trkpt lat="43.8378574" lon="12.7453137"><ele>65.0</ele><time>2026-04-12T08:48:48.163Z</time></trkpt><trkpt lat="43.8378012" lon="12.7454086"><ele>65.0</ele><time>2026-04-12T08:48:49.166Z</time></trkpt><trkpt lat="43.8377452" lon="12.7454875"><ele>65.0</ele><time>2026-04-12T08:48:50.164Z</time></trkpt><trkpt lat="43.8376801" lon="12.7455515"><ele>65.2</ele><time>2026-04-12T08:48:51.169Z</time></trkpt><trkpt lat="43.837602" lon="12.7456052"><ele>65.4</ele><time>2026-04-12T08:48:52.164Z</time></trkpt><trkpt lat="43.8375213" lon="12.7456651"><ele>65.6</ele><time>2026-04-12T08:48:53.164Z</time></trkpt><trkpt lat="43.8374399" lon="12.7457378"><ele>65.8</ele><time>2026-04-12T08:48:54.164Z</time></trkpt><trkpt lat="43.8373534" lon="12.7458205"><ele>66.0</ele><time>2026-04-12T08:48:55.164Z</time></trkpt><trkpt lat="43.8372603" lon="12.745901"><ele>66.0</ele><time>2026-04-12T08:48:56.164Z</time></trkpt><trkpt lat="43.8371581" lon="12.7459535"><ele>66.0</ele><time>2026-04-12T08:48:57.163Z</time></trkpt><trkpt lat="43.8370546" lon="12.7459855"><ele>66.0</ele><time>2026-04-12T08:48:58.164Z</time></trkpt><trkpt lat="43.8369479" lon="12.7460095"><ele>66.0</ele><time>2026-04-12T08:48:59.164Z</time></trkpt><trkpt lat="43.8368365" lon="12.7460245"><ele>66.0</ele><time>2026-04-12T08:49:00.163Z</time></trkpt><trkpt lat="43.8367217" lon="12.7460384"><ele>66.5</ele><time>2026-04-12T08:49:01.164Z</time></trkpt><trkpt lat="43.8366045" lon="12.7460597"><ele>67.0</ele><time>2026-04-12T08:49:02.163Z</time></trkpt><trkpt lat="43.8364844" lon="12.7460742"><ele>67.5</ele><time>2026-04-12T08:49:03.163Z</time></trkpt><trkpt lat="43.8363564" lon="12.7460929"><ele>68.0</ele><time>2026-04-12T08:49:04.165Z</time></trkpt><trkpt lat="43.8362265" lon="12.7461161"><ele>68.0</ele><time>2026-04-12T08:49:05.163Z</time></trkpt><trkpt lat="43.8360968" lon="12.7461443"><ele>68.0</ele><time>2026-04-12T08:49:06.164Z</time></trkpt><trkpt lat="43.8359623" lon="12.7461739"><ele>68.0</ele><time>2026-04-12T08:49:07.163Z</time></trkpt><trkpt lat="43.8358206" lon="12.7461919"><ele>68.0</ele><time>2026-04-12T08:49:08.163Z</time></trkpt><trkpt lat="43.83568" lon="12.74621"><ele>68.5</ele><time>2026-04-12T08:49:09.163Z</time></trkpt><trkpt lat="43.8355472" lon="12.7462264"><ele>69.0</ele><time>2026-04-12T08:49:10.164Z</time></trkpt><trkpt lat="43.8354211" lon="12.7462438"><ele>69.5</ele><time>2026-04-12T08:49:11.162Z</time></trkpt><trkpt lat="43.8353063" lon="12.7462466"><ele>70.0</ele><time>2026-04-12T08:49:12.163Z</time></trkpt><trkpt lat="43.8352034" lon="12.7462377"><ele>69.83333333333333</ele><time>2026-04-12T08:49:13.164Z</time></trkpt><trkpt lat="43.8351176" lon="12.7462173"><ele>69.66666666666666</ele><time>2026-04-12T08:49:14.164Z</time></trkpt><trkpt lat="43.8350425" lon="12.7461985"><ele>69.5</ele><time>2026-04-12T08:49:15.164Z</time></trkpt><trkpt lat="43.8349735" lon="12.7461784"><ele>69.33333333333333</ele><time>2026-04-12T08:49:16.163Z</time></trkpt><trkpt lat="43.8348589" lon="12.7461396"><ele>69.16666666666667</ele><time>2026-04-12T08:49:18.162Z</time></trkpt><trkpt lat="43.8347883" lon="12.74611"><ele>69.0</ele><time>2026-04-12T08:49:19.162Z</time></trkpt><trkpt lat="43.8346817" lon="12.7460767"><ele>69.0</ele><time>2026-04-12T08:49:20.164Z</time></trkpt><trkpt lat="43.834545" lon="12.7460517"><ele>69.0</ele><time>2026-04-12T08:49:21.162Z</time></trkpt><trkpt lat="43.8344283" lon="12.7460067"><ele>69.0</ele><time>2026-04-12T08:49:22.163Z</time></trkpt><trkpt lat="43.834325" lon="12.74599"><ele>69.0</ele><time>2026-04-12T08:49:23.164Z</time></trkpt><trkpt lat="43.83423" lon="12.7459617"><ele>69.5</ele><time>2026-04-12T08:49:24.164Z</time></trkpt><trkpt lat="43.83413" lon="12.7459417"><ele>70.0</ele><time>2026-04-12T08:49:25.163Z</time></trkpt><trkpt lat="43.8340083" lon="12.7459117"><ele>70.5</ele><time>2026-04-12T08:49:26.164Z</time></trkpt><trkpt lat="43.8338483" lon="12.74588"><ele>71.0</ele><time>2026-04-12T08:49:27.165Z</time></trkpt><trkpt lat="43.833665" lon="12.7458583"><ele>70.66666666666667</ele><time>2026-04-12T08:49:28.163Z</time></trkpt><trkpt lat="43.8334683" lon="12.7458383"><ele>70.33333333333333</ele><time>2026-04-12T08:49:29.163Z</time></trkpt><trkpt lat="43.8332683" lon="12.745835"><ele>70.0</ele><time>2026-04-12T08:49:30.163Z</time></trkpt><trkpt lat="43.8330817" lon="12.7458433"><ele>70.0</ele><time>2026-04-12T08:49:31.162Z</time></trkpt><trkpt lat="43.8328883" lon="12.7458333"><ele>70.0</ele><time>2026-04-12T08:49:32.165Z</time></trkpt><trkpt lat="43.8327" lon="12.7458067"><ele>70.0</ele><time>2026-04-12T08:49:33.165Z</time></trkpt><trkpt lat="43.83252" lon="12.74576"><ele>70.33333333333333</ele><time>2026-04-12T08:49:34.163Z</time></trkpt><trkpt lat="43.8323433" lon="12.745705"><ele>70.66666666666667</ele><time>2026-04-12T08:49:35.164Z</time></trkpt><trkpt lat="43.8321717" lon="12.7456617"><ele>71.0</ele><time>2026-04-12T08:49:36.165Z</time></trkpt><trkpt lat="43.8320167" lon="12.7456183"><ele>71.0</ele><time>2026-04-12T08:49:37.163Z</time></trkpt><trkpt lat="43.8318733" lon="12.74558"><ele>71.0</ele><time>2026-04-12T08:49:38.164Z</time></trkpt><trkpt lat="43.831745" lon="12.745555"><ele>71.0</ele><time>2026-04-12T08:49:39.164Z</time></trkpt><trkpt lat="43.8316283" lon="12.7455283"><ele>71.0</ele><time>2026-04-12T08:49:40.164Z</time></trkpt><trkpt lat="43.8315267" lon="12.7454983"><ele>71.16666666666667</ele><time>2026-04-12T08:49:41.163Z</time></trkpt><trkpt lat="43.83143" lon="12.7454783"><ele>71.33333333333334</ele><time>2026-04-12T08:49:42.164Z</time></trkpt><trkpt lat="43.831345" lon="12.745455"><ele>71.5</ele><time>2026-04-12T08:49:43.163Z</time></trkpt><trkpt lat="43.8312717" lon="12.74542"><ele>71.66666666666667</ele><time>2026-04-12T08:49:44.163Z</time></trkpt><trkpt lat="43.8311983" lon="12.7453917"><ele>71.83333333333333</ele><time>2026-04-12T08:49:45.163Z</time></trkpt><trkpt lat="43.8311217" lon="12.7453417"><ele>72.0</ele><time>2026-04-12T08:49:46.163Z</time></trkpt><trkpt lat="43.8310317" lon="12.7453267"><ele>72.5</ele><time>2026-04-12T08:49:47.162Z</time></trkpt><trkpt lat="43.8309383" lon="12.7453617"><ele>73.0</ele><time>2026-04-12T08:49:48.164Z</time></trkpt><trkpt lat="43.830835" lon="12.745435"><ele>73.5</ele><time>2026-04-12T08:49:49.163Z</time></trkpt><trkpt lat="43.8307183" lon="12.7454767"><ele>74.0</ele><time>2026-04-12T08:49:50.165Z</time></trkpt><trkpt lat="43.8305783" lon="12.7454867"><ele>74.0</ele><time>2026-04-12T08:49:51.162Z</time></trkpt><trkpt lat="43.8304267" lon="12.74546"><ele>74.0</ele><time>2026-04-12T08:49:52.163Z</time></trkpt><trkpt lat="43.8302567" lon="12.7454317"><ele>74.0</ele><time>2026-04-12T08:49:53.163Z</time></trkpt><trkpt lat="43.8300617" lon="12.745415"><ele>74.0</ele><time>2026-04-12T08:49:54.163Z</time></trkpt><trkpt lat="43.8298517" lon="12.7454117"><ele>74.0</ele><time>2026-04-12T08:49:55.162Z</time></trkpt><trkpt lat="43.8296283" lon="12.7454033"><ele>74.0</ele><time>2026-04-12T08:49:56.163Z</time></trkpt><trkpt lat="43.8294167" lon="12.7453883"><ele>73.66666666666667</ele><time>2026-04-12T08:49:57.163Z</time></trkpt><trkpt lat="43.8292167" lon="12.74536"><ele>73.33333333333333</ele><time>2026-04-12T08:49:58.163Z</time></trkpt><trkpt lat="43.829025" lon="12.745315"><ele>73.0</ele><time>2026-04-12T08:49:59.163Z</time></trkpt><trkpt lat="43.8288367" lon="12.74525"><ele>73.66666666666666</ele><time>2026-04-12T08:50:00.163Z</time></trkpt><trkpt lat="43.8286517" lon="12.7451633"><ele>74.33333333333333</ele><time>2026-04-12T08:50:01.163Z</time></trkpt><trkpt lat="43.828475" lon="12.74506"><ele>75.0</ele><time>2026-04-12T08:50:02.163Z</time></trkpt><trkpt lat="43.8283167" lon="12.74493"><ele>75.0</ele><time>2026-04-12T08:50:03.163Z</time></trkpt><trkpt lat="43.8281667" lon="12.7447817"><ele>75.0</ele><time>2026-04-12T08:50:04.163Z</time></trkpt><trkpt lat="43.828025" lon="12.744625"><ele>75.0</ele><time>2026-04-12T08:50:05.163Z</time></trkpt><trkpt lat="43.82789" lon="12.7444533"><ele>75.33333333333333</ele><time>2026-04-12T08:50:06.163Z</time></trkpt><trkpt lat="43.8277617" lon="12.74427"><ele>75.66666666666666</ele><time>2026-04-12T08:50:07.163Z</time></trkpt><trkpt lat="43.8276433" lon="12.744075"><ele>76.0</ele><time>2026-04-12T08:50:08.164Z</time></trkpt><trkpt lat="43.82753" lon="12.7438817"><ele>76.0</ele><time>2026-04-12T08:50:09.163Z</time></trkpt><trkpt lat="43.8274233" lon="12.7436917"><ele>76.0</ele><time>2026-04-12T08:50:10.163Z</time></trkpt><trkpt lat="43.827315" lon="12.74349"><ele>76.0</ele><time>2026-04-12T08:50:11.164Z</time></trkpt><trkpt lat="43.827215" lon="12.743285"><ele>76.0</ele><time>2026-04-12T08:50:12.164Z</time></trkpt><trkpt lat="43.8271283" lon="12.74307"><ele>76.0</ele><time>2026-04-12T08:50:13.163Z</time></trkpt><trkpt lat="43.8270583" lon="12.742845"><ele>76.0</ele><time>2026-04-12T08:50:14.163Z</time></trkpt><trkpt lat="43.8269933" lon="12.7426133"><ele>76.0</ele><time>2026-04-12T08:50:15.163Z</time></trkpt><trkpt lat="43.82693" lon="12.7423817"><ele>76.0</ele><time>2026-04-12T08:50:16.162Z</time></trkpt><trkpt lat="43.826865" lon="12.7421567"><ele>76.0</ele><time>2026-04-12T08:50:17.163Z</time></trkpt><trkpt lat="43.8268033" lon="12.741925"><ele>76.33333333333333</ele><time>2026-04-12T08:50:18.163Z</time></trkpt><trkpt lat="43.8267433" lon="12.7416983"><ele>76.66666666666667</ele><time>2026-04-12T08:50:19.163Z</time></trkpt><trkpt lat="43.8266817" lon="12.7414683"><ele>77.0</ele><time>2026-04-12T08:50:20.163Z</time></trkpt><trkpt lat="43.826615" lon="12.7412467"><ele>77.33333333333334</ele><time>2026-04-12T08:50:21.163Z</time></trkpt><trkpt lat="43.8265383" lon="12.741025"><ele>77.66666666666667</ele><time>2026-04-12T08:50:22.162Z</time></trkpt><trkpt lat="43.826455" lon="12.7408183"><ele>78.0</ele><time>2026-04-12T08:50:23.163Z</time></trkpt><trkpt lat="43.826365" lon="12.7406383"><ele>78.0</ele><time>2026-04-12T08:50:24.163Z</time></trkpt><trkpt lat="43.82627" lon="12.74048"><ele>78.0</ele><time>2026-04-12T08:50:25.164Z</time></trkpt><trkpt lat="43.8261733" lon="12.7403317"><ele>78.0</ele><time>2026-04-12T08:50:26.165Z</time></trkpt><trkpt lat="43.826075" lon="12.7402067"><ele>78.0</ele><time>2026-04-12T08:50:27.163Z</time></trkpt><trkpt lat="43.8259818" lon="12.7400903"><ele>78.5</ele><time>2026-04-12T08:50:28.164Z</time></trkpt><trkpt lat="43.8258928" lon="12.7399843"><ele>79.0</ele><time>2026-04-12T08:50:29.165Z</time></trkpt><trkpt lat="43.8258096" lon="12.7398823"><ele>79.5</ele><time>2026-04-12T08:50:30.167Z</time></trkpt><trkpt lat="43.8257294" lon="12.7397763"><ele>80.0</ele><time>2026-04-12T08:50:31.164Z</time></trkpt><trkpt lat="43.8256384" lon="12.7396621"><ele>80.0</ele><time>2026-04-12T08:50:32.164Z</time></trkpt><trkpt lat="43.8255334" lon="12.7395289"><ele>80.0</ele><time>2026-04-12T08:50:33.164Z</time></trkpt><trkpt lat="43.8254193" lon="12.7393956"><ele>80.0</ele><time>2026-04-12T08:50:34.164Z</time></trkpt><trkpt lat="43.8253042" lon="12.7392531"><ele>80.0</ele><time>2026-04-12T08:50:35.164Z</time></trkpt><trkpt lat="43.8251887" lon="12.7391077"><ele>80.0</ele><time>2026-04-12T08:50:36.165Z</time></trkpt><trkpt lat="43.8250748" lon="12.7389563"><ele>80.0</ele><time>2026-04-12T08:50:37.163Z</time></trkpt><trkpt lat="43.824956" lon="12.7387981"><ele>80.0</ele><time>2026-04-12T08:50:38.166Z</time></trkpt><trkpt lat="43.8248385" lon="12.7386275"><ele>80.66666666666667</ele><time>2026-04-12T08:50:39.163Z</time></trkpt><trkpt lat="43.8247167" lon="12.738468"><ele>81.33333333333333</ele><time>2026-04-12T08:50:40.165Z</time></trkpt><trkpt lat="43.8245939" lon="12.738301"><ele>82.0</ele><time>2026-04-12T08:50:41.162Z</time></trkpt><trkpt lat="43.8244628" lon="12.7381346"><ele>82.0</ele><time>2026-04-12T08:50:42.164Z</time></trkpt><trkpt lat="43.8243246" lon="12.7379707"><ele>82.0</ele><time>2026-04-12T08:50:43.164Z</time></trkpt><trkpt lat="43.8241778" lon="12.7378222"><ele>82.0</ele><time>2026-04-12T08:50:44.164Z</time></trkpt><trkpt lat="43.8240337" lon="12.7376756"><ele>82.0</ele><time>2026-04-12T08:50:45.163Z</time></trkpt><trkpt lat="43.8238903" lon="12.7375378"><ele>82.0</ele><time>2026-04-12T08:50:46.163Z</time></trkpt><trkpt lat="43.8237439" lon="12.7374117"><ele>82.0</ele><time>2026-04-12T08:50:47.164Z</time></trkpt><trkpt lat="43.8236013" lon="12.7372768"><ele>82.0</ele><time>2026-04-12T08:50:48.162Z</time></trkpt><trkpt lat="43.8234605" lon="12.7371372"><ele>82.0</ele><time>2026-04-12T08:50:49.163Z</time></trkpt><trkpt lat="43.8233146" lon="12.737005"><ele>82.0</ele><time>2026-04-12T08:50:50.164Z</time></trkpt><trkpt lat="43.8231732" lon="12.7368783"><ele>82.0</ele><time>2026-04-12T08:50:51.162Z</time></trkpt><trkpt lat="43.8230305" lon="12.7367554"><ele>82.0</ele><time>2026-04-12T08:50:52.169Z</time></trkpt><trkpt lat="43.8228881" lon="12.7366253"><ele>82.0</ele><time>2026-04-12T08:50:53.163Z</time></trkpt><trkpt lat="43.822746" lon="12.7364924"><ele>81.66666666666666</ele><time>2026-04-12T08:50:54.163Z</time></trkpt><trkpt lat="43.8226004" lon="12.736365"><ele>81.33333333333333</ele><time>2026-04-12T08:50:55.166Z</time></trkpt><trkpt lat="43.8224554" lon="12.7362345"><ele>81.0</ele><time>2026-04-12T08:50:56.165Z</time></trkpt><trkpt lat="43.822309" lon="12.7361055"><ele>82.33333333333333</ele><time>2026-04-12T08:50:57.17Z</time></trkpt><trkpt lat="43.8221667" lon="12.7359769"><ele>83.66666666666666</ele><time>2026-04-12T08:50:58.163Z</time></trkpt><trkpt lat="43.8220257" lon="12.7358444"><ele>85.0</ele><time>2026-04-12T08:50:59.165Z</time></trkpt><trkpt lat="43.8218866" lon="12.7357018"><ele>84.0</ele><time>2026-04-12T08:51:00.164Z</time></trkpt><trkpt lat="43.8217471" lon="12.735552"><ele>83.0</ele><time>2026-04-12T08:51:01.165Z</time></trkpt><trkpt lat="43.8216143" lon="12.735394"><ele>82.0</ele><time>2026-04-12T08:51:02.164Z</time></trkpt><trkpt lat="43.8214834" lon="12.7352238"><ele>83.33333333333333</ele><time>2026-04-12T08:51:03.164Z</time></trkpt><trkpt lat="43.8213551" lon="12.7350426"><ele>84.66666666666667</ele><time>2026-04-12T08:51:04.163Z</time></trkpt><trkpt lat="43.8212325" lon="12.7348592"><ele>86.0</ele><time>2026-04-12T08:51:05.164Z</time></trkpt><trkpt lat="43.8211112" lon="12.7346732"><ele>86.0</ele><time>2026-04-12T08:51:06.164Z</time></trkpt><trkpt lat="43.8209884" lon="12.7344836"><ele>86.0</ele><time>2026-04-12T08:51:07.164Z</time></trkpt><trkpt lat="43.8208618" lon="12.7342966"><ele>86.0</ele><time>2026-04-12T08:51:08.164Z</time></trkpt><trkpt lat="43.8207292" lon="12.7341161"><ele>85.33333333333334</ele><time>2026-04-12T08:51:09.164Z</time></trkpt><trkpt lat="43.8205904" lon="12.733951"><ele>84.66666666666667</ele><time>2026-04-12T08:51:10.164Z</time></trkpt><trkpt lat="43.8204464" lon="12.733796"><ele>84.0</ele><time>2026-04-12T08:51:11.163Z</time></trkpt><trkpt lat="43.8203027" lon="12.7336431"><ele>85.0</ele><time>2026-04-12T08:51:12.164Z</time></trkpt><trkpt lat="43.8201577" lon="12.7334865"><ele>86.0</ele><time>2026-04-12T08:51:13.169Z</time></trkpt><trkpt lat="43.8200129" lon="12.7333358"><ele>87.0</ele><time>2026-04-12T08:51:14.164Z</time></trkpt><trkpt lat="43.81987" lon="12.7331812"><ele>87.0</ele><time>2026-04-12T08:51:15.162Z</time></trkpt><trkpt lat="43.8197267" lon="12.7330337"><ele>87.0</ele><time>2026-04-12T08:51:16.163Z</time></trkpt><trkpt lat="43.8195821" lon="12.7328866"><ele>87.0</ele><time>2026-04-12T08:51:17.162Z</time></trkpt><trkpt lat="43.8194373" lon="12.7327372"><ele>87.66666666666667</ele><time>2026-04-12T08:51:18.162Z</time></trkpt><trkpt lat="43.8192948" lon="12.7325895"><ele>88.33333333333334</ele><time>2026-04-12T08:51:19.164Z</time></trkpt><trkpt lat="43.8191556" lon="12.7324445"><ele>89.0</ele><time>2026-04-12T08:51:20.163Z</time></trkpt><trkpt lat="43.8190196" lon="12.7323025"><ele>89.0</ele><time>2026-04-12T08:51:21.164Z</time></trkpt><trkpt lat="43.8188819" lon="12.7321686"><ele>89.0</ele><time>2026-04-12T08:51:22.164Z</time></trkpt><trkpt lat="43.8187434" lon="12.732038"><ele>89.0</ele><time>2026-04-12T08:51:23.163Z</time></trkpt><trkpt lat="43.8185997" lon="12.7319208"><ele>90.0</ele><time>2026-04-12T08:51:24.163Z</time></trkpt><trkpt lat="43.8184493" lon="12.7318179"><ele>91.0</ele><time>2026-04-12T08:51:25.163Z</time></trkpt><trkpt lat="43.8182969" lon="12.7317285"><ele>92.0</ele><time>2026-04-12T08:51:26.165Z</time></trkpt><trkpt lat="43.8181344" lon="12.7316502"><ele>92.0</ele><time>2026-04-12T08:51:27.162Z</time></trkpt><trkpt lat="43.8179744" lon="12.7315708"><ele>92.0</ele><time>2026-04-12T08:51:28.164Z</time></trkpt><trkpt lat="43.817814" lon="12.7314888"><ele>92.0</ele><time>2026-04-12T08:51:29.164Z</time></trkpt><trkpt lat="43.8176535" lon="12.7314021"><ele>92.0</ele><time>2026-04-12T08:51:30.165Z</time></trkpt><trkpt lat="43.8174936" lon="12.7313116"><ele>92.0</ele><time>2026-04-12T08:51:31.163Z</time></trkpt><trkpt lat="43.8173336" lon="12.731215"><ele>92.0</ele><time>2026-04-12T08:51:32.165Z</time></trkpt><trkpt lat="43.8171747" lon="12.7311222"><ele>92.33333333333334</ele><time>2026-04-12T08:51:33.164Z</time></trkpt><trkpt lat="43.817015" lon="12.7310328"><ele>92.66666666666667</ele><time>2026-04-12T08:51:34.164Z</time></trkpt><trkpt lat="43.816855" lon="12.7309383"><ele>93.0</ele><time>2026-04-12T08:51:35.164Z</time></trkpt><trkpt lat="43.816695" lon="12.730845"><ele>93.0</ele><time>2026-04-12T08:51:36.163Z</time></trkpt><trkpt lat="43.816535" lon="12.7307483"><ele>93.0</ele><time>2026-04-12T08:51:37.162Z</time></trkpt><trkpt lat="43.8163783" lon="12.730645"><ele>93.0</ele><time>2026-04-12T08:51:38.162Z</time></trkpt><trkpt lat="43.81622" lon="12.7305317"><ele>93.0</ele><time>2026-04-12T08:51:39.163Z</time></trkpt><trkpt lat="43.81607" lon="12.7304167"><ele>93.0</ele><time>2026-04-12T08:51:40.163Z</time></trkpt><trkpt lat="43.8159183" lon="12.7302967"><ele>93.0</ele><time>2026-04-12T08:51:41.163Z</time></trkpt><trkpt lat="43.8157667" lon="12.7301717"><ele>93.0</ele><time>2026-04-12T08:51:42.163Z</time></trkpt><trkpt lat="43.815615" lon="12.7300517"><ele>93.0</ele><time>2026-04-12T08:51:43.163Z</time></trkpt><trkpt lat="43.8154633" lon="12.7299367"><ele>93.0</ele><time>2026-04-12T08:51:44.162Z</time></trkpt><trkpt lat="43.8153083" lon="12.72982"><ele>92.0</ele><time>2026-04-12T08:51:45.162Z</time></trkpt><trkpt lat="43.8151483" lon="12.729695"><ele>91.0</ele><time>2026-04-12T08:51:46.162Z</time></trkpt><trkpt lat="43.814995" lon="12.7295683"><ele>90.0</ele><time>2026-04-12T08:51:47.162Z</time></trkpt><trkpt lat="43.8148383" lon="12.72944"><ele>91.33333333333333</ele><time>2026-04-12T08:51:48.161Z</time></trkpt><trkpt lat="43.8146817" lon="12.729315"><ele>92.66666666666666</ele><time>2026-04-12T08:51:49.161Z</time></trkpt><trkpt lat="43.8145217" lon="12.7291983"><ele>94.0</ele><time>2026-04-12T08:51:50.161Z</time></trkpt><trkpt lat="43.81437" lon="12.72908"><ele>94.66666666666666</ele><time>2026-04-12T08:51:51.162Z</time></trkpt><trkpt lat="43.81422" lon="12.7289633"><ele>95.33333333333333</ele><time>2026-04-12T08:51:52.162Z</time></trkpt><trkpt lat="43.8140717" lon="12.7288483"><ele>96.0</ele><time>2026-04-12T08:51:53.161Z</time></trkpt><trkpt lat="43.8139233" lon="12.72874"><ele>96.0</ele><time>2026-04-12T08:51:54.162Z</time></trkpt><trkpt lat="43.813775" lon="12.7286217"><ele>96.0</ele><time>2026-04-12T08:51:55.162Z</time></trkpt><trkpt lat="43.8136267" lon="12.728505"><ele>96.0</ele><time>2026-04-12T08:51:56.162Z</time></trkpt><trkpt lat="43.81348" lon="12.728385"><ele>97.0</ele><time>2026-04-12T08:51:57.162Z</time></trkpt><trkpt lat="43.8133367" lon="12.7282667"><ele>98.0</ele><time>2026-04-12T08:51:58.162Z</time></trkpt><trkpt lat="43.8131917" lon="12.7281567"><ele>99.0</ele><time>2026-04-12T08:51:59.162Z</time></trkpt><trkpt lat="43.8130417" lon="12.7280467"><ele>99.0</ele><time>2026-04-12T08:52:00.161Z</time></trkpt><trkpt lat="43.8128883" lon="12.7279467"><ele>99.0</ele><time>2026-04-12T08:52:01.162Z</time></trkpt><trkpt lat="43.8127283" lon="12.72787"><ele>99.0</ele><time>2026-04-12T08:52:02.162Z</time></trkpt><trkpt lat="43.8125633" lon="12.72781"><ele>98.33333333333334</ele><time>2026-04-12T08:52:03.162Z</time></trkpt><trkpt lat="43.8123967" lon="12.7277667"><ele>97.66666666666667</ele><time>2026-04-12T08:52:04.162Z</time></trkpt><trkpt lat="43.8122283" lon="12.7277267"><ele>97.0</ele><time>2026-04-12T08:52:05.161Z</time></trkpt><trkpt lat="43.8120617" lon="12.7276833"><ele>98.33333333333334</ele><time>2026-04-12T08:52:06.162Z</time></trkpt><trkpt lat="43.8118917" lon="12.7276283"><ele>99.66666666666666</ele><time>2026-04-12T08:52:07.162Z</time></trkpt><trkpt lat="43.8117233" lon="12.7275733"><ele>101.0</ele><time>2026-04-12T08:52:08.162Z</time></trkpt><trkpt lat="43.8115517" lon="12.7275233"><ele>101.0</ele><time>2026-04-12T08:52:09.162Z</time></trkpt><trkpt lat="43.8113783" lon="12.72745"><ele>101.0</ele><time>2026-04-12T08:52:10.162Z</time></trkpt><trkpt lat="43.81121" lon="12.7273683"><ele>101.0</ele><time>2026-04-12T08:52:11.162Z</time></trkpt><trkpt lat="43.8110433" lon="12.727275"><ele>98.66666666666666</ele><time>2026-04-12T08:52:12.161Z</time></trkpt><trkpt lat="43.8108767" lon="12.7271783"><ele>96.33333333333333</ele><time>2026-04-12T08:52:13.162Z</time></trkpt><trkpt lat="43.8107083" lon="12.7270817"><ele>94.0</ele><time>2026-04-12T08:52:14.161Z</time></trkpt><trkpt lat="43.810535" lon="12.7269833"><ele>94.0</ele><time>2026-04-12T08:52:15.161Z</time></trkpt><trkpt lat="43.8103583" lon="12.726925"><ele>94.0</ele><time>2026-04-12T08:52:16.162Z</time></trkpt><trkpt lat="43.8101767" lon="12.726875"><ele>94.0</ele><time>2026-04-12T08:52:17.163Z</time></trkpt><trkpt lat="43.8099983" lon="12.7268383"><ele>96.66666666666666</ele><time>2026-04-12T08:52:18.161Z</time></trkpt><trkpt lat="43.8098117" lon="12.726825"><ele>99.33333333333333</ele><time>2026-04-12T08:52:19.161Z</time></trkpt><trkpt lat="43.8096283" lon="12.7268067"><ele>102.0</ele><time>2026-04-12T08:52:20.162Z</time></trkpt><trkpt lat="43.8094467" lon="12.7267867"><ele>100.0</ele><time>2026-04-12T08:52:21.162Z</time></trkpt><trkpt lat="43.80927" lon="12.7267533"><ele>98.0</ele><time>2026-04-12T08:52:22.161Z</time></trkpt><trkpt lat="43.809095" lon="12.7267067"><ele>96.0</ele><time>2026-04-12T08:52:23.162Z</time></trkpt><trkpt lat="43.8089233" lon="12.7266517"><ele>96.0</ele><time>2026-04-12T08:52:24.162Z</time></trkpt><trkpt lat="43.8087533" lon="12.7265967"><ele>96.0</ele><time>2026-04-12T08:52:25.161Z</time></trkpt><trkpt lat="43.8085867" lon="12.7265417"><ele>96.0</ele><time>2026-04-12T08:52:26.162Z</time></trkpt><trkpt lat="43.8084217" lon="12.7264867"><ele>95.0</ele><time>2026-04-12T08:52:27.162Z</time></trkpt><trkpt lat="43.8082583" lon="12.7264367"><ele>94.0</ele><time>2026-04-12T08:52:28.162Z</time></trkpt><trkpt lat="43.8080983" lon="12.726385"><ele>93.0</ele><time>2026-04-12T08:52:29.162Z</time></trkpt><trkpt lat="43.8079383" lon="12.7263333"><ele>93.0</ele><time>2026-04-12T08:52:30.162Z</time></trkpt><trkpt lat="43.80778" lon="12.726285"><ele>93.0</ele><time>2026-04-12T08:52:31.161Z</time></trkpt><trkpt lat="43.8074667" lon="12.726195"><ele>94.33333333333334</ele><time>2026-04-12T08:52:33.163Z</time></trkpt><trkpt lat="43.80731" lon="12.7261433"><ele>95.66666666666667</ele><time>2026-04-12T08:52:34.16Z</time></trkpt><trkpt lat="43.8071583" lon="12.7260683"><ele>97.0</ele><time>2026-04-12T08:52:35.161Z</time></trkpt><trkpt lat="43.8070033" lon="12.7259983"><ele>96.66666666666667</ele><time>2026-04-12T08:52:36.163Z</time></trkpt><trkpt lat="43.8068433" lon="12.7259117"><ele>96.33333333333334</ele><time>2026-04-12T08:52:37.161Z</time></trkpt><trkpt lat="43.8066833" lon="12.7258233"><ele>96.0</ele><time>2026-04-12T08:52:38.161Z</time></trkpt><trkpt lat="43.8065233" lon="12.72573"><ele>96.0</ele><time>2026-04-12T08:52:39.162Z</time></trkpt><trkpt lat="43.8063633" lon="12.7256317"><ele>96.0</ele><time>2026-04-12T08:52:40.163Z</time></trkpt><trkpt lat="43.8062033" lon="12.7255383"><ele>96.0</ele><time>2026-04-12T08:52:41.161Z</time></trkpt><trkpt lat="43.8060467" lon="12.7254367"><ele>97.0</ele><time>2026-04-12T08:52:42.163Z</time></trkpt><trkpt lat="43.80589" lon="12.725335"><ele>98.0</ele><time>2026-04-12T08:52:43.162Z</time></trkpt><trkpt lat="43.8057417" lon="12.725225"><ele>99.0</ele><time>2026-04-12T08:52:44.163Z</time></trkpt><trkpt lat="43.80559" lon="12.7251083"><ele>99.0</ele><time>2026-04-12T08:52:45.162Z</time></trkpt><trkpt lat="43.8054383" lon="12.7249867"><ele>99.0</ele><time>2026-04-12T08:52:46.164Z</time></trkpt><trkpt lat="43.8052883" lon="12.7248633"><ele>99.0</ele><time>2026-04-12T08:52:47.162Z</time></trkpt><trkpt lat="43.80514" lon="12.724745"><ele>96.33333333333333</ele><time>2026-04-12T08:52:48.163Z</time></trkpt><trkpt lat="43.8049867" lon="12.72464"><ele>93.66666666666666</ele><time>2026-04-12T08:52:49.162Z</time></trkpt><trkpt lat="43.8048317" lon="12.7245417"><ele>91.0</ele><time>2026-04-12T08:52:50.162Z</time></trkpt><trkpt lat="43.8046783" lon="12.7244483"><ele>92.66666666666666</ele><time>2026-04-12T08:52:51.161Z</time></trkpt><trkpt lat="43.80453" lon="12.7243567"><ele>94.33333333333333</ele><time>2026-04-12T08:52:52.162Z</time></trkpt><trkpt lat="43.8043883" lon="12.7242633"><ele>96.0</ele><time>2026-04-12T08:52:53.161Z</time></trkpt><trkpt lat="43.80425" lon="12.7241717"><ele>96.0</ele><time>2026-04-12T08:52:54.162Z</time></trkpt><trkpt lat="43.8041183" lon="12.72408"><ele>96.0</ele><time>2026-04-12T08:52:55.161Z</time></trkpt><trkpt lat="43.8039983" lon="12.7239767"><ele>96.0</ele><time>2026-04-12T08:52:56.162Z</time></trkpt><trkpt lat="43.80388" lon="12.7238783"><ele>96.0</ele><time>2026-04-12T08:52:57.162Z</time></trkpt><trkpt lat="43.803765" lon="12.72377"><ele>96.0</ele><time>2026-04-12T08:52:58.161Z</time></trkpt><trkpt lat="43.803645" lon="12.7236567"><ele>96.0</ele><time>2026-04-12T08:52:59.162Z</time></trkpt><trkpt lat="43.803525" lon="12.7235417"><ele>96.0</ele><time>2026-04-12T08:53:00.162Z</time></trkpt><trkpt lat="43.8034" lon="12.723425"><ele>96.0</ele><time>2026-04-12T08:53:01.164Z</time></trkpt><trkpt lat="43.8032683" lon="12.7233167"><ele>96.66666666666666</ele><time>2026-04-12T08:53:02.17Z</time></trkpt><trkpt lat="43.8031367" lon="12.7232"><ele>97.33333333333333</ele><time>2026-04-12T08:53:03.163Z</time></trkpt><trkpt lat="43.8030017" lon="12.723095"><ele>98.0</ele><time>2026-04-12T08:53:04.168Z</time></trkpt><trkpt lat="43.8028617" lon="12.7229917"><ele>98.0</ele><time>2026-04-12T08:53:05.166Z</time></trkpt><trkpt lat="43.8027167" lon="12.7228983"><ele>98.0</ele><time>2026-04-12T08:53:06.162Z</time></trkpt><trkpt lat="43.8025733" lon="12.722815"><ele>98.0</ele><time>2026-04-12T08:53:07.162Z</time></trkpt><trkpt lat="43.8024217" lon="12.7227383"><ele>95.33333333333333</ele><time>2026-04-12T08:53:08.166Z</time></trkpt><trkpt lat="43.8022717" lon="12.7226733"><ele>92.66666666666666</ele><time>2026-04-12T08:53:09.162Z</time></trkpt><trkpt lat="43.8021217" lon="12.7226183"><ele>90.0</ele><time>2026-04-12T08:53:10.162Z</time></trkpt><trkpt lat="43.8019733" lon="12.7225567"><ele>90.33333333333333</ele><time>2026-04-12T08:53:11.162Z</time></trkpt><trkpt lat="43.8018167" lon="12.722525"><ele>90.66666666666666</ele><time>2026-04-12T08:53:12.163Z</time></trkpt><trkpt lat="43.801655" lon="12.7225117"><ele>91.0</ele><time>2026-04-12T08:53:13.161Z</time></trkpt><trkpt lat="43.8014983" lon="12.7224983"><ele>91.0</ele><time>2026-04-12T08:53:14.162Z</time></trkpt><trkpt lat="43.8013467" lon="12.722495"><ele>91.0</ele><time>2026-04-12T08:53:15.162Z</time></trkpt><trkpt lat="43.8012033" lon="12.7225017"><ele>91.0</ele><time>2026-04-12T08:53:16.16Z</time></trkpt><trkpt lat="43.8010567" lon="12.72252"><ele>91.0</ele><time>2026-04-12T08:53:17.165Z</time></trkpt><trkpt lat="43.8009117" lon="12.7225483"><ele>93.0</ele><time>2026-04-12T08:53:18.163Z</time></trkpt><trkpt lat="43.8007667" lon="12.72258"><ele>95.0</ele><time>2026-04-12T08:53:19.163Z</time></trkpt><trkpt lat="43.8006217" lon="12.722615"><ele>97.0</ele><time>2026-04-12T08:53:20.163Z</time></trkpt><trkpt lat="43.8004767" lon="12.7226517"><ele>99.0</ele><time>2026-04-12T08:53:21.164Z</time></trkpt><trkpt lat="43.8003267" lon="12.722695"><ele>98.0</ele><time>2026-04-12T08:53:22.163Z</time></trkpt><trkpt lat="43.8001783" lon="12.7227367"><ele>97.0</ele><time>2026-04-12T08:53:23.165Z</time></trkpt><trkpt lat="43.8000267" lon="12.7227817"><ele>96.0</ele><time>2026-04-12T08:53:24.285Z</time></trkpt><trkpt lat="43.799725" lon="12.7228667"><ele>96.0</ele><time>2026-04-12T08:53:26.164Z</time></trkpt><trkpt lat="43.79957" lon="12.7229017"><ele>96.0</ele><time>2026-04-12T08:53:27.162Z</time></trkpt><trkpt lat="43.7994117" lon="12.722925"><ele>96.0</ele><time>2026-04-12T08:53:28.165Z</time></trkpt><trkpt lat="43.7992517" lon="12.7229233"><ele>95.66666666666667</ele><time>2026-04-12T08:53:29.163Z</time></trkpt><trkpt lat="43.7990883" lon="12.722915"><ele>95.33333333333334</ele><time>2026-04-12T08:53:30.166Z</time></trkpt><trkpt lat="43.7989283" lon="12.7229033"><ele>95.0</ele><time>2026-04-12T08:53:31.164Z</time></trkpt><trkpt lat="43.7987683" lon="12.72289"><ele>95.0</ele><time>2026-04-12T08:53:32.162Z</time></trkpt><trkpt lat="43.798605" lon="12.7228633"><ele>95.0</ele><time>2026-04-12T08:53:33.168Z</time></trkpt><trkpt lat="43.7984467" lon="12.7228417"><ele>95.0</ele><time>2026-04-12T08:53:34.163Z</time></trkpt><trkpt lat="43.7982867" lon="12.7228117"><ele>95.66666666666667</ele><time>2026-04-12T08:53:35.163Z</time></trkpt><trkpt lat="43.798125" lon="12.722805"><ele>96.33333333333334</ele><time>2026-04-12T08:53:36.162Z</time></trkpt><trkpt lat="43.7979633" lon="12.7227817"><ele>97.0</ele><time>2026-04-12T08:53:37.163Z</time></trkpt><trkpt lat="43.797805" lon="12.7227583"><ele>97.33333333333334</ele><time>2026-04-12T08:53:38.162Z</time></trkpt><trkpt lat="43.7976433" lon="12.72274"><ele>97.66666666666666</ele><time>2026-04-12T08:53:39.161Z</time></trkpt><trkpt lat="43.7974867" lon="12.72272"><ele>98.0</ele><time>2026-04-12T08:53:40.162Z</time></trkpt><trkpt lat="43.7973383" lon="12.7226967"><ele>99.75</ele><time>2026-04-12T08:53:41.162Z</time></trkpt><trkpt lat="43.7972017" lon="12.722675"><ele>101.5</ele><time>2026-04-12T08:53:42.162Z</time></trkpt><trkpt lat="43.797075" lon="12.7226583"><ele>103.25</ele><time>2026-04-12T08:53:43.162Z</time></trkpt><trkpt lat="43.7969567" lon="12.7226467"><ele>105.0</ele><time>2026-04-12T08:53:44.162Z</time></trkpt><trkpt lat="43.796845" lon="12.7226317"><ele>105.2</ele><time>2026-04-12T08:53:45.162Z</time></trkpt><trkpt lat="43.7967433" lon="12.7226017"><ele>105.4</ele><time>2026-04-12T08:53:46.16Z</time></trkpt><trkpt lat="43.79666" lon="12.7225417"><ele>105.6</ele><time>2026-04-12T08:53:47.161Z</time></trkpt><trkpt lat="43.7965967" lon="12.72246"><ele>105.8</ele><time>2026-04-12T08:53:48.162Z</time></trkpt><trkpt lat="43.7965367" lon="12.722365"><ele>106.0</ele><time>2026-04-12T08:53:49.161Z</time></trkpt><trkpt lat="43.7964683" lon="12.7222667"><ele>106.0</ele><time>2026-04-12T08:53:50.161Z</time></trkpt><trkpt lat="43.7963883" lon="12.722165"><ele>106.0</ele><time>2026-04-12T08:53:51.161Z</time></trkpt><trkpt lat="43.79631" lon="12.7220533"><ele>106.0</ele><time>2026-04-12T08:53:52.161Z</time></trkpt><trkpt lat="43.7962264" lon="12.7219354"><ele>106.0</ele><time>2026-04-12T08:53:53.163Z</time></trkpt><trkpt lat="43.7961423" lon="12.7218105"><ele>106.75</ele><time>2026-04-12T08:53:54.163Z</time></trkpt><trkpt lat="43.7960529" lon="12.7216811"><ele>107.5</ele><time>2026-04-12T08:53:55.162Z</time></trkpt><trkpt lat="43.7959592" lon="12.7215539"><ele>108.25</ele><time>2026-04-12T08:53:56.162Z</time></trkpt><trkpt lat="43.7958575" lon="12.7214243"><ele>109.0</ele><time>2026-04-12T08:53:57.162Z</time></trkpt><trkpt lat="43.7957542" lon="12.7213113"><ele>109.0</ele><time>2026-04-12T08:53:58.161Z</time></trkpt><trkpt lat="43.7956503" lon="12.7212037"><ele>109.0</ele><time>2026-04-12T08:53:59.161Z</time></trkpt><trkpt lat="43.7955389" lon="12.7210898"><ele>109.0</ele><time>2026-04-12T08:54:00.162Z</time></trkpt><trkpt lat="43.7954236" lon="12.7209728"><ele>109.0</ele><time>2026-04-12T08:54:01.163Z</time></trkpt><trkpt lat="43.7953101" lon="12.7208541"><ele>109.0</ele><time>2026-04-12T08:54:02.162Z</time></trkpt><trkpt lat="43.7951951" lon="12.7207399"><ele>109.0</ele><time>2026-04-12T08:54:03.167Z</time></trkpt><trkpt lat="43.7950814" lon="12.7206273"><ele>109.0</ele><time>2026-04-12T08:54:04.165Z</time></trkpt><trkpt lat="43.7949657" lon="12.7205094"><ele>109.0</ele><time>2026-04-12T08:54:05.162Z</time></trkpt><trkpt lat="43.7948507" lon="12.7203901"><ele>109.25</ele><time>2026-04-12T08:54:06.162Z</time></trkpt><trkpt lat="43.7947413" lon="12.7202656"><ele>109.5</ele><time>2026-04-12T08:54:07.161Z</time></trkpt><trkpt lat="43.7946371" lon="12.7201394"><ele>109.75</ele><time>2026-04-12T08:54:08.162Z</time></trkpt><trkpt lat="43.7945362" lon="12.7200139"><ele>110.0</ele><time>2026-04-12T08:54:09.162Z</time></trkpt><trkpt lat="43.7944433" lon="12.719879"><ele>110.0</ele><time>2026-04-12T08:54:10.161Z</time></trkpt><trkpt lat="43.7943563" lon="12.7197403"><ele>110.0</ele><time>2026-04-12T08:54:11.16Z</time></trkpt><trkpt lat="43.7942667" lon="12.719608"><ele>110.0</ele><time>2026-04-12T08:54:12.161Z</time></trkpt><trkpt lat="43.7941794" lon="12.719476"><ele>110.0</ele><time>2026-04-12T08:54:13.161Z</time></trkpt><trkpt lat="43.7940945" lon="12.7193392"><ele>111.25</ele><time>2026-04-12T08:54:14.162Z</time></trkpt><trkpt lat="43.7940109" lon="12.7192072"><ele>112.5</ele><time>2026-04-12T08:54:15.163Z</time></trkpt><trkpt lat="43.7939198" lon="12.7190854"><ele>113.75</ele><time>2026-04-12T08:54:16.166Z</time></trkpt><trkpt lat="43.7938267" lon="12.7189638"><ele>115.0</ele><time>2026-04-12T08:54:17.163Z</time></trkpt><trkpt lat="43.79373" lon="12.7188434"><ele>115.0</ele><time>2026-04-12T08:54:18.16Z</time></trkpt><trkpt lat="43.793625" lon="12.7187417"><ele>115.0</ele><time>2026-04-12T08:54:19.161Z</time></trkpt><trkpt lat="43.7935107" lon="12.7186615"><ele>115.0</ele><time>2026-04-12T08:54:20.167Z</time></trkpt><trkpt lat="43.7933908" lon="12.718596"><ele>115.0</ele><time>2026-04-12T08:54:21.16Z</time></trkpt><trkpt lat="43.7932676" lon="12.7185487"><ele>114.75</ele><time>2026-04-12T08:54:22.161Z</time></trkpt><trkpt lat="43.7931409" lon="12.7185063"><ele>114.5</ele><time>2026-04-12T08:54:23.161Z</time></trkpt><trkpt lat="43.7930134" lon="12.7184688"><ele>114.25</ele><time>2026-04-12T08:54:24.161Z</time></trkpt><trkpt lat="43.7928848" lon="12.7184336"><ele>114.0</ele><time>2026-04-12T08:54:25.163Z</time></trkpt><trkpt lat="43.7927617" lon="12.718395"><ele>115.5</ele><time>2026-04-12T08:54:26.162Z</time></trkpt><trkpt lat="43.7926367" lon="12.718355"><ele>117.0</ele><time>2026-04-12T08:54:27.161Z</time></trkpt><trkpt lat="43.79251" lon="12.71832"><ele>118.5</ele><time>2026-04-12T08:54:28.163Z</time></trkpt><trkpt lat="43.7923833" lon="12.71829"><ele>120.0</ele><time>2026-04-12T08:54:29.164Z</time></trkpt><trkpt lat="43.792255" lon="12.7183"><ele>120.0</ele><time>2026-04-12T08:54:30.162Z</time></trkpt><trkpt lat="43.792125" lon="12.7183317"><ele>120.0</ele><time>2026-04-12T08:54:31.161Z</time></trkpt><trkpt lat="43.7919933" lon="12.71837"><ele>120.0</ele><time>2026-04-12T08:54:32.162Z</time></trkpt><trkpt lat="43.7918683" lon="12.7184283"><ele>120.0</ele><time>2026-04-12T08:54:33.161Z</time></trkpt><trkpt lat="43.791755" lon="12.7185133"><ele>116.5</ele><time>2026-04-12T08:54:34.163Z</time></trkpt><trkpt lat="43.79166" lon="12.7186233"><ele>113.0</ele><time>2026-04-12T08:54:35.162Z</time></trkpt><trkpt lat="43.7915717" lon="12.71875"><ele>109.5</ele><time>2026-04-12T08:54:36.162Z</time></trkpt><trkpt lat="43.7914783" lon="12.718875"><ele>106.0</ele><time>2026-04-12T08:54:37.162Z</time></trkpt><trkpt lat="43.7913883" lon="12.7190017"><ele>106.0</ele><time>2026-04-12T08:54:38.163Z</time></trkpt><trkpt lat="43.7912917" lon="12.7190917"><ele>106.0</ele><time>2026-04-12T08:54:39.163Z</time></trkpt><trkpt lat="43.7911717" lon="12.7191733"><ele>106.0</ele><time>2026-04-12T08:54:40.161Z</time></trkpt><trkpt lat="43.7910517" lon="12.7192183"><ele>106.0</ele><time>2026-04-12T08:54:41.162Z</time></trkpt><trkpt lat="43.7909233" lon="12.71924"><ele>107.75</ele><time>2026-04-12T08:54:42.163Z</time></trkpt><trkpt lat="43.7907933" lon="12.7192367"><ele>109.5</ele><time>2026-04-12T08:54:43.162Z</time></trkpt><trkpt lat="43.79067" lon="12.71921"><ele>111.25</ele><time>2026-04-12T08:54:44.161Z</time></trkpt><trkpt lat="43.7905483" lon="12.719165"><ele>113.0</ele><time>2026-04-12T08:54:45.161Z</time></trkpt><trkpt lat="43.79043" lon="12.7190983"><ele>113.0</ele><time>2026-04-12T08:54:46.161Z</time></trkpt><trkpt lat="43.7903167" lon="12.7190267"><ele>113.0</ele><time>2026-04-12T08:54:47.161Z</time></trkpt><trkpt lat="43.7902083" lon="12.71895"><ele>113.0</ele><time>2026-04-12T08:54:48.161Z</time></trkpt><trkpt lat="43.7901033" lon="12.71887"><ele>113.0</ele><time>2026-04-12T08:54:49.16Z</time></trkpt><trkpt lat="43.7899967" lon="12.7188033"><ele>113.5</ele><time>2026-04-12T08:54:50.162Z</time></trkpt><trkpt lat="43.789885" lon="12.718735"><ele>114.0</ele><time>2026-04-12T08:54:51.161Z</time></trkpt><trkpt lat="43.789775" lon="12.71867"><ele>114.5</ele><time>2026-04-12T08:54:52.161Z</time></trkpt><trkpt lat="43.789675" lon="12.7186083"><ele>115.0</ele><time>2026-04-12T08:54:53.162Z</time></trkpt><trkpt lat="43.78958" lon="12.7185483"><ele>115.8</ele><time>2026-04-12T08:54:54.162Z</time></trkpt><trkpt lat="43.7894883" lon="12.718485"><ele>116.6</ele><time>2026-04-12T08:54:55.162Z</time></trkpt><trkpt lat="43.7893917" lon="12.7184183"><ele>117.4</ele><time>2026-04-12T08:54:56.161Z</time></trkpt><trkpt lat="43.7892883" lon="12.718345"><ele>118.2</ele><time>2026-04-12T08:54:57.162Z</time></trkpt><trkpt lat="43.7891867" lon="12.71828"><ele>119.0</ele><time>2026-04-12T08:54:58.161Z</time></trkpt><trkpt lat="43.7890833" lon="12.71821"><ele>119.0</ele><time>2026-04-12T08:54:59.161Z</time></trkpt><trkpt lat="43.78898" lon="12.718145"><ele>119.0</ele><time>2026-04-12T08:55:00.162Z</time></trkpt><trkpt lat="43.7888783" lon="12.7180783"><ele>119.0</ele><time>2026-04-12T08:55:01.161Z</time></trkpt><trkpt lat="43.7887817" lon="12.7180017"><ele>119.0</ele><time>2026-04-12T08:55:02.162Z</time></trkpt><trkpt lat="43.7886883" lon="12.7179183"><ele>119.0</ele><time>2026-04-12T08:55:03.162Z</time></trkpt><trkpt lat="43.7886017" lon="12.717825"><ele>119.0</ele><time>2026-04-12T08:55:04.161Z</time></trkpt><trkpt lat="43.78852" lon="12.7177383"><ele>119.0</ele><time>2026-04-12T08:55:05.161Z</time></trkpt><trkpt lat="43.7884383" lon="12.7176467"><ele>119.0</ele><time>2026-04-12T08:55:06.162Z</time></trkpt><trkpt lat="43.7883583" lon="12.7175483"><ele>119.0</ele><time>2026-04-12T08:55:07.161Z</time></trkpt><trkpt lat="43.7882883" lon="12.7174383"><ele>119.0</ele><time>2026-04-12T08:55:08.162Z</time></trkpt><trkpt lat="43.7882233" lon="12.7173217"><ele>119.0</ele><time>2026-04-12T08:55:09.161Z</time></trkpt><trkpt lat="43.7881583" lon="12.7172067"><ele>119.0</ele><time>2026-04-12T08:55:10.164Z</time></trkpt><trkpt lat="43.7880933" lon="12.71709"><ele>119.0</ele><time>2026-04-12T08:55:11.162Z</time></trkpt><trkpt lat="43.7880367" lon="12.7169733"><ele>119.0</ele><time>2026-04-12T08:55:12.162Z</time></trkpt><trkpt lat="43.78798" lon="12.7168633"><ele>119.0</ele><time>2026-04-12T08:55:13.161Z</time></trkpt><trkpt lat="43.787925" lon="12.7167617"><ele>118.99999999999999</ele><time>2026-04-12T08:55:14.162Z</time></trkpt><trkpt lat="43.78787" lon="12.71666"><ele>119.0</ele><time>2026-04-12T08:55:15.161Z</time></trkpt><trkpt lat="43.7878233" lon="12.7165633"><ele>119.0</ele><time>2026-04-12T08:55:16.16Z</time></trkpt><trkpt lat="43.787785" lon="12.7164683"><ele>119.0</ele><time>2026-04-12T08:55:17.161Z</time></trkpt><trkpt lat="43.787735" lon="12.7164083"><ele>118.99999999999999</ele><time>2026-04-12T08:55:18.16Z</time></trkpt><trkpt lat="43.7876867" lon="12.7163483"><ele>119.0</ele><time>2026-04-12T08:55:19.16Z</time></trkpt><trkpt lat="43.787585" lon="12.7162917"><ele>117.49999999999999</ele><time>2026-04-12T08:55:21.161Z</time></trkpt><trkpt lat="43.7875217" lon="12.7163267"><ele>116.0</ele><time>2026-04-12T08:55:22.161Z</time></trkpt><trkpt lat="43.787455" lon="12.716405"><ele>114.5</ele><time>2026-04-12T08:55:23.162Z</time></trkpt><trkpt lat="43.78739" lon="12.7164883"><ele>113.0</ele><time>2026-04-12T08:55:24.161Z</time></trkpt><trkpt lat="43.7873283" lon="12.7165767"><ele>111.49999999999999</ele><time>2026-04-12T08:55:25.16Z</time></trkpt><trkpt lat="43.7872617" lon="12.7166583"><ele>110.0</ele><time>2026-04-12T08:55:26.161Z</time></trkpt><trkpt lat="43.7871983" lon="12.7167383"><ele>110.0</ele><time>2026-04-12T08:55:27.16Z</time></trkpt><trkpt lat="43.7871333" lon="12.7168217"><ele>110.0</ele><time>2026-04-12T08:55:28.161Z</time></trkpt><trkpt lat="43.7870733" lon="12.7169017"><ele>110.0</ele><time>2026-04-12T08:55:29.161Z</time></trkpt><trkpt lat="43.7869933" lon="12.716975"><ele>110.0</ele><time>2026-04-12T08:55:30.162Z</time></trkpt><trkpt lat="43.7869083" lon="12.717035"><ele>110.0</ele><time>2026-04-12T08:55:31.161Z</time></trkpt><trkpt lat="43.7868167" lon="12.7170767"><ele>109.0</ele><time>2026-04-12T08:55:32.162Z</time></trkpt><trkpt lat="43.78672" lon="12.71711"><ele>108.0</ele><time>2026-04-12T08:55:33.161Z</time></trkpt><trkpt lat="43.78662" lon="12.7171267"><ele>107.0</ele><time>2026-04-12T08:55:34.161Z</time></trkpt><trkpt lat="43.7865217" lon="12.71713"><ele>106.0</ele><time>2026-04-12T08:55:35.161Z</time></trkpt><trkpt lat="43.7864233" lon="12.7171167"><ele>105.0</ele><time>2026-04-12T08:55:36.16Z</time></trkpt><trkpt lat="43.7863183" lon="12.71712"><ele>105.0</ele><time>2026-04-12T08:55:37.162Z</time></trkpt><trkpt lat="43.7862183" lon="12.7171117"><ele>105.0</ele><time>2026-04-12T08:55:38.16Z</time></trkpt><trkpt lat="43.78612" lon="12.7171167"><ele>105.0</ele><time>2026-04-12T08:55:39.162Z</time></trkpt><trkpt lat="43.7860267" lon="12.717125"><ele>105.0</ele><time>2026-04-12T08:55:40.16Z</time></trkpt><trkpt lat="43.7859383" lon="12.7171283"><ele>105.0</ele><time>2026-04-12T08:55:41.161Z</time></trkpt><trkpt lat="43.78585" lon="12.7171267"><ele>105.0</ele><time>2026-04-12T08:55:42.162Z</time></trkpt><trkpt lat="43.7857617" lon="12.717125"><ele>105.0</ele><time>2026-04-12T08:55:43.161Z</time></trkpt><trkpt lat="43.7856683" lon="12.7171217"><ele>105.0</ele><time>2026-04-12T08:55:44.161Z</time></trkpt><trkpt lat="43.7855783" lon="12.7171167"><ele>105.0</ele><time>2026-04-12T08:55:45.161Z</time></trkpt><trkpt lat="43.7854883" lon="12.71713"><ele>105.0</ele><time>2026-04-12T08:55:46.163Z</time></trkpt><trkpt lat="43.785395" lon="12.7171533"><ele>105.0</ele><time>2026-04-12T08:55:47.161Z</time></trkpt><trkpt lat="43.7852983" lon="12.7171817"><ele>105.0</ele><time>2026-04-12T08:55:48.161Z</time></trkpt><trkpt lat="43.7852183" lon="12.717225"><ele>105.0</ele><time>2026-04-12T08:55:49.161Z</time></trkpt><trkpt lat="43.78514" lon="12.717295"><ele>105.0</ele><time>2026-04-12T08:55:50.167Z</time></trkpt><trkpt lat="43.7850717" lon="12.71738"><ele>105.0</ele><time>2026-04-12T08:55:51.16Z</time></trkpt><trkpt lat="43.7849983" lon="12.71748"><ele>104.6</ele><time>2026-04-12T08:55:52.161Z</time></trkpt><trkpt lat="43.7849333" lon="12.7175867"><ele>104.2</ele><time>2026-04-12T08:55:53.16Z</time></trkpt><trkpt lat="43.7848667" lon="12.7177033"><ele>103.80000000000001</ele><time>2026-04-12T08:55:54.165Z</time></trkpt><trkpt lat="43.7848017" lon="12.7178183"><ele>103.4</ele><time>2026-04-12T08:55:55.161Z</time></trkpt><trkpt lat="43.7847317" lon="12.7179317"><ele>103.0</ele><time>2026-04-12T08:55:56.162Z</time></trkpt><trkpt lat="43.7846633" lon="12.71805"><ele>103.0</ele><time>2026-04-12T08:55:57.161Z</time></trkpt><trkpt lat="43.78459" lon="12.7181633"><ele>103.0</ele><time>2026-04-12T08:55:58.162Z</time></trkpt><trkpt lat="43.7845233" lon="12.7182783"><ele>103.0</ele><time>2026-04-12T08:55:59.161Z</time></trkpt><trkpt lat="43.7844633" lon="12.7183867"><ele>103.0</ele><time>2026-04-12T08:56:00.162Z</time></trkpt><trkpt lat="43.7844067" lon="12.7184833"><ele>103.0</ele><time>2026-04-12T08:56:01.163Z</time></trkpt><trkpt lat="43.7843533" lon="12.718575"><ele>104.33333333333334</ele><time>2026-04-12T08:56:02.162Z</time></trkpt><trkpt lat="43.7843017" lon="12.7186683"><ele>105.66666666666667</ele><time>2026-04-12T08:56:03.162Z</time></trkpt><trkpt lat="43.7842517" lon="12.7187683"><ele>107.0</ele><time>2026-04-12T08:56:04.161Z</time></trkpt><trkpt lat="43.784205" lon="12.7188717"><ele>108.33333333333334</ele><time>2026-04-12T08:56:05.162Z</time></trkpt><trkpt lat="43.7841667" lon="12.71898"><ele>109.66666666666667</ele><time>2026-04-12T08:56:06.163Z</time></trkpt><trkpt lat="43.7841367" lon="12.7190933"><ele>111.0</ele><time>2026-04-12T08:56:07.161Z</time></trkpt><trkpt lat="43.7841233" lon="12.7192183"><ele>111.0</ele><time>2026-04-12T08:56:08.161Z</time></trkpt><trkpt lat="43.7841367" lon="12.7193433"><ele>111.0</ele><time>2026-04-12T08:56:09.16Z</time></trkpt><trkpt lat="43.78415" lon="12.7194667"><ele>111.0</ele><time>2026-04-12T08:56:10.16Z</time></trkpt><trkpt lat="43.784185" lon="12.7195867"><ele>111.0</ele><time>2026-04-12T08:56:11.162Z</time></trkpt><trkpt lat="43.7842367" lon="12.7196967"><ele>111.0</ele><time>2026-04-12T08:56:12.163Z</time></trkpt><trkpt lat="43.7842983" lon="12.7198017"><ele>112.6</ele><time>2026-04-12T08:56:13.16Z</time></trkpt><trkpt lat="43.7843867" lon="12.7198717"><ele>114.19999999999999</ele><time>2026-04-12T08:56:14.161Z</time></trkpt><trkpt lat="43.7844817" lon="12.71992"><ele>115.80000000000001</ele><time>2026-04-12T08:56:15.16Z</time></trkpt><trkpt lat="43.7845817" lon="12.71996"><ele>117.4</ele><time>2026-04-12T08:56:16.161Z</time></trkpt><trkpt lat="43.7846817" lon="12.72"><ele>119.0</ele><time>2026-04-12T08:56:17.166Z</time></trkpt><trkpt lat="43.7847783" lon="12.72003"><ele>118.99999999999999</ele><time>2026-04-12T08:56:18.164Z</time></trkpt><trkpt lat="43.7848783" lon="12.7200683"><ele>119.0</ele><time>2026-04-12T08:56:19.162Z</time></trkpt><trkpt lat="43.7849617" lon="12.720125"><ele>119.0</ele><time>2026-04-12T08:56:20.16Z</time></trkpt><trkpt lat="43.7850267" lon="12.7202017"><ele>119.0</ele><time>2026-04-12T08:56:21.161Z</time></trkpt><trkpt lat="43.7850617" lon="12.720315"><ele>118.99999999999999</ele><time>2026-04-12T08:56:22.161Z</time></trkpt><trkpt lat="43.78509" lon="12.7204117"><ele>119.0</ele><time>2026-04-12T08:56:23.172Z</time></trkpt><trkpt lat="43.78508" lon="12.72051"><ele>118.66666666666666</ele><time>2026-04-12T08:56:24.165Z</time></trkpt><trkpt lat="43.78505" lon="12.7206483"><ele>118.33333333333333</ele><time>2026-04-12T08:56:26.162Z</time></trkpt><trkpt lat="43.78503" lon="12.7207417"><ele>118.0</ele><time>2026-04-12T08:56:28.161Z</time></trkpt><trkpt lat="43.7851083" lon="12.7208267"><ele>117.66666666666666</ele><time>2026-04-12T08:56:30.161Z</time></trkpt><trkpt lat="43.78517" lon="12.7208633"><ele>117.33333333333333</ele><time>2026-04-12T08:56:31.16Z</time></trkpt><trkpt lat="43.7852533" lon="12.7208867"><ele>117.0</ele><time>2026-04-12T08:56:32.165Z</time></trkpt><trkpt lat="43.7853433" lon="12.7209117"><ele>117.0</ele><time>2026-04-12T08:56:33.171Z</time></trkpt><trkpt lat="43.7854317" lon="12.720935"><ele>116.99999999999999</ele><time>2026-04-12T08:56:34.16Z</time></trkpt><trkpt lat="43.7855167" lon="12.7209833"><ele>116.99999999999999</ele><time>2026-04-12T08:56:35.161Z</time></trkpt><trkpt lat="43.7856" lon="12.7210417"><ele>117.0</ele><time>2026-04-12T08:56:36.161Z</time></trkpt><trkpt lat="43.785685" lon="12.7210817"><ele>117.0</ele><time>2026-04-12T08:56:37.16Z</time></trkpt><trkpt lat="43.78577" lon="12.7211233"><ele>115.8</ele><time>2026-04-12T08:56:38.161Z</time></trkpt><trkpt lat="43.7858483" lon="12.7212017"><ele>114.6</ele><time>2026-04-12T08:56:39.161Z</time></trkpt><trkpt lat="43.785925" lon="12.721275"><ele>113.39999999999999</ele><time>2026-04-12T08:56:40.162Z</time></trkpt><trkpt lat="43.7860033" lon="12.7213383"><ele>112.19999999999999</ele><time>2026-04-12T08:56:41.159Z</time></trkpt><trkpt lat="43.7860833" lon="12.7213983"><ele>111.0</ele><time>2026-04-12T08:56:42.161Z</time></trkpt><trkpt lat="43.7861583" lon="12.721455"><ele>111.0</ele><time>2026-04-12T08:56:43.16Z</time></trkpt><trkpt lat="43.7862333" lon="12.72151"><ele>111.0</ele><time>2026-04-12T08:56:44.161Z</time></trkpt><trkpt lat="43.7863117" lon="12.72157"><ele>111.0</ele><time>2026-04-12T08:56:45.159Z</time></trkpt><trkpt lat="43.7863833" lon="12.7216317"><ele>111.0</ele><time>2026-04-12T08:56:46.159Z</time></trkpt><trkpt lat="43.786455" lon="12.7216833"><ele>111.0</ele><time>2026-04-12T08:56:47.16Z</time></trkpt><trkpt lat="43.7865267" lon="12.721735"><ele>111.0</ele><time>2026-04-12T08:56:48.159Z</time></trkpt><trkpt lat="43.7866033" lon="12.7217933"><ele>111.0</ele><time>2026-04-12T08:56:49.16Z</time></trkpt><trkpt lat="43.78668" lon="12.721845"><ele>111.0</ele><time>2026-04-12T08:56:50.159Z</time></trkpt><trkpt lat="43.7867567" lon="12.7218933"><ele>111.0</ele><time>2026-04-12T08:56:51.16Z</time></trkpt><trkpt lat="43.78683" lon="12.721955"><ele>111.0</ele><time>2026-04-12T08:56:52.159Z</time></trkpt><trkpt lat="43.7868983" lon="12.7220133"><ele>111.0</ele><time>2026-04-12T08:56:53.16Z</time></trkpt><trkpt lat="43.7869667" lon="12.7220683"><ele>111.0</ele><time>2026-04-12T08:56:54.161Z</time></trkpt><trkpt lat="43.787035" lon="12.7221167"><ele>110.66666666666667</ele><time>2026-04-12T08:56:55.161Z</time></trkpt><trkpt lat="43.7870983" lon="12.72217"><ele>110.33333333333334</ele><time>2026-04-12T08:56:56.16Z</time></trkpt><trkpt lat="43.7871617" lon="12.72222"><ele>110.0</ele><time>2026-04-12T08:56:57.161Z</time></trkpt><trkpt lat="43.7872283" lon="12.7222717"><ele>109.66666666666667</ele><time>2026-04-12T08:56:58.159Z</time></trkpt><trkpt lat="43.7872967" lon="12.7223283"><ele>109.33333333333334</ele><time>2026-04-12T08:56:59.161Z</time></trkpt><trkpt lat="43.78736" lon="12.7223967"><ele>109.0</ele><time>2026-04-12T08:57:00.159Z</time></trkpt><trkpt lat="43.7874267" lon="12.722445"><ele>109.00000000000001</ele><time>2026-04-12T08:57:01.16Z</time></trkpt><trkpt lat="43.787495" lon="12.722495"><ele>109.0</ele><time>2026-04-12T08:57:02.16Z</time></trkpt><trkpt lat="43.7875683" lon="12.72255"><ele>109.0</ele><time>2026-04-12T08:57:03.16Z</time></trkpt><trkpt lat="43.7876433" lon="12.722595"><ele>109.0</ele><time>2026-04-12T08:57:04.16Z</time></trkpt><trkpt lat="43.7877233" lon="12.722645"><ele>109.00000000000001</ele><time>2026-04-12T08:57:05.161Z</time></trkpt><trkpt lat="43.7878083" lon="12.722705"><ele>109.0</ele><time>2026-04-12T08:57:06.161Z</time></trkpt><trkpt lat="43.7878967" lon="12.72277"><ele>108.6</ele><time>2026-04-12T08:57:07.161Z</time></trkpt><trkpt lat="43.78799" lon="12.7228383"><ele>108.2</ele><time>2026-04-12T08:57:08.16Z</time></trkpt><trkpt lat="43.78808" lon="12.72291"><ele>107.79999999999998</ele><time>2026-04-12T08:57:09.159Z</time></trkpt><trkpt lat="43.78817" lon="12.7229817"><ele>107.39999999999999</ele><time>2026-04-12T08:57:10.16Z</time></trkpt><trkpt lat="43.7882483" lon="12.723055"><ele>107.0</ele><time>2026-04-12T08:57:11.16Z</time></trkpt><trkpt lat="43.7883367" lon="12.7231217"><ele>107.0</ele><time>2026-04-12T08:57:12.16Z</time></trkpt><trkpt lat="43.788425" lon="12.7231783"><ele>106.99999999999999</ele><time>2026-04-12T08:57:13.159Z</time></trkpt><trkpt lat="43.7885083" lon="12.7232383"><ele>106.99999999999999</ele><time>2026-04-12T08:57:14.161Z</time></trkpt><trkpt lat="43.78859" lon="12.72331"><ele>107.0</ele><time>2026-04-12T08:57:15.159Z</time></trkpt><trkpt lat="43.78867" lon="12.723385"><ele>107.0</ele><time>2026-04-12T08:57:16.161Z</time></trkpt><trkpt lat="43.7887467" lon="12.7234667"><ele>105.66666666666666</ele><time>2026-04-12T08:57:17.16Z</time></trkpt><trkpt lat="43.788815" lon="12.7235517"><ele>104.33333333333333</ele><time>2026-04-12T08:57:18.16Z</time></trkpt><trkpt lat="43.78888" lon="12.7236267"><ele>103.0</ele><time>2026-04-12T08:57:19.16Z</time></trkpt><trkpt lat="43.7889417" lon="12.7236983"><ele>101.66666666666666</ele><time>2026-04-12T08:57:20.159Z</time></trkpt><trkpt lat="43.789" lon="12.723775"><ele>100.33333333333333</ele><time>2026-04-12T08:57:21.16Z</time></trkpt><trkpt lat="43.7890533" lon="12.723845"><ele>99.0</ele><time>2026-04-12T08:57:22.16Z</time></trkpt><trkpt lat="43.7891017" lon="12.7239133"><ele>99.0</ele><time>2026-04-12T08:57:23.159Z</time></trkpt><trkpt lat="43.7891567" lon="12.72398"><ele>99.0</ele><time>2026-04-12T08:57:24.159Z</time></trkpt><trkpt lat="43.7892017" lon="12.7240733"><ele>99.0</ele><time>2026-04-12T08:57:25.16Z</time></trkpt><trkpt lat="43.7892383" lon="12.724175"><ele>99.0</ele><time>2026-04-12T08:57:26.162Z</time></trkpt><trkpt lat="43.7892697" lon="12.7242802"><ele>99.0</ele><time>2026-04-12T08:57:27.16Z</time></trkpt><trkpt lat="43.7893006" lon="12.7243878"><ele>99.0</ele><time>2026-04-12T08:57:28.16Z</time></trkpt><trkpt lat="43.7893147" lon="12.7245064"><ele>99.0</ele><time>2026-04-12T08:57:29.163Z</time></trkpt><trkpt lat="43.7893196" lon="12.7246288"><ele>99.0</ele><time>2026-04-12T08:57:30.162Z</time></trkpt><trkpt lat="43.7893211" lon="12.7247534"><ele>99.0</ele><time>2026-04-12T08:57:31.159Z</time></trkpt><trkpt lat="43.7893156" lon="12.7248864"><ele>99.0</ele><time>2026-04-12T08:57:32.161Z</time></trkpt><trkpt lat="43.7893044" lon="12.7250256"><ele>99.0</ele><time>2026-04-12T08:57:33.16Z</time></trkpt><trkpt lat="43.7892887" lon="12.7251763"><ele>100.25</ele><time>2026-04-12T08:57:34.159Z</time></trkpt><trkpt lat="43.7892695" lon="12.7253314"><ele>101.5</ele><time>2026-04-12T08:57:35.159Z</time></trkpt><trkpt lat="43.789252" lon="12.7254882"><ele>102.75</ele><time>2026-04-12T08:57:36.161Z</time></trkpt><trkpt lat="43.7892364" lon="12.7256452"><ele>104.0</ele><time>2026-04-12T08:57:37.16Z</time></trkpt><trkpt lat="43.7892211" lon="12.7258005"><ele>104.0</ele><time>2026-04-12T08:57:38.16Z</time></trkpt><trkpt lat="43.7892027" lon="12.7259518"><ele>104.0</ele><time>2026-04-12T08:57:39.16Z</time></trkpt><trkpt lat="43.7891865" lon="12.7261044"><ele>104.0</ele><time>2026-04-12T08:57:40.16Z</time></trkpt><trkpt lat="43.7891714" lon="12.7262577"><ele>104.0</ele><time>2026-04-12T08:57:41.16Z</time></trkpt><trkpt lat="43.7891565" lon="12.726412"><ele>104.0</ele><time>2026-04-12T08:57:42.159Z</time></trkpt><trkpt lat="43.7891415" lon="12.726565"><ele>104.80000000000001</ele><time>2026-04-12T08:57:43.159Z</time></trkpt><trkpt lat="43.7891253" lon="12.7267145"><ele>105.60000000000001</ele><time>2026-04-12T08:57:44.16Z</time></trkpt><trkpt lat="43.7891077" lon="12.726862"><ele>106.4</ele><time>2026-04-12T08:57:45.16Z</time></trkpt><trkpt lat="43.7890912" lon="12.7270137"><ele>107.2</ele><time>2026-04-12T08:57:46.16Z</time></trkpt><trkpt lat="43.7890764" lon="12.7271681"><ele>108.0</ele><time>2026-04-12T08:57:47.16Z</time></trkpt><trkpt lat="43.7890579" lon="12.7273257"><ele>108.75</ele><time>2026-04-12T08:57:48.16Z</time></trkpt><trkpt lat="43.7890394" lon="12.727483"><ele>109.5</ele><time>2026-04-12T08:57:49.16Z</time></trkpt><trkpt lat="43.7890203" lon="12.7276415"><ele>110.25</ele><time>2026-04-12T08:57:50.159Z</time></trkpt><trkpt lat="43.7889974" lon="12.727797"><ele>111.0</ele><time>2026-04-12T08:57:51.16Z</time></trkpt><trkpt lat="43.7889704" lon="12.7279404"><ele>111.19999999999999</ele><time>2026-04-12T08:57:52.16Z</time></trkpt><trkpt lat="43.7889344" lon="12.7280758"><ele>111.39999999999999</ele><time>2026-04-12T08:57:53.159Z</time></trkpt><trkpt lat="43.7888896" lon="12.728218"><ele>111.6</ele><time>2026-04-12T08:57:54.16Z</time></trkpt><trkpt lat="43.78883" lon="12.7283505"><ele>111.8</ele><time>2026-04-12T08:57:55.16Z</time></trkpt><trkpt lat="43.7887616" lon="12.7284735"><ele>112.0</ele><time>2026-04-12T08:57:56.16Z</time></trkpt><trkpt lat="43.7886913" lon="12.7285818"><ele>111.8</ele><time>2026-04-12T08:57:57.16Z</time></trkpt><trkpt lat="43.7886249" lon="12.7286855"><ele>111.6</ele><time>2026-04-12T08:57:58.16Z</time></trkpt><trkpt lat="43.7885604" lon="12.7287962"><ele>111.39999999999999</ele><time>2026-04-12T08:57:59.159Z</time></trkpt><trkpt lat="43.7885043" lon="12.7289117"><ele>111.19999999999999</ele><time>2026-04-12T08:58:00.163Z</time></trkpt><trkpt lat="43.7884458" lon="12.7290299"><ele>111.0</ele><time>2026-04-12T08:58:01.161Z</time></trkpt><trkpt lat="43.7871403" lon="12.7354127"><ele>115.8</ele><time>2026-04-12T08:58:51.161Z</time></trkpt><trkpt lat="43.7871442" lon="12.735556"><ele>120.6</ele><time>2026-04-12T08:58:52.161Z</time></trkpt><trkpt lat="43.787145" lon="12.7356935"><ele>125.4</ele><time>2026-04-12T08:58:53.16Z</time></trkpt><trkpt lat="43.7871459" lon="12.7358405"><ele>130.2</ele><time>2026-04-12T08:58:54.162Z</time></trkpt><trkpt lat="43.7871387" lon="12.7359939"><ele>135.0</ele><time>2026-04-12T08:58:55.16Z</time></trkpt><trkpt lat="43.7871159" lon="12.7361457"><ele>136.0</ele><time>2026-04-12T08:58:56.16Z</time></trkpt><trkpt lat="43.7870802" lon="12.7362959"><ele>137.0</ele><time>2026-04-12T08:58:57.159Z</time></trkpt><trkpt lat="43.7870449" lon="12.7364329"><ele>138.0</ele><time>2026-04-12T08:58:58.16Z</time></trkpt><trkpt lat="43.7870049" lon="12.7365556"><ele>139.0</ele><time>2026-04-12T08:58:59.16Z</time></trkpt><trkpt lat="43.7869619" lon="12.7366578"><ele>140.0</ele><time>2026-04-12T08:59:00.16Z</time></trkpt><trkpt lat="43.7869066" lon="12.7367521"><ele>140.0</ele><time>2026-04-12T08:59:01.16Z</time></trkpt><trkpt lat="43.7868449" lon="12.736824"><ele>140.0</ele><time>2026-04-12T08:59:02.161Z</time></trkpt><trkpt lat="43.7867723" lon="12.7368896"><ele>140.0</ele><time>2026-04-12T08:59:03.16Z</time></trkpt><trkpt lat="43.7867002" lon="12.7369563"><ele>140.0</ele><time>2026-04-12T08:59:04.159Z</time></trkpt><trkpt lat="43.786629" lon="12.7370337"><ele>140.0</ele><time>2026-04-12T08:59:05.159Z</time></trkpt><trkpt lat="43.7865651" lon="12.7371158"><ele>140.0</ele><time>2026-04-12T08:59:06.161Z</time></trkpt><trkpt lat="43.7865208" lon="12.7372075"><ele>139.0</ele><time>2026-04-12T08:59:07.161Z</time></trkpt><trkpt lat="43.7865476" lon="12.737476"><ele>138.0</ele><time>2026-04-12T08:59:09.159Z</time></trkpt><trkpt lat="43.7865797" lon="12.737622"><ele>137.0</ele><time>2026-04-12T08:59:10.159Z</time></trkpt><trkpt lat="43.7865964" lon="12.7377799"><ele>136.0</ele><time>2026-04-12T08:59:11.159Z</time></trkpt><trkpt lat="43.7865912" lon="12.7379409"><ele>136.0</ele><time>2026-04-12T08:59:12.16Z</time></trkpt><trkpt lat="43.786562" lon="12.7381005"><ele>136.0</ele><time>2026-04-12T08:59:13.16Z</time></trkpt><trkpt lat="43.7865253" lon="12.7382525"><ele>136.0</ele><time>2026-04-12T08:59:14.159Z</time></trkpt><trkpt lat="43.7864768" lon="12.7384058"><ele>136.0</ele><time>2026-04-12T08:59:15.16Z</time></trkpt><trkpt lat="43.7864294" lon="12.7385556"><ele>136.75</ele><time>2026-04-12T08:59:16.159Z</time></trkpt><trkpt lat="43.7863851" lon="12.7387058"><ele>137.5</ele><time>2026-04-12T08:59:17.161Z</time></trkpt><trkpt lat="43.7863349" lon="12.7388595"><ele>138.25</ele><time>2026-04-12T08:59:18.161Z</time></trkpt><trkpt lat="43.7862896" lon="12.7390233"><ele>139.0</ele><time>2026-04-12T08:59:19.16Z</time></trkpt><trkpt lat="43.7862433" lon="12.7391847"><ele>139.0</ele><time>2026-04-12T08:59:20.161Z</time></trkpt><trkpt lat="43.7861949" lon="12.7393388"><ele>139.0</ele><time>2026-04-12T08:59:21.159Z</time></trkpt><trkpt lat="43.7861434" lon="12.739485"><ele>139.0</ele><time>2026-04-12T08:59:22.159Z</time></trkpt><trkpt lat="43.7860861" lon="12.7396217"><ele>139.0</ele><time>2026-04-12T08:59:23.16Z</time></trkpt><trkpt lat="43.7860436" lon="12.7397493"><ele>138.0</ele><time>2026-04-12T08:59:24.16Z</time></trkpt><trkpt lat="43.7860073" lon="12.7398566"><ele>137.0</ele><time>2026-04-12T08:59:25.16Z</time></trkpt><trkpt lat="43.7859725" lon="12.7399553"><ele>136.0</ele><time>2026-04-12T08:59:26.159Z</time></trkpt><trkpt lat="43.785932" lon="12.7400307"><ele>135.0</ele><time>2026-04-12T08:59:27.16Z</time></trkpt><trkpt lat="43.7858601" lon="12.740122"><ele>134.0</ele><time>2026-04-12T08:59:29.159Z</time></trkpt><trkpt lat="43.7857675" lon="12.7402676"><ele>134.0</ele><time>2026-04-12T08:59:33.159Z</time></trkpt><trkpt lat="43.7857019" lon="12.7403762"><ele>134.0</ele><time>2026-04-12T08:59:35.16Z</time></trkpt><trkpt lat="43.7856381" lon="12.7405128"><ele>134.0</ele><time>2026-04-12T08:59:37.16Z</time></trkpt><trkpt lat="43.7856093" lon="12.7405906"><ele>134.0</ele><time>2026-04-12T08:59:38.16Z</time></trkpt><trkpt lat="43.7855642" lon="12.7407354"><ele>134.0</ele><time>2026-04-12T08:59:40.163Z</time></trkpt><trkpt lat="43.7855196" lon="12.7408319"><ele>134.0</ele><time>2026-04-12T08:59:42.16Z</time></trkpt><trkpt lat="43.7854826" lon="12.7409197"><ele>134.0</ele><time>2026-04-12T08:59:44.164Z</time></trkpt><trkpt lat="43.7854475" lon="12.7410021"><ele>134.0</ele><time>2026-04-12T08:59:46.161Z</time></trkpt><trkpt lat="43.7854032" lon="12.7410839"><ele>134.0</ele><time>2026-04-12T08:59:48.16Z</time></trkpt><trkpt lat="43.785343" lon="12.741177"><ele>134.0</ele><time>2026-04-12T08:59:50.16Z</time></trkpt><trkpt lat="43.7852453" lon="12.7413966"><ele>135.0</ele><time>2026-04-12T08:59:54.159Z</time></trkpt><trkpt lat="43.7852126" lon="12.7415029"><ele>136.0</ele><time>2026-04-12T08:59:56.159Z</time></trkpt><trkpt lat="43.7852079" lon="12.7416157"><ele>137.0</ele><time>2026-04-12T08:59:58.159Z</time></trkpt><trkpt lat="43.7852017" lon="12.7417196"><ele>138.0</ele><time>2026-04-12T09:00:00.159Z</time></trkpt><trkpt lat="43.7852061" lon="12.7418182"><ele>139.0</ele><time>2026-04-12T09:00:02.16Z</time></trkpt><trkpt lat="43.7852168" lon="12.7419476"><ele>140.0</ele><time>2026-04-12T09:00:04.159Z</time></trkpt><trkpt lat="43.7852115" lon="12.7420819"><ele>140.75</ele><time>2026-04-12T09:00:06.16Z</time></trkpt><trkpt lat="43.7851883" lon="12.7422298"><ele>141.5</ele><time>2026-04-12T09:00:08.161Z</time></trkpt><trkpt lat="43.7851523" lon="12.742377"><ele>142.25</ele><time>2026-04-12T09:00:10.16Z</time></trkpt><trkpt lat="43.7851197" lon="12.7425182"><ele>143.0</ele><time>2026-04-12T09:00:12.16Z</time></trkpt><trkpt lat="43.7851008" lon="12.7428232"><ele>140.4</ele><time>2026-04-12T09:00:16.162Z</time></trkpt><trkpt lat="43.7851051" lon="12.7429709"><ele>137.8</ele><time>2026-04-12T09:00:18.162Z</time></trkpt><trkpt lat="43.78512" lon="12.7431214"><ele>135.2</ele><time>2026-04-12T09:00:20.161Z</time></trkpt><trkpt lat="43.7851398" lon="12.7432649"><ele>132.6</ele><time>2026-04-12T09:00:22.16Z</time></trkpt><trkpt lat="43.7851583" lon="12.7434039"><ele>130.0</ele><time>2026-04-12T09:00:24.163Z</time></trkpt><trkpt lat="43.7851678" lon="12.7435094"><ele>131.25</ele><time>2026-04-12T09:00:26.159Z</time></trkpt><trkpt lat="43.7851658" lon="12.7436008"><ele>132.5</ele><time>2026-04-12T09:00:29.161Z</time></trkpt><trkpt lat="43.7851783" lon="12.74376"><ele>133.75</ele><time>2026-04-12T09:00:44.159Z</time></trkpt><trkpt lat="43.78521" lon="12.744015"><ele>135.0</ele><time>2026-04-12T09:00:47.16Z</time></trkpt><trkpt lat="43.785235" lon="12.7441883"><ele>135.16666666666666</ele><time>2026-04-12T09:00:49.161Z</time></trkpt><trkpt lat="43.7852517" lon="12.744285"><ele>135.33333333333334</ele><time>2026-04-12T09:00:50.161Z</time></trkpt><trkpt lat="43.78527" lon="12.7443883"><ele>135.5</ele><time>2026-04-12T09:00:51.162Z</time></trkpt><trkpt lat="43.7852817" lon="12.744495"><ele>135.66666666666669</ele><time>2026-04-12T09:00:52.16Z</time></trkpt><trkpt lat="43.7852967" lon="12.7446117"><ele>135.83333333333334</ele><time>2026-04-12T09:00:53.164Z</time></trkpt><trkpt lat="43.78531" lon="12.7447283"><ele>136.0</ele><time>2026-04-12T09:00:54.16Z</time></trkpt><trkpt lat="43.7853167" lon="12.74484"><ele>136.0</ele><time>2026-04-12T09:00:55.164Z</time></trkpt><trkpt lat="43.7853217" lon="12.7449583"><ele>136.0</ele><time>2026-04-12T09:00:56.16Z</time></trkpt><trkpt lat="43.785325" lon="12.74507"><ele>136.0</ele><time>2026-04-12T09:00:57.165Z</time></trkpt><trkpt lat="43.78533" lon="12.7451683"><ele>136.0</ele><time>2026-04-12T09:00:58.161Z</time></trkpt><trkpt lat="43.78534" lon="12.74534"><ele>136.0</ele><time>2026-04-12T09:01:00.161Z</time></trkpt><trkpt lat="43.7853633" lon="12.7454967"><ele>135.0</ele><time>2026-04-12T09:01:02.161Z</time></trkpt><trkpt lat="43.785395" lon="12.745625"><ele>134.0</ele><time>2026-04-12T09:01:04.16Z</time></trkpt><trkpt lat="43.7854467" lon="12.7458033"><ele>133.0</ele><time>2026-04-12T09:01:10.159Z</time></trkpt><trkpt lat="43.7854217" lon="12.7456883"><ele>132.0</ele><time>2026-04-12T09:01:22.158Z</time></trkpt><trkpt lat="43.7853683" lon="12.745615"><ele>131.0</ele><time>2026-04-12T09:01:24.16Z</time></trkpt><trkpt lat="43.7853167" lon="12.7454467"><ele>132.25</ele><time>2026-04-12T09:01:26.159Z</time></trkpt><trkpt lat="43.785295" lon="12.7451433"><ele>133.5</ele><time>2026-04-12T09:01:28.158Z</time></trkpt><trkpt lat="43.7852867" lon="12.74499"><ele>134.75</ele><time>2026-04-12T09:01:29.158Z</time></trkpt><trkpt lat="43.7852767" lon="12.7448317"><ele>136.0</ele><time>2026-04-12T09:01:30.159Z</time></trkpt><trkpt lat="43.785265" lon="12.74469"><ele>136.0</ele><time>2026-04-12T09:01:31.159Z</time></trkpt><trkpt lat="43.78525" lon="12.7445633"><ele>136.0</ele><time>2026-04-12T09:01:32.159Z</time></trkpt><trkpt lat="43.7852317" lon="12.7444583"><ele>136.0</ele><time>2026-04-12T09:01:33.159Z</time></trkpt><trkpt lat="43.7852217" lon="12.7443367"><ele>136.0</ele><time>2026-04-12T09:01:34.157Z</time></trkpt><trkpt lat="43.7852183" lon="12.7441983"><ele>136.0</ele><time>2026-04-12T09:01:35.158Z</time></trkpt><trkpt lat="43.78521" lon="12.7440633"><ele>135.83333333333334</ele><time>2026-04-12T09:01:36.157Z</time></trkpt><trkpt lat="43.7851933" lon="12.7439483"><ele>135.66666666666669</ele><time>2026-04-12T09:01:37.158Z</time></trkpt><trkpt lat="43.78518" lon="12.7438333"><ele>135.5</ele><time>2026-04-12T09:01:38.159Z</time></trkpt><trkpt lat="43.7851633" lon="12.7437183"><ele>135.33333333333334</ele><time>2026-04-12T09:01:39.159Z</time></trkpt><trkpt lat="43.7851433" lon="12.7436083"><ele>135.16666666666666</ele><time>2026-04-12T09:01:40.158Z</time></trkpt><trkpt lat="43.785125" lon="12.7435"><ele>135.0</ele><time>2026-04-12T09:01:41.159Z</time></trkpt><trkpt lat="43.78512" lon="12.7433833"><ele>134.16666666666666</ele><time>2026-04-12T09:01:42.158Z</time></trkpt><trkpt lat="43.7851183" lon="12.7432733"><ele>133.33333333333334</ele><time>2026-04-12T09:01:43.158Z</time></trkpt><trkpt lat="43.7851133" lon="12.7431667"><ele>132.5</ele><time>2026-04-12T09:01:44.159Z</time></trkpt><trkpt lat="43.7851067" lon="12.74306"><ele>131.66666666666669</ele><time>2026-04-12T09:01:45.159Z</time></trkpt><trkpt lat="43.7850967" lon="12.7429417"><ele>130.83333333333334</ele><time>2026-04-12T09:01:46.158Z</time></trkpt><trkpt lat="43.7851017" lon="12.742825"><ele>130.0</ele><time>2026-04-12T09:01:47.158Z</time></trkpt><trkpt lat="43.7851367" lon="12.7425883"><ele>130.0</ele><time>2026-04-12T09:01:49.158Z</time></trkpt><trkpt lat="43.78516" lon="12.7424683"><ele>130.0</ele><time>2026-04-12T09:01:50.158Z</time></trkpt><trkpt lat="43.7851833" lon="12.742365"><ele>130.0</ele><time>2026-04-12T09:01:51.158Z</time></trkpt><trkpt lat="43.7852017" lon="12.74227"><ele>130.0</ele><time>2026-04-12T09:01:52.158Z</time></trkpt><trkpt lat="43.7852233" lon="12.7421567"><ele>130.0</ele><time>2026-04-12T09:01:53.158Z</time></trkpt><trkpt lat="43.7852367" lon="12.7420517"><ele>130.0</ele><time>2026-04-12T09:01:54.158Z</time></trkpt><trkpt lat="43.7852433" lon="12.7419567"><ele>131.66666666666669</ele><time>2026-04-12T09:01:55.159Z</time></trkpt><trkpt lat="43.7852467" lon="12.7418483"><ele>133.33333333333334</ele><time>2026-04-12T09:01:56.157Z</time></trkpt><trkpt lat="43.7852483" lon="12.7417433"><ele>135.0</ele><time>2026-04-12T09:01:57.157Z</time></trkpt><trkpt lat="43.7852567" lon="12.7416417"><ele>136.66666666666666</ele><time>2026-04-12T09:01:58.158Z</time></trkpt><trkpt lat="43.78527" lon="12.7415467"><ele>138.33333333333331</ele><time>2026-04-12T09:01:59.158Z</time></trkpt><trkpt lat="43.7853117" lon="12.7413783"><ele>140.0</ele><time>2026-04-12T09:02:01.159Z</time></trkpt><trkpt lat="43.7853517" lon="12.7412933"><ele>140.0</ele><time>2026-04-12T09:02:02.159Z</time></trkpt><trkpt lat="43.78541" lon="12.7411983"><ele>140.0</ele><time>2026-04-12T09:02:03.16Z</time></trkpt><trkpt lat="43.7854583" lon="12.7410967"><ele>140.0</ele><time>2026-04-12T09:02:04.158Z</time></trkpt><trkpt lat="43.7855067" lon="12.740985"><ele>140.0</ele><time>2026-04-12T09:02:05.158Z</time></trkpt><trkpt lat="43.7855483" lon="12.7408833"><ele>140.0</ele><time>2026-04-12T09:02:06.159Z</time></trkpt><trkpt lat="43.7855867" lon="12.740795"><ele>140.0</ele><time>2026-04-12T09:02:07.159Z</time></trkpt><trkpt lat="43.7856267" lon="12.7407067"><ele>138.8</ele><time>2026-04-12T09:02:08.158Z</time></trkpt><trkpt lat="43.7856933" lon="12.740545"><ele>137.6</ele><time>2026-04-12T09:02:10.157Z</time></trkpt><trkpt lat="43.785725" lon="12.7404583"><ele>136.4</ele><time>2026-04-12T09:02:11.158Z</time></trkpt><trkpt lat="43.785785" lon="12.7403367"><ele>135.2</ele><time>2026-04-12T09:02:13.157Z</time></trkpt><trkpt lat="43.7858233" lon="12.7402517"><ele>134.0</ele><time>2026-04-12T09:02:15.158Z</time></trkpt><trkpt lat="43.785785" lon="12.7401667"><ele>134.0</ele><time>2026-04-12T09:02:19.164Z</time></trkpt><trkpt lat="43.7857017" lon="12.7401717"><ele>134.0</ele><time>2026-04-12T09:02:21.158Z</time></trkpt><trkpt lat="43.7856333" lon="12.7402017"><ele>134.0</ele><time>2026-04-12T09:02:22.159Z</time></trkpt><trkpt lat="43.7855567" lon="12.7402217"><ele>134.0</ele><time>2026-04-12T09:02:23.167Z</time></trkpt><trkpt lat="43.7854717" lon="12.7402367"><ele>134.0</ele><time>2026-04-12T09:02:24.159Z</time></trkpt><trkpt lat="43.7853767" lon="12.7402467"><ele>134.0</ele><time>2026-04-12T09:02:25.172Z</time></trkpt><trkpt lat="43.7852717" lon="12.74026"><ele>132.25</ele><time>2026-04-12T09:02:26.159Z</time></trkpt><trkpt lat="43.7851783" lon="12.7402733"><ele>130.5</ele><time>2026-04-12T09:02:27.159Z</time></trkpt><trkpt lat="43.78508" lon="12.740285"><ele>128.75</ele><time>2026-04-12T09:02:28.158Z</time></trkpt><trkpt lat="43.7849767" lon="12.7402917"><ele>127.0</ele><time>2026-04-12T09:02:29.158Z</time></trkpt><trkpt lat="43.7847717" lon="12.7402817"><ele>127.0</ele><time>2026-04-12T09:02:31.159Z</time></trkpt><trkpt lat="43.7846683" lon="12.7402567"><ele>126.99999999999999</ele><time>2026-04-12T09:02:32.158Z</time></trkpt><trkpt lat="43.784565" lon="12.74022"><ele>126.99999999999999</ele><time>2026-04-12T09:02:33.159Z</time></trkpt><trkpt lat="43.7844533" lon="12.74018"><ele>127.0</ele><time>2026-04-12T09:02:34.161Z</time></trkpt><trkpt lat="43.784355" lon="12.740115"><ele>127.0</ele><time>2026-04-12T09:02:35.158Z</time></trkpt><trkpt lat="43.78426" lon="12.7400517"><ele>129.0</ele><time>2026-04-12T09:02:36.157Z</time></trkpt><trkpt lat="43.7841583" lon="12.7399867"><ele>131.0</ele><time>2026-04-12T09:02:37.159Z</time></trkpt><trkpt lat="43.78406" lon="12.7399367"><ele>133.0</ele><time>2026-04-12T09:02:38.158Z</time></trkpt><trkpt lat="43.7839783" lon="12.739885"><ele>135.0</ele><time>2026-04-12T09:02:39.158Z</time></trkpt><trkpt lat="43.7838867" lon="12.7398567"><ele>137.0</ele><time>2026-04-12T09:02:40.158Z</time></trkpt><trkpt lat="43.7837867" lon="12.73984"><ele>137.0</ele><time>2026-04-12T09:02:41.158Z</time></trkpt><trkpt lat="43.7836783" lon="12.7398383"><ele>137.0</ele><time>2026-04-12T09:02:42.16Z</time></trkpt><trkpt lat="43.7835667" lon="12.7398417"><ele>137.0</ele><time>2026-04-12T09:02:43.157Z</time></trkpt><trkpt lat="43.783455" lon="12.739865"><ele>137.0</ele><time>2026-04-12T09:02:44.158Z</time></trkpt><trkpt lat="43.783345" lon="12.739895"><ele>137.0</ele><time>2026-04-12T09:02:45.159Z</time></trkpt><trkpt lat="43.7832367" lon="12.7399417"><ele>138.4</ele><time>2026-04-12T09:02:46.158Z</time></trkpt><trkpt lat="43.7831383" lon="12.7399883"><ele>139.79999999999998</ele><time>2026-04-12T09:02:47.158Z</time></trkpt><trkpt lat="43.7830383" lon="12.7400417"><ele>141.2</ele><time>2026-04-12T09:02:48.158Z</time></trkpt><trkpt lat="43.7829367" lon="12.7401067"><ele>142.6</ele><time>2026-04-12T09:02:49.158Z</time></trkpt><trkpt lat="43.78284" lon="12.740175"><ele>144.0</ele><time>2026-04-12T09:02:50.159Z</time></trkpt><trkpt lat="43.7826233" lon="12.7403183"><ele>149.75</ele><time>2026-04-12T09:02:52.158Z</time></trkpt><trkpt lat="43.78251" lon="12.74038"><ele>155.5</ele><time>2026-04-12T09:02:53.158Z</time></trkpt><trkpt lat="43.7823983" lon="12.740445"><ele>161.25</ele><time>2026-04-12T09:02:54.158Z</time></trkpt><trkpt lat="43.782285" lon="12.7404983"><ele>167.0</ele><time>2026-04-12T09:02:55.158Z</time></trkpt><trkpt lat="43.7821733" lon="12.7405467"><ele>167.0</ele><time>2026-04-12T09:02:56.159Z</time></trkpt><trkpt lat="43.7820517" lon="12.7405983"><ele>167.0</ele><time>2026-04-12T09:02:57.159Z</time></trkpt><trkpt lat="43.7819267" lon="12.74066"><ele>167.0</ele><time>2026-04-12T09:02:58.159Z</time></trkpt><trkpt lat="43.7818" lon="12.740725"><ele>167.0</ele><time>2026-04-12T09:02:59.158Z</time></trkpt><trkpt lat="43.781675" lon="12.740785"><ele>165.5</ele><time>2026-04-12T09:03:00.158Z</time></trkpt><trkpt lat="43.7815567" lon="12.7408417"><ele>164.0</ele><time>2026-04-12T09:03:01.16Z</time></trkpt><trkpt lat="43.7814467" lon="12.740895"><ele>162.5</ele><time>2026-04-12T09:03:02.158Z</time></trkpt><trkpt lat="43.7813383" lon="12.740945"><ele>161.0</ele><time>2026-04-12T09:03:03.159Z</time></trkpt><trkpt lat="43.78124" lon="12.741"><ele>164.4</ele><time>2026-04-12T09:03:04.157Z</time></trkpt><trkpt lat="43.78115" lon="12.74105"><ele>167.8</ele><time>2026-04-12T09:03:05.159Z</time></trkpt><trkpt lat="43.78105" lon="12.7410933"><ele>171.20000000000002</ele><time>2026-04-12T09:03:06.159Z</time></trkpt><trkpt lat="43.7809417" lon="12.741125"><ele>174.60000000000002</ele><time>2026-04-12T09:03:07.159Z</time></trkpt><trkpt lat="43.7808317" lon="12.7411317"><ele>178.0</ele><time>2026-04-12T09:03:08.159Z</time></trkpt><trkpt lat="43.7807133" lon="12.74114"><ele>178.0</ele><time>2026-04-12T09:03:09.159Z</time></trkpt><trkpt lat="43.7806017" lon="12.7411483"><ele>178.0</ele><time>2026-04-12T09:03:10.158Z</time></trkpt><trkpt lat="43.7804967" lon="12.7411533"><ele>178.0</ele><time>2026-04-12T09:03:11.158Z</time></trkpt><trkpt lat="43.7802933" lon="12.7411817"><ele>178.0</ele><time>2026-04-12T09:03:13.158Z</time></trkpt><trkpt lat="43.7802017" lon="12.7412267"><ele>178.0</ele><time>2026-04-12T09:03:14.159Z</time></trkpt><trkpt lat="43.7801033" lon="12.7412883"><ele>178.0</ele><time>2026-04-12T09:03:15.159Z</time></trkpt><trkpt lat="43.7800067" lon="12.7413633"><ele>178.0</ele><time>2026-04-12T09:03:16.158Z</time></trkpt><trkpt lat="43.7798967" lon="12.7413933"><ele>178.0</ele><time>2026-04-12T09:03:17.158Z</time></trkpt><trkpt lat="43.7797883" lon="12.74142"><ele>178.0</ele><time>2026-04-12T09:03:18.158Z</time></trkpt><trkpt lat="43.779695" lon="12.741435"><ele>178.0</ele><time>2026-04-12T09:03:19.158Z</time></trkpt><trkpt lat="43.7796117" lon="12.741515"><ele>178.0</ele><time>2026-04-12T09:03:20.159Z</time></trkpt><trkpt lat="43.7795383" lon="12.74163"><ele>178.0</ele><time>2026-04-12T09:03:21.158Z</time></trkpt><trkpt lat="43.7794667" lon="12.7417483"><ele>178.0</ele><time>2026-04-12T09:03:22.157Z</time></trkpt><trkpt lat="43.7794067" lon="12.7418767"><ele>178.0</ele><time>2026-04-12T09:03:23.158Z</time></trkpt><trkpt lat="43.7793417" lon="12.7420117"><ele>179.75</ele><time>2026-04-12T09:03:24.158Z</time></trkpt><trkpt lat="43.779275" lon="12.7421483"><ele>181.5</ele><time>2026-04-12T09:03:25.165Z</time></trkpt><trkpt lat="43.7791683" lon="12.7424067"><ele>183.25</ele><time>2026-04-12T09:03:27.158Z</time></trkpt><trkpt lat="43.77912" lon="12.7425133"><ele>185.0</ele><time>2026-04-12T09:03:28.158Z</time></trkpt><trkpt lat="43.7790617" lon="12.7425867"><ele>185.0</ele><time>2026-04-12T09:03:29.167Z</time></trkpt><trkpt lat="43.77899" lon="12.742595"><ele>185.0</ele><time>2026-04-12T09:03:30.159Z</time></trkpt><trkpt lat="43.7789233" lon="12.7425567"><ele>185.0</ele><time>2026-04-12T09:03:31.158Z</time></trkpt><trkpt lat="43.7788667" lon="12.742435"><ele>185.0</ele><time>2026-04-12T09:03:32.158Z</time></trkpt><trkpt lat="43.7787367" lon="12.742185"><ele>185.0</ele><time>2026-04-12T09:03:34.16Z</time></trkpt><trkpt lat="43.7786683" lon="12.7420633"><ele>185.0</ele><time>2026-04-12T09:03:35.159Z</time></trkpt><trkpt lat="43.77861" lon="12.7419533"><ele>185.0</ele><time>2026-04-12T09:03:36.16Z</time></trkpt><trkpt lat="43.7785483" lon="12.7418683"><ele>185.0</ele><time>2026-04-12T09:03:37.16Z</time></trkpt><trkpt lat="43.7784667" lon="12.741835"><ele>185.0</ele><time>2026-04-12T09:03:38.158Z</time></trkpt><trkpt lat="43.7783683" lon="12.7418333"><ele>185.75</ele><time>2026-04-12T09:03:39.158Z</time></trkpt><trkpt lat="43.778255" lon="12.7418567"><ele>186.5</ele><time>2026-04-12T09:03:40.159Z</time></trkpt><trkpt lat="43.7781367" lon="12.7418817"><ele>187.25</ele><time>2026-04-12T09:03:41.158Z</time></trkpt><trkpt lat="43.777995" lon="12.7419317"><ele>188.0</ele><time>2026-04-12T09:03:42.158Z</time></trkpt><trkpt lat="43.7778617" lon="12.7419717"><ele>192.25</ele><time>2026-04-12T09:03:43.158Z</time></trkpt><trkpt lat="43.7777233" lon="12.7419967"><ele>196.5</ele><time>2026-04-12T09:03:44.159Z</time></trkpt><trkpt lat="43.7775867" lon="12.74204"><ele>200.75</ele><time>2026-04-12T09:03:45.157Z</time></trkpt><trkpt lat="43.77747" lon="12.7420767"><ele>205.0</ele><time>2026-04-12T09:03:46.157Z</time></trkpt><trkpt lat="43.7773633" lon="12.7421183"><ele>205.0</ele><time>2026-04-12T09:03:47.159Z</time></trkpt><trkpt lat="43.7772867" lon="12.74218"><ele>205.0</ele><time>2026-04-12T09:03:48.159Z</time></trkpt><trkpt lat="43.77723" lon="12.742275"><ele>205.0</ele><time>2026-04-12T09:03:49.158Z</time></trkpt><trkpt lat="43.7772017" lon="12.742415"><ele>205.0</ele><time>2026-04-12T09:03:50.158Z</time></trkpt><trkpt lat="43.7772" lon="12.7425717"><ele>205.0</ele><time>2026-04-12T09:03:51.158Z</time></trkpt><trkpt lat="43.7772133" lon="12.7427283"><ele>207.5</ele><time>2026-04-12T09:03:52.158Z</time></trkpt><trkpt lat="43.7772333" lon="12.7428767"><ele>210.0</ele><time>2026-04-12T09:03:53.159Z</time></trkpt><trkpt lat="43.7773067" lon="12.74312"><ele>212.5</ele><time>2026-04-12T09:03:55.158Z</time></trkpt><trkpt lat="43.7773683" lon="12.7431883"><ele>215.0</ele><time>2026-04-12T09:03:56.179Z</time></trkpt><trkpt lat="43.7774583" lon="12.7431933"><ele>215.0</ele><time>2026-04-12T09:03:57.159Z</time></trkpt><trkpt lat="43.7775583" lon="12.7431383"><ele>215.0</ele><time>2026-04-12T09:03:58.162Z</time></trkpt><trkpt lat="43.77766" lon="12.74302"><ele>215.0</ele><time>2026-04-12T09:03:59.159Z</time></trkpt><trkpt lat="43.7777617" lon="12.7429133"><ele>215.0</ele><time>2026-04-12T09:04:00.167Z</time></trkpt><trkpt lat="43.777845" lon="12.7428267"><ele>215.50000000000003</ele><time>2026-04-12T09:04:01.161Z</time></trkpt><trkpt lat="43.7779167" lon="12.7427583"><ele>216.0</ele><time>2026-04-12T09:04:02.17Z</time></trkpt><trkpt lat="43.77799" lon="12.7427033"><ele>216.5</ele><time>2026-04-12T09:04:03.158Z</time></trkpt><trkpt lat="43.7780767" lon="12.7426967"><ele>217.0</ele><time>2026-04-12T09:04:04.158Z</time></trkpt><trkpt lat="43.7781683" lon="12.7427567"><ele>217.50000000000003</ele><time>2026-04-12T09:04:05.159Z</time></trkpt><trkpt lat="43.7782383" lon="12.7428167"><ele>218.0</ele><time>2026-04-12T09:04:06.158Z</time></trkpt><trkpt lat="43.7782967" lon="12.7428833"><ele>218.00000000000003</ele><time>2026-04-12T09:04:07.158Z</time></trkpt><trkpt lat="43.7783233" lon="12.7429933"><ele>218.0</ele><time>2026-04-12T09:04:08.157Z</time></trkpt><trkpt lat="43.7783283" lon="12.7430867"><ele>218.0</ele><time>2026-04-12T09:04:09.158Z</time></trkpt><trkpt lat="43.7783" lon="12.7431783"><ele>218.0</ele><time>2026-04-12T09:04:10.158Z</time></trkpt><trkpt lat="43.7782533" lon="12.7432633"><ele>218.00000000000003</ele><time>2026-04-12T09:04:11.178Z</time></trkpt><trkpt lat="43.7781883" lon="12.743345"><ele>218.0</ele><time>2026-04-12T09:04:12.159Z</time></trkpt><trkpt lat="43.778125" lon="12.7434283"><ele>218.0</ele><time>2026-04-12T09:04:13.161Z</time></trkpt><trkpt lat="43.77806" lon="12.7435183"><ele>218.0</ele><time>2026-04-12T09:04:14.163Z</time></trkpt><trkpt lat="43.7793067" lon="12.7457633"><ele>225.16666666666669</ele><time>2026-04-12T09:11:16.155Z</time></trkpt><trkpt lat="43.77936" lon="12.745835"><ele>232.33333333333334</ele><time>2026-04-12T09:11:17.156Z</time></trkpt><trkpt lat="43.7794117" lon="12.7459033"><ele>239.5</ele><time>2026-04-12T09:11:18.156Z</time></trkpt><trkpt lat="43.7794767" lon="12.74596"><ele>246.66666666666669</ele><time>2026-04-12T09:11:19.156Z</time></trkpt><trkpt lat="43.7795417" lon="12.7460033"><ele>253.83333333333334</ele><time>2026-04-12T09:11:20.155Z</time></trkpt><trkpt lat="43.77962" lon="12.746025"><ele>261.0</ele><time>2026-04-12T09:11:21.157Z</time></trkpt><trkpt lat="43.7796967" lon="12.746025"><ele>261.0</ele><time>2026-04-12T09:11:22.154Z</time></trkpt><trkpt lat="43.7797733" lon="12.7460067"><ele>261.0</ele><time>2026-04-12T09:11:23.156Z</time></trkpt><trkpt lat="43.7798517" lon="12.7460067"><ele>261.0</ele><time>2026-04-12T09:11:24.155Z</time></trkpt><trkpt lat="43.77992" lon="12.746025"><ele>261.0</ele><time>2026-04-12T09:11:25.156Z</time></trkpt><trkpt lat="43.7799817" lon="12.7460733"><ele>261.0</ele><time>2026-04-12T09:11:26.155Z</time></trkpt><trkpt lat="43.7800383" lon="12.7461367"><ele>261.0</ele><time>2026-04-12T09:11:27.156Z</time></trkpt><trkpt lat="43.7800833" lon="12.7462133"><ele>261.0</ele><time>2026-04-12T09:11:28.154Z</time></trkpt><trkpt lat="43.780125" lon="12.7463083"><ele>262.0</ele><time>2026-04-12T09:11:29.153Z</time></trkpt><trkpt lat="43.78017" lon="12.7464167"><ele>263.0</ele><time>2026-04-12T09:11:30.154Z</time></trkpt><trkpt lat="43.7802183" lon="12.746525"><ele>264.0</ele><time>2026-04-12T09:11:31.153Z</time></trkpt><trkpt lat="43.7802683" lon="12.7466267"><ele>265.0</ele><time>2026-04-12T09:11:32.155Z</time></trkpt><trkpt lat="43.78033" lon="12.7467117"><ele>266.0</ele><time>2026-04-12T09:11:33.154Z</time></trkpt><trkpt lat="43.7804083" lon="12.746775"><ele>267.0</ele><time>2026-04-12T09:11:34.154Z</time></trkpt><trkpt lat="43.7804933" lon="12.7468317"><ele>268.8</ele><time>2026-04-12T09:11:35.153Z</time></trkpt><trkpt lat="43.7805783" lon="12.7469"><ele>270.6</ele><time>2026-04-12T09:11:36.156Z</time></trkpt><trkpt lat="43.7806583" lon="12.7469817"><ele>272.40000000000003</ele><time>2026-04-12T09:11:37.155Z</time></trkpt><trkpt lat="43.78074" lon="12.74707"><ele>274.2</ele><time>2026-04-12T09:11:38.155Z</time></trkpt><trkpt lat="43.780815" lon="12.7471667"><ele>276.0</ele><time>2026-04-12T09:11:39.153Z</time></trkpt><trkpt lat="43.7808933" lon="12.7472633"><ele>276.0</ele><time>2026-04-12T09:11:40.153Z</time></trkpt><trkpt lat="43.7809783" lon="12.7473383"><ele>276.0</ele><time>2026-04-12T09:11:41.154Z</time></trkpt><trkpt lat="43.7810633" lon="12.747405"><ele>276.0</ele><time>2026-04-12T09:11:42.155Z</time></trkpt><trkpt lat="43.7811417" lon="12.7474717"><ele>276.0</ele><time>2026-04-12T09:11:43.154Z</time></trkpt><trkpt lat="43.7812083" lon="12.7475183"><ele>276.0</ele><time>2026-04-12T09:11:44.155Z</time></trkpt><trkpt lat="43.78127" lon="12.7475733"><ele>276.0</ele><time>2026-04-12T09:11:45.16Z</time></trkpt><trkpt lat="43.781325" lon="12.747645"><ele>272.0</ele><time>2026-04-12T09:11:46.153Z</time></trkpt><trkpt lat="43.7813717" lon="12.7477217"><ele>268.0</ele><time>2026-04-12T09:11:47.154Z</time></trkpt><trkpt lat="43.781335" lon="12.7478967"><ele>264.0</ele><time>2026-04-12T09:11:49.155Z</time></trkpt><trkpt lat="43.78124" lon="12.7480067"><ele>260.0</ele><time>2026-04-12T09:11:50.155Z</time></trkpt><trkpt lat="43.7811267" lon="12.748135"><ele>260.0</ele><time>2026-04-12T09:11:51.154Z</time></trkpt><trkpt lat="43.78102" lon="12.74827"><ele>260.0</ele><time>2026-04-12T09:11:52.155Z</time></trkpt><trkpt lat="43.78095" lon="12.7484033"><ele>260.0</ele><time>2026-04-12T09:11:53.154Z</time></trkpt><trkpt lat="43.780915" lon="12.7485433"><ele>260.0</ele><time>2026-04-12T09:11:54.153Z</time></trkpt><trkpt lat="43.7808983" lon="12.7486883"><ele>266.4</ele><time>2026-04-12T09:11:55.154Z</time></trkpt><trkpt lat="43.78089" lon="12.7488383"><ele>272.8</ele><time>2026-04-12T09:11:56.155Z</time></trkpt><trkpt lat="43.7808933" lon="12.748975"><ele>279.2</ele><time>2026-04-12T09:11:57.155Z</time></trkpt><trkpt lat="43.780875" lon="12.7490833"><ele>285.6</ele><time>2026-04-12T09:11:58.154Z</time></trkpt><trkpt lat="43.78083" lon="12.7491717"><ele>292.0</ele><time>2026-04-12T09:11:59.154Z</time></trkpt><trkpt lat="43.7807533" lon="12.749235"><ele>292.0</ele><time>2026-04-12T09:12:00.155Z</time></trkpt><trkpt lat="43.7806367" lon="12.7493"><ele>292.0</ele><time>2026-04-12T09:12:01.153Z</time></trkpt><trkpt lat="43.7805283" lon="12.749375"><ele>292.0</ele><time>2026-04-12T09:12:02.153Z</time></trkpt><trkpt lat="43.78042" lon="12.74945"><ele>292.0</ele><time>2026-04-12T09:12:03.154Z</time></trkpt><trkpt lat="43.7803317" lon="12.7495117"><ele>293.0</ele><time>2026-04-12T09:12:04.154Z</time></trkpt><trkpt lat="43.7802596" lon="12.7495431"><ele>294.0</ele><time>2026-04-12T09:12:05.154Z</time></trkpt><trkpt lat="43.7801843" lon="12.7495357"><ele>295.0</ele><time>2026-04-12T09:12:06.155Z</time></trkpt><trkpt lat="43.7801144" lon="12.7494823"><ele>296.0</ele><time>2026-04-12T09:12:07.154Z</time></trkpt><trkpt lat="43.7800665" lon="12.7493779"><ele>297.0</ele><time>2026-04-12T09:12:08.159Z</time></trkpt><trkpt lat="43.7800291" lon="12.7492611"><ele>298.0</ele><time>2026-04-12T09:12:09.155Z</time></trkpt><trkpt lat="43.7799837" lon="12.7491536"><ele>299.0</ele><time>2026-04-12T09:12:10.153Z</time></trkpt><trkpt lat="43.7799321" lon="12.7490588"><ele>300.0</ele><time>2026-04-12T09:12:11.153Z</time></trkpt><trkpt lat="43.7798751" lon="12.7489794"><ele>301.0</ele><time>2026-04-12T09:12:12.154Z</time></trkpt><trkpt lat="43.7798011" lon="12.7489199"><ele>302.0</ele><time>2026-04-12T09:12:13.156Z</time></trkpt><trkpt lat="43.7797181" lon="12.7488661"><ele>303.0</ele><time>2026-04-12T09:12:14.155Z</time></trkpt><trkpt lat="43.7796335" lon="12.7488008"><ele>304.0</ele><time>2026-04-12T09:12:15.255Z</time></trkpt><trkpt lat="43.7794678" lon="12.7486774"><ele>304.0</ele><time>2026-04-12T09:12:17.153Z</time></trkpt><trkpt lat="43.779378" lon="12.7486318"><ele>304.0</ele><time>2026-04-12T09:12:18.154Z</time></trkpt><trkpt lat="43.7792833" lon="12.748611"><ele>304.0</ele><time>2026-04-12T09:12:19.155Z</time></trkpt><trkpt lat="43.779188" lon="12.7486098"><ele>304.0</ele><time>2026-04-12T09:12:20.155Z</time></trkpt><trkpt lat="43.7790917" lon="12.7486277"><ele>304.0</ele><time>2026-04-12T09:12:21.158Z</time></trkpt><trkpt lat="43.7789952" lon="12.7486547"><ele>303.8</ele><time>2026-04-12T09:12:22.155Z</time></trkpt><trkpt lat="43.7789008" lon="12.7487004"><ele>303.59999999999997</ele><time>2026-04-12T09:12:23.155Z</time></trkpt><trkpt lat="43.7788108" lon="12.748756"><ele>303.4</ele><time>2026-04-12T09:12:24.155Z</time></trkpt><trkpt lat="43.7787237" lon="12.7488131"><ele>303.2</ele><time>2026-04-12T09:12:25.156Z</time></trkpt><trkpt lat="43.7786402" lon="12.7488742"><ele>303.0</ele><time>2026-04-12T09:12:26.155Z</time></trkpt><trkpt lat="43.7785611" lon="12.7489331"><ele>303.8333333333333</ele><time>2026-04-12T09:12:27.154Z</time></trkpt><trkpt lat="43.7784854" lon="12.7489878"><ele>304.6666666666667</ele><time>2026-04-12T09:12:28.154Z</time></trkpt><trkpt lat="43.7784101" lon="12.7490399"><ele>305.5</ele><time>2026-04-12T09:12:29.153Z</time></trkpt><trkpt lat="43.7783323" lon="12.7490956"><ele>306.33333333333337</ele><time>2026-04-12T09:12:30.156Z</time></trkpt><trkpt lat="43.7782555" lon="12.7491488"><ele>307.1666666666667</ele><time>2026-04-12T09:12:31.154Z</time></trkpt><trkpt lat="43.7781799" lon="12.749186"><ele>308.0</ele><time>2026-04-12T09:12:32.154Z</time></trkpt><trkpt lat="43.7780979" lon="12.7492174"><ele>308.0</ele><time>2026-04-12T09:12:33.154Z</time></trkpt><trkpt lat="43.778017" lon="12.7492663"><ele>308.0</ele><time>2026-04-12T09:12:34.153Z</time></trkpt><trkpt lat="43.7779334" lon="12.7493204"><ele>308.0</ele><time>2026-04-12T09:12:35.154Z</time></trkpt><trkpt lat="43.7778538" lon="12.7493608"><ele>308.0</ele><time>2026-04-12T09:12:36.155Z</time></trkpt><trkpt lat="43.7777785" lon="12.7494065"><ele>308.0</ele><time>2026-04-12T09:12:37.154Z</time></trkpt><trkpt lat="43.7777042" lon="12.7494422"><ele>308.0</ele><time>2026-04-12T09:12:38.155Z</time></trkpt><trkpt lat="43.7776255" lon="12.7494836"><ele>306.33333333333337</ele><time>2026-04-12T09:12:39.155Z</time></trkpt><trkpt lat="43.7775429" lon="12.7495273"><ele>304.6666666666667</ele><time>2026-04-12T09:12:40.153Z</time></trkpt><trkpt lat="43.7774608" lon="12.7495778"><ele>303.0</ele><time>2026-04-12T09:12:41.153Z</time></trkpt><trkpt lat="43.7773767" lon="12.7496327"><ele>301.3333333333333</ele><time>2026-04-12T09:12:42.155Z</time></trkpt><trkpt lat="43.7773009" lon="12.7496882"><ele>299.66666666666663</ele><time>2026-04-12T09:12:43.155Z</time></trkpt><trkpt lat="43.7772301" lon="12.7497448"><ele>298.0</ele><time>2026-04-12T09:12:44.153Z</time></trkpt><trkpt lat="43.7771619" lon="12.7497988"><ele>298.0</ele><time>2026-04-12T09:12:45.154Z</time></trkpt><trkpt lat="43.7770981" lon="12.7498563"><ele>298.0</ele><time>2026-04-12T09:12:46.154Z</time></trkpt><trkpt lat="43.777039" lon="12.7499248"><ele>298.0</ele><time>2026-04-12T09:12:47.153Z</time></trkpt><trkpt lat="43.7769813" lon="12.7499912"><ele>298.0</ele><time>2026-04-12T09:12:48.155Z</time></trkpt><trkpt lat="43.776926" lon="12.7500571"><ele>298.0</ele><time>2026-04-12T09:12:49.156Z</time></trkpt><trkpt lat="43.7768689" lon="12.7501167"><ele>298.0</ele><time>2026-04-12T09:12:50.154Z</time></trkpt><trkpt lat="43.7768172" lon="12.7501782"><ele>298.0</ele><time>2026-04-12T09:12:51.154Z</time></trkpt><trkpt lat="43.776774" lon="12.7502457"><ele>297.85714285714283</ele><time>2026-04-12T09:12:52.154Z</time></trkpt><trkpt lat="43.7767276" lon="12.7503179"><ele>297.71428571428567</ele><time>2026-04-12T09:12:53.155Z</time></trkpt><trkpt lat="43.7766809" lon="12.7503948"><ele>297.57142857142856</ele><time>2026-04-12T09:12:54.154Z</time></trkpt><trkpt lat="43.7766429" lon="12.7504802"><ele>297.42857142857144</ele><time>2026-04-12T09:12:55.154Z</time></trkpt><trkpt lat="43.7766026" lon="12.7505646"><ele>297.28571428571433</ele><time>2026-04-12T09:12:56.155Z</time></trkpt><trkpt lat="43.7765515" lon="12.7506308"><ele>297.14285714285717</ele><time>2026-04-12T09:12:57.154Z</time></trkpt><trkpt lat="43.7764924" lon="12.7506869"><ele>297.0</ele><time>2026-04-12T09:12:58.154Z</time></trkpt><trkpt lat="43.7764203" lon="12.7507204"><ele>297.0</ele><time>2026-04-12T09:12:59.153Z</time></trkpt><trkpt lat="43.7763371" lon="12.7507419"><ele>297.0</ele><time>2026-04-12T09:13:00.155Z</time></trkpt><trkpt lat="43.776254" lon="12.7507622"><ele>297.0</ele><time>2026-04-12T09:13:01.154Z</time></trkpt><trkpt lat="43.77617" lon="12.7507824"><ele>297.0</ele><time>2026-04-12T09:13:02.155Z</time></trkpt><trkpt lat="43.7760815" lon="12.7508042"><ele>297.0</ele><time>2026-04-12T09:13:03.154Z</time></trkpt><trkpt lat="43.7759869" lon="12.7508306"><ele>297.0</ele><time>2026-04-12T09:13:04.154Z</time></trkpt><trkpt lat="43.775889" lon="12.7508503"><ele>298.1666666666667</ele><time>2026-04-12T09:13:05.155Z</time></trkpt><trkpt lat="43.7758064" lon="12.7508684"><ele>299.3333333333333</ele><time>2026-04-12T09:13:06.154Z</time></trkpt><trkpt lat="43.7757365" lon="12.7508931"><ele>300.5</ele><time>2026-04-12T09:13:07.153Z</time></trkpt><trkpt lat="43.7756744" lon="12.7509272"><ele>301.66666666666663</ele><time>2026-04-12T09:13:08.155Z</time></trkpt><trkpt lat="43.7756238" lon="12.7509812"><ele>302.8333333333333</ele><time>2026-04-12T09:13:09.154Z</time></trkpt><trkpt lat="43.7756039" lon="12.7510854"><ele>304.0</ele><time>2026-04-12T09:13:10.156Z</time></trkpt><trkpt lat="43.7756084" lon="12.7512069"><ele>303.3333333333333</ele><time>2026-04-12T09:13:11.153Z</time></trkpt><trkpt lat="43.7756335" lon="12.7513446"><ele>302.66666666666663</ele><time>2026-04-12T09:13:12.155Z</time></trkpt><trkpt lat="43.7756552" lon="12.7514713"><ele>302.0</ele><time>2026-04-12T09:13:13.154Z</time></trkpt><trkpt lat="43.7756709" lon="12.7515925"><ele>301.3333333333333</ele><time>2026-04-12T09:13:14.155Z</time></trkpt><trkpt lat="43.7756806" lon="12.7517061"><ele>300.6666666666667</ele><time>2026-04-12T09:13:15.154Z</time></trkpt><trkpt lat="43.7756792" lon="12.7518125"><ele>300.0</ele><time>2026-04-12T09:13:16.154Z</time></trkpt><trkpt lat="43.7756683" lon="12.7519151"><ele>300.0</ele><time>2026-04-12T09:13:17.153Z</time></trkpt><trkpt lat="43.7756483" lon="12.752012"><ele>300.0</ele><time>2026-04-12T09:13:18.155Z</time></trkpt><trkpt lat="43.7756174" lon="12.7521042"><ele>300.0</ele><time>2026-04-12T09:13:19.154Z</time></trkpt><trkpt lat="43.7755849" lon="12.7521932"><ele>300.0</ele><time>2026-04-12T09:13:20.155Z</time></trkpt><trkpt lat="43.775537" lon="12.752281"><ele>300.0</ele><time>2026-04-12T09:13:21.153Z</time></trkpt><trkpt lat="43.7754829" lon="12.7523621"><ele>300.0</ele><time>2026-04-12T09:13:22.154Z</time></trkpt><trkpt lat="43.7754316" lon="12.7524458"><ele>300.0</ele><time>2026-04-12T09:13:23.154Z</time></trkpt><trkpt lat="43.7753817" lon="12.7525303"><ele>300.0</ele><time>2026-04-12T09:13:24.154Z</time></trkpt><trkpt lat="43.775324" lon="12.75262"><ele>300.0</ele><time>2026-04-12T09:13:25.153Z</time></trkpt><trkpt lat="43.7752739" lon="12.7527038"><ele>300.0</ele><time>2026-04-12T09:13:26.154Z</time></trkpt><trkpt lat="43.7752171" lon="12.7527861"><ele>300.0</ele><time>2026-04-12T09:13:27.154Z</time></trkpt><trkpt lat="43.7751647" lon="12.752869"><ele>300.0</ele><time>2026-04-12T09:13:28.153Z</time></trkpt><trkpt lat="43.7751061" lon="12.7529537"><ele>302.0</ele><time>2026-04-12T09:13:29.156Z</time></trkpt><trkpt lat="43.7750509" lon="12.7530344"><ele>304.0</ele><time>2026-04-12T09:13:30.155Z</time></trkpt><trkpt lat="43.7750009" lon="12.7531111"><ele>306.0</ele><time>2026-04-12T09:13:31.154Z</time></trkpt><trkpt lat="43.7749486" lon="12.7531874"><ele>308.0</ele><time>2026-04-12T09:13:32.154Z</time></trkpt><trkpt lat="43.774898" lon="12.7532708"><ele>310.0</ele><time>2026-04-12T09:13:33.155Z</time></trkpt><trkpt lat="43.7748479" lon="12.7533634"><ele>312.0</ele><time>2026-04-12T09:13:34.154Z</time></trkpt><trkpt lat="43.7747967" lon="12.7534596"><ele>310.3333333333333</ele><time>2026-04-12T09:13:35.156Z</time></trkpt><trkpt lat="43.7747414" lon="12.7535519"><ele>308.6666666666667</ele><time>2026-04-12T09:13:36.155Z</time></trkpt><trkpt lat="43.7746876" lon="12.7536308"><ele>307.0</ele><time>2026-04-12T09:13:37.156Z</time></trkpt><trkpt lat="43.7746336" lon="12.7537054"><ele>305.33333333333337</ele><time>2026-04-12T09:13:38.156Z</time></trkpt><trkpt lat="43.7745782" lon="12.7537704"><ele>303.6666666666667</ele><time>2026-04-12T09:13:39.156Z</time></trkpt><trkpt lat="43.7745158" lon="12.7538298"><ele>302.0</ele><time>2026-04-12T09:13:40.155Z</time></trkpt><trkpt lat="43.7744444" lon="12.7538789"><ele>302.0</ele><time>2026-04-12T09:13:41.155Z</time></trkpt><trkpt lat="43.7743666" lon="12.7539204"><ele>302.0</ele><time>2026-04-12T09:13:42.156Z</time></trkpt><trkpt lat="43.7742865" lon="12.7539555"><ele>302.0</ele><time>2026-04-12T09:13:43.156Z</time></trkpt><trkpt lat="43.7742084" lon="12.7539853"><ele>302.0</ele><time>2026-04-12T09:13:44.155Z</time></trkpt><trkpt lat="43.7741288" lon="12.7540136"><ele>302.0</ele><time>2026-04-12T09:13:45.154Z</time></trkpt><trkpt lat="43.7740515" lon="12.754051"><ele>302.0</ele><time>2026-04-12T09:13:46.152Z</time></trkpt><trkpt lat="43.7739811" lon="12.7541015"><ele>304.0</ele><time>2026-04-12T09:13:47.153Z</time></trkpt><trkpt lat="43.7739232" lon="12.7541694"><ele>306.0</ele><time>2026-04-12T09:13:48.154Z</time></trkpt><trkpt lat="43.7738785" lon="12.7542423"><ele>308.0</ele><time>2026-04-12T09:13:49.153Z</time></trkpt><trkpt lat="43.7738423" lon="12.7543175"><ele>310.0</ele><time>2026-04-12T09:13:50.153Z</time></trkpt><trkpt lat="43.7737876" lon="12.7544765"><ele>312.0</ele><time>2026-04-12T09:13:52.156Z</time></trkpt><trkpt lat="43.7737636" lon="12.7545704"><ele>314.0</ele><time>2026-04-12T09:13:53.153Z</time></trkpt><trkpt lat="43.7737301" lon="12.7546716"><ele>314.0</ele><time>2026-04-12T09:13:54.154Z</time></trkpt><trkpt lat="43.7736883" lon="12.7547748"><ele>314.0</ele><time>2026-04-12T09:13:55.153Z</time></trkpt><trkpt lat="43.7736392" lon="12.7548777"><ele>314.0</ele><time>2026-04-12T09:13:56.158Z</time></trkpt><trkpt lat="43.7735846" lon="12.7549772"><ele>314.0</ele><time>2026-04-12T09:13:57.155Z</time></trkpt><trkpt lat="43.7735223" lon="12.7550799"><ele>314.0</ele><time>2026-04-12T09:13:58.155Z</time></trkpt><trkpt lat="43.7734575" lon="12.7551806"><ele>316.4</ele><time>2026-04-12T09:13:59.153Z</time></trkpt><trkpt lat="43.7733951" lon="12.7552823"><ele>318.79999999999995</ele><time>2026-04-12T09:14:00.154Z</time></trkpt><trkpt lat="43.7733333" lon="12.7553872"><ele>321.20000000000005</ele><time>2026-04-12T09:14:01.155Z</time></trkpt><trkpt lat="43.7732773" lon="12.7554959"><ele>323.6</ele><time>2026-04-12T09:14:02.154Z</time></trkpt><trkpt lat="43.7732258" lon="12.7556092"><ele>326.0</ele><time>2026-04-12T09:14:03.153Z</time></trkpt><trkpt lat="43.7731777" lon="12.7557257"><ele>326.0</ele><time>2026-04-12T09:14:04.153Z</time></trkpt><trkpt lat="43.7731415" lon="12.7558491"><ele>326.0</ele><time>2026-04-12T09:14:05.156Z</time></trkpt><trkpt lat="43.7731131" lon="12.7559702"><ele>326.0</ele><time>2026-04-12T09:14:06.154Z</time></trkpt><trkpt lat="43.773088" lon="12.7560877"><ele>326.0</ele><time>2026-04-12T09:14:07.153Z</time></trkpt><trkpt lat="43.7730595" lon="12.7562008"><ele>326.0</ele><time>2026-04-12T09:14:08.154Z</time></trkpt><trkpt lat="43.7730273" lon="12.7563075"><ele>326.0</ele><time>2026-04-12T09:14:09.154Z</time></trkpt><trkpt lat="43.7729979" lon="12.7564204"><ele>326.0</ele><time>2026-04-12T09:14:10.154Z</time></trkpt><trkpt lat="43.7729713" lon="12.7565326"><ele>326.0</ele><time>2026-04-12T09:14:11.154Z</time></trkpt><trkpt lat="43.7729516" lon="12.7566433"><ele>326.0</ele><time>2026-04-12T09:14:12.153Z</time></trkpt><trkpt lat="43.7729305" lon="12.7567549"><ele>326.0</ele><time>2026-04-12T09:14:13.154Z</time></trkpt><trkpt lat="43.7729063" lon="12.756865"><ele>326.0</ele><time>2026-04-12T09:14:14.153Z</time></trkpt><trkpt lat="43.7728774" lon="12.7569721"><ele>326.0</ele><time>2026-04-12T09:14:15.153Z</time></trkpt><trkpt lat="43.772839" lon="12.7570774"><ele>325.6</ele><time>2026-04-12T09:14:16.16Z</time></trkpt><trkpt lat="43.7727927" lon="12.7571813"><ele>325.20000000000005</ele><time>2026-04-12T09:14:17.154Z</time></trkpt><trkpt lat="43.7727535" lon="12.7572911"><ele>324.79999999999995</ele><time>2026-04-12T09:14:18.154Z</time></trkpt><trkpt lat="43.7727136" lon="12.7574027"><ele>324.4</ele><time>2026-04-12T09:14:19.155Z</time></trkpt><trkpt lat="43.7726762" lon="12.7575173"><ele>324.0</ele><time>2026-04-12T09:14:20.154Z</time></trkpt><trkpt lat="43.7726389" lon="12.7576341"><ele>328.1666666666667</ele><time>2026-04-12T09:14:21.154Z</time></trkpt><trkpt lat="43.7726072" lon="12.7577489"><ele>332.3333333333333</ele><time>2026-04-12T09:14:22.153Z</time></trkpt><trkpt lat="43.7725786" lon="12.7578603"><ele>336.5</ele><time>2026-04-12T09:14:23.154Z</time></trkpt><trkpt lat="43.7725489" lon="12.7579747"><ele>340.66666666666663</ele><time>2026-04-12T09:14:24.154Z</time></trkpt><trkpt lat="43.7725202" lon="12.7580856"><ele>344.8333333333333</ele><time>2026-04-12T09:14:25.153Z</time></trkpt><trkpt lat="43.772492" lon="12.7581914"><ele>349.0</ele><time>2026-04-12T09:14:26.154Z</time></trkpt><trkpt lat="43.7724668" lon="12.758299"><ele>349.0</ele><time>2026-04-12T09:14:27.154Z</time></trkpt><trkpt lat="43.7724406" lon="12.7584119"><ele>349.0</ele><time>2026-04-12T09:14:28.153Z</time></trkpt><trkpt lat="43.7724225" lon="12.7585352"><ele>349.0</ele><time>2026-04-12T09:14:29.155Z</time></trkpt><trkpt lat="43.7724206" lon="12.7586625"><ele>349.0</ele><time>2026-04-12T09:14:30.153Z</time></trkpt><trkpt lat="43.7724262" lon="12.758793"><ele>349.0</ele><time>2026-04-12T09:14:31.153Z</time></trkpt><trkpt lat="43.772439" lon="12.7589248"><ele>349.5</ele><time>2026-04-12T09:14:32.154Z</time></trkpt><trkpt lat="43.772458" lon="12.7590556"><ele>350.0</ele><time>2026-04-12T09:14:33.154Z</time></trkpt><trkpt lat="43.7724741" lon="12.7591785"><ele>350.5</ele><time>2026-04-12T09:14:34.154Z</time></trkpt><trkpt lat="43.7724803" lon="12.7593006"><ele>351.0</ele><time>2026-04-12T09:14:35.154Z</time></trkpt><trkpt lat="43.7724709" lon="12.7594168"><ele>351.5</ele><time>2026-04-12T09:14:36.154Z</time></trkpt><trkpt lat="43.7724489" lon="12.7595303"><ele>352.0</ele><time>2026-04-12T09:14:37.154Z</time></trkpt><trkpt lat="43.7724143" lon="12.7596409"><ele>352.0</ele><time>2026-04-12T09:14:38.154Z</time></trkpt><trkpt lat="43.7723823" lon="12.759749"><ele>352.0</ele><time>2026-04-12T09:14:39.153Z</time></trkpt><trkpt lat="43.7723344" lon="12.7598498"><ele>352.0</ele><time>2026-04-12T09:14:40.155Z</time></trkpt><trkpt lat="43.7722627" lon="12.759945"><ele>352.0</ele><time>2026-04-12T09:14:41.155Z</time></trkpt><trkpt lat="43.772196" lon="12.7600368"><ele>352.0</ele><time>2026-04-12T09:14:42.153Z</time></trkpt><trkpt lat="43.772126" lon="12.7601179"><ele>351.0</ele><time>2026-04-12T09:14:43.153Z</time></trkpt><trkpt lat="43.7720646" lon="12.7602038"><ele>350.0</ele><time>2026-04-12T09:14:44.154Z</time></trkpt><trkpt lat="43.772022" lon="12.7603"><ele>349.0</ele><time>2026-04-12T09:14:45.154Z</time></trkpt><trkpt lat="43.7719719" lon="12.7604088"><ele>348.0</ele><time>2026-04-12T09:14:46.154Z</time></trkpt><trkpt lat="43.7719392" lon="12.7605215"><ele>347.0</ele><time>2026-04-12T09:14:47.153Z</time></trkpt><trkpt lat="43.7719199" lon="12.7606388"><ele>346.0</ele><time>2026-04-12T09:14:48.155Z</time></trkpt><trkpt lat="43.7719064" lon="12.7607622"><ele>346.0</ele><time>2026-04-12T09:14:49.154Z</time></trkpt><trkpt lat="43.7718767" lon="12.7608798"><ele>346.0</ele><time>2026-04-12T09:14:50.154Z</time></trkpt><trkpt lat="43.7718421" lon="12.7609901"><ele>346.0</ele><time>2026-04-12T09:14:51.156Z</time></trkpt><trkpt lat="43.7718058" lon="12.7610964"><ele>346.0</ele><time>2026-04-12T09:14:52.154Z</time></trkpt><trkpt lat="43.7717606" lon="12.7611985"><ele>346.0</ele><time>2026-04-12T09:14:53.154Z</time></trkpt><trkpt lat="43.7717216" lon="12.7612896"><ele>346.0</ele><time>2026-04-12T09:14:54.154Z</time></trkpt><trkpt lat="43.771689" lon="12.7613804"><ele>350.0</ele><time>2026-04-12T09:14:55.154Z</time></trkpt><trkpt lat="43.7716602" lon="12.7614653"><ele>354.0</ele><time>2026-04-12T09:14:56.152Z</time></trkpt><trkpt lat="43.771647" lon="12.7615539"><ele>358.0</ele><time>2026-04-12T09:14:57.152Z</time></trkpt><trkpt lat="43.7716173" lon="12.7616989"><ele>362.0</ele><time>2026-04-12T09:14:59.153Z</time></trkpt><trkpt lat="43.7715855" lon="12.7618765"><ele>366.0</ele><time>2026-04-12T09:15:01.153Z</time></trkpt><trkpt lat="43.771561" lon="12.76198"><ele>366.0</ele><time>2026-04-12T09:15:02.153Z</time></trkpt><trkpt lat="43.7715318" lon="12.7620888"><ele>366.0</ele><time>2026-04-12T09:15:03.153Z</time></trkpt><trkpt lat="43.7714917" lon="12.7621837"><ele>366.0</ele><time>2026-04-12T09:15:04.154Z</time></trkpt><trkpt lat="43.7714436" lon="12.7622691"><ele>366.0</ele><time>2026-04-12T09:15:05.155Z</time></trkpt><trkpt lat="43.7713928" lon="12.7623526"><ele>366.0</ele><time>2026-04-12T09:15:06.154Z</time></trkpt><trkpt lat="43.7713447" lon="12.7624449"><ele>366.0</ele><time>2026-04-12T09:15:07.152Z</time></trkpt><trkpt lat="43.7712899" lon="12.7625311"><ele>366.0</ele><time>2026-04-12T09:15:08.153Z</time></trkpt><trkpt lat="43.7712311" lon="12.7626147"><ele>366.0</ele><time>2026-04-12T09:15:09.155Z</time></trkpt><trkpt lat="43.7711709" lon="12.7626953"><ele>366.0</ele><time>2026-04-12T09:15:10.153Z</time></trkpt><trkpt lat="43.7710912" lon="12.7627531"><ele>366.0</ele><time>2026-04-12T09:15:11.153Z</time></trkpt><trkpt lat="43.7710139" lon="12.7628105"><ele>366.0</ele><time>2026-04-12T09:15:12.153Z</time></trkpt><trkpt lat="43.770933" lon="12.7628658"><ele>366.0</ele><time>2026-04-12T09:15:13.151Z</time></trkpt><trkpt lat="43.7708489" lon="12.7629116"><ele>367.0</ele><time>2026-04-12T09:15:14.152Z</time></trkpt><trkpt lat="43.7707642" lon="12.7629761"><ele>368.0</ele><time>2026-04-12T09:15:15.153Z</time></trkpt><trkpt lat="43.7706916" lon="12.7630487"><ele>369.0</ele><time>2026-04-12T09:15:16.153Z</time></trkpt><trkpt lat="43.7706244" lon="12.7631226"><ele>370.0</ele><time>2026-04-12T09:15:17.151Z</time></trkpt><trkpt lat="43.7705551" lon="12.7631881"><ele>371.0</ele><time>2026-04-12T09:15:18.152Z</time></trkpt><trkpt lat="43.7704863" lon="12.763251"><ele>372.0</ele><time>2026-04-12T09:15:19.153Z</time></trkpt><trkpt lat="43.7704153" lon="12.7633139"><ele>372.0</ele><time>2026-04-12T09:15:20.153Z</time></trkpt><trkpt lat="43.7703473" lon="12.7633765"><ele>372.0</ele><time>2026-04-12T09:15:21.152Z</time></trkpt><trkpt lat="43.770279" lon="12.7634346"><ele>372.0</ele><time>2026-04-12T09:15:22.153Z</time></trkpt><trkpt lat="43.7702115" lon="12.7634942"><ele>372.0</ele><time>2026-04-12T09:15:23.153Z</time></trkpt><trkpt lat="43.7701501" lon="12.7635625"><ele>372.0</ele><time>2026-04-12T09:15:24.154Z</time></trkpt><trkpt lat="43.7700911" lon="12.763642"><ele>372.0</ele><time>2026-04-12T09:15:25.153Z</time></trkpt><trkpt lat="43.7700307" lon="12.7637188"><ele>373.1666666666667</ele><time>2026-04-12T09:15:26.154Z</time></trkpt><trkpt lat="43.7699786" lon="12.7637933"><ele>374.3333333333333</ele><time>2026-04-12T09:15:27.153Z</time></trkpt><trkpt lat="43.7699237" lon="12.7638674"><ele>375.5</ele><time>2026-04-12T09:15:28.152Z</time></trkpt><trkpt lat="43.769867" lon="12.7639363"><ele>376.66666666666663</ele><time>2026-04-12T09:15:29.153Z</time></trkpt><trkpt lat="43.7697977" lon="12.7639804"><ele>377.8333333333333</ele><time>2026-04-12T09:15:30.153Z</time></trkpt><trkpt lat="43.7697214" lon="12.7640016"><ele>379.0</ele><time>2026-04-12T09:15:31.152Z</time></trkpt><trkpt lat="43.7696411" lon="12.7640109"><ele>379.0</ele><time>2026-04-12T09:15:32.152Z</time></trkpt><trkpt lat="43.7695602" lon="12.7640277"><ele>379.0</ele><time>2026-04-12T09:15:33.153Z</time></trkpt><trkpt lat="43.7694853" lon="12.7640487"><ele>379.0</ele><time>2026-04-12T09:15:34.153Z</time></trkpt><trkpt lat="43.7694101" lon="12.7640852"><ele>379.0</ele><time>2026-04-12T09:15:35.152Z</time></trkpt><trkpt lat="43.7693412" lon="12.7641297"><ele>379.0</ele><time>2026-04-12T09:15:36.152Z</time></trkpt><trkpt lat="43.7692724" lon="12.7641728"><ele>379.0</ele><time>2026-04-12T09:15:37.153Z</time></trkpt><trkpt lat="43.7691989" lon="12.7642047"><ele>379.42857142857144</ele><time>2026-04-12T09:15:38.154Z</time></trkpt><trkpt lat="43.7691231" lon="12.7642343"><ele>379.8571428571429</ele><time>2026-04-12T09:15:39.152Z</time></trkpt><trkpt lat="43.7690455" lon="12.7642618"><ele>380.28571428571433</ele><time>2026-04-12T09:15:40.152Z</time></trkpt><trkpt lat="43.7689751" lon="12.7642787"><ele>380.7142857142857</ele><time>2026-04-12T09:15:41.153Z</time></trkpt><trkpt lat="43.7689055" lon="12.764296"><ele>381.1428571428571</ele><time>2026-04-12T09:15:42.153Z</time></trkpt><trkpt lat="43.7688372" lon="12.764315"><ele>381.5714285714286</ele><time>2026-04-12T09:15:43.152Z</time></trkpt><trkpt lat="43.7687729" lon="12.7643271"><ele>382.0</ele><time>2026-04-12T09:15:44.152Z</time></trkpt><trkpt lat="43.768661" lon="12.7643811"><ele>382.0</ele><time>2026-04-12T09:15:46.153Z</time></trkpt><trkpt lat="43.7685935" lon="12.7645219"><ele>382.0</ele><time>2026-04-12T09:15:48.152Z</time></trkpt><trkpt lat="43.7686045" lon="12.7646386"><ele>382.0</ele><time>2026-04-12T09:15:49.153Z</time></trkpt><trkpt lat="43.7686313" lon="12.7647576"><ele>382.0</ele><time>2026-04-12T09:15:50.152Z</time></trkpt><trkpt lat="43.7686656" lon="12.7648758"><ele>382.0</ele><time>2026-04-12T09:15:51.153Z</time></trkpt><trkpt lat="43.7686921" lon="12.7649844"><ele>382.0</ele><time>2026-04-12T09:15:52.152Z</time></trkpt><trkpt lat="43.7687262" lon="12.7650829"><ele>382.0</ele><time>2026-04-12T09:15:53.152Z</time></trkpt><trkpt lat="43.7687541" lon="12.7651707"><ele>382.0</ele><time>2026-04-12T09:15:54.153Z</time></trkpt><trkpt lat="43.7687531" lon="12.7653238"><ele>382.0</ele><time>2026-04-12T09:15:56.153Z</time></trkpt><trkpt lat="43.768665" lon="12.76545"><ele>382.0</ele><time>2026-04-12T09:15:58.153Z</time></trkpt><trkpt lat="43.7685867" lon="12.7655"><ele>386.0</ele><time>2026-04-12T09:15:59.152Z</time></trkpt><trkpt lat="43.7684867" lon="12.7655433"><ele>390.0</ele><time>2026-04-12T09:16:00.152Z</time></trkpt><trkpt lat="43.7683917" lon="12.765585"><ele>394.0</ele><time>2026-04-12T09:16:01.152Z</time></trkpt><trkpt lat="43.76831" lon="12.765645"><ele>398.0</ele><time>2026-04-12T09:16:02.153Z</time></trkpt><trkpt lat="43.768245" lon="12.7657233"><ele>402.0</ele><time>2026-04-12T09:16:03.152Z</time></trkpt><trkpt lat="43.7681917" lon="12.7658317"><ele>402.0</ele><time>2026-04-12T09:16:04.152Z</time></trkpt><trkpt lat="43.7681533" lon="12.7659733"><ele>402.0</ele><time>2026-04-12T09:16:05.152Z</time></trkpt><trkpt lat="43.768135" lon="12.76612"><ele>402.0</ele><time>2026-04-12T09:16:06.152Z</time></trkpt><trkpt lat="43.7681367" lon="12.7662783"><ele>402.0</ele><time>2026-04-12T09:16:07.151Z</time></trkpt><trkpt lat="43.7681317" lon="12.7664517"><ele>402.0</ele><time>2026-04-12T09:16:08.153Z</time></trkpt><trkpt lat="43.7681383" lon="12.7666283"><ele>402.0</ele><time>2026-04-12T09:16:09.155Z</time></trkpt><trkpt lat="43.7681517" lon="12.7667683"><ele>402.0</ele><time>2026-04-12T09:16:10.153Z</time></trkpt><trkpt lat="43.7681683" lon="12.7668867"><ele>402.0</ele><time>2026-04-12T09:16:11.152Z</time></trkpt><trkpt lat="43.7681567" lon="12.7669983"><ele>402.0</ele><time>2026-04-12T09:16:12.153Z</time></trkpt><trkpt lat="43.7681233" lon="12.7671117"><ele>400.1666666666667</ele><time>2026-04-12T09:16:13.154Z</time></trkpt><trkpt lat="43.7680933" lon="12.7672283"><ele>398.33333333333337</ele><time>2026-04-12T09:16:14.154Z</time></trkpt><trkpt lat="43.7680483" lon="12.7673367"><ele>396.5</ele><time>2026-04-12T09:16:15.153Z</time></trkpt><trkpt lat="43.76798" lon="12.7674233"><ele>394.6666666666667</ele><time>2026-04-12T09:16:16.152Z</time></trkpt><trkpt lat="43.76792" lon="12.7675"><ele>392.83333333333337</ele><time>2026-04-12T09:16:17.153Z</time></trkpt><trkpt lat="43.7678533" lon="12.767565"><ele>391.0</ele><time>2026-04-12T09:16:18.154Z</time></trkpt><trkpt lat="43.76779" lon="12.7676367"><ele>392.33333333333337</ele><time>2026-04-12T09:16:19.152Z</time></trkpt><trkpt lat="43.7677267" lon="12.7676967"><ele>393.6666666666667</ele><time>2026-04-12T09:16:20.153Z</time></trkpt><trkpt lat="43.7676617" lon="12.767735"><ele>395.0</ele><time>2026-04-12T09:16:21.153Z</time></trkpt><trkpt lat="43.7676083" lon="12.7677817"><ele>396.33333333333337</ele><time>2026-04-12T09:16:22.153Z</time></trkpt><trkpt lat="43.7675" lon="12.7678633"><ele>397.6666666666667</ele><time>2026-04-12T09:16:24.152Z</time></trkpt><trkpt lat="43.76743" lon="12.7679"><ele>399.0</ele><time>2026-04-12T09:16:25.152Z</time></trkpt><trkpt lat="43.767345" lon="12.7679233"><ele>399.0</ele><time>2026-04-12T09:16:26.153Z</time></trkpt><trkpt lat="43.767255" lon="12.7679483"><ele>399.0</ele><time>2026-04-12T09:16:27.153Z</time></trkpt><trkpt lat="43.76717" lon="12.76797"><ele>399.0</ele><time>2026-04-12T09:16:28.153Z</time></trkpt><trkpt lat="43.7670867" lon="12.7679867"><ele>399.0</ele><time>2026-04-12T09:16:29.152Z</time></trkpt><trkpt lat="43.7670167" lon="12.768005"><ele>399.0</ele><time>2026-04-12T09:16:30.153Z</time></trkpt><trkpt lat="43.766955" lon="12.7680267"><ele>399.0</ele><time>2026-04-12T09:16:31.153Z</time></trkpt><trkpt lat="43.7668537" lon="12.7680795"><ele>401.2</ele><time>2026-04-12T09:16:33.153Z</time></trkpt><trkpt lat="43.7667761" lon="12.7681625"><ele>403.4</ele><time>2026-04-12T09:16:35.153Z</time></trkpt><trkpt lat="43.7666956" lon="12.768305"><ele>405.6</ele><time>2026-04-12T09:16:37.154Z</time></trkpt><trkpt lat="43.766666" lon="12.7684008"><ele>407.8</ele><time>2026-04-12T09:16:38.154Z</time></trkpt><trkpt lat="43.7666452" lon="12.7685062"><ele>410.0</ele><time>2026-04-12T09:16:39.155Z</time></trkpt><trkpt lat="43.7666295" lon="12.7686178"><ele>409.99999999999994</ele><time>2026-04-12T09:16:40.154Z</time></trkpt><trkpt lat="43.7666279" lon="12.7687396"><ele>410.0</ele><time>2026-04-12T09:16:41.154Z</time></trkpt><trkpt lat="43.7666254" lon="12.7688655"><ele>410.0</ele><time>2026-04-12T09:16:42.153Z</time></trkpt><trkpt lat="43.7666204" lon="12.7689933"><ele>410.0</ele><time>2026-04-12T09:16:43.154Z</time></trkpt><trkpt lat="43.7666076" lon="12.7691176"><ele>409.99999999999994</ele><time>2026-04-12T09:16:44.153Z</time></trkpt><trkpt lat="43.7665905" lon="12.7692305"><ele>410.0</ele><time>2026-04-12T09:16:45.151Z</time></trkpt><trkpt lat="43.7665785" lon="12.7693437"><ele>408.66666666666663</ele><time>2026-04-12T09:16:46.153Z</time></trkpt><trkpt lat="43.7665761" lon="12.7694463"><ele>407.3333333333333</ele><time>2026-04-12T09:16:47.153Z</time></trkpt><trkpt lat="43.7665746" lon="12.7695451"><ele>406.0</ele><time>2026-04-12T09:16:48.153Z</time></trkpt><trkpt lat="43.7665779" lon="12.7696389"><ele>404.66666666666663</ele><time>2026-04-12T09:16:49.153Z</time></trkpt><trkpt lat="43.7665815" lon="12.7697267"><ele>403.3333333333333</ele><time>2026-04-12T09:16:50.153Z</time></trkpt><trkpt lat="43.7665775" lon="12.769893"><ele>402.0</ele><time>2026-04-12T09:16:52.152Z</time></trkpt><trkpt lat="43.7665372" lon="12.7700622"><ele>402.0</ele><time>2026-04-12T09:16:54.153Z</time></trkpt><trkpt lat="43.766502" lon="12.770149"><ele>402.0</ele><time>2026-04-12T09:16:55.154Z</time></trkpt><trkpt lat="43.7664545" lon="12.7702304"><ele>402.0</ele><time>2026-04-12T09:16:56.153Z</time></trkpt><trkpt lat="43.7663993" lon="12.7703077"><ele>402.0</ele><time>2026-04-12T09:16:57.152Z</time></trkpt><trkpt lat="43.7663446" lon="12.7703838"><ele>402.0</ele><time>2026-04-12T09:16:58.152Z</time></trkpt><trkpt lat="43.7662918" lon="12.7704553"><ele>402.0</ele><time>2026-04-12T09:16:59.153Z</time></trkpt><trkpt lat="43.7662434" lon="12.7705175"><ele>402.0</ele><time>2026-04-12T09:17:00.154Z</time></trkpt><trkpt lat="43.766193" lon="12.7705779"><ele>403.20000000000005</ele><time>2026-04-12T09:17:01.153Z</time></trkpt><trkpt lat="43.7660992" lon="12.7706628"><ele>404.4</ele><time>2026-04-12T09:17:03.153Z</time></trkpt><trkpt lat="43.7660018" lon="12.7706959"><ele>405.6</ele><time>2026-04-12T09:17:05.153Z</time></trkpt><trkpt lat="43.7658983" lon="12.7706483"><ele>406.79999999999995</ele><time>2026-04-12T09:17:07.152Z</time></trkpt><trkpt lat="43.7658383" lon="12.7706183"><ele>408.0</ele><time>2026-04-12T09:17:08.153Z</time></trkpt><trkpt lat="43.7657283" lon="12.7705633"><ele>408.0</ele><time>2026-04-12T09:17:10.151Z</time></trkpt><trkpt lat="43.76562" lon="12.7705317"><ele>408.0</ele><time>2026-04-12T09:17:12.153Z</time></trkpt><trkpt lat="43.7655267" lon="12.7705033"><ele>408.0</ele><time>2026-04-12T09:17:14.153Z</time></trkpt><trkpt lat="43.76544" lon="12.7704733"><ele>408.0</ele><time>2026-04-12T09:17:16.152Z</time></trkpt><trkpt lat="43.765335" lon="12.770475"><ele>408.0</ele><time>2026-04-12T09:17:18.153Z</time></trkpt><trkpt lat="43.7652567" lon="12.7705033"><ele>406.5</ele><time>2026-04-12T09:17:20.154Z</time></trkpt><trkpt lat="43.7651917" lon="12.770535"><ele>405.0</ele><time>2026-04-12T09:17:22.152Z</time></trkpt><trkpt lat="43.765115" lon="12.770565"><ele>403.5</ele><time>2026-04-12T09:17:25.152Z</time></trkpt><trkpt lat="43.7650567" lon="12.7706083"><ele>402.0</ele><time>2026-04-12T09:17:27.152Z</time></trkpt><trkpt lat="43.7650117" lon="12.7707067"><ele>400.5</ele><time>2026-04-12T09:17:30.152Z</time></trkpt><trkpt lat="43.7649933" lon="12.7708233"><ele>399.0</ele><time>2026-04-12T09:17:33.153Z</time></trkpt><trkpt lat="43.7650017" lon="12.7709517"><ele>398.6666666666667</ele><time>2026-04-12T09:17:35.151Z</time></trkpt><trkpt lat="43.7650433" lon="12.7711083"><ele>398.33333333333337</ele><time>2026-04-12T09:17:37.152Z</time></trkpt><trkpt lat="43.7650667" lon="12.7712083"><ele>398.0</ele><time>2026-04-12T09:17:38.153Z</time></trkpt><trkpt lat="43.7650933" lon="12.7713067"><ele>397.6666666666667</ele><time>2026-04-12T09:17:39.152Z</time></trkpt><trkpt lat="43.7651217" lon="12.771405"><ele>397.33333333333337</ele><time>2026-04-12T09:17:40.153Z</time></trkpt><trkpt lat="43.7651433" lon="12.771515"><ele>397.0</ele><time>2026-04-12T09:17:41.153Z</time></trkpt><trkpt lat="43.7651717" lon="12.7716283"><ele>397.00000000000006</ele><time>2026-04-12T09:17:42.152Z</time></trkpt><trkpt lat="43.7651933" lon="12.77174"><ele>397.0</ele><time>2026-04-12T09:17:43.151Z</time></trkpt><trkpt lat="43.76522" lon="12.7718517"><ele>397.0</ele><time>2026-04-12T09:17:44.152Z</time></trkpt><trkpt lat="43.7652433" lon="12.7719717"><ele>397.0</ele><time>2026-04-12T09:17:45.153Z</time></trkpt><trkpt lat="43.7652667" lon="12.7720867"><ele>397.00000000000006</ele><time>2026-04-12T09:17:46.151Z</time></trkpt><trkpt lat="43.7652833" lon="12.7722"><ele>397.0</ele><time>2026-04-12T09:17:47.153Z</time></trkpt><trkpt lat="43.7652833" lon="12.7723067"><ele>396.00000000000006</ele><time>2026-04-12T09:17:48.153Z</time></trkpt><trkpt lat="43.76527" lon="12.7724133"><ele>395.0</ele><time>2026-04-12T09:17:49.152Z</time></trkpt><trkpt lat="43.7652417" lon="12.7725117"><ele>394.0</ele><time>2026-04-12T09:17:50.153Z</time></trkpt><trkpt lat="43.7652283" lon="12.7726017"><ele>393.0</ele><time>2026-04-12T09:17:51.244Z</time></trkpt><trkpt lat="43.765235" lon="12.7726917"><ele>392.00000000000006</ele><time>2026-04-12T09:17:52.151Z</time></trkpt><trkpt lat="43.7653133" lon="12.7728083"><ele>391.0</ele><time>2026-04-12T09:17:54.153Z</time></trkpt><trkpt lat="43.7653767" lon="12.7729317"><ele>389.00000000000006</ele><time>2026-04-12T09:17:56.154Z</time></trkpt><trkpt lat="43.7653667" lon="12.7730183"><ele>387.0</ele><time>2026-04-12T09:17:57.151Z</time></trkpt><trkpt lat="43.7653567" lon="12.77312"><ele>385.0</ele><time>2026-04-12T09:17:58.153Z</time></trkpt><trkpt lat="43.7653433" lon="12.7732317"><ele>383.0</ele><time>2026-04-12T09:17:59.153Z</time></trkpt><trkpt lat="43.7653333" lon="12.7733467"><ele>381.0</ele><time>2026-04-12T09:18:00.153Z</time></trkpt><trkpt lat="43.765325" lon="12.773455"><ele>379.0</ele><time>2026-04-12T09:18:01.152Z</time></trkpt><trkpt lat="43.765325" lon="12.7735683"><ele>377.5</ele><time>2026-04-12T09:18:02.152Z</time></trkpt><trkpt lat="43.76532" lon="12.7736867"><ele>376.0</ele><time>2026-04-12T09:18:03.153Z</time></trkpt><trkpt lat="43.7652883" lon="12.7737983"><ele>374.5</ele><time>2026-04-12T09:18:04.151Z</time></trkpt><trkpt lat="43.7652433" lon="12.7739067"><ele>373.0</ele><time>2026-04-12T09:18:05.154Z</time></trkpt><trkpt lat="43.76518" lon="12.7739983"><ele>371.5</ele><time>2026-04-12T09:18:06.153Z</time></trkpt><trkpt lat="43.7651167" lon="12.77409"><ele>370.0</ele><time>2026-04-12T09:18:07.153Z</time></trkpt><trkpt lat="43.7650667" lon="12.7741933"><ele>374.3333333333333</ele><time>2026-04-12T09:18:08.153Z</time></trkpt><trkpt lat="43.765025" lon="12.7743017"><ele>378.66666666666663</ele><time>2026-04-12T09:18:09.154Z</time></trkpt><trkpt lat="43.764995" lon="12.7744083"><ele>383.0</ele><time>2026-04-12T09:18:10.154Z</time></trkpt><trkpt lat="43.764965" lon="12.77451"><ele>387.3333333333333</ele><time>2026-04-12T09:18:11.153Z</time></trkpt><trkpt lat="43.7649433" lon="12.7746067"><ele>391.6666666666667</ele><time>2026-04-12T09:18:12.153Z</time></trkpt><trkpt lat="43.7649219" lon="12.774699"><ele>396.0</ele><time>2026-04-12T09:18:13.153Z</time></trkpt><trkpt lat="43.7648786" lon="12.7748522"><ele>396.0</ele><time>2026-04-12T09:18:15.151Z</time></trkpt><trkpt lat="43.7648478" lon="12.7749317"><ele>396.0</ele><time>2026-04-12T09:18:17.152Z</time></trkpt><trkpt lat="43.7648657" lon="12.7750387"><ele>396.0</ele><time>2026-04-12T09:18:32.153Z</time></trkpt><trkpt lat="43.7648574" lon="12.7751572"><ele>396.0</ele><time>2026-04-12T09:18:33.153Z</time></trkpt><trkpt lat="43.7648401" lon="12.7752735"><ele>396.0</ele><time>2026-04-12T09:18:34.152Z</time></trkpt><trkpt lat="43.7648184" lon="12.7753882"><ele>396.0</ele><time>2026-04-12T09:18:35.152Z</time></trkpt><trkpt lat="43.7647945" lon="12.7755161"><ele>394.8</ele><time>2026-04-12T09:18:36.152Z</time></trkpt><trkpt lat="43.7647656" lon="12.7756517"><ele>393.6</ele><time>2026-04-12T09:18:37.151Z</time></trkpt><trkpt lat="43.76471" lon="12.7757717"><ele>392.4</ele><time>2026-04-12T09:18:38.151Z</time></trkpt><trkpt lat="43.7646633" lon="12.7758883"><ele>391.2</ele><time>2026-04-12T09:18:39.153Z</time></trkpt><trkpt lat="43.7646367" lon="12.7759917"><ele>390.0</ele><time>2026-04-12T09:18:40.151Z</time></trkpt><trkpt lat="43.7646317" lon="12.7760967"><ele>390.0</ele><time>2026-04-12T09:18:41.151Z</time></trkpt><trkpt lat="43.76465" lon="12.7762233"><ele>390.0</ele><time>2026-04-12T09:18:42.151Z</time></trkpt><trkpt lat="43.76469" lon="12.7763467"><ele>390.0</ele><time>2026-04-12T09:18:43.152Z</time></trkpt><trkpt lat="43.7647417" lon="12.77646"><ele>390.0</ele><time>2026-04-12T09:18:44.152Z</time></trkpt><trkpt lat="43.7647867" lon="12.77658"><ele>390.0</ele><time>2026-04-12T09:18:45.152Z</time></trkpt><trkpt lat="43.7648317" lon="12.7766917"><ele>390.0</ele><time>2026-04-12T09:18:46.152Z</time></trkpt><trkpt lat="43.7648633" lon="12.776805"><ele>390.0</ele><time>2026-04-12T09:18:47.152Z</time></trkpt><trkpt lat="43.7648883" lon="12.77693"><ele>390.0</ele><time>2026-04-12T09:18:48.151Z</time></trkpt><trkpt lat="43.7648717" lon="12.7770717"><ele>390.0</ele><time>2026-04-12T09:18:49.152Z</time></trkpt><trkpt lat="43.7648467" lon="12.7772117"><ele>390.0</ele><time>2026-04-12T09:18:50.152Z</time></trkpt><trkpt lat="43.7648233" lon="12.77735"><ele>389.8</ele><time>2026-04-12T09:18:51.152Z</time></trkpt><trkpt lat="43.7648033" lon="12.77749"><ele>389.6</ele><time>2026-04-12T09:18:52.152Z</time></trkpt><trkpt lat="43.7647817" lon="12.77763"><ele>389.4</ele><time>2026-04-12T09:18:53.152Z</time></trkpt><trkpt lat="43.7647567" lon="12.777775"><ele>389.2</ele><time>2026-04-12T09:18:54.152Z</time></trkpt><trkpt lat="43.76474" lon="12.7779133"><ele>389.0</ele><time>2026-04-12T09:18:55.152Z</time></trkpt><trkpt lat="43.7647233" lon="12.7780467"><ele>389.6</ele><time>2026-04-12T09:18:56.153Z</time></trkpt><trkpt lat="43.7647083" lon="12.7781883"><ele>390.2</ele><time>2026-04-12T09:18:57.153Z</time></trkpt><trkpt lat="43.7647017" lon="12.7783317"><ele>390.8</ele><time>2026-04-12T09:18:58.151Z</time></trkpt><trkpt lat="43.764695" lon="12.7784733"><ele>391.40000000000003</ele><time>2026-04-12T09:18:59.152Z</time></trkpt><trkpt lat="43.7647083" lon="12.7786133"><ele>392.0</ele><time>2026-04-12T09:19:00.153Z</time></trkpt><trkpt lat="43.764735" lon="12.7787467"><ele>392.0</ele><time>2026-04-12T09:19:01.151Z</time></trkpt><trkpt lat="43.76478" lon="12.7788733"><ele>392.0</ele><time>2026-04-12T09:19:02.154Z</time></trkpt><trkpt lat="43.7648333" lon="12.7789967"><ele>392.0</ele><time>2026-04-12T09:19:03.152Z</time></trkpt><trkpt lat="43.76491" lon="12.7790933"><ele>392.0</ele><time>2026-04-12T09:19:04.152Z</time></trkpt><trkpt lat="43.765" lon="12.77916"><ele>392.0</ele><time>2026-04-12T09:19:05.153Z</time></trkpt><trkpt lat="43.7651017" lon="12.7791933"><ele>391.40000000000003</ele><time>2026-04-12T09:19:06.16Z</time></trkpt><trkpt lat="43.7652067" lon="12.779215"><ele>390.8</ele><time>2026-04-12T09:19:07.153Z</time></trkpt><trkpt lat="43.765315" lon="12.77922"><ele>390.2</ele><time>2026-04-12T09:19:08.152Z</time></trkpt><trkpt lat="43.7654233" lon="12.7792333"><ele>389.6</ele><time>2026-04-12T09:19:09.152Z</time></trkpt><trkpt lat="43.7655283" lon="12.779235"><ele>389.0</ele><time>2026-04-12T09:19:10.153Z</time></trkpt><trkpt lat="43.7656317" lon="12.7792267"><ele>389.0</ele><time>2026-04-12T09:19:11.152Z</time></trkpt><trkpt lat="43.765735" lon="12.7792033"><ele>389.0</ele><time>2026-04-12T09:19:12.157Z</time></trkpt><trkpt lat="43.765835" lon="12.77916"><ele>389.0</ele><time>2026-04-12T09:19:13.153Z</time></trkpt><trkpt lat="43.76594" lon="12.7791067"><ele>389.0</ele><time>2026-04-12T09:19:14.152Z</time></trkpt><trkpt lat="43.7660467" lon="12.7790417"><ele>389.0</ele><time>2026-04-12T09:19:15.152Z</time></trkpt><trkpt lat="43.7661617" lon="12.77899"><ele>389.0</ele><time>2026-04-12T09:19:16.152Z</time></trkpt><trkpt lat="43.7662683" lon="12.7789283"><ele>389.0</ele><time>2026-04-12T09:19:17.153Z</time></trkpt><trkpt lat="43.76637" lon="12.7788617"><ele>389.0</ele><time>2026-04-12T09:19:18.151Z</time></trkpt><trkpt lat="43.7664583" lon="12.7787833"><ele>389.0</ele><time>2026-04-12T09:19:19.151Z</time></trkpt><trkpt lat="43.7665467" lon="12.7787133"><ele>389.0</ele><time>2026-04-12T09:19:20.151Z</time></trkpt><trkpt lat="43.7666383" lon="12.7786767"><ele>389.0</ele><time>2026-04-12T09:19:21.155Z</time></trkpt><trkpt lat="43.7667267" lon="12.778635"><ele>389.0</ele><time>2026-04-12T09:19:22.152Z</time></trkpt><trkpt lat="43.7668183" lon="12.7786283"><ele>389.0</ele><time>2026-04-12T09:19:23.151Z</time></trkpt><trkpt lat="43.76691" lon="12.7786167"><ele>389.0</ele><time>2026-04-12T09:19:24.153Z</time></trkpt><trkpt lat="43.7670017" lon="12.778615"><ele>389.0</ele><time>2026-04-12T09:19:25.153Z</time></trkpt><trkpt lat="43.7670983" lon="12.77863"><ele>388.2</ele><time>2026-04-12T09:19:26.154Z</time></trkpt><trkpt lat="43.767195" lon="12.77865"><ele>387.4</ele><time>2026-04-12T09:19:27.153Z</time></trkpt><trkpt lat="43.7672817" lon="12.7786383"><ele>386.6</ele><time>2026-04-12T09:19:28.151Z</time></trkpt><trkpt lat="43.7673767" lon="12.7786417"><ele>385.8</ele><time>2026-04-12T09:19:29.152Z</time></trkpt><trkpt lat="43.76747" lon="12.7786367"><ele>385.0</ele><time>2026-04-12T09:19:30.152Z</time></trkpt><trkpt lat="43.7675617" lon="12.77863"><ele>385.0</ele><time>2026-04-12T09:19:31.152Z</time></trkpt><trkpt lat="43.7676517" lon="12.7786267"><ele>385.0</ele><time>2026-04-12T09:19:32.157Z</time></trkpt><trkpt lat="43.7677367" lon="12.77864"><ele>385.0</ele><time>2026-04-12T09:19:33.151Z</time></trkpt><trkpt lat="43.7678283" lon="12.778665"><ele>385.0</ele><time>2026-04-12T09:19:34.152Z</time></trkpt><trkpt lat="43.767915" lon="12.7787217"><ele>385.0</ele><time>2026-04-12T09:19:35.154Z</time></trkpt><trkpt lat="43.7680017" lon="12.7788067"><ele>384.4</ele><time>2026-04-12T09:19:36.152Z</time></trkpt><trkpt lat="43.7680917" lon="12.77888"><ele>383.8</ele><time>2026-04-12T09:19:37.153Z</time></trkpt><trkpt lat="43.7681883" lon="12.778945"><ele>383.20000000000005</ele><time>2026-04-12T09:19:38.152Z</time></trkpt><trkpt lat="43.7682917" lon="12.779"><ele>382.6</ele><time>2026-04-12T09:19:39.153Z</time></trkpt><trkpt lat="43.768405" lon="12.7790333"><ele>382.0</ele><time>2026-04-12T09:19:40.152Z</time></trkpt><trkpt lat="43.768525" lon="12.7790417"><ele>382.25</ele><time>2026-04-12T09:19:41.153Z</time></trkpt><trkpt lat="43.7686417" lon="12.779045"><ele>382.5</ele><time>2026-04-12T09:19:42.152Z</time></trkpt><trkpt lat="43.7687583" lon="12.7790283"><ele>382.75</ele><time>2026-04-12T09:19:43.152Z</time></trkpt><trkpt lat="43.76888" lon="12.7790067"><ele>383.0</ele><time>2026-04-12T09:19:44.153Z</time></trkpt><trkpt lat="43.76901" lon="12.7789817"><ele>383.0</ele><time>2026-04-12T09:19:45.152Z</time></trkpt><trkpt lat="43.7691317" lon="12.7789217"><ele>383.0</ele><time>2026-04-12T09:19:46.152Z</time></trkpt><trkpt lat="43.76924" lon="12.7788517"><ele>383.0</ele><time>2026-04-12T09:19:47.151Z</time></trkpt><trkpt lat="43.7693467" lon="12.7787817"><ele>383.0</ele><time>2026-04-12T09:19:48.151Z</time></trkpt><trkpt lat="43.7694417" lon="12.7787317"><ele>383.0</ele><time>2026-04-12T09:19:49.152Z</time></trkpt><trkpt lat="43.769535" lon="12.77869"><ele>383.0</ele><time>2026-04-12T09:19:50.152Z</time></trkpt><trkpt lat="43.769615" lon="12.7786433"><ele>383.0</ele><time>2026-04-12T09:19:51.151Z</time></trkpt><trkpt lat="43.76969" lon="12.778585"><ele>383.0</ele><time>2026-04-12T09:19:52.151Z</time></trkpt><trkpt lat="43.7697717" lon="12.778535"><ele>383.0</ele><time>2026-04-12T09:19:53.152Z</time></trkpt><trkpt lat="43.769855" lon="12.7784783"><ele>380.59999999999997</ele><time>2026-04-12T09:19:54.153Z</time></trkpt><trkpt lat="43.76995" lon="12.7784467"><ele>378.2</ele><time>2026-04-12T09:19:55.153Z</time></trkpt><trkpt lat="43.7700433" lon="12.778445"><ele>375.8</ele><time>2026-04-12T09:19:56.152Z</time></trkpt><trkpt lat="43.7701317" lon="12.7784867"><ele>373.4</ele><time>2026-04-12T09:19:57.152Z</time></trkpt><trkpt lat="43.7702183" lon="12.778555"><ele>371.0</ele><time>2026-04-12T09:19:58.153Z</time></trkpt><trkpt lat="43.7702967" lon="12.7786433"><ele>370.6</ele><time>2026-04-12T09:19:59.151Z</time></trkpt><trkpt lat="43.770365" lon="12.778755"><ele>370.20000000000005</ele><time>2026-04-12T09:20:00.154Z</time></trkpt><trkpt lat="43.770435" lon="12.7788717"><ele>369.79999999999995</ele><time>2026-04-12T09:20:01.153Z</time></trkpt><trkpt lat="43.7705" lon="12.7789917"><ele>369.4</ele><time>2026-04-12T09:20:02.153Z</time></trkpt><trkpt lat="43.77056" lon="12.7791133"><ele>369.0</ele><time>2026-04-12T09:20:03.151Z</time></trkpt><trkpt lat="43.7706267" lon="12.7792333"><ele>369.2</ele><time>2026-04-12T09:20:04.152Z</time></trkpt><trkpt lat="43.770695" lon="12.7793533"><ele>369.4</ele><time>2026-04-12T09:20:05.153Z</time></trkpt><trkpt lat="43.7707717" lon="12.7794617"><ele>369.6</ele><time>2026-04-12T09:20:06.151Z</time></trkpt><trkpt lat="43.7708567" lon="12.7795583"><ele>369.8</ele><time>2026-04-12T09:20:07.152Z</time></trkpt><trkpt lat="43.7709583" lon="12.7796367"><ele>370.0</ele><time>2026-04-12T09:20:08.152Z</time></trkpt><trkpt lat="43.7710633" lon="12.7796983"><ele>370.0</ele><time>2026-04-12T09:20:09.152Z</time></trkpt><trkpt lat="43.7711767" lon="12.7797317"><ele>370.0</ele><time>2026-04-12T09:20:10.152Z</time></trkpt><trkpt lat="43.7712883" lon="12.7797717"><ele>370.0</ele><time>2026-04-12T09:20:11.153Z</time></trkpt><trkpt lat="43.7714" lon="12.7798233"><ele>370.0</ele><time>2026-04-12T09:20:12.153Z</time></trkpt><trkpt lat="43.77151" lon="12.7798883"><ele>370.0</ele><time>2026-04-12T09:20:13.152Z</time></trkpt><trkpt lat="43.77162" lon="12.7799583"><ele>370.0</ele><time>2026-04-12T09:20:14.152Z</time></trkpt><trkpt lat="43.77173" lon="12.78004"><ele>370.0</ele><time>2026-04-12T09:20:15.151Z</time></trkpt><trkpt lat="43.7718383" lon="12.7801283"><ele>370.0</ele><time>2026-04-12T09:20:16.152Z</time></trkpt><trkpt lat="43.771945" lon="12.7802167"><ele>369.2</ele><time>2026-04-12T09:20:17.151Z</time></trkpt><trkpt lat="43.7720467" lon="12.7802983"><ele>368.4</ele><time>2026-04-12T09:20:18.152Z</time></trkpt><trkpt lat="43.7721417" lon="12.7803717"><ele>367.6</ele><time>2026-04-12T09:20:19.151Z</time></trkpt><trkpt lat="43.7722267" lon="12.78046"><ele>366.8</ele><time>2026-04-12T09:20:20.152Z</time></trkpt><trkpt lat="43.7723067" lon="12.780555"><ele>366.0</ele><time>2026-04-12T09:20:21.151Z</time></trkpt><trkpt lat="43.7723667" lon="12.7806567"><ele>366.0</ele><time>2026-04-12T09:20:22.15Z</time></trkpt><trkpt lat="43.7724083" lon="12.780775"><ele>366.0</ele><time>2026-04-12T09:20:23.151Z</time></trkpt><trkpt lat="43.772445" lon="12.780905"><ele>366.0</ele><time>2026-04-12T09:20:24.151Z</time></trkpt><trkpt lat="43.7724733" lon="12.7810383"><ele>366.0</ele><time>2026-04-12T09:20:25.152Z</time></trkpt><trkpt lat="43.77251" lon="12.7811583"><ele>366.0</ele><time>2026-04-12T09:20:26.151Z</time></trkpt><trkpt lat="43.77254" lon="12.7812817"><ele>364.20000000000005</ele><time>2026-04-12T09:20:27.15Z</time></trkpt><trkpt lat="43.7725767" lon="12.7814017"><ele>362.40000000000003</ele><time>2026-04-12T09:20:28.151Z</time></trkpt><trkpt lat="43.7726167" lon="12.7815133"><ele>360.6</ele><time>2026-04-12T09:20:29.15Z</time></trkpt><trkpt lat="43.7726633" lon="12.7816267"><ele>358.8</ele><time>2026-04-12T09:20:30.152Z</time></trkpt><trkpt lat="43.7727283" lon="12.7817233"><ele>357.0</ele><time>2026-04-12T09:20:31.152Z</time></trkpt><trkpt lat="43.7728217" lon="12.7817783"><ele>356.75</ele><time>2026-04-12T09:20:32.152Z</time></trkpt><trkpt lat="43.7729167" lon="12.7818267"><ele>356.5</ele><time>2026-04-12T09:20:33.151Z</time></trkpt><trkpt lat="43.773035" lon="12.781835"><ele>356.25</ele><time>2026-04-12T09:20:34.151Z</time></trkpt><trkpt lat="43.7731633" lon="12.7818167"><ele>356.0</ele><time>2026-04-12T09:20:35.151Z</time></trkpt><trkpt lat="43.7732783" lon="12.7818183"><ele>356.0</ele><time>2026-04-12T09:20:36.152Z</time></trkpt><trkpt lat="43.7733967" lon="12.781825"><ele>356.0</ele><time>2026-04-12T09:20:37.15Z</time></trkpt><trkpt lat="43.7735033" lon="12.7818617"><ele>356.0</ele><time>2026-04-12T09:20:38.151Z</time></trkpt><trkpt lat="43.7735983" lon="12.7819383"><ele>356.0</ele><time>2026-04-12T09:20:39.15Z</time></trkpt><trkpt lat="43.77368" lon="12.7820267"><ele>356.0</ele><time>2026-04-12T09:20:40.151Z</time></trkpt><trkpt lat="43.7737433" lon="12.7821333"><ele>354.6666666666667</ele><time>2026-04-12T09:20:41.151Z</time></trkpt><trkpt lat="43.773785" lon="12.78225"><ele>353.33333333333337</ele><time>2026-04-12T09:20:42.152Z</time></trkpt><trkpt lat="43.7738167" lon="12.78237"><ele>352.0</ele><time>2026-04-12T09:20:43.151Z</time></trkpt><trkpt lat="43.7738583" lon="12.78248"><ele>350.6666666666667</ele><time>2026-04-12T09:20:44.151Z</time></trkpt><trkpt lat="43.773905" lon="12.782575"><ele>349.3333333333333</ele><time>2026-04-12T09:20:45.151Z</time></trkpt><trkpt lat="43.7739717" lon="12.7826533"><ele>348.0</ele><time>2026-04-12T09:20:46.151Z</time></trkpt><trkpt lat="43.7740717" lon="12.7826983"><ele>349.59999999999997</ele><time>2026-04-12T09:20:47.151Z</time></trkpt><trkpt lat="43.7741717" lon="12.782725"><ele>351.2</ele><time>2026-04-12T09:20:48.151Z</time></trkpt><trkpt lat="43.77428" lon="12.782735"><ele>352.8</ele><time>2026-04-12T09:20:49.15Z</time></trkpt><trkpt lat="43.774385" lon="12.78278"><ele>354.4</ele><time>2026-04-12T09:20:50.151Z</time></trkpt><trkpt lat="43.7744833" lon="12.7828567"><ele>356.0</ele><time>2026-04-12T09:20:51.15Z</time></trkpt><trkpt lat="43.7745733" lon="12.7829583"><ele>356.0</ele><time>2026-04-12T09:20:52.152Z</time></trkpt><trkpt lat="43.7746483" lon="12.7830817"><ele>356.0</ele><time>2026-04-12T09:20:53.152Z</time></trkpt><trkpt lat="43.7747017" lon="12.78322"><ele>356.0</ele><time>2026-04-12T09:20:54.153Z</time></trkpt><trkpt lat="43.774745" lon="12.783355"><ele>356.0</ele><time>2026-04-12T09:20:55.153Z</time></trkpt><trkpt lat="43.7747917" lon="12.7834617"><ele>356.0</ele><time>2026-04-12T09:20:56.161Z</time></trkpt><trkpt lat="43.7748483" lon="12.783525"><ele>356.0</ele><time>2026-04-12T09:20:57.153Z</time></trkpt><trkpt lat="43.77492" lon="12.7835367"><ele>356.0</ele><time>2026-04-12T09:20:58.151Z</time></trkpt><trkpt lat="43.7749983" lon="12.783515"><ele>356.0</ele><time>2026-04-12T09:20:59.152Z</time></trkpt><trkpt lat="43.7750683" lon="12.7834533"><ele>356.0</ele><time>2026-04-12T09:21:00.151Z</time></trkpt><trkpt lat="43.77513" lon="12.7833733"><ele>356.0</ele><time>2026-04-12T09:21:01.152Z</time></trkpt><trkpt lat="43.77521" lon="12.7833367"><ele>356.0</ele><time>2026-04-12T09:21:02.152Z</time></trkpt><trkpt lat="43.7752883" lon="12.7833567"><ele>358.0</ele><time>2026-04-12T09:21:03.153Z</time></trkpt><trkpt lat="43.7753467" lon="12.78343"><ele>360.0</ele><time>2026-04-12T09:21:04.152Z</time></trkpt><trkpt lat="43.775385" lon="12.7835283"><ele>362.0</ele><time>2026-04-12T09:21:05.151Z</time></trkpt><trkpt lat="43.775405" lon="12.7836483"><ele>364.0</ele><time>2026-04-12T09:21:06.153Z</time></trkpt><trkpt lat="43.7754267" lon="12.7837683"><ele>366.0</ele><time>2026-04-12T09:21:07.153Z</time></trkpt><trkpt lat="43.7754633" lon="12.7838817"><ele>368.0</ele><time>2026-04-12T09:21:08.152Z</time></trkpt><trkpt lat="43.775515" lon="12.7839883"><ele>369.1666666666667</ele><time>2026-04-12T09:21:09.153Z</time></trkpt><trkpt lat="43.7755717" lon="12.7840817"><ele>370.33333333333337</ele><time>2026-04-12T09:21:10.152Z</time></trkpt><trkpt lat="43.77563" lon="12.7841583"><ele>371.5</ele><time>2026-04-12T09:21:11.152Z</time></trkpt><trkpt lat="43.77568" lon="12.78422"><ele>372.6666666666667</ele><time>2026-04-12T09:21:12.153Z</time></trkpt><trkpt lat="43.7757533" lon="12.7843"><ele>373.8333333333333</ele><time>2026-04-12T09:21:14.152Z</time></trkpt><trkpt lat="43.77582" lon="12.784195"><ele>375.0</ele><time>2026-04-12T09:21:17.157Z</time></trkpt><trkpt lat="43.7758133" lon="12.784105"><ele>375.0</ele><time>2026-04-12T09:21:18.151Z</time></trkpt><trkpt lat="43.775785" lon="12.7840117"><ele>375.0</ele><time>2026-04-12T09:21:19.151Z</time></trkpt><trkpt lat="43.7757567" lon="12.7838417"><ele>375.0</ele><time>2026-04-12T09:21:21.15Z</time></trkpt><trkpt lat="43.7757517" lon="12.78375"><ele>375.0</ele><time>2026-04-12T09:21:22.149Z</time></trkpt><trkpt lat="43.775755" lon="12.7836583"><ele>375.0</ele><time>2026-04-12T09:21:23.15Z</time></trkpt><trkpt lat="43.7757933" lon="12.783575"><ele>375.0</ele><time>2026-04-12T09:21:24.15Z</time></trkpt><trkpt lat="43.77584" lon="12.7835"><ele>373.8333333333333</ele><time>2026-04-12T09:21:25.151Z</time></trkpt><trkpt lat="43.7758983" lon="12.7834283"><ele>372.6666666666667</ele><time>2026-04-12T09:21:26.152Z</time></trkpt><trkpt lat="43.7759567" lon="12.783365"><ele>371.5</ele><time>2026-04-12T09:21:27.151Z</time></trkpt><trkpt lat="43.7760067" lon="12.7832933"><ele>370.33333333333337</ele><time>2026-04-12T09:21:28.151Z</time></trkpt><trkpt lat="43.776075" lon="12.7832233"><ele>369.1666666666667</ele><time>2026-04-12T09:21:29.15Z</time></trkpt><trkpt lat="43.776145" lon="12.7831533"><ele>368.0</ele><time>2026-04-12T09:21:30.153Z</time></trkpt><trkpt lat="43.776215" lon="12.7831"><ele>370.33333333333337</ele><time>2026-04-12T09:21:31.151Z</time></trkpt><trkpt lat="43.7762867" lon="12.7830583"><ele>372.6666666666667</ele><time>2026-04-12T09:21:32.151Z</time></trkpt><trkpt lat="43.776355" lon="12.7830117"><ele>375.0</ele><time>2026-04-12T09:21:33.15Z</time></trkpt><trkpt lat="43.7764383" lon="12.7829883"><ele>377.3333333333333</ele><time>2026-04-12T09:21:34.152Z</time></trkpt><trkpt lat="43.7765117" lon="12.7829633"><ele>379.66666666666663</ele><time>2026-04-12T09:21:35.15Z</time></trkpt><trkpt lat="43.7765967" lon="12.78297"><ele>382.0</ele><time>2026-04-12T09:21:36.152Z</time></trkpt><trkpt lat="43.7766783" lon="12.7829967"><ele>382.0</ele><time>2026-04-12T09:21:37.151Z</time></trkpt><trkpt lat="43.7767583" lon="12.7830583"><ele>382.0</ele><time>2026-04-12T09:21:38.151Z</time></trkpt><trkpt lat="43.77683" lon="12.7831183"><ele>382.0</ele><time>2026-04-12T09:21:39.153Z</time></trkpt><trkpt lat="43.7769083" lon="12.78318"><ele>382.0</ele><time>2026-04-12T09:21:40.159Z</time></trkpt><trkpt lat="43.7769983" lon="12.7832083"><ele>382.0</ele><time>2026-04-12T09:21:41.151Z</time></trkpt><trkpt lat="43.7770917" lon="12.7831833"><ele>382.40000000000003</ele><time>2026-04-12T09:21:42.152Z</time></trkpt><trkpt lat="43.7771767" lon="12.7831333"><ele>382.8</ele><time>2026-04-12T09:21:43.151Z</time></trkpt><trkpt lat="43.7772583" lon="12.783085"><ele>383.2</ele><time>2026-04-12T09:21:44.151Z</time></trkpt><trkpt lat="43.7773333" lon="12.7830267"><ele>383.6</ele><time>2026-04-12T09:21:45.151Z</time></trkpt><trkpt lat="43.7774017" lon="12.7829383"><ele>384.0</ele><time>2026-04-12T09:21:46.155Z</time></trkpt><trkpt lat="43.777475" lon="12.7828617"><ele>384.0</ele><time>2026-04-12T09:21:47.151Z</time></trkpt><trkpt lat="43.7775467" lon="12.7828017"><ele>384.0</ele><time>2026-04-12T09:21:48.15Z</time></trkpt><trkpt lat="43.777615" lon="12.78274"><ele>384.0</ele><time>2026-04-12T09:21:49.152Z</time></trkpt><trkpt lat="43.777675" lon="12.7826883"><ele>384.0</ele><time>2026-04-12T09:21:50.152Z</time></trkpt><trkpt lat="43.7777383" lon="12.7826383"><ele>384.0</ele><time>2026-04-12T09:21:51.15Z</time></trkpt><trkpt lat="43.7778083" lon="12.7826"><ele>384.0</ele><time>2026-04-12T09:21:52.149Z</time></trkpt><trkpt lat="43.7778833" lon="12.7825833"><ele>382.71428571428567</ele><time>2026-04-12T09:21:53.152Z</time></trkpt><trkpt lat="43.7779583" lon="12.7826017"><ele>381.42857142857144</ele><time>2026-04-12T09:21:54.151Z</time></trkpt><trkpt lat="43.778025" lon="12.7826517"><ele>380.1428571428571</ele><time>2026-04-12T09:21:55.152Z</time></trkpt><trkpt lat="43.778075" lon="12.7827183"><ele>378.85714285714283</ele><time>2026-04-12T09:21:56.151Z</time></trkpt><trkpt lat="43.7781067" lon="12.7828067"><ele>377.57142857142856</ele><time>2026-04-12T09:21:57.152Z</time></trkpt><trkpt lat="43.778105" lon="12.7829067"><ele>376.2857142857143</ele><time>2026-04-12T09:21:58.151Z</time></trkpt><trkpt lat="43.7780733" lon="12.7830117"><ele>375.0</ele><time>2026-04-12T09:21:59.151Z</time></trkpt><trkpt lat="43.7780183" lon="12.783115"><ele>375.0</ele><time>2026-04-12T09:22:00.152Z</time></trkpt><trkpt lat="43.7779683" lon="12.78321"><ele>375.0</ele><time>2026-04-12T09:22:01.15Z</time></trkpt><trkpt lat="43.7779283" lon="12.7833217"><ele>375.0</ele><time>2026-04-12T09:22:02.151Z</time></trkpt><trkpt lat="43.777905" lon="12.7834433"><ele>375.0</ele><time>2026-04-12T09:22:03.151Z</time></trkpt><trkpt lat="43.777895" lon="12.7835817"><ele>375.0</ele><time>2026-04-12T09:22:04.15Z</time></trkpt><trkpt lat="43.77789" lon="12.78372"><ele>377.1666666666667</ele><time>2026-04-12T09:22:05.15Z</time></trkpt><trkpt lat="43.7778883" lon="12.783845"><ele>379.33333333333337</ele><time>2026-04-12T09:22:06.15Z</time></trkpt><trkpt lat="43.7778967" lon="12.78396"><ele>381.5</ele><time>2026-04-12T09:22:07.15Z</time></trkpt><trkpt lat="43.7779183" lon="12.78406"><ele>383.6666666666667</ele><time>2026-04-12T09:22:08.152Z</time></trkpt><trkpt lat="43.7779583" lon="12.7841483"><ele>385.83333333333337</ele><time>2026-04-12T09:22:09.151Z</time></trkpt><trkpt lat="43.7780217" lon="12.7842033"><ele>388.0</ele><time>2026-04-12T09:22:10.151Z</time></trkpt><trkpt lat="43.7780867" lon="12.7842483"><ele>388.00000000000006</ele><time>2026-04-12T09:22:11.151Z</time></trkpt><trkpt lat="43.7781633" lon="12.7842717"><ele>388.0</ele><time>2026-04-12T09:22:12.15Z</time></trkpt><trkpt lat="43.7782467" lon="12.7842667"><ele>388.0</ele><time>2026-04-12T09:22:13.151Z</time></trkpt><trkpt lat="43.778335" lon="12.78426"><ele>388.0</ele><time>2026-04-12T09:22:14.153Z</time></trkpt><trkpt lat="43.77842" lon="12.78425"><ele>388.00000000000006</ele><time>2026-04-12T09:22:15.151Z</time></trkpt><trkpt lat="43.77849" lon="12.7842383"><ele>388.0</ele><time>2026-04-12T09:22:16.151Z</time></trkpt><trkpt lat="43.77856" lon="12.7842217"><ele>389.0</ele><time>2026-04-12T09:22:17.15Z</time></trkpt><trkpt lat="43.7786317" lon="12.7841967"><ele>390.0</ele><time>2026-04-12T09:22:18.151Z</time></trkpt><trkpt lat="43.7787517" lon="12.78418"><ele>391.0</ele><time>2026-04-12T09:22:20.152Z</time></trkpt><trkpt lat="43.7788779" lon="12.7842277"><ele>392.0</ele><time>2026-04-12T09:22:22.151Z</time></trkpt><trkpt lat="43.7789431" lon="12.7842877"><ele>393.0</ele><time>2026-04-12T09:22:23.15Z</time></trkpt><trkpt lat="43.7790003" lon="12.784375"><ele>393.0</ele><time>2026-04-12T09:22:24.15Z</time></trkpt><trkpt lat="43.7790464" lon="12.7844944"><ele>393.0</ele><time>2026-04-12T09:22:25.151Z</time></trkpt><trkpt lat="43.7790879" lon="12.7846174"><ele>393.0</ele><time>2026-04-12T09:22:26.151Z</time></trkpt><trkpt lat="43.7791256" lon="12.7847363"><ele>393.0</ele><time>2026-04-12T09:22:27.151Z</time></trkpt><trkpt lat="43.7791644" lon="12.7848534"><ele>393.0</ele><time>2026-04-12T09:22:28.151Z</time></trkpt><trkpt lat="43.7791939" lon="12.7849786"><ele>393.0</ele><time>2026-04-12T09:22:29.152Z</time></trkpt><trkpt lat="43.7792053" lon="12.7851144"><ele>393.0</ele><time>2026-04-12T09:22:30.15Z</time></trkpt><trkpt lat="43.7791992" lon="12.785252"><ele>393.0</ele><time>2026-04-12T09:22:31.151Z</time></trkpt><trkpt lat="43.7791804" lon="12.7853863"><ele>393.0</ele><time>2026-04-12T09:22:32.151Z</time></trkpt><trkpt lat="43.7791603" lon="12.7855106"><ele>393.0</ele><time>2026-04-12T09:22:33.151Z</time></trkpt><trkpt lat="43.7791397" lon="12.7856342"><ele>393.4</ele><time>2026-04-12T09:22:34.15Z</time></trkpt><trkpt lat="43.7791258" lon="12.785763"><ele>393.79999999999995</ele><time>2026-04-12T09:22:35.152Z</time></trkpt><trkpt lat="43.7791171" lon="12.7858922"><ele>394.2</ele><time>2026-04-12T09:22:36.151Z</time></trkpt><trkpt lat="43.779117" lon="12.7860222"><ele>394.6</ele><time>2026-04-12T09:22:37.15Z</time></trkpt><trkpt lat="43.7791211" lon="12.7861517"><ele>395.0</ele><time>2026-04-12T09:22:38.151Z</time></trkpt><trkpt lat="43.7791476" lon="12.7862705"><ele>396.2</ele><time>2026-04-12T09:22:39.151Z</time></trkpt><trkpt lat="43.7791939" lon="12.7863779"><ele>397.4</ele><time>2026-04-12T09:22:40.151Z</time></trkpt><trkpt lat="43.7792506" lon="12.7864766"><ele>398.6</ele><time>2026-04-12T09:22:41.15Z</time></trkpt><trkpt lat="43.7793222" lon="12.7865628"><ele>399.8</ele><time>2026-04-12T09:22:42.15Z</time></trkpt><trkpt lat="43.7794014" lon="12.7866426"><ele>401.0</ele><time>2026-04-12T09:22:43.151Z</time></trkpt><trkpt lat="43.779474" lon="12.786725"><ele>400.4</ele><time>2026-04-12T09:22:44.151Z</time></trkpt><trkpt lat="43.7795474" lon="12.7868102"><ele>399.8</ele><time>2026-04-12T09:22:45.151Z</time></trkpt><trkpt lat="43.7796233" lon="12.7869039"><ele>399.2</ele><time>2026-04-12T09:22:46.15Z</time></trkpt><trkpt lat="43.7796971" lon="12.7869918"><ele>398.59999999999997</ele><time>2026-04-12T09:22:47.152Z</time></trkpt><trkpt lat="43.7797654" lon="12.7870853"><ele>398.0</ele><time>2026-04-12T09:22:48.152Z</time></trkpt><trkpt lat="43.7798328" lon="12.7871847"><ele>398.0</ele><time>2026-04-12T09:22:49.161Z</time></trkpt><trkpt lat="43.7799042" lon="12.7872846"><ele>398.0</ele><time>2026-04-12T09:22:50.154Z</time></trkpt><trkpt lat="43.7799758" lon="12.7873846"><ele>398.0</ele><time>2026-04-12T09:22:51.151Z</time></trkpt><trkpt lat="43.7800409" lon="12.7874861"><ele>398.0</ele><time>2026-04-12T09:22:52.151Z</time></trkpt><trkpt lat="43.7801001" lon="12.7875765"><ele>398.0</ele><time>2026-04-12T09:22:53.151Z</time></trkpt><trkpt lat="43.7801542" lon="12.7876495"><ele>399.16666666666663</ele><time>2026-04-12T09:22:54.151Z</time></trkpt><trkpt lat="43.7802073" lon="12.7877071"><ele>400.3333333333333</ele><time>2026-04-12T09:22:55.15Z</time></trkpt><trkpt lat="43.7802688" lon="12.7877452"><ele>401.5</ele><time>2026-04-12T09:22:56.153Z</time></trkpt><trkpt lat="43.7803371" lon="12.7877531"><ele>402.66666666666663</ele><time>2026-04-12T09:22:57.15Z</time></trkpt><trkpt lat="43.7804084" lon="12.7877166"><ele>403.8333333333333</ele><time>2026-04-12T09:22:58.151Z</time></trkpt><trkpt lat="43.7804727" lon="12.7876453"><ele>405.0</ele><time>2026-04-12T09:22:59.15Z</time></trkpt><trkpt lat="43.7805308" lon="12.787554"><ele>405.0</ele><time>2026-04-12T09:23:00.151Z</time></trkpt><trkpt lat="43.7805669" lon="12.7874261"><ele>405.0</ele><time>2026-04-12T09:23:01.151Z</time></trkpt><trkpt lat="43.7805837" lon="12.7872756"><ele>405.0</ele><time>2026-04-12T09:23:02.151Z</time></trkpt><trkpt lat="43.7806084" lon="12.7871262"><ele>405.0</ele><time>2026-04-12T09:23:03.153Z</time></trkpt><trkpt lat="43.7806323" lon="12.7869772"><ele>405.0</ele><time>2026-04-12T09:23:04.151Z</time></trkpt><trkpt lat="43.7806541" lon="12.7868407"><ele>403.0</ele><time>2026-04-12T09:23:05.151Z</time></trkpt><trkpt lat="43.7806799" lon="12.7867197"><ele>401.0</ele><time>2026-04-12T09:23:06.153Z</time></trkpt><trkpt lat="43.7807135" lon="12.7866189"><ele>399.0</ele><time>2026-04-12T09:23:07.151Z</time></trkpt><trkpt lat="43.7807592" lon="12.7865337"><ele>397.0</ele><time>2026-04-12T09:23:08.152Z</time></trkpt><trkpt lat="43.7808216" lon="12.786484"><ele>395.0</ele><time>2026-04-12T09:23:09.151Z</time></trkpt><trkpt lat="43.7808984" lon="12.7864594"><ele>393.0</ele><time>2026-04-12T09:23:10.151Z</time></trkpt><trkpt lat="43.7809868" lon="12.7864582"><ele>394.59999999999997</ele><time>2026-04-12T09:23:11.151Z</time></trkpt><trkpt lat="43.7810888" lon="12.7864861"><ele>396.2</ele><time>2026-04-12T09:23:12.151Z</time></trkpt><trkpt lat="43.7811849" lon="12.786522"><ele>397.8</ele><time>2026-04-12T09:23:13.151Z</time></trkpt><trkpt lat="43.7812691" lon="12.7865675"><ele>399.4</ele><time>2026-04-12T09:23:14.151Z</time></trkpt><trkpt lat="43.7813554" lon="12.786602"><ele>401.0</ele><time>2026-04-12T09:23:15.151Z</time></trkpt><trkpt lat="43.7814483" lon="12.786637"><ele>401.0</ele><time>2026-04-12T09:23:16.149Z</time></trkpt><trkpt lat="43.7815477" lon="12.7866639"><ele>401.0</ele><time>2026-04-12T09:23:17.153Z</time></trkpt><trkpt lat="43.7816509" lon="12.7866694"><ele>401.0</ele><time>2026-04-12T09:23:18.153Z</time></trkpt><trkpt lat="43.7817571" lon="12.7866496"><ele>401.0</ele><time>2026-04-12T09:23:19.152Z</time></trkpt><trkpt lat="43.7818632" lon="12.7865988"><ele>401.0</ele><time>2026-04-12T09:23:20.152Z</time></trkpt><trkpt lat="43.7819675" lon="12.786541"><ele>404.6</ele><time>2026-04-12T09:23:21.151Z</time></trkpt><trkpt lat="43.7820692" lon="12.7864848"><ele>408.20000000000005</ele><time>2026-04-12T09:23:22.149Z</time></trkpt><trkpt lat="43.7821722" lon="12.7864372"><ele>411.79999999999995</ele><time>2026-04-12T09:23:23.151Z</time></trkpt><trkpt lat="43.7822777" lon="12.7863932"><ele>415.4</ele><time>2026-04-12T09:23:24.151Z</time></trkpt><trkpt lat="43.7823823" lon="12.7863488"><ele>419.0</ele><time>2026-04-12T09:23:25.152Z</time></trkpt><trkpt lat="43.7824845" lon="12.7863024"><ele>419.0</ele><time>2026-04-12T09:23:26.15Z</time></trkpt><trkpt lat="43.7825887" lon="12.7862608"><ele>419.0</ele><time>2026-04-12T09:23:27.151Z</time></trkpt><trkpt lat="43.7826898" lon="12.7862155"><ele>419.0</ele><time>2026-04-12T09:23:28.154Z</time></trkpt><trkpt lat="43.7827859" lon="12.7861691"><ele>419.0</ele><time>2026-04-12T09:23:29.151Z</time></trkpt><trkpt lat="43.7828825" lon="12.7861209"><ele>419.0</ele><time>2026-04-12T09:23:30.151Z</time></trkpt><trkpt lat="43.7829784" lon="12.7860692"><ele>416.79999999999995</ele><time>2026-04-12T09:23:31.151Z</time></trkpt><trkpt lat="43.7830682" lon="12.7860041"><ele>414.59999999999997</ele><time>2026-04-12T09:23:32.15Z</time></trkpt><trkpt lat="43.7831563" lon="12.7859347"><ele>412.4</ele><time>2026-04-12T09:23:33.15Z</time></trkpt><trkpt lat="43.783241" lon="12.7858785"><ele>410.2</ele><time>2026-04-12T09:23:34.15Z</time></trkpt><trkpt lat="43.7833383" lon="12.785854"><ele>408.0</ele><time>2026-04-12T09:23:35.15Z</time></trkpt><trkpt lat="43.7834314" lon="12.7858669"><ele>409.0</ele><time>2026-04-12T09:23:36.151Z</time></trkpt><trkpt lat="43.7835258" lon="12.7859127"><ele>410.0</ele><time>2026-04-12T09:23:37.15Z</time></trkpt><trkpt lat="43.7836143" lon="12.7859926"><ele>411.0</ele><time>2026-04-12T09:23:38.151Z</time></trkpt><trkpt lat="43.7837013" lon="12.7860729"><ele>412.0</ele><time>2026-04-12T09:23:39.15Z</time></trkpt><trkpt lat="43.7837809" lon="12.7861474"><ele>413.0</ele><time>2026-04-12T09:23:40.15Z</time></trkpt><trkpt lat="43.7838646" lon="12.7861955"><ele>418.4</ele><time>2026-04-12T09:23:41.151Z</time></trkpt><trkpt lat="43.7839534" lon="12.7862237"><ele>423.79999999999995</ele><time>2026-04-12T09:23:42.151Z</time></trkpt><trkpt lat="43.7840471" lon="12.7862264"><ele>429.2</ele><time>2026-04-12T09:23:43.15Z</time></trkpt><trkpt lat="43.7841412" lon="12.786202"><ele>434.6</ele><time>2026-04-12T09:23:44.15Z</time></trkpt><trkpt lat="43.7842424" lon="12.7861705"><ele>440.0</ele><time>2026-04-12T09:23:45.151Z</time></trkpt><trkpt lat="43.7843421" lon="12.7861364"><ele>438.6</ele><time>2026-04-12T09:23:46.15Z</time></trkpt><trkpt lat="43.7844447" lon="12.7861029"><ele>437.2</ele><time>2026-04-12T09:23:47.15Z</time></trkpt><trkpt lat="43.7845491" lon="12.7860617"><ele>435.79999999999995</ele><time>2026-04-12T09:23:48.15Z</time></trkpt><trkpt lat="43.7846483" lon="12.7860185"><ele>434.4</ele><time>2026-04-12T09:23:49.151Z</time></trkpt><trkpt lat="43.7847329" lon="12.7859352"><ele>433.0</ele><time>2026-04-12T09:23:50.151Z</time></trkpt><trkpt lat="43.7848066" lon="12.7858312"><ele>433.0</ele><time>2026-04-12T09:23:51.149Z</time></trkpt><trkpt lat="43.7848739" lon="12.7857197"><ele>432.99999999999994</ele><time>2026-04-12T09:23:52.151Z</time></trkpt><trkpt lat="43.7849427" lon="12.7856117"><ele>432.99999999999994</ele><time>2026-04-12T09:23:53.151Z</time></trkpt><trkpt lat="43.7850133" lon="12.7855"><ele>433.0</ele><time>2026-04-12T09:23:54.15Z</time></trkpt><trkpt lat="43.7850831" lon="12.7853959"><ele>433.0</ele><time>2026-04-12T09:23:55.151Z</time></trkpt><trkpt lat="43.7851553" lon="12.7852948"><ele>435.79999999999995</ele><time>2026-04-12T09:23:56.151Z</time></trkpt><trkpt lat="43.7852305" lon="12.7851902"><ele>438.59999999999997</ele><time>2026-04-12T09:23:57.15Z</time></trkpt><trkpt lat="43.7853019" lon="12.7850889"><ele>441.40000000000003</ele><time>2026-04-12T09:23:58.151Z</time></trkpt><trkpt lat="43.7853749" lon="12.784991"><ele>444.20000000000005</ele><time>2026-04-12T09:23:59.15Z</time></trkpt><trkpt lat="43.7854471" lon="12.784892"><ele>447.0</ele><time>2026-04-12T09:24:00.151Z</time></trkpt><trkpt lat="43.7855175" lon="12.7847935"><ele>447.0</ele><time>2026-04-12T09:24:01.151Z</time></trkpt><trkpt lat="43.7855873" lon="12.78469"><ele>447.00000000000006</ele><time>2026-04-12T09:24:02.152Z</time></trkpt><trkpt lat="43.7856544" lon="12.7845806"><ele>447.00000000000006</ele><time>2026-04-12T09:24:03.152Z</time></trkpt><trkpt lat="43.7857131" lon="12.7844611"><ele>447.0</ele><time>2026-04-12T09:24:04.152Z</time></trkpt><trkpt lat="43.785753" lon="12.7843288"><ele>447.0</ele><time>2026-04-12T09:24:05.152Z</time></trkpt><trkpt lat="43.7857684" lon="12.784186"><ele>445.0</ele><time>2026-04-12T09:24:06.151Z</time></trkpt><trkpt lat="43.7857766" lon="12.784044"><ele>443.00000000000006</ele><time>2026-04-12T09:24:07.15Z</time></trkpt><trkpt lat="43.7857937" lon="12.7839041"><ele>441.00000000000006</ele><time>2026-04-12T09:24:08.151Z</time></trkpt><trkpt lat="43.7858247" lon="12.783771"><ele>439.0</ele><time>2026-04-12T09:24:09.151Z</time></trkpt><trkpt lat="43.7858757" lon="12.7836485"><ele>437.0</ele><time>2026-04-12T09:24:10.151Z</time></trkpt><trkpt lat="43.7859497" lon="12.7835471"><ele>442.40000000000003</ele><time>2026-04-12T09:24:11.151Z</time></trkpt><trkpt lat="43.7860181" lon="12.7834439"><ele>447.80000000000007</ele><time>2026-04-12T09:24:12.151Z</time></trkpt><trkpt lat="43.7860823" lon="12.7833306"><ele>453.2</ele><time>2026-04-12T09:24:13.149Z</time></trkpt><trkpt lat="43.7861423" lon="12.7832061"><ele>458.6</ele><time>2026-04-12T09:24:14.149Z</time></trkpt><trkpt lat="43.7861941" lon="12.7830707"><ele>464.0</ele><time>2026-04-12T09:24:15.15Z</time></trkpt><trkpt lat="43.7862344" lon="12.7829327"><ele>464.0</ele><time>2026-04-12T09:24:16.15Z</time></trkpt><trkpt lat="43.786261" lon="12.7827871"><ele>464.0</ele><time>2026-04-12T09:24:17.152Z</time></trkpt><trkpt lat="43.7862668" lon="12.7826316"><ele>464.0</ele><time>2026-04-12T09:24:18.152Z</time></trkpt><trkpt lat="43.7862552" lon="12.782469"><ele>464.0</ele><time>2026-04-12T09:24:19.152Z</time></trkpt><trkpt lat="43.7862427" lon="12.7823037"><ele>462.0</ele><time>2026-04-12T09:24:20.152Z</time></trkpt><trkpt lat="43.7862313" lon="12.7821456"><ele>460.0</ele><time>2026-04-12T09:24:21.151Z</time></trkpt><trkpt lat="43.7862222" lon="12.7819889"><ele>458.0</ele><time>2026-04-12T09:24:22.152Z</time></trkpt><trkpt lat="43.7862196" lon="12.7818374"><ele>456.0</ele><time>2026-04-12T09:24:23.152Z</time></trkpt><trkpt lat="43.7862279" lon="12.7816915"><ele>454.0</ele><time>2026-04-12T09:24:24.151Z</time></trkpt><trkpt lat="43.7862555" lon="12.7815593"><ele>451.6</ele><time>2026-04-12T09:24:25.152Z</time></trkpt><trkpt lat="43.7863096" lon="12.7814421"><ele>449.2</ele><time>2026-04-12T09:24:26.151Z</time></trkpt><trkpt lat="43.7863912" lon="12.7813437"><ele>446.80000000000007</ele><time>2026-04-12T09:24:27.152Z</time></trkpt><trkpt lat="43.7864865" lon="12.7812528"><ele>444.40000000000003</ele><time>2026-04-12T09:24:28.152Z</time></trkpt><trkpt lat="43.7865871" lon="12.7811722"><ele>442.0</ele><time>2026-04-12T09:24:29.152Z</time></trkpt><trkpt lat="43.786688" lon="12.7810989"><ele>442.0</ele><time>2026-04-12T09:24:30.151Z</time></trkpt><trkpt lat="43.7867793" lon="12.78102"><ele>442.00000000000006</ele><time>2026-04-12T09:24:31.151Z</time></trkpt><trkpt lat="43.7868648" lon="12.7809457"><ele>442.00000000000006</ele><time>2026-04-12T09:24:32.152Z</time></trkpt><trkpt lat="43.7869475" lon="12.7808793"><ele>442.0</ele><time>2026-04-12T09:24:33.155Z</time></trkpt><trkpt lat="43.7870281" lon="12.7808238"><ele>442.0</ele><time>2026-04-12T09:24:34.152Z</time></trkpt><trkpt lat="43.7871119" lon="12.7807906"><ele>438.40000000000003</ele><time>2026-04-12T09:24:35.152Z</time></trkpt><trkpt lat="43.7871954" lon="12.7807789"><ele>434.80000000000007</ele><time>2026-04-12T09:24:36.151Z</time></trkpt><trkpt lat="43.7872783" lon="12.7808071"><ele>431.2</ele><time>2026-04-12T09:24:37.152Z</time></trkpt><trkpt lat="43.7873564" lon="12.7808635"><ele>427.6</ele><time>2026-04-12T09:24:38.152Z</time></trkpt><trkpt lat="43.7874382" lon="12.7809354"><ele>424.0</ele><time>2026-04-12T09:24:39.152Z</time></trkpt><trkpt lat="43.7875217" lon="12.781014"><ele>423.79999999999995</ele><time>2026-04-12T09:24:40.151Z</time></trkpt><trkpt lat="43.7876147" lon="12.7810756"><ele>423.59999999999997</ele><time>2026-04-12T09:24:41.152Z</time></trkpt><trkpt lat="43.787718" lon="12.7811027"><ele>423.4</ele><time>2026-04-12T09:24:42.156Z</time></trkpt><trkpt lat="43.7878256" lon="12.7810928"><ele>423.2</ele><time>2026-04-12T09:24:43.15Z</time></trkpt><trkpt lat="43.7879361" lon="12.7810483"><ele>423.0</ele><time>2026-04-12T09:24:44.155Z</time></trkpt><trkpt lat="43.7880447" lon="12.780988"><ele>423.0</ele><time>2026-04-12T09:24:45.15Z</time></trkpt><trkpt lat="43.7881552" lon="12.7809307"><ele>423.0</ele><time>2026-04-12T09:24:46.15Z</time></trkpt><trkpt lat="43.7882658" lon="12.7808794"><ele>423.0</ele><time>2026-04-12T09:24:47.15Z</time></trkpt><trkpt lat="43.7883718" lon="12.7808322"><ele>423.0</ele><time>2026-04-12T09:24:48.151Z</time></trkpt><trkpt lat="43.7884691" lon="12.7807879"><ele>423.0</ele><time>2026-04-12T09:24:49.15Z</time></trkpt><trkpt lat="43.7885626" lon="12.7807425"><ele>423.1666666666667</ele><time>2026-04-12T09:24:50.15Z</time></trkpt><trkpt lat="43.7886488" lon="12.7806908"><ele>423.33333333333337</ele><time>2026-04-12T09:24:51.151Z</time></trkpt><trkpt lat="43.788727" lon="12.7806326"><ele>423.5</ele><time>2026-04-12T09:24:52.149Z</time></trkpt><trkpt lat="43.7888041" lon="12.7805751"><ele>423.6666666666667</ele><time>2026-04-12T09:24:53.152Z</time></trkpt><trkpt lat="43.788876" lon="12.7805092"><ele>423.83333333333337</ele><time>2026-04-12T09:24:54.151Z</time></trkpt><trkpt lat="43.7889429" lon="12.7804462"><ele>424.0</ele><time>2026-04-12T09:24:55.151Z</time></trkpt><trkpt lat="43.7890109" lon="12.780383"><ele>424.00000000000006</ele><time>2026-04-12T09:24:56.15Z</time></trkpt><trkpt lat="43.7890814" lon="12.7803312"><ele>424.0</ele><time>2026-04-12T09:24:57.151Z</time></trkpt><trkpt lat="43.7891551" lon="12.7803062"><ele>424.0</ele><time>2026-04-12T09:24:58.15Z</time></trkpt><trkpt lat="43.7892283" lon="12.7803151"><ele>424.0</ele><time>2026-04-12T09:24:59.151Z</time></trkpt><trkpt lat="43.7892988" lon="12.7803597"><ele>424.00000000000006</ele><time>2026-04-12T09:25:00.15Z</time></trkpt><trkpt lat="43.7893546" lon="12.780445"><ele>424.0</ele><time>2026-04-12T09:25:01.152Z</time></trkpt><trkpt lat="43.7894008" lon="12.7805565"><ele>420.4</ele><time>2026-04-12T09:25:02.151Z</time></trkpt><trkpt lat="43.7894449" lon="12.7806723"><ele>416.79999999999995</ele><time>2026-04-12T09:25:03.156Z</time></trkpt><trkpt lat="43.7894784" lon="12.7807966"><ele>413.20000000000005</ele><time>2026-04-12T09:25:04.15Z</time></trkpt><trkpt lat="43.789511" lon="12.7809203"><ele>409.6</ele><time>2026-04-12T09:25:05.152Z</time></trkpt><trkpt lat="43.7895488" lon="12.7810403"><ele>406.0</ele><time>2026-04-12T09:25:06.15Z</time></trkpt><trkpt lat="43.7895895" lon="12.7811572"><ele>405.83333333333337</ele><time>2026-04-12T09:25:07.151Z</time></trkpt><trkpt lat="43.7896336" lon="12.7812665"><ele>405.6666666666667</ele><time>2026-04-12T09:25:08.15Z</time></trkpt><trkpt lat="43.7896795" lon="12.7813681"><ele>405.5</ele><time>2026-04-12T09:25:09.151Z</time></trkpt><trkpt lat="43.7897346" lon="12.7814502"><ele>405.33333333333337</ele><time>2026-04-12T09:25:10.152Z</time></trkpt><trkpt lat="43.7898017" lon="12.7815056"><ele>405.1666666666667</ele><time>2026-04-12T09:25:11.149Z</time></trkpt><trkpt lat="43.7898853" lon="12.7815293"><ele>405.0</ele><time>2026-04-12T09:25:12.15Z</time></trkpt><trkpt lat="43.7899741" lon="12.7815247"><ele>405.0</ele><time>2026-04-12T09:25:13.151Z</time></trkpt><trkpt lat="43.7900623" lon="12.7815007"><ele>405.0</ele><time>2026-04-12T09:25:14.152Z</time></trkpt><trkpt lat="43.7901442" lon="12.7814524"><ele>405.0</ele><time>2026-04-12T09:25:15.149Z</time></trkpt><trkpt lat="43.7902234" lon="12.7813766"><ele>405.0</ele><time>2026-04-12T09:25:16.15Z</time></trkpt><trkpt lat="43.7903038" lon="12.7812896"><ele>405.0</ele><time>2026-04-12T09:25:17.151Z</time></trkpt><trkpt lat="43.7903867" lon="12.7812071"><ele>404.4</ele><time>2026-04-12T09:25:18.151Z</time></trkpt><trkpt lat="43.7904649" lon="12.7811288"><ele>403.8</ele><time>2026-04-12T09:25:19.151Z</time></trkpt><trkpt lat="43.7905428" lon="12.7810587"><ele>403.20000000000005</ele><time>2026-04-12T09:25:20.151Z</time></trkpt><trkpt lat="43.7906184" lon="12.7809932"><ele>402.6</ele><time>2026-04-12T09:25:21.151Z</time></trkpt><trkpt lat="43.7906972" lon="12.7809365"><ele>402.0</ele><time>2026-04-12T09:25:22.15Z</time></trkpt><trkpt lat="43.790777" lon="12.7808869"><ele>402.0</ele><time>2026-04-12T09:25:23.15Z</time></trkpt><trkpt lat="43.7908588" lon="12.7808506"><ele>402.0</ele><time>2026-04-12T09:25:24.151Z</time></trkpt><trkpt lat="43.7909411" lon="12.7808349"><ele>402.0</ele><time>2026-04-12T09:25:25.15Z</time></trkpt><trkpt lat="43.7910254" lon="12.7808345"><ele>402.0</ele><time>2026-04-12T09:25:26.151Z</time></trkpt><trkpt lat="43.7911077" lon="12.7808627"><ele>402.0</ele><time>2026-04-12T09:25:27.151Z</time></trkpt><trkpt lat="43.7911879" lon="12.7809213"><ele>402.0</ele><time>2026-04-12T09:25:28.15Z</time></trkpt><trkpt lat="43.7912592" lon="12.7810002"><ele>399.1666666666667</ele><time>2026-04-12T09:25:29.151Z</time></trkpt><trkpt lat="43.7913242" lon="12.7810861"><ele>396.33333333333337</ele><time>2026-04-12T09:25:30.151Z</time></trkpt><trkpt lat="43.7913936" lon="12.7811658"><ele>393.5</ele><time>2026-04-12T09:25:31.152Z</time></trkpt><trkpt lat="43.7914585" lon="12.7812544"><ele>390.6666666666667</ele><time>2026-04-12T09:25:32.152Z</time></trkpt><trkpt lat="43.7915232" lon="12.7813277"><ele>387.83333333333337</ele><time>2026-04-12T09:25:33.152Z</time></trkpt><trkpt lat="43.7915895" lon="12.7813795"><ele>385.0</ele><time>2026-04-12T09:25:34.152Z</time></trkpt><trkpt lat="43.7916615" lon="12.7813938"><ele>385.00000000000006</ele><time>2026-04-12T09:25:35.152Z</time></trkpt><trkpt lat="43.7917356" lon="12.7813756"><ele>385.0</ele><time>2026-04-12T09:25:36.152Z</time></trkpt><trkpt lat="43.7917942" lon="12.7813155"><ele>385.0</ele><time>2026-04-12T09:25:37.152Z</time></trkpt><trkpt lat="43.7918362" lon="12.7812151"><ele>385.0</ele><time>2026-04-12T09:25:38.153Z</time></trkpt><trkpt lat="43.791869" lon="12.7810993"><ele>385.00000000000006</ele><time>2026-04-12T09:25:39.151Z</time></trkpt><trkpt lat="43.7918968" lon="12.7809766"><ele>385.0</ele><time>2026-04-12T09:25:40.151Z</time></trkpt><trkpt lat="43.791924" lon="12.7808608"><ele>384.33333333333337</ele><time>2026-04-12T09:25:41.152Z</time></trkpt><trkpt lat="43.7919566" lon="12.7807528"><ele>383.6666666666667</ele><time>2026-04-12T09:25:42.152Z</time></trkpt><trkpt lat="43.7920185" lon="12.7806718"><ele>383.0</ele><time>2026-04-12T09:25:43.151Z</time></trkpt><trkpt lat="43.7920887" lon="12.7806046"><ele>382.33333333333337</ele><time>2026-04-12T09:25:44.15Z</time></trkpt><trkpt lat="43.7921654" lon="12.7805524"><ele>381.6666666666667</ele><time>2026-04-12T09:25:45.15Z</time></trkpt><trkpt lat="43.7922556" lon="12.7805198"><ele>381.0</ele><time>2026-04-12T09:25:46.15Z</time></trkpt><trkpt lat="43.792351" lon="12.7805092"><ele>381.0</ele><time>2026-04-12T09:25:47.149Z</time></trkpt><trkpt lat="43.7924427" lon="12.7805045"><ele>381.0</ele><time>2026-04-12T09:25:48.15Z</time></trkpt><trkpt lat="43.7925375" lon="12.7804962"><ele>381.0</ele><time>2026-04-12T09:25:49.15Z</time></trkpt><trkpt lat="43.792633" lon="12.7804782"><ele>381.0</ele><time>2026-04-12T09:25:50.151Z</time></trkpt><trkpt lat="43.792727" lon="12.780454"><ele>381.0</ele><time>2026-04-12T09:25:51.15Z</time></trkpt><trkpt lat="43.7928136" lon="12.7804011"><ele>379.6</ele><time>2026-04-12T09:25:52.15Z</time></trkpt><trkpt lat="43.7928867" lon="12.7803283"><ele>378.20000000000005</ele><time>2026-04-12T09:25:53.149Z</time></trkpt><trkpt lat="43.7929582" lon="12.780255"><ele>376.79999999999995</ele><time>2026-04-12T09:25:54.151Z</time></trkpt><trkpt lat="43.7930313" lon="12.7801735"><ele>375.4</ele><time>2026-04-12T09:25:55.15Z</time></trkpt><trkpt lat="43.7931007" lon="12.7800823"><ele>374.0</ele><time>2026-04-12T09:25:56.151Z</time></trkpt><trkpt lat="43.7931699" lon="12.7799996"><ele>374.0</ele><time>2026-04-12T09:25:57.15Z</time></trkpt><trkpt lat="43.7932542" lon="12.7799283"><ele>374.0</ele><time>2026-04-12T09:25:58.149Z</time></trkpt><trkpt lat="43.7933505" lon="12.7798797"><ele>374.0</ele><time>2026-04-12T09:25:59.15Z</time></trkpt><trkpt lat="43.7934575" lon="12.7798419"><ele>374.0</ele><time>2026-04-12T09:26:00.151Z</time></trkpt><trkpt lat="43.7935801" lon="12.7798378"><ele>374.0</ele><time>2026-04-12T09:26:01.149Z</time></trkpt><trkpt lat="43.7937011" lon="12.7798822"><ele>372.0</ele><time>2026-04-12T09:26:02.152Z</time></trkpt><trkpt lat="43.7938181" lon="12.779951"><ele>370.0</ele><time>2026-04-12T09:26:03.15Z</time></trkpt><trkpt lat="43.7939362" lon="12.7800172"><ele>368.0</ele><time>2026-04-12T09:26:04.15Z</time></trkpt><trkpt lat="43.7940504" lon="12.7800745"><ele>366.0</ele><time>2026-04-12T09:26:05.15Z</time></trkpt><trkpt lat="43.7941597" lon="12.7801361"><ele>365.4</ele><time>2026-04-12T09:26:06.151Z</time></trkpt><trkpt lat="43.7942684" lon="12.7801895"><ele>364.8</ele><time>2026-04-12T09:26:07.152Z</time></trkpt><trkpt lat="43.7943764" lon="12.7802399"><ele>364.2</ele><time>2026-04-12T09:26:08.152Z</time></trkpt><trkpt lat="43.7944808" lon="12.7802933"><ele>363.59999999999997</ele><time>2026-04-12T09:26:09.151Z</time></trkpt><trkpt lat="43.794583" lon="12.7803394"><ele>363.0</ele><time>2026-04-12T09:26:10.152Z</time></trkpt><trkpt lat="43.7946829" lon="12.7803619"><ele>365.4</ele><time>2026-04-12T09:26:11.152Z</time></trkpt><trkpt lat="43.7947822" lon="12.780359"><ele>367.79999999999995</ele><time>2026-04-12T09:26:12.152Z</time></trkpt><trkpt lat="43.7948791" lon="12.7803094"><ele>370.2</ele><time>2026-04-12T09:26:13.152Z</time></trkpt><trkpt lat="43.7949718" lon="12.7802236"><ele>372.6</ele><time>2026-04-12T09:26:14.152Z</time></trkpt><trkpt lat="43.7950642" lon="12.7801279"><ele>375.0</ele><time>2026-04-12T09:26:15.149Z</time></trkpt><trkpt lat="43.7952384" lon="12.7798973"><ele>380.0</ele><time>2026-04-12T09:26:17.149Z</time></trkpt><trkpt lat="43.7953193" lon="12.7797642"><ele>385.0</ele><time>2026-04-12T09:26:18.149Z</time></trkpt><trkpt lat="43.7953949" lon="12.7796328"><ele>390.0</ele><time>2026-04-12T09:26:19.149Z</time></trkpt><trkpt lat="43.7954664" lon="12.7795046"><ele>395.0</ele><time>2026-04-12T09:26:20.153Z</time></trkpt><trkpt lat="43.7955334" lon="12.779381"><ele>393.3333333333333</ele><time>2026-04-12T09:26:21.15Z</time></trkpt><trkpt lat="43.7955978" lon="12.7792636"><ele>391.66666666666663</ele><time>2026-04-12T09:26:22.149Z</time></trkpt><trkpt lat="43.7956633" lon="12.7791725"><ele>390.0</ele><time>2026-04-12T09:26:23.15Z</time></trkpt><trkpt lat="43.795722" lon="12.7791009"><ele>388.33333333333337</ele><time>2026-04-12T09:26:24.155Z</time></trkpt><trkpt lat="43.7957772" lon="12.7790586"><ele>386.6666666666667</ele><time>2026-04-12T09:26:25.15Z</time></trkpt><trkpt lat="43.7958721" lon="12.779006"><ele>385.0</ele><time>2026-04-12T09:26:27.152Z</time></trkpt><trkpt lat="43.7959528" lon="12.7789536"><ele>388.8</ele><time>2026-04-12T09:26:29.15Z</time></trkpt><trkpt lat="43.7960496" lon="12.7788974"><ele>392.6</ele><time>2026-04-12T09:26:31.151Z</time></trkpt><trkpt lat="43.7961365" lon="12.7788276"><ele>396.4</ele><time>2026-04-12T09:26:33.15Z</time></trkpt><trkpt lat="43.7962115" lon="12.7787276"><ele>400.2</ele><time>2026-04-12T09:26:35.15Z</time></trkpt><trkpt lat="43.7962988" lon="12.7786072"><ele>404.0</ele><time>2026-04-12T09:26:37.149Z</time></trkpt><trkpt lat="43.7963434" lon="12.778538"><ele>401.8333333333333</ele><time>2026-04-12T09:26:38.15Z</time></trkpt><trkpt lat="43.7964336" lon="12.7784314"><ele>399.66666666666663</ele><time>2026-04-12T09:26:40.15Z</time></trkpt><trkpt lat="43.796487" lon="12.7783846"><ele>397.5</ele><time>2026-04-12T09:26:41.151Z</time></trkpt><trkpt lat="43.7965371" lon="12.7783308"><ele>395.33333333333337</ele><time>2026-04-12T09:26:42.149Z</time></trkpt><trkpt lat="43.79659" lon="12.7782802"><ele>393.1666666666667</ele><time>2026-04-12T09:26:43.151Z</time></trkpt><trkpt lat="43.7966749" lon="12.7781814"><ele>391.0</ele><time>2026-04-12T09:26:45.15Z</time></trkpt><trkpt lat="43.7967775" lon="12.7780987"><ele>392.00000000000006</ele><time>2026-04-12T09:26:47.15Z</time></trkpt><trkpt lat="43.7968847" lon="12.7780117"><ele>393.0</ele><time>2026-04-12T09:26:49.15Z</time></trkpt><trkpt lat="43.7969581" lon="12.777979"><ele>394.0</ele><time>2026-04-12T09:26:50.151Z</time></trkpt><trkpt lat="43.7970327" lon="12.7779461"><ele>395.0</ele><time>2026-04-12T09:26:51.15Z</time></trkpt><trkpt lat="43.7971133" lon="12.7779133"><ele>396.00000000000006</ele><time>2026-04-12T09:26:52.149Z</time></trkpt><trkpt lat="43.79719" lon="12.7778867"><ele>397.0</ele><time>2026-04-12T09:26:53.15Z</time></trkpt><trkpt lat="43.7972667" lon="12.77785"><ele>397.00000000000006</ele><time>2026-04-12T09:26:54.15Z</time></trkpt><trkpt lat="43.7973383" lon="12.7777917"><ele>397.0</ele><time>2026-04-12T09:26:55.149Z</time></trkpt><trkpt lat="43.7974" lon="12.7777233"><ele>397.0</ele><time>2026-04-12T09:26:56.15Z</time></trkpt><trkpt lat="43.7974583" lon="12.7776333"><ele>397.0</ele><time>2026-04-12T09:26:57.149Z</time></trkpt><trkpt lat="43.7975133" lon="12.7775267"><ele>397.00000000000006</ele><time>2026-04-12T09:26:58.15Z</time></trkpt><trkpt lat="43.7975667" lon="12.7774367"><ele>397.0</ele><time>2026-04-12T09:26:59.154Z</time></trkpt><trkpt lat="43.7976083" lon="12.7773617"><ele>395.7142857142857</ele><time>2026-04-12T09:27:00.151Z</time></trkpt><trkpt lat="43.79764" lon="12.777275"><ele>394.42857142857144</ele><time>2026-04-12T09:27:01.246Z</time></trkpt><trkpt lat="43.7976817" lon="12.7771933"><ele>393.1428571428571</ele><time>2026-04-12T09:27:02.154Z</time></trkpt><trkpt lat="43.797735" lon="12.777105"><ele>391.8571428571429</ele><time>2026-04-12T09:27:03.15Z</time></trkpt><trkpt lat="43.797785" lon="12.7770233"><ele>390.5714285714286</ele><time>2026-04-12T09:27:04.151Z</time></trkpt><trkpt lat="43.7978317" lon="12.7769467"><ele>389.2857142857143</ele><time>2026-04-12T09:27:05.15Z</time></trkpt><trkpt lat="43.7978783" lon="12.7768783"><ele>388.0</ele><time>2026-04-12T09:27:06.152Z</time></trkpt><trkpt lat="43.7979267" lon="12.7768017"><ele>386.83333333333337</ele><time>2026-04-12T09:27:07.149Z</time></trkpt><trkpt lat="43.7979733" lon="12.7767317"><ele>385.6666666666667</ele><time>2026-04-12T09:27:08.156Z</time></trkpt><trkpt lat="43.7980117" lon="12.7766583"><ele>384.5</ele><time>2026-04-12T09:27:09.151Z</time></trkpt><trkpt lat="43.79808" lon="12.776535"><ele>383.33333333333337</ele><time>2026-04-12T09:27:11.15Z</time></trkpt><trkpt lat="43.79813" lon="12.7764167"><ele>382.1666666666667</ele><time>2026-04-12T09:27:13.151Z</time></trkpt><trkpt lat="43.7981933" lon="12.7763083"><ele>381.0</ele><time>2026-04-12T09:27:15.15Z</time></trkpt><trkpt lat="43.7982333" lon="12.77624"><ele>381.0</ele><time>2026-04-12T09:27:16.15Z</time></trkpt><trkpt lat="43.798275" lon="12.7761617"><ele>381.0</ele><time>2026-04-12T09:27:17.151Z</time></trkpt><trkpt lat="43.7983167" lon="12.7760917"><ele>381.0</ele><time>2026-04-12T09:27:18.148Z</time></trkpt><trkpt lat="43.7983867" lon="12.7759567"><ele>381.0</ele><time>2026-04-12T09:27:20.15Z</time></trkpt><trkpt lat="43.79842" lon="12.7758783"><ele>381.0</ele><time>2026-04-12T09:27:21.15Z</time></trkpt><trkpt lat="43.7984517" lon="12.7758017"><ele>381.0</ele><time>2026-04-12T09:27:22.15Z</time></trkpt><trkpt lat="43.7984817" lon="12.77572"><ele>380.1666666666667</ele><time>2026-04-12T09:27:23.151Z</time></trkpt><trkpt lat="43.7985217" lon="12.7756333"><ele>379.3333333333333</ele><time>2026-04-12T09:27:24.151Z</time></trkpt><trkpt lat="43.79856" lon="12.7755633"><ele>378.5</ele><time>2026-04-12T09:27:25.15Z</time></trkpt><trkpt lat="43.79862" lon="12.7754567"><ele>377.66666666666663</ele><time>2026-04-12T09:27:27.149Z</time></trkpt><trkpt lat="43.7987033" lon="12.77533"><ele>376.8333333333333</ele><time>2026-04-12T09:27:29.15Z</time></trkpt><trkpt lat="43.7987533" lon="12.77525"><ele>376.0</ele><time>2026-04-12T09:27:30.151Z</time></trkpt><trkpt lat="43.7988067" lon="12.7751717"><ele>376.0</ele><time>2026-04-12T09:27:31.148Z</time></trkpt><trkpt lat="43.7988583" lon="12.7750917"><ele>376.0</ele><time>2026-04-12T09:27:32.15Z</time></trkpt><trkpt lat="43.798905" lon="12.7750017"><ele>376.0</ele><time>2026-04-12T09:27:33.149Z</time></trkpt><trkpt lat="43.7989567" lon="12.77492"><ele>376.0</ele><time>2026-04-12T09:27:34.151Z</time></trkpt><trkpt lat="43.7990083" lon="12.7748383"><ele>376.0</ele><time>2026-04-12T09:27:35.15Z</time></trkpt><trkpt lat="43.799055" lon="12.77476"><ele>376.0</ele><time>2026-04-12T09:27:36.15Z</time></trkpt><trkpt lat="43.7990967" lon="12.7746817"><ele>376.0</ele><time>2026-04-12T09:27:37.152Z</time></trkpt><trkpt lat="43.7991383" lon="12.7745967"><ele>376.0</ele><time>2026-04-12T09:27:38.151Z</time></trkpt><trkpt lat="43.7991833" lon="12.774515"><ele>376.0</ele><time>2026-04-12T09:27:39.149Z</time></trkpt><trkpt lat="43.7992317" lon="12.7744267"><ele>376.0</ele><time>2026-04-12T09:27:40.149Z</time></trkpt><trkpt lat="43.7992833" lon="12.7743483"><ele>376.0</ele><time>2026-04-12T09:27:41.156Z</time></trkpt><trkpt lat="43.7993333" lon="12.774275"><ele>376.0</ele><time>2026-04-12T09:27:42.149Z</time></trkpt><trkpt lat="43.7993817" lon="12.7742083"><ele>376.0</ele><time>2026-04-12T09:27:43.151Z</time></trkpt><trkpt lat="43.7994267" lon="12.774145"><ele>375.2857142857143</ele><time>2026-04-12T09:27:44.15Z</time></trkpt><trkpt lat="43.7994733" lon="12.77408"><ele>374.57142857142856</ele><time>2026-04-12T09:27:45.149Z</time></trkpt><trkpt lat="43.7995217" lon="12.7740083"><ele>373.8571428571429</ele><time>2026-04-12T09:27:46.149Z</time></trkpt><trkpt lat="43.799565" lon="12.773935"><ele>373.1428571428571</ele><time>2026-04-12T09:27:47.15Z</time></trkpt><trkpt lat="43.7996083" lon="12.7738583"><ele>372.42857142857144</ele><time>2026-04-12T09:27:48.149Z</time></trkpt><trkpt lat="43.7996517" lon="12.7737833"><ele>371.7142857142857</ele><time>2026-04-12T09:27:49.149Z</time></trkpt><trkpt lat="43.799695" lon="12.773705"><ele>371.0</ele><time>2026-04-12T09:27:50.151Z</time></trkpt><trkpt lat="43.799745" lon="12.7736267"><ele>371.0</ele><time>2026-04-12T09:27:51.153Z</time></trkpt><trkpt lat="43.7998" lon="12.77355"><ele>371.0</ele><time>2026-04-12T09:27:52.153Z</time></trkpt><trkpt lat="43.799865" lon="12.77348"><ele>371.0</ele><time>2026-04-12T09:27:53.15Z</time></trkpt><trkpt lat="43.799925" lon="12.773405"><ele>371.0</ele><time>2026-04-12T09:27:54.163Z</time></trkpt><trkpt lat="43.7999967" lon="12.7733417"><ele>371.0</ele><time>2026-04-12T09:27:55.152Z</time></trkpt><trkpt lat="43.8000583" lon="12.7732783"><ele>371.0</ele><time>2026-04-12T09:27:56.15Z</time></trkpt><trkpt lat="43.8001217" lon="12.7732083"><ele>369.0</ele><time>2026-04-12T09:27:57.151Z</time></trkpt><trkpt lat="43.8001867" lon="12.7731417"><ele>367.0</ele><time>2026-04-12T09:27:58.15Z</time></trkpt><trkpt lat="43.8002533" lon="12.7730683"><ele>365.0</ele><time>2026-04-12T09:27:59.151Z</time></trkpt><trkpt lat="43.8003167" lon="12.7730067"><ele>363.0</ele><time>2026-04-12T09:28:00.151Z</time></trkpt><trkpt lat="43.8003733" lon="12.772945"><ele>361.0</ele><time>2026-04-12T09:28:01.152Z</time></trkpt><trkpt lat="43.8004217" lon="12.772885"><ele>359.0</ele><time>2026-04-12T09:28:02.151Z</time></trkpt><trkpt lat="43.80051" lon="12.7727633"><ele>361.83333333333337</ele><time>2026-04-12T09:28:04.149Z</time></trkpt><trkpt lat="43.80055" lon="12.7726667"><ele>364.6666666666667</ele><time>2026-04-12T09:28:05.15Z</time></trkpt><trkpt lat="43.8005967" lon="12.7725683"><ele>367.5</ele><time>2026-04-12T09:28:06.151Z</time></trkpt><trkpt lat="43.8006333" lon="12.7724733"><ele>370.3333333333333</ele><time>2026-04-12T09:28:07.15Z</time></trkpt><trkpt lat="43.80067" lon="12.77239"><ele>373.16666666666663</ele><time>2026-04-12T09:28:08.153Z</time></trkpt><trkpt lat="43.8007217" lon="12.7723183"><ele>376.0</ele><time>2026-04-12T09:28:09.151Z</time></trkpt><trkpt lat="43.80078" lon="12.772255"><ele>376.0</ele><time>2026-04-12T09:28:10.151Z</time></trkpt><trkpt lat="43.8008483" lon="12.7721933"><ele>376.0</ele><time>2026-04-12T09:28:11.151Z</time></trkpt><trkpt lat="43.8009217" lon="12.7721333"><ele>376.0</ele><time>2026-04-12T09:28:12.151Z</time></trkpt><trkpt lat="43.8009983" lon="12.7720633"><ele>376.0</ele><time>2026-04-12T09:28:13.148Z</time></trkpt><trkpt lat="43.8010683" lon="12.7720017"><ele>376.0</ele><time>2026-04-12T09:28:14.15Z</time></trkpt><trkpt lat="43.80114" lon="12.7719267"><ele>376.0</ele><time>2026-04-12T09:28:15.15Z</time></trkpt><trkpt lat="43.801205" lon="12.7718617"><ele>375.0</ele><time>2026-04-12T09:28:16.15Z</time></trkpt><trkpt lat="43.8012683" lon="12.7717883"><ele>374.0</ele><time>2026-04-12T09:28:17.15Z</time></trkpt><trkpt lat="43.80133" lon="12.7717183"><ele>373.0</ele><time>2026-04-12T09:28:18.15Z</time></trkpt><trkpt lat="43.8014283" lon="12.7716033"><ele>372.0</ele><time>2026-04-12T09:28:20.15Z</time></trkpt><trkpt lat="43.8015133" lon="12.7715"><ele>371.0</ele><time>2026-04-12T09:28:22.15Z</time></trkpt><trkpt lat="43.801615" lon="12.7714033"><ele>371.0</ele><time>2026-04-12T09:28:24.15Z</time></trkpt><trkpt lat="43.8016717" lon="12.771345"><ele>371.0</ele><time>2026-04-12T09:28:25.151Z</time></trkpt><trkpt lat="43.8017367" lon="12.77129"><ele>371.0</ele><time>2026-04-12T09:28:26.149Z</time></trkpt><trkpt lat="43.801815" lon="12.77123"><ele>371.0</ele><time>2026-04-12T09:28:27.148Z</time></trkpt><trkpt lat="43.8018833" lon="12.7711917"><ele>371.0</ele><time>2026-04-12T09:28:28.149Z</time></trkpt><trkpt lat="43.80196" lon="12.77114"><ele>371.0</ele><time>2026-04-12T09:28:29.149Z</time></trkpt><trkpt lat="43.8020317" lon="12.77109"><ele>371.20000000000005</ele><time>2026-04-12T09:28:30.148Z</time></trkpt><trkpt lat="43.80211" lon="12.77102"><ele>371.40000000000003</ele><time>2026-04-12T09:28:31.149Z</time></trkpt><trkpt lat="43.802175" lon="12.7709283"><ele>371.6</ele><time>2026-04-12T09:28:32.149Z</time></trkpt><trkpt lat="43.8022433" lon="12.770825"><ele>371.8</ele><time>2026-04-12T09:28:33.149Z</time></trkpt><trkpt lat="43.8023067" lon="12.7707433"><ele>372.0</ele><time>2026-04-12T09:28:34.149Z</time></trkpt><trkpt lat="43.8023733" lon="12.7706717"><ele>372.0</ele><time>2026-04-12T09:28:35.149Z</time></trkpt><trkpt lat="43.8024533" lon="12.770615"><ele>372.0</ele><time>2026-04-12T09:28:36.148Z</time></trkpt><trkpt lat="43.8025217" lon="12.7705733"><ele>372.0</ele><time>2026-04-12T09:28:37.149Z</time></trkpt><trkpt lat="43.8026017" lon="12.7705483"><ele>372.0</ele><time>2026-04-12T09:28:38.148Z</time></trkpt><trkpt lat="43.802685" lon="12.7705317"><ele>372.0</ele><time>2026-04-12T09:28:39.149Z</time></trkpt><trkpt lat="43.8027717" lon="12.7705183"><ele>372.0</ele><time>2026-04-12T09:28:40.148Z</time></trkpt><trkpt lat="43.8028483" lon="12.7705017"><ele>371.8</ele><time>2026-04-12T09:28:41.237Z</time></trkpt><trkpt lat="43.80292" lon="12.77048"><ele>371.6</ele><time>2026-04-12T09:28:42.151Z</time></trkpt><trkpt lat="43.8030367" lon="12.7704433"><ele>371.40000000000003</ele><time>2026-04-12T09:28:44.15Z</time></trkpt><trkpt lat="43.8031217" lon="12.7704067"><ele>371.20000000000005</ele><time>2026-04-12T09:28:46.148Z</time></trkpt><trkpt lat="43.8032" lon="12.7704133"><ele>371.0</ele><time>2026-04-12T09:28:48.15Z</time></trkpt><trkpt lat="43.8032883" lon="12.7704583"><ele>371.0</ele><time>2026-04-12T09:28:50.148Z</time></trkpt><trkpt lat="43.8033717" lon="12.7705283"><ele>371.0</ele><time>2026-04-12T09:28:52.15Z</time></trkpt><trkpt lat="43.8034517" lon="12.7705883"><ele>371.0</ele><time>2026-04-12T09:28:54.149Z</time></trkpt><trkpt lat="43.8035317" lon="12.7706383"><ele>371.0</ele><time>2026-04-12T09:28:56.148Z</time></trkpt><trkpt lat="43.803605" lon="12.7706833"><ele>371.0</ele><time>2026-04-12T09:28:58.149Z</time></trkpt><trkpt lat="43.8036733" lon="12.7707283"><ele>371.0</ele><time>2026-04-12T09:29:00.149Z</time></trkpt><trkpt lat="43.8037467" lon="12.77078"><ele>369.6</ele><time>2026-04-12T09:29:02.15Z</time></trkpt><trkpt lat="43.8038167" lon="12.7708283"><ele>368.20000000000005</ele><time>2026-04-12T09:29:04.149Z</time></trkpt><trkpt lat="43.8038867" lon="12.77088"><ele>366.79999999999995</ele><time>2026-04-12T09:29:06.15Z</time></trkpt><trkpt lat="43.8039583" lon="12.7709433"><ele>365.4</ele><time>2026-04-12T09:29:08.148Z</time></trkpt><trkpt lat="43.8040433" lon="12.77103"><ele>364.0</ele><time>2026-04-12T09:29:10.15Z</time></trkpt><trkpt lat="43.8041167" lon="12.7711517"><ele>364.0</ele><time>2026-04-12T09:29:12.148Z</time></trkpt><trkpt lat="43.8041784" lon="12.7712731"><ele>364.0</ele><time>2026-04-12T09:29:14.149Z</time></trkpt><trkpt lat="43.8042432" lon="12.7713998"><ele>364.0</ele><time>2026-04-12T09:29:16.149Z</time></trkpt><trkpt lat="43.8042999" lon="12.7715332"><ele>364.0</ele><time>2026-04-12T09:29:18.149Z</time></trkpt><trkpt lat="43.8043585" lon="12.77167"><ele>364.0</ele><time>2026-04-12T09:29:20.155Z</time></trkpt><trkpt lat="43.804395" lon="12.771745"><ele>355.75</ele><time>2026-04-12T09:29:21.158Z</time></trkpt><trkpt lat="43.8044767" lon="12.7718815"><ele>347.5</ele><time>2026-04-12T09:29:23.149Z</time></trkpt><trkpt lat="43.8045623" lon="12.7719942"><ele>339.25</ele><time>2026-04-12T09:29:25.148Z</time></trkpt><trkpt lat="43.8046382" lon="12.7720961"><ele>331.0</ele><time>2026-04-12T09:29:27.154Z</time></trkpt><trkpt lat="43.8046947" lon="12.7722113"><ele>331.0</ele><time>2026-04-12T09:29:29.15Z</time></trkpt><trkpt lat="43.8047392" lon="12.7723321"><ele>331.0</ele><time>2026-04-12T09:29:31.151Z</time></trkpt><trkpt lat="43.804758" lon="12.7724485"><ele>331.0</ele><time>2026-04-12T09:29:33.15Z</time></trkpt><trkpt lat="43.8047794" lon="12.7725527"><ele>331.0</ele><time>2026-04-12T09:29:35.149Z</time></trkpt><trkpt lat="43.8048293" lon="12.7726195"><ele>331.0</ele><time>2026-04-12T09:29:37.149Z</time></trkpt><trkpt lat="43.8049124" lon="12.7726135"><ele>331.0</ele><time>2026-04-12T09:29:39.15Z</time></trkpt><trkpt lat="43.8049783" lon="12.7725216"><ele>331.0</ele><time>2026-04-12T09:29:41.149Z</time></trkpt><trkpt lat="43.805012" lon="12.7723884"><ele>331.0</ele><time>2026-04-12T09:29:43.148Z</time></trkpt><trkpt lat="43.8050642" lon="12.7723184"><ele>331.0</ele><time>2026-04-12T09:29:45.147Z</time></trkpt><trkpt lat="43.8051369" lon="12.7723447"><ele>331.0</ele><time>2026-04-12T09:29:47.149Z</time></trkpt><trkpt lat="43.8052086" lon="12.7724444"><ele>331.0</ele><time>2026-04-12T09:29:49.149Z</time></trkpt><trkpt lat="43.805246" lon="12.7725146"><ele>331.0</ele><time>2026-04-12T09:29:50.15Z</time></trkpt><trkpt lat="43.8052932" lon="12.7726645"><ele>325.2</ele><time>2026-04-12T09:29:52.149Z</time></trkpt><trkpt lat="43.8053539" lon="12.7728051"><ele>319.40000000000003</ele><time>2026-04-12T09:29:54.15Z</time></trkpt><trkpt lat="43.8054012" lon="12.7728629"><ele>313.6</ele><time>2026-04-12T09:29:55.152Z</time></trkpt><trkpt lat="43.8055252" lon="12.7729218"><ele>307.8</ele><time>2026-04-12T09:29:57.149Z</time></trkpt><trkpt lat="43.8055961" lon="12.7729272"><ele>302.0</ele><time>2026-04-12T09:29:58.152Z</time></trkpt><trkpt lat="43.8056633" lon="12.7729182"><ele>302.0</ele><time>2026-04-12T09:29:59.15Z</time></trkpt><trkpt lat="43.8057267" lon="12.7729094"><ele>302.0</ele><time>2026-04-12T09:30:00.151Z</time></trkpt><trkpt lat="43.8058385" lon="12.7729263"><ele>302.0</ele><time>2026-04-12T09:30:02.149Z</time></trkpt><trkpt lat="43.8059433" lon="12.7729704"><ele>302.0</ele><time>2026-04-12T09:30:04.149Z</time></trkpt><trkpt lat="43.8060441" lon="12.7730326"><ele>302.0</ele><time>2026-04-12T09:30:06.149Z</time></trkpt><trkpt lat="43.8061467" lon="12.7730976"><ele>300.5</ele><time>2026-04-12T09:30:08.149Z</time></trkpt><trkpt lat="43.8062646" lon="12.7731614"><ele>299.0</ele><time>2026-04-12T09:30:10.149Z</time></trkpt><trkpt lat="43.8063274" lon="12.7732105"><ele>297.5</ele><time>2026-04-12T09:30:11.149Z</time></trkpt><trkpt lat="43.8063869" lon="12.7732657"><ele>296.0</ele><time>2026-04-12T09:30:12.148Z</time></trkpt><trkpt lat="43.8064458" lon="12.7733183"><ele>294.5</ele><time>2026-04-12T09:30:13.15Z</time></trkpt><trkpt lat="43.8065045" lon="12.7733619"><ele>293.0</ele><time>2026-04-12T09:30:14.149Z</time></trkpt><trkpt lat="43.8065654" lon="12.7734074"><ele>293.0</ele><time>2026-04-12T09:30:15.147Z</time></trkpt><trkpt lat="43.8066196" lon="12.7734555"><ele>293.0</ele><time>2026-04-12T09:30:16.147Z</time></trkpt><trkpt lat="43.8067256" lon="12.773497"><ele>293.0</ele><time>2026-04-12T09:30:18.149Z</time></trkpt><trkpt lat="43.8068276" lon="12.7735309"><ele>293.0</ele><time>2026-04-12T09:30:20.148Z</time></trkpt><trkpt lat="43.8069244" lon="12.7735562"><ele>293.0</ele><time>2026-04-12T09:30:22.148Z</time></trkpt><trkpt lat="43.8070315" lon="12.7735823"><ele>291.8</ele><time>2026-04-12T09:30:24.148Z</time></trkpt><trkpt lat="43.8071473" lon="12.773597"><ele>290.6</ele><time>2026-04-12T09:30:26.148Z</time></trkpt><trkpt lat="43.8072393" lon="12.7735503"><ele>289.4</ele><time>2026-04-12T09:30:28.149Z</time></trkpt><trkpt lat="43.8072976" lon="12.7735114"><ele>288.2</ele><time>2026-04-12T09:30:30.149Z</time></trkpt><trkpt lat="43.8073752" lon="12.7734753"><ele>287.0</ele><time>2026-04-12T09:30:40.15Z</time></trkpt><trkpt lat="43.8074963" lon="12.7734324"><ele>287.0</ele><time>2026-04-12T09:30:42.149Z</time></trkpt><trkpt lat="43.8076064" lon="12.7733933"><ele>287.0</ele><time>2026-04-12T09:30:44.15Z</time></trkpt><trkpt lat="43.8077103" lon="12.773382"><ele>287.0</ele><time>2026-04-12T09:30:46.148Z</time></trkpt><trkpt lat="43.8078105" lon="12.7733696"><ele>287.0</ele><time>2026-04-12T09:30:48.149Z</time></trkpt><trkpt lat="43.8079115" lon="12.7733425"><ele>287.0</ele><time>2026-04-12T09:30:50.148Z</time></trkpt><trkpt lat="43.8080206" lon="12.7733578"><ele>286.14285714285717</ele><time>2026-04-12T09:30:52.152Z</time></trkpt><trkpt lat="43.8080902" lon="12.7733623"><ele>285.2857142857143</ele><time>2026-04-12T09:30:53.148Z</time></trkpt><trkpt lat="43.808156" lon="12.7733772"><ele>284.42857142857144</ele><time>2026-04-12T09:30:54.148Z</time></trkpt><trkpt lat="43.8082227" lon="12.7733947"><ele>283.57142857142856</ele><time>2026-04-12T09:30:55.151Z</time></trkpt><trkpt lat="43.8082929" lon="12.7734225"><ele>282.7142857142857</ele><time>2026-04-12T09:30:56.149Z</time></trkpt><trkpt lat="43.8083671" lon="12.7734612"><ele>281.8571428571429</ele><time>2026-04-12T09:30:57.15Z</time></trkpt><trkpt lat="43.8084375" lon="12.7735052"><ele>281.0</ele><time>2026-04-12T09:30:58.149Z</time></trkpt><trkpt lat="43.8085058" lon="12.7735457"><ele>280.14285714285717</ele><time>2026-04-12T09:30:59.151Z</time></trkpt><trkpt lat="43.8085698" lon="12.7735979"><ele>279.2857142857143</ele><time>2026-04-12T09:31:00.15Z</time></trkpt><trkpt lat="43.8086331" lon="12.7736545"><ele>278.42857142857144</ele><time>2026-04-12T09:31:01.151Z</time></trkpt><trkpt lat="43.8086937" lon="12.7737144"><ele>277.57142857142856</ele><time>2026-04-12T09:31:02.15Z</time></trkpt><trkpt lat="43.8087509" lon="12.7737736"><ele>276.7142857142857</ele><time>2026-04-12T09:31:03.15Z</time></trkpt><trkpt lat="43.8088046" lon="12.7738353"><ele>275.8571428571429</ele><time>2026-04-12T09:31:04.15Z</time></trkpt><trkpt lat="43.8088525" lon="12.7738977"><ele>275.0</ele><time>2026-04-12T09:31:05.149Z</time></trkpt><trkpt lat="43.8089038" lon="12.7739642"><ele>275.0</ele><time>2026-04-12T09:31:06.15Z</time></trkpt><trkpt lat="43.8089547" lon="12.7740313"><ele>275.0</ele><time>2026-04-12T09:31:07.15Z</time></trkpt><trkpt lat="43.8090021" lon="12.7741057"><ele>275.0</ele><time>2026-04-12T09:31:08.15Z</time></trkpt><trkpt lat="43.8090567" lon="12.7741891"><ele>275.0</ele><time>2026-04-12T09:31:09.15Z</time></trkpt><trkpt lat="43.8091145" lon="12.7742666"><ele>275.0</ele><time>2026-04-12T09:31:10.15Z</time></trkpt><trkpt lat="43.8091717" lon="12.7743382"><ele>275.0</ele><time>2026-04-12T09:31:11.15Z</time></trkpt><trkpt lat="43.8092243" lon="12.774406"><ele>273.42857142857144</ele><time>2026-04-12T09:31:12.148Z</time></trkpt><trkpt lat="43.8092696" lon="12.7744728"><ele>271.85714285714283</ele><time>2026-04-12T09:31:13.148Z</time></trkpt><trkpt lat="43.8093137" lon="12.7745363"><ele>270.2857142857143</ele><time>2026-04-12T09:31:14.149Z</time></trkpt><trkpt lat="43.8093669" lon="12.7745955"><ele>268.7142857142857</ele><time>2026-04-12T09:31:15.148Z</time></trkpt><trkpt lat="43.8094291" lon="12.7746473"><ele>267.14285714285717</ele><time>2026-04-12T09:31:16.147Z</time></trkpt><trkpt lat="43.8094899" lon="12.7747022"><ele>265.57142857142856</ele><time>2026-04-12T09:31:17.148Z</time></trkpt><trkpt lat="43.8095584" lon="12.7747454"><ele>264.0</ele><time>2026-04-12T09:31:18.148Z</time></trkpt><trkpt lat="43.8096391" lon="12.7747841"><ele>264.0</ele><time>2026-04-12T09:31:19.148Z</time></trkpt><trkpt lat="43.8097265" lon="12.7748202"><ele>264.0</ele><time>2026-04-12T09:31:20.148Z</time></trkpt><trkpt lat="43.8098088" lon="12.7748484"><ele>264.0</ele><time>2026-04-12T09:31:21.148Z</time></trkpt><trkpt lat="43.8098848" lon="12.7748754"><ele>264.0</ele><time>2026-04-12T09:31:22.149Z</time></trkpt><trkpt lat="43.8099575" lon="12.7748966"><ele>264.0</ele><time>2026-04-12T09:31:23.148Z</time></trkpt><trkpt lat="43.8100318" lon="12.7749021"><ele>264.0</ele><time>2026-04-12T09:31:24.15Z</time></trkpt><trkpt lat="43.8100977" lon="12.7748882"><ele>262.6666666666667</ele><time>2026-04-12T09:31:25.149Z</time></trkpt><trkpt lat="43.8101629" lon="12.7748692"><ele>261.3333333333333</ele><time>2026-04-12T09:31:26.149Z</time></trkpt><trkpt lat="43.8102337" lon="12.774838"><ele>260.0</ele><time>2026-04-12T09:31:27.148Z</time></trkpt><trkpt lat="43.8102907" lon="12.7747979"><ele>258.66666666666663</ele><time>2026-04-12T09:31:28.148Z</time></trkpt><trkpt lat="43.8103587" lon="12.7747413"><ele>257.3333333333333</ele><time>2026-04-12T09:31:29.149Z</time></trkpt><trkpt lat="43.8104392" lon="12.7746669"><ele>256.0</ele><time>2026-04-12T09:31:30.149Z</time></trkpt><trkpt lat="43.8105511" lon="12.7745952"><ele>256.0</ele><time>2026-04-12T09:31:31.147Z</time></trkpt><trkpt lat="43.8106775" lon="12.7745353"><ele>256.0</ele><time>2026-04-12T09:31:32.148Z</time></trkpt><trkpt lat="43.8107972" lon="12.7744858"><ele>256.0</ele><time>2026-04-12T09:31:33.149Z</time></trkpt><trkpt lat="43.8108985" lon="12.7744461"><ele>256.0</ele><time>2026-04-12T09:31:34.149Z</time></trkpt><trkpt lat="43.8109822" lon="12.7744041"><ele>258.6</ele><time>2026-04-12T09:31:35.148Z</time></trkpt><trkpt lat="43.8110613" lon="12.7743547"><ele>261.20000000000005</ele><time>2026-04-12T09:31:36.15Z</time></trkpt><trkpt lat="43.8111417" lon="12.7743104"><ele>263.79999999999995</ele><time>2026-04-12T09:31:37.149Z</time></trkpt><trkpt lat="43.8112298" lon="12.7742732"><ele>266.4</ele><time>2026-04-12T09:31:38.15Z</time></trkpt><trkpt lat="43.8113285" lon="12.7742529"><ele>269.0</ele><time>2026-04-12T09:31:39.148Z</time></trkpt><trkpt lat="43.8114275" lon="12.7742527"><ele>269.0</ele><time>2026-04-12T09:31:40.172Z</time></trkpt><trkpt lat="43.8115197" lon="12.7742596"><ele>269.0</ele><time>2026-04-12T09:31:41.151Z</time></trkpt><trkpt lat="43.811609" lon="12.7742719"><ele>269.0</ele><time>2026-04-12T09:31:42.151Z</time></trkpt><trkpt lat="43.8116919" lon="12.7742799"><ele>269.0</ele><time>2026-04-12T09:31:43.15Z</time></trkpt><trkpt lat="43.8117692" lon="12.7742797"><ele>269.0</ele><time>2026-04-12T09:31:44.148Z</time></trkpt><trkpt lat="43.8118454" lon="12.7742757"><ele>269.0</ele><time>2026-04-12T09:31:45.147Z</time></trkpt><trkpt lat="43.8119228" lon="12.774268"><ele>266.6666666666667</ele><time>2026-04-12T09:31:46.148Z</time></trkpt><trkpt lat="43.8120033" lon="12.7742551"><ele>264.33333333333337</ele><time>2026-04-12T09:31:47.149Z</time></trkpt><trkpt lat="43.8120819" lon="12.774236"><ele>262.0</ele><time>2026-04-12T09:31:48.15Z</time></trkpt><trkpt lat="43.8121641" lon="12.7742112"><ele>259.6666666666667</ele><time>2026-04-12T09:31:49.151Z</time></trkpt><trkpt lat="43.8122473" lon="12.7741694"><ele>257.3333333333333</ele><time>2026-04-12T09:31:50.148Z</time></trkpt><trkpt lat="43.8123318" lon="12.7741219"><ele>255.0</ele><time>2026-04-12T09:31:51.15Z</time></trkpt><trkpt lat="43.8124105" lon="12.7740666"><ele>255.0</ele><time>2026-04-12T09:31:52.148Z</time></trkpt><trkpt lat="43.8124856" lon="12.7740109"><ele>255.0</ele><time>2026-04-12T09:31:53.152Z</time></trkpt><trkpt lat="43.8125487" lon="12.7739454"><ele>255.0</ele><time>2026-04-12T09:31:54.149Z</time></trkpt><trkpt lat="43.8126053" lon="12.7738599"><ele>255.0</ele><time>2026-04-12T09:31:55.15Z</time></trkpt><trkpt lat="43.8126526" lon="12.773758"><ele>255.0</ele><time>2026-04-12T09:31:56.149Z</time></trkpt><trkpt lat="43.8126921" lon="12.773644"><ele>255.0</ele><time>2026-04-12T09:31:57.148Z</time></trkpt><trkpt lat="43.8127275" lon="12.7735321"><ele>254.5</ele><time>2026-04-12T09:31:58.151Z</time></trkpt><trkpt lat="43.8127607" lon="12.7734248"><ele>254.0</ele><time>2026-04-12T09:31:59.149Z</time></trkpt><trkpt lat="43.8128048" lon="12.7733275"><ele>253.5</ele><time>2026-04-12T09:32:00.148Z</time></trkpt><trkpt lat="43.8128446" lon="12.7732348"><ele>253.0</ele><time>2026-04-12T09:32:01.147Z</time></trkpt><trkpt lat="43.8128886" lon="12.7731497"><ele>252.5</ele><time>2026-04-12T09:32:02.149Z</time></trkpt><trkpt lat="43.8129363" lon="12.7730697"><ele>252.0</ele><time>2026-04-12T09:32:03.151Z</time></trkpt><trkpt lat="43.8129888" lon="12.7730001"><ele>252.0</ele><time>2026-04-12T09:32:04.15Z</time></trkpt><trkpt lat="43.8130454" lon="12.7729503"><ele>252.0</ele><time>2026-04-12T09:32:05.148Z</time></trkpt><trkpt lat="43.8131102" lon="12.7729146"><ele>252.0</ele><time>2026-04-12T09:32:06.149Z</time></trkpt><trkpt lat="43.8131872" lon="12.7729098"><ele>252.0</ele><time>2026-04-12T09:32:07.149Z</time></trkpt><trkpt lat="43.8132661" lon="12.7729467"><ele>252.0</ele><time>2026-04-12T09:32:08.149Z</time></trkpt><trkpt lat="43.8133349" lon="12.7729998"><ele>252.0</ele><time>2026-04-12T09:32:09.149Z</time></trkpt><trkpt lat="43.813395" lon="12.7730592"><ele>252.0</ele><time>2026-04-12T09:32:10.148Z</time></trkpt><trkpt lat="43.8134572" lon="12.7731195"><ele>252.0</ele><time>2026-04-12T09:32:11.148Z</time></trkpt><trkpt lat="43.8135018" lon="12.7731944"><ele>252.0</ele><time>2026-04-12T09:32:12.148Z</time></trkpt><trkpt lat="43.8135315" lon="12.7732865"><ele>252.0</ele><time>2026-04-12T09:32:13.148Z</time></trkpt><trkpt lat="43.8135349" lon="12.7733858"><ele>252.0</ele><time>2026-04-12T09:32:14.151Z</time></trkpt><trkpt lat="43.8135361" lon="12.7734735"><ele>252.0</ele><time>2026-04-12T09:32:15.149Z</time></trkpt><trkpt lat="43.8135365" lon="12.7736056"><ele>252.0</ele><time>2026-04-12T09:32:17.147Z</time></trkpt><trkpt lat="43.8136188" lon="12.7736567"><ele>248.2</ele><time>2026-04-12T09:32:20.148Z</time></trkpt><trkpt lat="43.813696" lon="12.7735392"><ele>244.39999999999998</ele><time>2026-04-12T09:32:22.148Z</time></trkpt><trkpt lat="43.8137368" lon="12.77342"><ele>240.60000000000002</ele><time>2026-04-12T09:32:24.148Z</time></trkpt><trkpt lat="43.8138194" lon="12.7734527"><ele>236.8</ele><time>2026-04-12T09:32:27.147Z</time></trkpt><trkpt lat="43.8138235" lon="12.7735744"><ele>233.0</ele><time>2026-04-12T09:32:29.148Z</time></trkpt><trkpt lat="43.813865" lon="12.7736966"><ele>233.0</ele><time>2026-04-12T09:32:31.152Z</time></trkpt><trkpt lat="43.8139615" lon="12.7737454"><ele>233.0</ele><time>2026-04-12T09:32:33.148Z</time></trkpt><trkpt lat="43.8140627" lon="12.773679"><ele>233.0</ele><time>2026-04-12T09:32:35.148Z</time></trkpt><trkpt lat="43.814116" lon="12.773517"><ele>233.0</ele><time>2026-04-12T09:32:37.148Z</time></trkpt><trkpt lat="43.8141357" lon="12.7734318"><ele>233.0</ele><time>2026-04-12T09:32:38.148Z</time></trkpt><trkpt lat="43.8142019" lon="12.7733155"><ele>233.00000000000003</ele><time>2026-04-12T09:32:40.147Z</time></trkpt><trkpt lat="43.8143033" lon="12.7733367"><ele>233.0</ele><time>2026-04-12T09:32:42.149Z</time></trkpt><trkpt lat="43.8143833" lon="12.7734733"><ele>233.0</ele><time>2026-04-12T09:32:44.147Z</time></trkpt><trkpt lat="43.8144" lon="12.7735583"><ele>233.0</ele><time>2026-04-12T09:32:45.147Z</time></trkpt><trkpt lat="43.8144033" lon="12.7736533"><ele>233.00000000000003</ele><time>2026-04-12T09:32:46.147Z</time></trkpt><trkpt lat="43.8143683" lon="12.773745"><ele>233.0</ele><time>2026-04-12T09:32:47.146Z</time></trkpt><trkpt lat="43.8143183" lon="12.773865"><ele>232.00000000000003</ele><time>2026-04-12T09:32:49.146Z</time></trkpt><trkpt lat="43.8143017" lon="12.77397"><ele>231.0</ele><time>2026-04-12T09:32:51.151Z</time></trkpt><trkpt lat="43.81439" lon="12.7740333"><ele>230.0</ele><time>2026-04-12T09:32:53.147Z</time></trkpt><trkpt lat="43.8144683" lon="12.774015"><ele>229.0</ele><time>2026-04-12T09:32:54.146Z</time></trkpt><trkpt lat="43.814545" lon="12.7739783"><ele>228.00000000000003</ele><time>2026-04-12T09:32:55.147Z</time></trkpt><trkpt lat="43.81463" lon="12.77393"><ele>227.0</ele><time>2026-04-12T09:32:56.149Z</time></trkpt><trkpt lat="43.8147283" lon="12.7738867"><ele>224.2</ele><time>2026-04-12T09:32:57.147Z</time></trkpt><trkpt lat="43.8148267" lon="12.7738517"><ele>221.39999999999998</ele><time>2026-04-12T09:32:58.147Z</time></trkpt><trkpt lat="43.8149267" lon="12.773835"><ele>218.60000000000002</ele><time>2026-04-12T09:32:59.147Z</time></trkpt><trkpt lat="43.8150267" lon="12.7738233"><ele>215.8</ele><time>2026-04-12T09:33:00.147Z</time></trkpt><trkpt lat="43.8151217" lon="12.7738233"><ele>213.0</ele><time>2026-04-12T09:33:01.146Z</time></trkpt><trkpt lat="43.815215" lon="12.773825"><ele>212.60000000000002</ele><time>2026-04-12T09:33:02.148Z</time></trkpt><trkpt lat="43.8153117" lon="12.77383"><ele>212.20000000000002</ele><time>2026-04-12T09:33:03.147Z</time></trkpt><trkpt lat="43.8154133" lon="12.7738417"><ele>211.8</ele><time>2026-04-12T09:33:04.147Z</time></trkpt><trkpt lat="43.8155167" lon="12.773855"><ele>211.4</ele><time>2026-04-12T09:33:05.146Z</time></trkpt><trkpt lat="43.81562" lon="12.7738717"><ele>211.0</ele><time>2026-04-12T09:33:06.148Z</time></trkpt><trkpt lat="43.8157233" lon="12.7738883"><ele>211.0</ele><time>2026-04-12T09:33:07.147Z</time></trkpt><trkpt lat="43.8158267" lon="12.7739"><ele>211.0</ele><time>2026-04-12T09:33:08.147Z</time></trkpt><trkpt lat="43.81593" lon="12.7739083"><ele>211.0</ele><time>2026-04-12T09:33:09.147Z</time></trkpt><trkpt lat="43.8160383" lon="12.77391"><ele>211.0</ele><time>2026-04-12T09:33:10.147Z</time></trkpt><trkpt lat="43.8161483" lon="12.773915"><ele>211.0</ele><time>2026-04-12T09:33:11.148Z</time></trkpt><trkpt lat="43.8162617" lon="12.7739217"><ele>212.75</ele><time>2026-04-12T09:33:12.146Z</time></trkpt><trkpt lat="43.8163783" lon="12.7739367"><ele>214.5</ele><time>2026-04-12T09:33:13.149Z</time></trkpt><trkpt lat="43.8164917" lon="12.7739467"><ele>216.25</ele><time>2026-04-12T09:33:14.148Z</time></trkpt><trkpt lat="43.8166083" lon="12.7739567"><ele>218.0</ele><time>2026-04-12T09:33:15.148Z</time></trkpt><trkpt lat="43.8167283" lon="12.7739633"><ele>218.25</ele><time>2026-04-12T09:33:16.146Z</time></trkpt><trkpt lat="43.8168417" lon="12.7739633"><ele>218.5</ele><time>2026-04-12T09:33:17.147Z</time></trkpt><trkpt lat="43.81696" lon="12.7739717"><ele>218.75</ele><time>2026-04-12T09:33:18.148Z</time></trkpt><trkpt lat="43.817085" lon="12.7739783"><ele>219.0</ele><time>2026-04-12T09:33:19.149Z</time></trkpt><trkpt lat="43.8171967" lon="12.7739817"><ele>219.0</ele><time>2026-04-12T09:33:20.147Z</time></trkpt><trkpt lat="43.8172933" lon="12.7739933"><ele>218.99999999999997</ele><time>2026-04-12T09:33:21.146Z</time></trkpt><trkpt lat="43.817385" lon="12.7740067"><ele>218.99999999999997</ele><time>2026-04-12T09:33:22.147Z</time></trkpt><trkpt lat="43.817475" lon="12.774015"><ele>219.0</ele><time>2026-04-12T09:33:23.147Z</time></trkpt><trkpt lat="43.8175667" lon="12.77404"><ele>219.0</ele><time>2026-04-12T09:33:24.146Z</time></trkpt><trkpt lat="43.817665" lon="12.774075"><ele>217.79999999999998</ele><time>2026-04-12T09:33:25.147Z</time></trkpt><trkpt lat="43.8177633" lon="12.7741233"><ele>216.59999999999997</ele><time>2026-04-12T09:33:26.148Z</time></trkpt><trkpt lat="43.8178683" lon="12.7741717"><ele>215.4</ele><time>2026-04-12T09:33:27.146Z</time></trkpt><trkpt lat="43.81797" lon="12.77422"><ele>214.2</ele><time>2026-04-12T09:33:28.147Z</time></trkpt><trkpt lat="43.8180683" lon="12.7742733"><ele>213.0</ele><time>2026-04-12T09:33:29.147Z</time></trkpt><trkpt lat="43.818165" lon="12.7743267"><ele>213.0</ele><time>2026-04-12T09:33:30.148Z</time></trkpt><trkpt lat="43.8182567" lon="12.774385"><ele>213.0</ele><time>2026-04-12T09:33:31.147Z</time></trkpt><trkpt lat="43.8183433" lon="12.7744367"><ele>213.0</ele><time>2026-04-12T09:33:32.148Z</time></trkpt><trkpt lat="43.8184333" lon="12.7744833"><ele>213.0</ele><time>2026-04-12T09:33:33.146Z</time></trkpt><trkpt lat="43.81853" lon="12.7745133"><ele>213.0</ele><time>2026-04-12T09:33:34.147Z</time></trkpt><trkpt lat="43.8186317" lon="12.7745333"><ele>211.83333333333334</ele><time>2026-04-12T09:33:35.148Z</time></trkpt><trkpt lat="43.81873" lon="12.7745433"><ele>210.66666666666669</ele><time>2026-04-12T09:33:36.148Z</time></trkpt><trkpt lat="43.8188167" lon="12.7745433"><ele>209.5</ele><time>2026-04-12T09:33:37.147Z</time></trkpt><trkpt lat="43.8189033" lon="12.774545"><ele>208.33333333333334</ele><time>2026-04-12T09:33:38.148Z</time></trkpt><trkpt lat="43.818985" lon="12.7745517"><ele>207.16666666666669</ele><time>2026-04-12T09:33:39.147Z</time></trkpt><trkpt lat="43.8190733" lon="12.77456"><ele>206.0</ele><time>2026-04-12T09:33:40.148Z</time></trkpt><trkpt lat="43.8191467" lon="12.7745683"><ele>206.00000000000003</ele><time>2026-04-12T09:33:41.146Z</time></trkpt><trkpt lat="43.81923" lon="12.7745833"><ele>206.0</ele><time>2026-04-12T09:33:42.148Z</time></trkpt><trkpt lat="43.8193183" lon="12.774595"><ele>206.0</ele><time>2026-04-12T09:33:43.147Z</time></trkpt><trkpt lat="43.8194083" lon="12.7746033"><ele>206.0</ele><time>2026-04-12T09:33:44.149Z</time></trkpt><trkpt lat="43.8195033" lon="12.7746083"><ele>206.00000000000003</ele><time>2026-04-12T09:33:45.147Z</time></trkpt><trkpt lat="43.8195933" lon="12.7746217"><ele>206.0</ele><time>2026-04-12T09:33:46.147Z</time></trkpt><trkpt lat="43.8196883" lon="12.7746367"><ele>205.4</ele><time>2026-04-12T09:33:47.146Z</time></trkpt><trkpt lat="43.81979" lon="12.774645"><ele>204.8</ele><time>2026-04-12T09:33:48.147Z</time></trkpt><trkpt lat="43.8198883" lon="12.7746467"><ele>204.20000000000002</ele><time>2026-04-12T09:33:49.146Z</time></trkpt><trkpt lat="43.8199867" lon="12.7746383"><ele>203.60000000000002</ele><time>2026-04-12T09:33:50.147Z</time></trkpt><trkpt lat="43.8200867" lon="12.7746217"><ele>203.0</ele><time>2026-04-12T09:33:51.146Z</time></trkpt><trkpt lat="43.8201917" lon="12.7746017"><ele>202.60000000000002</ele><time>2026-04-12T09:33:52.146Z</time></trkpt><trkpt lat="43.82029" lon="12.774575"><ele>202.20000000000002</ele><time>2026-04-12T09:33:53.145Z</time></trkpt><trkpt lat="43.8204017" lon="12.7745467"><ele>201.8</ele><time>2026-04-12T09:33:54.147Z</time></trkpt><trkpt lat="43.8205067" lon="12.77452"><ele>201.4</ele><time>2026-04-12T09:33:55.147Z</time></trkpt><trkpt lat="43.820605" lon="12.7744833"><ele>201.0</ele><time>2026-04-12T09:33:56.146Z</time></trkpt><trkpt lat="43.8206967" lon="12.7744517"><ele>201.0</ele><time>2026-04-12T09:33:57.148Z</time></trkpt><trkpt lat="43.8207867" lon="12.7744317"><ele>201.0</ele><time>2026-04-12T09:33:58.147Z</time></trkpt><trkpt lat="43.820875" lon="12.774425"><ele>201.0</ele><time>2026-04-12T09:33:59.149Z</time></trkpt><trkpt lat="43.8209667" lon="12.774435"><ele>201.0</ele><time>2026-04-12T09:34:00.147Z</time></trkpt><trkpt lat="43.8210617" lon="12.7744517"><ele>201.0</ele><time>2026-04-12T09:34:01.147Z</time></trkpt><trkpt lat="43.8211667" lon="12.7744783"><ele>200.4</ele><time>2026-04-12T09:34:02.147Z</time></trkpt><trkpt lat="43.8212717" lon="12.7745067"><ele>199.8</ele><time>2026-04-12T09:34:03.147Z</time></trkpt><trkpt lat="43.8213717" lon="12.77454"><ele>199.20000000000002</ele><time>2026-04-12T09:34:04.147Z</time></trkpt><trkpt lat="43.8214717" lon="12.77457"><ele>198.60000000000002</ele><time>2026-04-12T09:34:05.148Z</time></trkpt><trkpt lat="43.82157" lon="12.7746"><ele>198.0</ele><time>2026-04-12T09:34:06.147Z</time></trkpt><trkpt lat="43.82167" lon="12.77462"><ele>198.0</ele><time>2026-04-12T09:34:07.147Z</time></trkpt><trkpt lat="43.8217783" lon="12.77461"><ele>198.0</ele><time>2026-04-12T09:34:08.146Z</time></trkpt><trkpt lat="43.8218883" lon="12.77457"><ele>198.0</ele><time>2026-04-12T09:34:09.147Z</time></trkpt><trkpt lat="43.8219883" lon="12.7745167"><ele>198.0</ele><time>2026-04-12T09:34:10.146Z</time></trkpt><trkpt lat="43.8220933" lon="12.7744667"><ele>198.0</ele><time>2026-04-12T09:34:11.149Z</time></trkpt><trkpt lat="43.8222" lon="12.7744117"><ele>198.0</ele><time>2026-04-12T09:34:12.147Z</time></trkpt><trkpt lat="43.8223017" lon="12.77436"><ele>198.0</ele><time>2026-04-12T09:34:13.148Z</time></trkpt><trkpt lat="43.8224083" lon="12.7743083"><ele>198.0</ele><time>2026-04-12T09:34:14.15Z</time></trkpt><trkpt lat="43.8225133" lon="12.7742633"><ele>198.0</ele><time>2026-04-12T09:34:15.15Z</time></trkpt><trkpt lat="43.82262" lon="12.7742267"><ele>198.0</ele><time>2026-04-12T09:34:16.146Z</time></trkpt><trkpt lat="43.8227267" lon="12.7741917"><ele>196.5</ele><time>2026-04-12T09:34:17.148Z</time></trkpt><trkpt lat="43.822835" lon="12.77417"><ele>195.0</ele><time>2026-04-12T09:34:18.147Z</time></trkpt><trkpt lat="43.8229483" lon="12.7741417"><ele>193.5</ele><time>2026-04-12T09:34:19.151Z</time></trkpt><trkpt lat="43.8230617" lon="12.7741117"><ele>192.0</ele><time>2026-04-12T09:34:20.148Z</time></trkpt><trkpt lat="43.8231767" lon="12.77408"><ele>192.0</ele><time>2026-04-12T09:34:21.146Z</time></trkpt><trkpt lat="43.8232917" lon="12.7740433"><ele>192.0</ele><time>2026-04-12T09:34:22.148Z</time></trkpt><trkpt lat="43.823405" lon="12.7739967"><ele>192.0</ele><time>2026-04-12T09:34:23.147Z</time></trkpt><trkpt lat="43.8235154" lon="12.773936"><ele>192.0</ele><time>2026-04-12T09:34:24.147Z</time></trkpt><trkpt lat="43.8236179" lon="12.7738687"><ele>192.2</ele><time>2026-04-12T09:34:25.147Z</time></trkpt><trkpt lat="43.8237145" lon="12.7737866"><ele>192.39999999999998</ele><time>2026-04-12T09:34:26.148Z</time></trkpt><trkpt lat="43.8237994" lon="12.7736951"><ele>192.60000000000002</ele><time>2026-04-12T09:34:27.147Z</time></trkpt><trkpt lat="43.8238784" lon="12.7735978"><ele>192.8</ele><time>2026-04-12T09:34:28.147Z</time></trkpt><trkpt lat="43.8239555" lon="12.7735016"><ele>193.0</ele><time>2026-04-12T09:34:29.147Z</time></trkpt><trkpt lat="43.824028" lon="12.7734084"><ele>193.0</ele><time>2026-04-12T09:34:30.148Z</time></trkpt><trkpt lat="43.8241042" lon="12.7733181"><ele>193.0</ele><time>2026-04-12T09:34:31.146Z</time></trkpt><trkpt lat="43.8241892" lon="12.7732407"><ele>193.0</ele><time>2026-04-12T09:34:32.147Z</time></trkpt><trkpt lat="43.824283" lon="12.7731695"><ele>193.0</ele><time>2026-04-12T09:34:33.148Z</time></trkpt><trkpt lat="43.8243828" lon="12.7731033"><ele>193.0</ele><time>2026-04-12T09:34:34.147Z</time></trkpt><trkpt lat="43.8244863" lon="12.7730396"><ele>190.75</ele><time>2026-04-12T09:34:35.147Z</time></trkpt><trkpt lat="43.8245874" lon="12.7729663"><ele>188.5</ele><time>2026-04-12T09:34:36.147Z</time></trkpt><trkpt lat="43.8246853" lon="12.772882"><ele>186.25</ele><time>2026-04-12T09:34:37.147Z</time></trkpt><trkpt lat="43.8247796" lon="12.7727925"><ele>184.0</ele><time>2026-04-12T09:34:38.147Z</time></trkpt><trkpt lat="43.8248671" lon="12.7726909"><ele>184.39999999999998</ele><time>2026-04-12T09:34:39.147Z</time></trkpt><trkpt lat="43.8249512" lon="12.772581"><ele>184.8</ele><time>2026-04-12T09:34:40.146Z</time></trkpt><trkpt lat="43.8250317" lon="12.7724752"><ele>185.2</ele><time>2026-04-12T09:34:41.146Z</time></trkpt><trkpt lat="43.8251169" lon="12.7723886"><ele>185.60000000000002</ele><time>2026-04-12T09:34:42.146Z</time></trkpt><trkpt lat="43.8252089" lon="12.7723187"><ele>186.0</ele><time>2026-04-12T09:34:43.147Z</time></trkpt><trkpt lat="43.8253018" lon="12.7722564"><ele>183.0</ele><time>2026-04-12T09:34:44.148Z</time></trkpt><trkpt lat="43.8253964" lon="12.7722137"><ele>180.0</ele><time>2026-04-12T09:34:45.147Z</time></trkpt><trkpt lat="43.8254955" lon="12.7721712"><ele>177.0</ele><time>2026-04-12T09:34:46.146Z</time></trkpt><trkpt lat="43.8256" lon="12.7721189"><ele>174.0</ele><time>2026-04-12T09:34:47.147Z</time></trkpt><trkpt lat="43.8257098" lon="12.7720569"><ele>171.0</ele><time>2026-04-12T09:34:48.147Z</time></trkpt><trkpt lat="43.8258228" lon="12.7719966"><ele>171.0</ele><time>2026-04-12T09:34:49.147Z</time></trkpt><trkpt lat="43.8259309" lon="12.7719359"><ele>171.0</ele><time>2026-04-12T09:34:50.148Z</time></trkpt><trkpt lat="43.8260336" lon="12.7718699"><ele>171.0</ele><time>2026-04-12T09:34:51.147Z</time></trkpt><trkpt lat="43.8261294" lon="12.7718111"><ele>171.0</ele><time>2026-04-12T09:34:52.147Z</time></trkpt><trkpt lat="43.8262196" lon="12.7717474"><ele>171.0</ele><time>2026-04-12T09:34:53.147Z</time></trkpt><trkpt lat="43.8263045" lon="12.7716873"><ele>170.8</ele><time>2026-04-12T09:34:54.147Z</time></trkpt><trkpt lat="43.8263789" lon="12.7716203"><ele>170.60000000000002</ele><time>2026-04-12T09:34:55.148Z</time></trkpt><trkpt lat="43.8264466" lon="12.7715469"><ele>170.4</ele><time>2026-04-12T09:34:56.147Z</time></trkpt><trkpt lat="43.8265128" lon="12.7714566"><ele>170.2</ele><time>2026-04-12T09:34:57.148Z</time></trkpt><trkpt lat="43.8265828" lon="12.7713653"><ele>170.0</ele><time>2026-04-12T09:34:58.147Z</time></trkpt><trkpt lat="43.8266549" lon="12.7712653"><ele>170.0</ele><time>2026-04-12T09:34:59.153Z</time></trkpt><trkpt lat="43.8267306" lon="12.7711597"><ele>170.0</ele><time>2026-04-12T09:35:00.149Z</time></trkpt><trkpt lat="43.8268049" lon="12.7710507"><ele>170.0</ele><time>2026-04-12T09:35:01.147Z</time></trkpt><trkpt lat="43.8268865" lon="12.7709389"><ele>170.0</ele><time>2026-04-12T09:35:02.147Z</time></trkpt><trkpt lat="43.8269687" lon="12.7708285"><ele>170.0</ele><time>2026-04-12T09:35:03.147Z</time></trkpt><trkpt lat="43.8270459" lon="12.7707238"><ele>168.25</ele><time>2026-04-12T09:35:04.146Z</time></trkpt><trkpt lat="43.8271239" lon="12.7706051"><ele>166.5</ele><time>2026-04-12T09:35:05.148Z</time></trkpt><trkpt lat="43.8272034" lon="12.770491"><ele>164.75</ele><time>2026-04-12T09:35:06.148Z</time></trkpt><trkpt lat="43.8272846" lon="12.7703746"><ele>163.0</ele><time>2026-04-12T09:35:07.147Z</time></trkpt><trkpt lat="43.8273708" lon="12.7702508"><ele>163.75</ele><time>2026-04-12T09:35:08.23Z</time></trkpt><trkpt lat="43.8274495" lon="12.770136"><ele>164.5</ele><time>2026-04-12T09:35:09.155Z</time></trkpt><trkpt lat="43.8275344" lon="12.7700121"><ele>165.25</ele><time>2026-04-12T09:35:10.149Z</time></trkpt><trkpt lat="43.8276169" lon="12.7698913"><ele>166.0</ele><time>2026-04-12T09:35:11.147Z</time></trkpt><trkpt lat="43.8276973" lon="12.7697763"><ele>165.0</ele><time>2026-04-12T09:35:12.149Z</time></trkpt><trkpt lat="43.8277722" lon="12.7696682"><ele>164.0</ele><time>2026-04-12T09:35:13.148Z</time></trkpt><trkpt lat="43.8278479" lon="12.7695669"><ele>163.0</ele><time>2026-04-12T09:35:14.149Z</time></trkpt><trkpt lat="43.8279219" lon="12.7694726"><ele>162.0</ele><time>2026-04-12T09:35:15.147Z</time></trkpt><trkpt lat="43.8279953" lon="12.7693741"><ele>161.0</ele><time>2026-04-12T09:35:16.147Z</time></trkpt><trkpt lat="43.8280656" lon="12.7692725"><ele>161.0</ele><time>2026-04-12T09:35:17.147Z</time></trkpt><trkpt lat="43.828136" lon="12.7691769"><ele>161.0</ele><time>2026-04-12T09:35:18.147Z</time></trkpt><trkpt lat="43.8282071" lon="12.7690805"><ele>161.0</ele><time>2026-04-12T09:35:19.146Z</time></trkpt><trkpt lat="43.8282786" lon="12.7689846"><ele>161.0</ele><time>2026-04-12T09:35:20.147Z</time></trkpt><trkpt lat="43.8283516" lon="12.7688886"><ele>161.0</ele><time>2026-04-12T09:35:21.147Z</time></trkpt><trkpt lat="43.8284242" lon="12.7687892"><ele>159.4</ele><time>2026-04-12T09:35:22.147Z</time></trkpt><trkpt lat="43.8284946" lon="12.768688"><ele>157.8</ele><time>2026-04-12T09:35:23.147Z</time></trkpt><trkpt lat="43.8285684" lon="12.7685892"><ele>156.20000000000002</ele><time>2026-04-12T09:35:24.146Z</time></trkpt><trkpt lat="43.8286445" lon="12.7684946"><ele>154.60000000000002</ele><time>2026-04-12T09:35:25.146Z</time></trkpt><trkpt lat="43.8287156" lon="12.7684016"><ele>153.0</ele><time>2026-04-12T09:35:26.147Z</time></trkpt><trkpt lat="43.8287873" lon="12.7683138"><ele>153.0</ele><time>2026-04-12T09:35:27.146Z</time></trkpt><trkpt lat="43.8288624" lon="12.7682303"><ele>153.0</ele><time>2026-04-12T09:35:28.147Z</time></trkpt><trkpt lat="43.8289358" lon="12.7681489"><ele>153.0</ele><time>2026-04-12T09:35:29.147Z</time></trkpt><trkpt lat="43.8290056" lon="12.7680627"><ele>153.0</ele><time>2026-04-12T09:35:30.147Z</time></trkpt><trkpt lat="43.8290783" lon="12.76798"><ele>153.0</ele><time>2026-04-12T09:35:31.146Z</time></trkpt><trkpt lat="43.829155" lon="12.7679067"><ele>153.0</ele><time>2026-04-12T09:35:32.148Z</time></trkpt><trkpt lat="43.82923" lon="12.767825"><ele>153.0</ele><time>2026-04-12T09:35:33.147Z</time></trkpt><trkpt lat="43.8293033" lon="12.767735"><ele>153.0</ele><time>2026-04-12T09:35:34.147Z</time></trkpt><trkpt lat="43.8293767" lon="12.76766"><ele>153.0</ele><time>2026-04-12T09:35:35.148Z</time></trkpt><trkpt lat="43.8294583" lon="12.7675917"><ele>153.0</ele><time>2026-04-12T09:35:36.147Z</time></trkpt><trkpt lat="43.8295283" lon="12.7674933"><ele>151.8</ele><time>2026-04-12T09:35:37.146Z</time></trkpt><trkpt lat="43.8295917" lon="12.7673967"><ele>150.60000000000002</ele><time>2026-04-12T09:35:38.147Z</time></trkpt><trkpt lat="43.8296617" lon="12.7672983"><ele>149.39999999999998</ele><time>2026-04-12T09:35:39.145Z</time></trkpt><trkpt lat="43.8297283" lon="12.7671967"><ele>148.2</ele><time>2026-04-12T09:35:40.148Z</time></trkpt><trkpt lat="43.8297933" lon="12.767095"><ele>147.0</ele><time>2026-04-12T09:35:41.148Z</time></trkpt><trkpt lat="43.829855" lon="12.7669967"><ele>147.0</ele><time>2026-04-12T09:35:42.147Z</time></trkpt><trkpt lat="43.829915" lon="12.766895"><ele>147.0</ele><time>2026-04-12T09:35:43.148Z</time></trkpt><trkpt lat="43.8299733" lon="12.76679"><ele>147.0</ele><time>2026-04-12T09:35:44.149Z</time></trkpt><trkpt lat="43.830025" lon="12.7666917"><ele>147.0</ele><time>2026-04-12T09:35:45.147Z</time></trkpt><trkpt lat="43.8300833" lon="12.7666"><ele>147.0</ele><time>2026-04-12T09:35:46.146Z</time></trkpt><trkpt lat="43.8301367" lon="12.7665267"><ele>147.0</ele><time>2026-04-12T09:35:47.147Z</time></trkpt><trkpt lat="43.8302" lon="12.7664717"><ele>145.5</ele><time>2026-04-12T09:35:48.147Z</time></trkpt><trkpt lat="43.8302767" lon="12.7664233"><ele>144.0</ele><time>2026-04-12T09:35:49.146Z</time></trkpt><trkpt lat="43.8303583" lon="12.7663933"><ele>142.5</ele><time>2026-04-12T09:35:50.146Z</time></trkpt><trkpt lat="43.8304383" lon="12.76638"><ele>141.0</ele><time>2026-04-12T09:35:51.146Z</time></trkpt><trkpt lat="43.8305233" lon="12.7663867"><ele>139.5</ele><time>2026-04-12T09:35:52.147Z</time></trkpt><trkpt lat="43.830615" lon="12.7663967"><ele>138.0</ele><time>2026-04-12T09:35:53.148Z</time></trkpt><trkpt lat="43.830715" lon="12.766405"><ele>138.0</ele><time>2026-04-12T09:35:54.147Z</time></trkpt><trkpt lat="43.83081" lon="12.766395"><ele>138.0</ele><time>2026-04-12T09:35:55.147Z</time></trkpt><trkpt lat="43.8309033" lon="12.7663767"><ele>138.0</ele><time>2026-04-12T09:35:56.148Z</time></trkpt><trkpt lat="43.8309933" lon="12.766335"><ele>138.0</ele><time>2026-04-12T09:35:57.146Z</time></trkpt><trkpt lat="43.8310767" lon="12.7662783"><ele>138.0</ele><time>2026-04-12T09:35:58.148Z</time></trkpt><trkpt lat="43.8311517" lon="12.7662017"><ele>136.83333333333334</ele><time>2026-04-12T09:35:59.147Z</time></trkpt><trkpt lat="43.831225" lon="12.7661267"><ele>135.66666666666666</ele><time>2026-04-12T09:36:00.147Z</time></trkpt><trkpt lat="43.8313" lon="12.7660517"><ele>134.5</ele><time>2026-04-12T09:36:01.147Z</time></trkpt><trkpt lat="43.8313733" lon="12.76598"><ele>133.33333333333331</ele><time>2026-04-12T09:36:02.147Z</time></trkpt><trkpt lat="43.8314433" lon="12.765905"><ele>132.16666666666666</ele><time>2026-04-12T09:36:03.147Z</time></trkpt><trkpt lat="43.8315133" lon="12.7658367"><ele>131.0</ele><time>2026-04-12T09:36:04.145Z</time></trkpt><trkpt lat="43.83158" lon="12.7657667"><ele>131.0</ele><time>2026-04-12T09:36:05.147Z</time></trkpt><trkpt lat="43.83165" lon="12.7657"><ele>131.0</ele><time>2026-04-12T09:36:06.148Z</time></trkpt><trkpt lat="43.831725" lon="12.76564"><ele>131.0</ele><time>2026-04-12T09:36:07.147Z</time></trkpt><trkpt lat="43.8318017" lon="12.7655817"><ele>131.0</ele><time>2026-04-12T09:36:08.147Z</time></trkpt><trkpt lat="43.8318817" lon="12.7655233"><ele>131.0</ele><time>2026-04-12T09:36:09.147Z</time></trkpt><trkpt lat="43.8319683" lon="12.7654783"><ele>131.0</ele><time>2026-04-12T09:36:10.147Z</time></trkpt><trkpt lat="43.832055" lon="12.765435"><ele>129.0</ele><time>2026-04-12T09:36:11.148Z</time></trkpt><trkpt lat="43.8321467" lon="12.7653917"><ele>127.0</ele><time>2026-04-12T09:36:12.148Z</time></trkpt><trkpt lat="43.83224" lon="12.7653533"><ele>125.0</ele><time>2026-04-12T09:36:13.146Z</time></trkpt><trkpt lat="43.8323417" lon="12.7653117"><ele>123.0</ele><time>2026-04-12T09:36:14.148Z</time></trkpt><trkpt lat="43.8324383" lon="12.7652667"><ele>121.0</ele><time>2026-04-12T09:36:15.147Z</time></trkpt><trkpt lat="43.8325283" lon="12.7652183"><ele>121.16666666666667</ele><time>2026-04-12T09:36:16.147Z</time></trkpt><trkpt lat="43.8326133" lon="12.7651533"><ele>121.33333333333334</ele><time>2026-04-12T09:36:17.149Z</time></trkpt><trkpt lat="43.8326933" lon="12.7650867"><ele>121.5</ele><time>2026-04-12T09:36:18.147Z</time></trkpt><trkpt lat="43.8327667" lon="12.76502"><ele>121.66666666666666</ele><time>2026-04-12T09:36:19.147Z</time></trkpt><trkpt lat="43.8328383" lon="12.7649533"><ele>121.83333333333333</ele><time>2026-04-12T09:36:20.147Z</time></trkpt><trkpt lat="43.832905" lon="12.7648883"><ele>122.0</ele><time>2026-04-12T09:36:21.148Z</time></trkpt><trkpt lat="43.8329767" lon="12.7648283"><ele>120.83333333333333</ele><time>2026-04-12T09:36:22.145Z</time></trkpt><trkpt lat="43.8330467" lon="12.764775"><ele>119.66666666666666</ele><time>2026-04-12T09:36:23.147Z</time></trkpt><trkpt lat="43.833125" lon="12.7647283"><ele>118.5</ele><time>2026-04-12T09:36:24.146Z</time></trkpt><trkpt lat="43.8332083" lon="12.76468"><ele>117.33333333333334</ele><time>2026-04-12T09:36:25.153Z</time></trkpt><trkpt lat="43.8332917" lon="12.7646317"><ele>116.16666666666667</ele><time>2026-04-12T09:36:26.146Z</time></trkpt><trkpt lat="43.8333783" lon="12.7645933"><ele>115.0</ele><time>2026-04-12T09:36:27.147Z</time></trkpt><trkpt lat="43.83346" lon="12.76456"><ele>113.83333333333334</ele><time>2026-04-12T09:36:28.151Z</time></trkpt><trkpt lat="43.8335383" lon="12.7645267"><ele>112.66666666666667</ele><time>2026-04-12T09:36:29.146Z</time></trkpt><trkpt lat="43.833615" lon="12.76449"><ele>111.5</ele><time>2026-04-12T09:36:30.147Z</time></trkpt><trkpt lat="43.83369" lon="12.76445"><ele>110.33333333333334</ele><time>2026-04-12T09:36:31.147Z</time></trkpt><trkpt lat="43.83376" lon="12.7644083"><ele>109.16666666666667</ele><time>2026-04-12T09:36:32.147Z</time></trkpt><trkpt lat="43.8338283" lon="12.7643683"><ele>108.0</ele><time>2026-04-12T09:36:33.146Z</time></trkpt><trkpt lat="43.8338933" lon="12.7643267"><ele>108.0</ele><time>2026-04-12T09:36:34.147Z</time></trkpt><trkpt lat="43.8339533" lon="12.764295"><ele>108.0</ele><time>2026-04-12T09:36:35.147Z</time></trkpt><trkpt lat="43.8340667" lon="12.764215"><ele>108.0</ele><time>2026-04-12T09:36:37.147Z</time></trkpt><trkpt lat="43.83413" lon="12.7641717"><ele>108.0</ele><time>2026-04-12T09:36:38.147Z</time></trkpt><trkpt lat="43.834195" lon="12.7641333"><ele>108.0</ele><time>2026-04-12T09:36:39.147Z</time></trkpt><trkpt lat="43.8342683" lon="12.7641033"><ele>108.0</ele><time>2026-04-12T09:36:40.148Z</time></trkpt><trkpt lat="43.834345" lon="12.7640817"><ele>106.16666666666667</ele><time>2026-04-12T09:36:41.147Z</time></trkpt><trkpt lat="43.8344167" lon="12.7640633"><ele>104.33333333333334</ele><time>2026-04-12T09:36:42.147Z</time></trkpt><trkpt lat="43.8344917" lon="12.76405"><ele>102.5</ele><time>2026-04-12T09:36:43.147Z</time></trkpt><trkpt lat="43.8345633" lon="12.7640333"><ele>100.66666666666667</ele><time>2026-04-12T09:36:44.148Z</time></trkpt><trkpt lat="43.8346433" lon="12.76403"><ele>98.83333333333334</ele><time>2026-04-12T09:36:45.146Z</time></trkpt><trkpt lat="43.8347183" lon="12.7640483"><ele>97.0</ele><time>2026-04-12T09:36:46.147Z</time></trkpt><trkpt lat="43.834805" lon="12.7640917"><ele>97.00000000000001</ele><time>2026-04-12T09:36:47.146Z</time></trkpt><trkpt lat="43.83488" lon="12.7641483"><ele>97.0</ele><time>2026-04-12T09:36:48.147Z</time></trkpt><trkpt lat="43.83495" lon="12.7642217"><ele>97.0</ele><time>2026-04-12T09:36:49.146Z</time></trkpt><trkpt lat="43.83502" lon="12.7642933"><ele>97.0</ele><time>2026-04-12T09:36:50.147Z</time></trkpt><trkpt lat="43.83506" lon="12.76437"><ele>97.00000000000001</ele><time>2026-04-12T09:36:51.146Z</time></trkpt><trkpt lat="43.8350817" lon="12.7644533"><ele>97.0</ele><time>2026-04-12T09:36:52.146Z</time></trkpt><trkpt lat="43.8350683" lon="12.7645433"><ele>96.16666666666667</ele><time>2026-04-12T09:36:53.146Z</time></trkpt><trkpt lat="43.8350417" lon="12.7646233"><ele>95.33333333333334</ele><time>2026-04-12T09:36:54.147Z</time></trkpt><trkpt lat="43.8349883" lon="12.76469"><ele>94.5</ele><time>2026-04-12T09:36:55.147Z</time></trkpt><trkpt lat="43.8349433" lon="12.7647517"><ele>93.66666666666667</ele><time>2026-04-12T09:36:56.146Z</time></trkpt><trkpt lat="43.8348667" lon="12.7648783"><ele>92.83333333333334</ele><time>2026-04-12T09:36:58.146Z</time></trkpt><trkpt lat="43.8348983" lon="12.765035"><ele>92.0</ele><time>2026-04-12T09:37:00.15Z</time></trkpt><trkpt lat="43.83495" lon="12.765095"><ele>92.0</ele><time>2026-04-12T09:37:01.147Z</time></trkpt><trkpt lat="43.8350067" lon="12.765135"><ele>92.0</ele><time>2026-04-12T09:37:02.145Z</time></trkpt><trkpt lat="43.8350733" lon="12.765155"><ele>92.0</ele><time>2026-04-12T09:37:03.145Z</time></trkpt><trkpt lat="43.8351483" lon="12.7651767"><ele>92.0</ele><time>2026-04-12T09:37:04.145Z</time></trkpt><trkpt lat="43.8352317" lon="12.765175"><ele>92.0</ele><time>2026-04-12T09:37:05.146Z</time></trkpt><trkpt lat="43.835315" lon="12.7651667"><ele>92.0</ele><time>2026-04-12T09:37:06.146Z</time></trkpt><trkpt lat="43.8353983" lon="12.765145"><ele>90.0</ele><time>2026-04-12T09:37:07.146Z</time></trkpt><trkpt lat="43.8354833" lon="12.7651067"><ele>88.0</ele><time>2026-04-12T09:37:08.146Z</time></trkpt><trkpt lat="43.8355667" lon="12.7650817"><ele>86.0</ele><time>2026-04-12T09:37:09.146Z</time></trkpt><trkpt lat="43.8356483" lon="12.7650683"><ele>84.0</ele><time>2026-04-12T09:37:10.145Z</time></trkpt><trkpt lat="43.83573" lon="12.7650483"><ele>82.0</ele><time>2026-04-12T09:37:11.145Z</time></trkpt><trkpt lat="43.8358117" lon="12.765015"><ele>80.0</ele><time>2026-04-12T09:37:12.146Z</time></trkpt><trkpt lat="43.8358867" lon="12.7649917"><ele>80.0</ele><time>2026-04-12T09:37:13.146Z</time></trkpt><trkpt lat="43.8359667" lon="12.7649733"><ele>80.0</ele><time>2026-04-12T09:37:14.146Z</time></trkpt><trkpt lat="43.83604" lon="12.764935"><ele>80.0</ele><time>2026-04-12T09:37:15.145Z</time></trkpt><trkpt lat="43.8361133" lon="12.7649"><ele>80.0</ele><time>2026-04-12T09:37:16.144Z</time></trkpt><trkpt lat="43.8361833" lon="12.7648683"><ele>80.0</ele><time>2026-04-12T09:37:17.147Z</time></trkpt><trkpt lat="43.8362633" lon="12.7648667"><ele>80.0</ele><time>2026-04-12T09:37:18.147Z</time></trkpt><trkpt lat="43.836345" lon="12.7648467"><ele>78.0</ele><time>2026-04-12T09:37:19.146Z</time></trkpt><trkpt lat="43.836425" lon="12.764825"><ele>76.0</ele><time>2026-04-12T09:37:20.147Z</time></trkpt><trkpt lat="43.8365067" lon="12.7648167"><ele>74.0</ele><time>2026-04-12T09:37:21.146Z</time></trkpt><trkpt lat="43.8365867" lon="12.7648083"><ele>72.0</ele><time>2026-04-12T09:37:22.147Z</time></trkpt><trkpt lat="43.836665" lon="12.76479"><ele>70.0</ele><time>2026-04-12T09:37:23.146Z</time></trkpt><trkpt lat="43.836745" lon="12.7647533"><ele>68.0</ele><time>2026-04-12T09:37:24.147Z</time></trkpt><trkpt lat="43.8368067" lon="12.7646883"><ele>67.66666666666667</ele><time>2026-04-12T09:37:25.147Z</time></trkpt><trkpt lat="43.8368517" lon="12.764605"><ele>67.33333333333334</ele><time>2026-04-12T09:37:26.146Z</time></trkpt><trkpt lat="43.8368917" lon="12.7645167"><ele>67.0</ele><time>2026-04-12T09:37:27.145Z</time></trkpt><trkpt lat="43.8369283" lon="12.764415"><ele>66.66666666666667</ele><time>2026-04-12T09:37:28.146Z</time></trkpt><trkpt lat="43.836965" lon="12.764325"><ele>66.33333333333333</ele><time>2026-04-12T09:37:29.145Z</time></trkpt><trkpt lat="43.8370067" lon="12.7642317"><ele>66.0</ele><time>2026-04-12T09:37:30.145Z</time></trkpt><trkpt lat="43.8370483" lon="12.7641467"><ele>66.0</ele><time>2026-04-12T09:37:31.145Z</time></trkpt><trkpt lat="43.837095" lon="12.7640667"><ele>66.0</ele><time>2026-04-12T09:37:32.145Z</time></trkpt><trkpt lat="43.8371333" lon="12.7639867"><ele>66.0</ele><time>2026-04-12T09:37:33.145Z</time></trkpt><trkpt lat="43.837175" lon="12.7639033"><ele>66.0</ele><time>2026-04-12T09:37:34.146Z</time></trkpt><trkpt lat="43.8372233" lon="12.7638233"><ele>66.0</ele><time>2026-04-12T09:37:35.147Z</time></trkpt><trkpt lat="43.837275" lon="12.7637533"><ele>66.0</ele><time>2026-04-12T09:37:36.147Z</time></trkpt><trkpt lat="43.8373267" lon="12.7636817"><ele>66.0</ele><time>2026-04-12T09:37:37.147Z</time></trkpt><trkpt lat="43.8373783" lon="12.7636117"><ele>66.0</ele><time>2026-04-12T09:37:38.149Z</time></trkpt><trkpt lat="43.837435" lon="12.7635467"><ele>66.0</ele><time>2026-04-12T09:37:39.146Z</time></trkpt><trkpt lat="43.8374917" lon="12.7635"><ele>66.0</ele><time>2026-04-12T09:37:40.147Z</time></trkpt><trkpt lat="43.837605" lon="12.7635083"><ele>66.0</ele><time>2026-04-12T09:37:42.144Z</time></trkpt><trkpt lat="43.837685" lon="12.763585"><ele>66.0</ele><time>2026-04-12T09:37:44.146Z</time></trkpt><trkpt lat="43.8377517" lon="12.7636667"><ele>66.0</ele><time>2026-04-12T09:37:46.145Z</time></trkpt><trkpt lat="43.8378234" lon="12.7637256"><ele>65.85714285714286</ele><time>2026-04-12T09:37:48.145Z</time></trkpt><trkpt lat="43.8378819" lon="12.7637899"><ele>65.71428571428572</ele><time>2026-04-12T09:37:50.145Z</time></trkpt><trkpt lat="43.8379306" lon="12.7638553"><ele>65.57142857142858</ele><time>2026-04-12T09:37:54.161Z</time></trkpt><trkpt lat="43.8379912" lon="12.763914"><ele>65.42857142857143</ele><time>2026-04-12T09:37:58.167Z</time></trkpt><trkpt lat="43.8379286" lon="12.7639773"><ele>65.28571428571429</ele><time>2026-04-12T09:38:02.173Z</time></trkpt><trkpt lat="43.8378724" lon="12.7640201"><ele>65.14285714285715</ele><time>2026-04-12T09:38:04.175Z</time></trkpt><trkpt lat="43.8378565" lon="12.7641389"><ele>65.0</ele><time>2026-04-12T09:38:05.177Z</time></trkpt><trkpt lat="43.8378056" lon="12.7642615"><ele>64.66666666666667</ele><time>2026-04-12T09:38:07.179Z</time></trkpt><trkpt lat="43.8377711" lon="12.7643747"><ele>64.33333333333334</ele><time>2026-04-12T09:38:08.145Z</time></trkpt><trkpt lat="43.8377386" lon="12.764479"><ele>64.0</ele><time>2026-04-12T09:38:09.146Z</time></trkpt><trkpt lat="43.8377186" lon="12.7645808"><ele>63.66666666666667</ele><time>2026-04-12T09:38:10.146Z</time></trkpt><trkpt lat="43.8377112" lon="12.7647026"><ele>63.333333333333336</ele><time>2026-04-12T09:38:11.145Z</time></trkpt><trkpt lat="43.8377201" lon="12.7648371"><ele>63.0</ele><time>2026-04-12T09:38:12.148Z</time></trkpt><trkpt lat="43.8377452" lon="12.7650068"><ele>65.0</ele><time>2026-04-12T09:38:13.145Z</time></trkpt><trkpt lat="43.8377834" lon="12.7652141"><ele>67.0</ele><time>2026-04-12T09:38:14.145Z</time></trkpt><trkpt lat="43.8378232" lon="12.7654368"><ele>69.0</ele><time>2026-04-12T09:38:15.144Z</time></trkpt><trkpt lat="43.837882" lon="12.7656588"><ele>69.0</ele><time>2026-04-12T09:38:16.145Z</time></trkpt><trkpt lat="43.8379689" lon="12.7658722"><ele>69.0</ele><time>2026-04-12T09:38:17.145Z</time></trkpt><trkpt lat="43.8380792" lon="12.7660641"><ele>69.0</ele><time>2026-04-12T09:38:18.145Z</time></trkpt><trkpt lat="43.8381966" lon="12.7662268"><ele>70.0</ele><time>2026-04-12T09:38:19.145Z</time></trkpt><trkpt lat="43.8383077" lon="12.7663842"><ele>71.0</ele><time>2026-04-12T09:38:20.144Z</time></trkpt><trkpt lat="43.8384107" lon="12.7665366"><ele>72.0</ele><time>2026-04-12T09:38:21.145Z</time></trkpt><trkpt lat="43.8385039" lon="12.7666678"><ele>73.0</ele><time>2026-04-12T09:38:22.145Z</time></trkpt><trkpt lat="43.8385857" lon="12.766799"><ele>73.25</ele><time>2026-04-12T09:38:23.146Z</time></trkpt><trkpt lat="43.8386556" lon="12.7669419"><ele>73.5</ele><time>2026-04-12T09:38:24.146Z</time></trkpt><trkpt lat="43.8387204" lon="12.7670911"><ele>73.75</ele><time>2026-04-12T09:38:25.145Z</time></trkpt><trkpt lat="43.8387817" lon="12.7672478"><ele>74.0</ele><time>2026-04-12T09:38:26.149Z</time></trkpt><trkpt lat="43.8388385" lon="12.7674004"><ele>74.0</ele><time>2026-04-12T09:38:27.147Z</time></trkpt><trkpt lat="43.8388893" lon="12.7675476"><ele>74.0</ele><time>2026-04-12T09:38:28.145Z</time></trkpt><trkpt lat="43.8389366" lon="12.7676904"><ele>74.0</ele><time>2026-04-12T09:38:29.146Z</time></trkpt><trkpt lat="43.8389793" lon="12.7678327"><ele>74.0</ele><time>2026-04-12T09:38:30.146Z</time></trkpt><trkpt lat="43.8390137" lon="12.767983"><ele>74.5</ele><time>2026-04-12T09:38:31.146Z</time></trkpt><trkpt lat="43.839045" lon="12.7681416"><ele>75.0</ele><time>2026-04-12T09:38:32.146Z</time></trkpt><trkpt lat="43.8390802" lon="12.7683044"><ele>75.5</ele><time>2026-04-12T09:38:33.146Z</time></trkpt><trkpt lat="43.8391168" lon="12.7684645"><ele>76.0</ele><time>2026-04-12T09:38:34.145Z</time></trkpt><trkpt lat="43.8391545" lon="12.768623"><ele>75.2</ele><time>2026-04-12T09:38:35.145Z</time></trkpt><trkpt lat="43.8391904" lon="12.7687751"><ele>74.39999999999999</ele><time>2026-04-12T09:38:36.145Z</time></trkpt><trkpt lat="43.8392271" lon="12.768921"><ele>73.6</ele><time>2026-04-12T09:38:37.146Z</time></trkpt><trkpt lat="43.8392662" lon="12.7690609"><ele>72.8</ele><time>2026-04-12T09:38:38.146Z</time></trkpt><trkpt lat="43.8393169" lon="12.7691861"><ele>72.0</ele><time>2026-04-12T09:38:39.145Z</time></trkpt><trkpt lat="43.8393793" lon="12.7692943"><ele>72.5</ele><time>2026-04-12T09:38:40.145Z</time></trkpt><trkpt lat="43.8394386" lon="12.7693888"><ele>73.0</ele><time>2026-04-12T09:38:41.149Z</time></trkpt><trkpt lat="43.8394944" lon="12.7694769"><ele>73.5</ele><time>2026-04-12T09:38:42.146Z</time></trkpt><trkpt lat="43.8395513" lon="12.7695558"><ele>74.0</ele><time>2026-04-12T09:38:43.145Z</time></trkpt><trkpt lat="43.8396094" lon="12.7696309"><ele>74.5</ele><time>2026-04-12T09:38:44.146Z</time></trkpt><trkpt lat="43.8396595" lon="12.769692"><ele>75.0</ele><time>2026-04-12T09:38:45.147Z</time></trkpt><trkpt lat="43.839735" lon="12.7698028"><ele>75.0</ele><time>2026-04-12T09:38:47.146Z</time></trkpt><trkpt lat="43.8398314" lon="12.7698323"><ele>75.0</ele><time>2026-04-12T09:38:49.146Z</time></trkpt><trkpt lat="43.8398687" lon="12.7697618"><ele>75.0</ele><time>2026-04-12T09:38:50.151Z</time></trkpt><trkpt lat="43.8398911" lon="12.7696595"><ele>75.0</ele><time>2026-04-12T09:38:51.147Z</time></trkpt><trkpt lat="43.8399131" lon="12.7695305"><ele>75.0</ele><time>2026-04-12T09:38:52.147Z</time></trkpt><trkpt lat="43.8399509" lon="12.7693975"><ele>75.0</ele><time>2026-04-12T09:38:53.146Z</time></trkpt><trkpt lat="43.8400039" lon="12.7692593"><ele>74.25</ele><time>2026-04-12T09:38:54.148Z</time></trkpt><trkpt lat="43.8400649" lon="12.7691164"><ele>73.5</ele><time>2026-04-12T09:38:55.147Z</time></trkpt><trkpt lat="43.8401259" lon="12.7689733"><ele>72.75</ele><time>2026-04-12T09:38:56.147Z</time></trkpt><trkpt lat="43.8401826" lon="12.7688347"><ele>72.0</ele><time>2026-04-12T09:38:57.147Z</time></trkpt><trkpt lat="43.8402362" lon="12.7687086"><ele>71.0</ele><time>2026-04-12T09:38:58.147Z</time></trkpt><trkpt lat="43.8402868" lon="12.7685884"><ele>70.0</ele><time>2026-04-12T09:38:59.147Z</time></trkpt><trkpt lat="43.8403367" lon="12.7684676"><ele>69.0</ele><time>2026-04-12T09:39:00.149Z</time></trkpt><trkpt lat="43.8403823" lon="12.7683467"><ele>68.0</ele><time>2026-04-12T09:39:01.147Z</time></trkpt><trkpt lat="43.840428" lon="12.7682351"><ele>67.0</ele><time>2026-04-12T09:39:02.152Z</time></trkpt><trkpt lat="43.8404718" lon="12.7681346"><ele>67.0</ele><time>2026-04-12T09:39:03.147Z</time></trkpt><trkpt lat="43.8405188" lon="12.7680457"><ele>67.0</ele><time>2026-04-12T09:39:04.149Z</time></trkpt><trkpt lat="43.8405702" lon="12.7679688"><ele>67.0</ele><time>2026-04-12T09:39:05.144Z</time></trkpt><trkpt lat="43.8406373" lon="12.7678999"><ele>67.0</ele><time>2026-04-12T09:39:06.144Z</time></trkpt><trkpt lat="43.8407187" lon="12.7678475"><ele>67.0</ele><time>2026-04-12T09:39:07.146Z</time></trkpt><trkpt lat="43.8408051" lon="12.7677987"><ele>67.0</ele><time>2026-04-12T09:39:08.146Z</time></trkpt><trkpt lat="43.8408848" lon="12.7677348"><ele>67.0</ele><time>2026-04-12T09:39:09.146Z</time></trkpt><trkpt lat="43.8409465" lon="12.7676458"><ele>67.0</ele><time>2026-04-12T09:39:10.145Z</time></trkpt><trkpt lat="43.8409819" lon="12.7675314"><ele>67.0</ele><time>2026-04-12T09:39:11.146Z</time></trkpt><trkpt lat="43.8409802" lon="12.7673899"><ele>67.0</ele><time>2026-04-12T09:39:12.146Z</time></trkpt><trkpt lat="43.8409453" lon="12.7672507"><ele>67.0</ele><time>2026-04-12T09:39:13.146Z</time></trkpt><trkpt lat="43.840878" lon="12.7671359"><ele>67.0</ele><time>2026-04-12T09:39:14.147Z</time></trkpt><trkpt lat="43.8407652" lon="12.7670759"><ele>67.0</ele><time>2026-04-12T09:39:15.144Z</time></trkpt><trkpt lat="43.8406394" lon="12.7670372"><ele>67.0</ele><time>2026-04-12T09:39:16.145Z</time></trkpt><trkpt lat="43.840503" lon="12.7669987"><ele>67.0</ele><time>2026-04-12T09:39:17.146Z</time></trkpt><trkpt lat="43.840372" lon="12.7669295"><ele>66.75</ele><time>2026-04-12T09:39:18.146Z</time></trkpt><trkpt lat="43.8402528" lon="12.7668278"><ele>66.5</ele><time>2026-04-12T09:39:19.145Z</time></trkpt><trkpt lat="43.8401424" lon="12.7667079"><ele>66.25</ele><time>2026-04-12T09:39:20.146Z</time></trkpt><trkpt lat="43.8400369" lon="12.7665727"><ele>66.0</ele><time>2026-04-12T09:39:21.148Z</time></trkpt><trkpt lat="43.8399346" lon="12.7664267"><ele>66.66666666666667</ele><time>2026-04-12T09:39:22.145Z</time></trkpt><trkpt lat="43.8398368" lon="12.7662684"><ele>67.33333333333334</ele><time>2026-04-12T09:39:23.145Z</time></trkpt><trkpt lat="43.8397405" lon="12.7660934"><ele>68.0</ele><time>2026-04-12T09:39:24.146Z</time></trkpt><trkpt lat="43.8396485" lon="12.7658973"><ele>68.66666666666667</ele><time>2026-04-12T09:39:25.147Z</time></trkpt><trkpt lat="43.8395607" lon="12.7656875"><ele>69.33333333333333</ele><time>2026-04-12T09:39:26.146Z</time></trkpt><trkpt lat="43.8394803" lon="12.7654649"><ele>70.0</ele><time>2026-04-12T09:39:27.146Z</time></trkpt><trkpt lat="43.8394153" lon="12.7652354"><ele>69.33333333333333</ele><time>2026-04-12T09:39:28.145Z</time></trkpt><trkpt lat="43.8393627" lon="12.7649931"><ele>68.66666666666667</ele><time>2026-04-12T09:39:29.145Z</time></trkpt><trkpt lat="43.8393127" lon="12.7647477"><ele>68.0</ele><time>2026-04-12T09:39:30.148Z</time></trkpt><trkpt lat="43.8392678" lon="12.7645021"><ele>67.66666666666667</ele><time>2026-04-12T09:39:31.147Z</time></trkpt><trkpt lat="43.839221" lon="12.7642476"><ele>67.33333333333333</ele><time>2026-04-12T09:39:32.146Z</time></trkpt><trkpt lat="43.8391707" lon="12.7639889"><ele>67.0</ele><time>2026-04-12T09:39:33.145Z</time></trkpt><trkpt lat="43.8391191" lon="12.7637308"><ele>66.33333333333333</ele><time>2026-04-12T09:39:34.144Z</time></trkpt><trkpt lat="43.8390625" lon="12.7634705"><ele>65.66666666666667</ele><time>2026-04-12T09:39:35.146Z</time></trkpt><trkpt lat="43.8390085" lon="12.7632128"><ele>65.0</ele><time>2026-04-12T09:39:36.146Z</time></trkpt><trkpt lat="43.8389578" lon="12.7629553"><ele>65.0</ele><time>2026-04-12T09:39:37.146Z</time></trkpt><trkpt lat="43.8389097" lon="12.762698"><ele>65.0</ele><time>2026-04-12T09:39:38.147Z</time></trkpt><trkpt lat="43.8388618" lon="12.7624404"><ele>65.0</ele><time>2026-04-12T09:39:39.145Z</time></trkpt><trkpt lat="43.8388132" lon="12.7621871"><ele>66.66666666666667</ele><time>2026-04-12T09:39:40.145Z</time></trkpt><trkpt lat="43.8387647" lon="12.7619313"><ele>68.33333333333333</ele><time>2026-04-12T09:39:41.145Z</time></trkpt><trkpt lat="43.838717" lon="12.7616746"><ele>70.0</ele><time>2026-04-12T09:39:42.148Z</time></trkpt><trkpt lat="43.8386674" lon="12.7614193"><ele>70.0</ele><time>2026-04-12T09:39:43.145Z</time></trkpt><trkpt lat="43.8386153" lon="12.7611627"><ele>70.0</ele><time>2026-04-12T09:39:44.148Z</time></trkpt><trkpt lat="43.8385623" lon="12.7609037"><ele>70.0</ele><time>2026-04-12T09:39:45.146Z</time></trkpt><trkpt lat="43.8385051" lon="12.7606365"><ele>70.0</ele><time>2026-04-12T09:39:46.145Z</time></trkpt><trkpt lat="43.8384479" lon="12.7603724"><ele>70.0</ele><time>2026-04-12T09:39:47.146Z</time></trkpt><trkpt lat="43.8383897" lon="12.7601009"><ele>70.0</ele><time>2026-04-12T09:39:48.145Z</time></trkpt><trkpt lat="43.8383373" lon="12.7598314"><ele>70.0</ele><time>2026-04-12T09:39:49.145Z</time></trkpt><trkpt lat="43.8382829" lon="12.7595633"><ele>70.0</ele><time>2026-04-12T09:39:50.146Z</time></trkpt><trkpt lat="43.838227" lon="12.7592945"><ele>70.0</ele><time>2026-04-12T09:39:51.144Z</time></trkpt><trkpt lat="43.8381722" lon="12.7590208"><ele>69.66666666666666</ele><time>2026-04-12T09:39:52.145Z</time></trkpt><trkpt lat="43.8381196" lon="12.7587469"><ele>69.33333333333333</ele><time>2026-04-12T09:39:53.145Z</time></trkpt><trkpt lat="43.8380646" lon="12.7584642"><ele>69.0</ele><time>2026-04-12T09:39:54.145Z</time></trkpt><trkpt lat="43.8380117" lon="12.7581842"><ele>68.66666666666667</ele><time>2026-04-12T09:39:55.145Z</time></trkpt><trkpt lat="43.8379571" lon="12.7579087"><ele>68.33333333333334</ele><time>2026-04-12T09:39:56.146Z</time></trkpt><trkpt lat="43.8379009" lon="12.7576301"><ele>68.0</ele><time>2026-04-12T09:39:57.145Z</time></trkpt><trkpt lat="43.8378428" lon="12.7573533"><ele>67.0</ele><time>2026-04-12T09:39:58.145Z</time></trkpt><trkpt lat="43.8377827" lon="12.757086"><ele>66.0</ele><time>2026-04-12T09:39:59.145Z</time></trkpt><trkpt lat="43.8377192" lon="12.7568242"><ele>65.0</ele><time>2026-04-12T09:40:00.146Z</time></trkpt><trkpt lat="43.8376525" lon="12.756564"><ele>64.0</ele><time>2026-04-12T09:40:01.146Z</time></trkpt><trkpt lat="43.8375843" lon="12.7563083"><ele>63.0</ele><time>2026-04-12T09:40:02.146Z</time></trkpt><trkpt lat="43.8375171" lon="12.7560611"><ele>62.0</ele><time>2026-04-12T09:40:03.147Z</time></trkpt><trkpt lat="43.8374475" lon="12.7558174"><ele>62.0</ele><time>2026-04-12T09:40:04.144Z</time></trkpt><trkpt lat="43.8373781" lon="12.755571"><ele>62.0</ele><time>2026-04-12T09:40:05.151Z</time></trkpt><trkpt lat="43.8373132" lon="12.7553236"><ele>62.0</ele><time>2026-04-12T09:40:06.147Z</time></trkpt><trkpt lat="43.8372474" lon="12.755078"><ele>60.66666666666667</ele><time>2026-04-12T09:40:07.151Z</time></trkpt><trkpt lat="43.8371797" lon="12.7548382"><ele>59.33333333333333</ele><time>2026-04-12T09:40:08.146Z</time></trkpt><trkpt lat="43.8371117" lon="12.7546014"><ele>58.0</ele><time>2026-04-12T09:40:09.146Z</time></trkpt><trkpt lat="43.8370447" lon="12.7543674"><ele>57.33333333333333</ele><time>2026-04-12T09:40:10.151Z</time></trkpt><trkpt lat="43.8369819" lon="12.7541429"><ele>56.66666666666667</ele><time>2026-04-12T09:40:11.145Z</time></trkpt><trkpt lat="43.8369207" lon="12.7539286"><ele>56.0</ele><time>2026-04-12T09:40:12.145Z</time></trkpt><trkpt lat="43.8368611" lon="12.7537254"><ele>56.0</ele><time>2026-04-12T09:40:13.152Z</time></trkpt><trkpt lat="43.8368044" lon="12.7535318"><ele>56.0</ele><time>2026-04-12T09:40:14.147Z</time></trkpt><trkpt lat="43.8367501" lon="12.7533394"><ele>56.0</ele><time>2026-04-12T09:40:15.147Z</time></trkpt><trkpt lat="43.8366938" lon="12.7531494"><ele>56.0</ele><time>2026-04-12T09:40:16.146Z</time></trkpt><trkpt lat="43.8366413" lon="12.7529596"><ele>56.0</ele><time>2026-04-12T09:40:17.146Z</time></trkpt><trkpt lat="43.8365863" lon="12.7527666"><ele>56.0</ele><time>2026-04-12T09:40:18.147Z</time></trkpt><trkpt lat="43.8365329" lon="12.7525747"><ele>56.0</ele><time>2026-04-12T09:40:19.146Z</time></trkpt><trkpt lat="43.8364745" lon="12.7523909"><ele>56.0</ele><time>2026-04-12T09:40:20.147Z</time></trkpt><trkpt lat="43.836421" lon="12.7522081"><ele>55.75</ele><time>2026-04-12T09:40:21.147Z</time></trkpt><trkpt lat="43.8363712" lon="12.7520356"><ele>55.5</ele><time>2026-04-12T09:40:22.146Z</time></trkpt><trkpt lat="43.8363253" lon="12.7518712"><ele>55.25</ele><time>2026-04-12T09:40:23.145Z</time></trkpt><trkpt lat="43.8362805" lon="12.751716"><ele>55.0</ele><time>2026-04-12T09:40:24.146Z</time></trkpt><trkpt lat="43.8362396" lon="12.7515673"><ele>54.8</ele><time>2026-04-12T09:40:25.145Z</time></trkpt><trkpt lat="43.8362053" lon="12.7514245"><ele>54.6</ele><time>2026-04-12T09:40:26.147Z</time></trkpt><trkpt lat="43.8361848" lon="12.7512927"><ele>54.400000000000006</ele><time>2026-04-12T09:40:27.145Z</time></trkpt><trkpt lat="43.8361788" lon="12.7511694"><ele>54.2</ele><time>2026-04-12T09:40:28.146Z</time></trkpt><trkpt lat="43.8361891" lon="12.7510565"><ele>54.0</ele><time>2026-04-12T09:40:29.147Z</time></trkpt><trkpt lat="43.8362229" lon="12.7509533"><ele>54.5</ele><time>2026-04-12T09:40:30.148Z</time></trkpt><trkpt lat="43.8362733" lon="12.7508547"><ele>55.0</ele><time>2026-04-12T09:40:31.146Z</time></trkpt><trkpt lat="43.8363141" lon="12.7507405"><ele>55.5</ele><time>2026-04-12T09:40:32.148Z</time></trkpt><trkpt lat="43.8363309" lon="12.7506213"><ele>56.0</ele><time>2026-04-12T09:40:33.147Z</time></trkpt><trkpt lat="43.8363057" lon="12.7505102"><ele>56.5</ele><time>2026-04-12T09:40:34.146Z</time></trkpt><trkpt lat="43.8362392" lon="12.7504228"><ele>57.0</ele><time>2026-04-12T09:40:35.145Z</time></trkpt><trkpt lat="43.8361337" lon="12.750361"><ele>57.0</ele><time>2026-04-12T09:40:36.146Z</time></trkpt><trkpt lat="43.8360216" lon="12.7502896"><ele>57.0</ele><time>2026-04-12T09:40:37.146Z</time></trkpt><trkpt lat="43.8359156" lon="12.7501923"><ele>57.0</ele><time>2026-04-12T09:40:38.147Z</time></trkpt><trkpt lat="43.835829" lon="12.7500486"><ele>57.0</ele><time>2026-04-12T09:40:39.147Z</time></trkpt><trkpt lat="43.8357563" lon="12.7498747"><ele>59.0</ele><time>2026-04-12T09:40:40.145Z</time></trkpt><trkpt lat="43.83569" lon="12.7496843"><ele>61.0</ele><time>2026-04-12T09:40:41.145Z</time></trkpt><trkpt lat="43.8356128" lon="12.7494838"><ele>63.0</ele><time>2026-04-12T09:40:42.144Z</time></trkpt><trkpt lat="43.8355216" lon="12.7492694"><ele>63.66666666666667</ele><time>2026-04-12T09:40:43.144Z</time></trkpt><trkpt lat="43.8354207" lon="12.7490456"><ele>64.33333333333334</ele><time>2026-04-12T09:40:44.145Z</time></trkpt><trkpt lat="43.8353135" lon="12.7488221"><ele>65.0</ele><time>2026-04-12T09:40:45.144Z</time></trkpt><trkpt lat="43.8351983" lon="12.7485939"><ele>65.0</ele><time>2026-04-12T09:40:46.145Z</time></trkpt><trkpt lat="43.8350783" lon="12.7483629"><ele>65.0</ele><time>2026-04-12T09:40:47.146Z</time></trkpt><trkpt lat="43.8349606" lon="12.7481389"><ele>65.0</ele><time>2026-04-12T09:40:48.147Z</time></trkpt><trkpt lat="43.8348478" lon="12.7479237"><ele>65.0</ele><time>2026-04-12T09:40:49.146Z</time></trkpt><trkpt lat="43.8347353" lon="12.7477149"><ele>65.0</ele><time>2026-04-12T09:40:50.147Z</time></trkpt><trkpt lat="43.8346253" lon="12.7475142"><ele>65.0</ele><time>2026-04-12T09:40:51.146Z</time></trkpt><trkpt lat="43.8345226" lon="12.7473236"><ele>65.0</ele><time>2026-04-12T09:40:52.146Z</time></trkpt><trkpt lat="43.8344268" lon="12.7471428"><ele>65.0</ele><time>2026-04-12T09:40:53.147Z</time></trkpt><trkpt lat="43.8343382" lon="12.7469817"><ele>65.0</ele><time>2026-04-12T09:40:54.146Z</time></trkpt><trkpt lat="43.8342561" lon="12.7468336"><ele>65.0</ele><time>2026-04-12T09:40:55.146Z</time></trkpt><trkpt lat="43.8341849" lon="12.7466999"><ele>65.33333333333334</ele><time>2026-04-12T09:40:56.147Z</time></trkpt><trkpt lat="43.8341211" lon="12.7465808"><ele>65.66666666666667</ele><time>2026-04-12T09:40:57.145Z</time></trkpt><trkpt lat="43.8340763" lon="12.746473"><ele>66.0</ele><time>2026-04-12T09:40:58.146Z</time></trkpt><trkpt lat="43.8340448" lon="12.746369"><ele>66.33333333333333</ele><time>2026-04-12T09:40:59.146Z</time></trkpt><trkpt lat="43.8340401" lon="12.746264"><ele>66.66666666666666</ele><time>2026-04-12T09:41:00.146Z</time></trkpt><trkpt lat="43.8340543" lon="12.7461616"><ele>67.0</ele><time>2026-04-12T09:41:01.147Z</time></trkpt><trkpt lat="43.8340745" lon="12.7460732"><ele>68.0</ele><time>2026-04-12T09:41:02.145Z</time></trkpt><trkpt lat="43.8340528" lon="12.7459116"><ele>69.0</ele><time>2026-04-12T09:41:04.145Z</time></trkpt><trkpt lat="43.8339444" lon="12.745825"><ele>70.0</ele><time>2026-04-12T09:41:06.147Z</time></trkpt><trkpt lat="43.8338261" lon="12.7458244"><ele>71.0</ele><time>2026-04-12T09:41:07.145Z</time></trkpt><trkpt lat="43.8336788" lon="12.7458238"><ele>71.0</ele><time>2026-04-12T09:41:08.146Z</time></trkpt><trkpt lat="43.8335253" lon="12.7458162"><ele>71.0</ele><time>2026-04-12T09:41:09.145Z</time></trkpt><trkpt lat="43.8333554" lon="12.7458141"><ele>71.0</ele><time>2026-04-12T09:41:10.158Z</time></trkpt><trkpt lat="43.8331735" lon="12.7458172"><ele>71.0</ele><time>2026-04-12T09:41:11.148Z</time></trkpt><trkpt lat="43.8329752" lon="12.7458131"><ele>71.0</ele><time>2026-04-12T09:41:12.145Z</time></trkpt><trkpt lat="43.8327863" lon="12.7457954"><ele>71.0</ele><time>2026-04-12T09:41:13.145Z</time></trkpt><trkpt lat="43.8326095" lon="12.7457727"><ele>71.0</ele><time>2026-04-12T09:41:14.145Z</time></trkpt><trkpt lat="43.8324414" lon="12.7457368"><ele>71.0</ele><time>2026-04-12T09:41:15.147Z</time></trkpt><trkpt lat="43.8322811" lon="12.7456953"><ele>71.0</ele><time>2026-04-12T09:41:16.147Z</time></trkpt><trkpt lat="43.8321272" lon="12.7456548"><ele>71.0</ele><time>2026-04-12T09:41:17.145Z</time></trkpt><trkpt lat="43.8319862" lon="12.745616"><ele>71.0</ele><time>2026-04-12T09:41:18.146Z</time></trkpt><trkpt lat="43.8318547" lon="12.7455788"><ele>71.0</ele><time>2026-04-12T09:41:19.145Z</time></trkpt><trkpt lat="43.8317351" lon="12.74555"><ele>71.0</ele><time>2026-04-12T09:41:20.146Z</time></trkpt><trkpt lat="43.831627" lon="12.7455269"><ele>71.2</ele><time>2026-04-12T09:41:21.145Z</time></trkpt><trkpt lat="43.8315267" lon="12.7455046"><ele>71.39999999999999</ele><time>2026-04-12T09:41:22.145Z</time></trkpt><trkpt lat="43.8314327" lon="12.7454835"><ele>71.6</ele><time>2026-04-12T09:41:23.145Z</time></trkpt><trkpt lat="43.8313394" lon="12.7454583"><ele>71.8</ele><time>2026-04-12T09:41:24.145Z</time></trkpt><trkpt lat="43.8312529" lon="12.7454098"><ele>72.0</ele><time>2026-04-12T09:41:25.145Z</time></trkpt><trkpt lat="43.8311748" lon="12.7453468"><ele>72.0</ele><time>2026-04-12T09:41:26.146Z</time></trkpt><trkpt lat="43.8310958" lon="12.7452957"><ele>72.0</ele><time>2026-04-12T09:41:27.145Z</time></trkpt><trkpt lat="43.8310088" lon="12.7452835"><ele>72.0</ele><time>2026-04-12T09:41:28.146Z</time></trkpt><trkpt lat="43.830917" lon="12.7453309"><ele>72.0</ele><time>2026-04-12T09:41:29.143Z</time></trkpt><trkpt lat="43.830813" lon="12.7454033"><ele>72.0</ele><time>2026-04-12T09:41:30.145Z</time></trkpt><trkpt lat="43.8306934" lon="12.7454478"><ele>72.5</ele><time>2026-04-12T09:41:31.145Z</time></trkpt><trkpt lat="43.8305657" lon="12.7454566"><ele>73.0</ele><time>2026-04-12T09:41:32.146Z</time></trkpt><trkpt lat="43.8304306" lon="12.7454482"><ele>73.5</ele><time>2026-04-12T09:41:33.145Z</time></trkpt><trkpt lat="43.8302851" lon="12.74544"><ele>74.0</ele><time>2026-04-12T09:41:34.145Z</time></trkpt><trkpt lat="43.8301369" lon="12.7454341"><ele>74.0</ele><time>2026-04-12T09:41:35.145Z</time></trkpt><trkpt lat="43.8299897" lon="12.7454292"><ele>74.0</ele><time>2026-04-12T09:41:36.144Z</time></trkpt><trkpt lat="43.8298426" lon="12.7454271"><ele>74.0</ele><time>2026-04-12T09:41:37.146Z</time></trkpt><trkpt lat="43.8296954" lon="12.7454213"><ele>74.0</ele><time>2026-04-12T09:41:38.145Z</time></trkpt><trkpt lat="43.8295481" lon="12.7454098"><ele>74.0</ele><time>2026-04-12T09:41:39.146Z</time></trkpt><trkpt lat="43.8293997" lon="12.745395"><ele>74.0</ele><time>2026-04-12T09:41:40.145Z</time></trkpt><trkpt lat="43.8292482" lon="12.7453777"><ele>74.0</ele><time>2026-04-12T09:41:41.144Z</time></trkpt><trkpt lat="43.8290961" lon="12.745344"><ele>73.66666666666667</ele><time>2026-04-12T09:41:42.145Z</time></trkpt><trkpt lat="43.8289429" lon="12.7452959"><ele>73.33333333333333</ele><time>2026-04-12T09:41:43.144Z</time></trkpt><trkpt lat="43.8287884" lon="12.7452403"><ele>73.0</ele><time>2026-04-12T09:41:44.144Z</time></trkpt><trkpt lat="43.8286365" lon="12.7451655"><ele>73.66666666666666</ele><time>2026-04-12T09:41:45.145Z</time></trkpt><trkpt lat="43.8284902" lon="12.74507"><ele>74.33333333333333</ele><time>2026-04-12T09:41:46.145Z</time></trkpt><trkpt lat="43.8283494" lon="12.7449598"><ele>75.0</ele><time>2026-04-12T09:41:47.145Z</time></trkpt><trkpt lat="43.828215" lon="12.7448341"><ele>75.0</ele><time>2026-04-12T09:41:48.145Z</time></trkpt><trkpt lat="43.8280852" lon="12.7446971"><ele>75.0</ele><time>2026-04-12T09:41:49.145Z</time></trkpt><trkpt lat="43.8279565" lon="12.7445488"><ele>75.0</ele><time>2026-04-12T09:41:50.145Z</time></trkpt><trkpt lat="43.8278383" lon="12.7443888"><ele>75.33333333333333</ele><time>2026-04-12T09:41:51.146Z</time></trkpt><trkpt lat="43.8277277" lon="12.7442214"><ele>75.66666666666666</ele><time>2026-04-12T09:41:52.145Z</time></trkpt><trkpt lat="43.8276236" lon="12.7440464"><ele>76.0</ele><time>2026-04-12T09:41:53.145Z</time></trkpt><trkpt lat="43.8275251" lon="12.7438661"><ele>76.0</ele><time>2026-04-12T09:41:54.145Z</time></trkpt><trkpt lat="43.8274264" lon="12.7436836"><ele>76.0</ele><time>2026-04-12T09:41:55.145Z</time></trkpt><trkpt lat="43.8273288" lon="12.7435014"><ele>76.0</ele><time>2026-04-12T09:41:56.146Z</time></trkpt><trkpt lat="43.8272374" lon="12.7433099"><ele>76.0</ele><time>2026-04-12T09:41:57.145Z</time></trkpt><trkpt lat="43.8271527" lon="12.7431101"><ele>76.0</ele><time>2026-04-12T09:41:58.145Z</time></trkpt><trkpt lat="43.8270762" lon="12.7429028"><ele>76.0</ele><time>2026-04-12T09:41:59.144Z</time></trkpt><trkpt lat="43.8270086" lon="12.7426883"><ele>76.0</ele><time>2026-04-12T09:42:00.145Z</time></trkpt><trkpt lat="43.8269465" lon="12.742473"><ele>76.0</ele><time>2026-04-12T09:42:01.144Z</time></trkpt><trkpt lat="43.8268883" lon="12.7422558"><ele>76.0</ele><time>2026-04-12T09:42:02.145Z</time></trkpt><trkpt lat="43.8268299" lon="12.7420347"><ele>76.33333333333333</ele><time>2026-04-12T09:42:03.144Z</time></trkpt><trkpt lat="43.8267716" lon="12.7418154"><ele>76.66666666666667</ele><time>2026-04-12T09:42:04.143Z</time></trkpt><trkpt lat="43.8267083" lon="12.7416016"><ele>77.0</ele><time>2026-04-12T09:42:05.144Z</time></trkpt><trkpt lat="43.8266474" lon="12.741388"><ele>77.0</ele><time>2026-04-12T09:42:06.144Z</time></trkpt><trkpt lat="43.8265868" lon="12.7411728"><ele>77.0</ele><time>2026-04-12T09:42:07.144Z</time></trkpt><trkpt lat="43.8265184" lon="12.7409596"><ele>77.0</ele><time>2026-04-12T09:42:08.145Z</time></trkpt><trkpt lat="43.8264378" lon="12.7407596"><ele>77.33333333333334</ele><time>2026-04-12T09:42:09.144Z</time></trkpt><trkpt lat="43.8263462" lon="12.7405734"><ele>77.66666666666667</ele><time>2026-04-12T09:42:10.144Z</time></trkpt><trkpt lat="43.8262426" lon="12.7403995"><ele>78.0</ele><time>2026-04-12T09:42:11.144Z</time></trkpt><trkpt lat="43.8261259" lon="12.7402438"><ele>78.33333333333333</ele><time>2026-04-12T09:42:12.145Z</time></trkpt><trkpt lat="43.8260039" lon="12.7401035"><ele>78.66666666666666</ele><time>2026-04-12T09:42:13.144Z</time></trkpt><trkpt lat="43.8258821" lon="12.7399656"><ele>79.0</ele><time>2026-04-12T09:42:14.145Z</time></trkpt><trkpt lat="43.8257646" lon="12.7398245"><ele>79.33333333333333</ele><time>2026-04-12T09:42:15.144Z</time></trkpt><trkpt lat="43.8256468" lon="12.7396856"><ele>79.66666666666667</ele><time>2026-04-12T09:42:16.144Z</time></trkpt><trkpt lat="43.8255293" lon="12.7395513"><ele>80.0</ele><time>2026-04-12T09:42:17.144Z</time></trkpt><trkpt lat="43.8254137" lon="12.7394101"><ele>80.0</ele><time>2026-04-12T09:42:18.143Z</time></trkpt><trkpt lat="43.8252933" lon="12.7392618"><ele>80.0</ele><time>2026-04-12T09:42:19.143Z</time></trkpt><trkpt lat="43.8251728" lon="12.7391037"><ele>80.0</ele><time>2026-04-12T09:42:20.144Z</time></trkpt><trkpt lat="43.8250525" lon="12.7389432"><ele>80.0</ele><time>2026-04-12T09:42:21.143Z</time></trkpt><trkpt lat="43.8249294" lon="12.7387751"><ele>80.0</ele><time>2026-04-12T09:42:22.142Z</time></trkpt><trkpt lat="43.8247973" lon="12.7386077"><ele>80.0</ele><time>2026-04-12T09:42:23.142Z</time></trkpt><trkpt lat="43.8246698" lon="12.7384314"><ele>80.66666666666667</ele><time>2026-04-12T09:42:24.144Z</time></trkpt><trkpt lat="43.8245436" lon="12.7382521"><ele>81.33333333333333</ele><time>2026-04-12T09:42:25.144Z</time></trkpt><trkpt lat="43.8244122" lon="12.7380787"><ele>82.0</ele><time>2026-04-12T09:42:26.143Z</time></trkpt><trkpt lat="43.8242683" lon="12.7379187"><ele>82.0</ele><time>2026-04-12T09:42:27.144Z</time></trkpt><trkpt lat="43.8241273" lon="12.7377638"><ele>82.0</ele><time>2026-04-12T09:42:28.144Z</time></trkpt><trkpt lat="43.8239826" lon="12.7376162"><ele>82.0</ele><time>2026-04-12T09:42:29.143Z</time></trkpt><trkpt lat="43.8238385" lon="12.7374741"><ele>82.0</ele><time>2026-04-12T09:42:30.144Z</time></trkpt><trkpt lat="43.8236923" lon="12.7373335"><ele>82.0</ele><time>2026-04-12T09:42:31.144Z</time></trkpt><trkpt lat="43.8235469" lon="12.7371941"><ele>82.0</ele><time>2026-04-12T09:42:32.144Z</time></trkpt><trkpt lat="43.8234043" lon="12.7370594"><ele>82.0</ele><time>2026-04-12T09:42:33.143Z</time></trkpt><trkpt lat="43.8232624" lon="12.7369301"><ele>82.0</ele><time>2026-04-12T09:42:34.144Z</time></trkpt><trkpt lat="43.8231237" lon="12.7368073"><ele>82.0</ele><time>2026-04-12T09:42:35.144Z</time></trkpt><trkpt lat="43.8229859" lon="12.7366879"><ele>82.0</ele><time>2026-04-12T09:42:36.144Z</time></trkpt><trkpt lat="43.8228473" lon="12.7365753"><ele>82.0</ele><time>2026-04-12T09:42:37.143Z</time></trkpt><trkpt lat="43.8227143" lon="12.7364628"><ele>82.0</ele><time>2026-04-12T09:42:38.144Z</time></trkpt><trkpt lat="43.8225903" lon="12.7363463"><ele>81.75</ele><time>2026-04-12T09:42:39.144Z</time></trkpt><trkpt lat="43.8224692" lon="12.7362366"><ele>81.5</ele><time>2026-04-12T09:42:40.144Z</time></trkpt><trkpt lat="43.8223527" lon="12.7361316"><ele>81.25</ele><time>2026-04-12T09:42:41.142Z</time></trkpt><trkpt lat="43.8222397" lon="12.7360284"><ele>81.0</ele><time>2026-04-12T09:42:42.143Z</time></trkpt><trkpt lat="43.8221297" lon="12.7359232"><ele>81.25</ele><time>2026-04-12T09:42:43.143Z</time></trkpt><trkpt lat="43.8220239" lon="12.7358224"><ele>81.5</ele><time>2026-04-12T09:42:44.144Z</time></trkpt><trkpt lat="43.8219236" lon="12.7357146"><ele>81.75</ele><time>2026-04-12T09:42:45.143Z</time></trkpt><trkpt lat="43.8218137" lon="12.7356079"><ele>82.0</ele><time>2026-04-12T09:42:46.144Z</time></trkpt><trkpt lat="43.8217003" lon="12.735493"><ele>82.0</ele><time>2026-04-12T09:42:47.144Z</time></trkpt><trkpt lat="43.8215865" lon="12.7353693"><ele>82.0</ele><time>2026-04-12T09:42:48.143Z</time></trkpt><trkpt lat="43.82147" lon="12.7352333"><ele>82.0</ele><time>2026-04-12T09:42:49.144Z</time></trkpt><trkpt lat="43.8213509" lon="12.7350807"><ele>83.33333333333333</ele><time>2026-04-12T09:42:50.235Z</time></trkpt><trkpt lat="43.8212472" lon="12.7349206"><ele>84.66666666666667</ele><time>2026-04-12T09:42:51.143Z</time></trkpt><trkpt lat="43.8211463" lon="12.734731"><ele>86.0</ele><time>2026-04-12T09:42:52.143Z</time></trkpt><trkpt lat="43.821042" lon="12.7345443"><ele>85.33333333333334</ele><time>2026-04-12T09:42:53.144Z</time></trkpt><trkpt lat="43.8209288" lon="12.734369"><ele>84.66666666666667</ele><time>2026-04-12T09:42:54.143Z</time></trkpt><trkpt lat="43.8208083" lon="12.7342069"><ele>84.0</ele><time>2026-04-12T09:42:55.144Z</time></trkpt><trkpt lat="43.820683" lon="12.7340544"><ele>84.0</ele><time>2026-04-12T09:42:56.144Z</time></trkpt><trkpt lat="43.820552" lon="12.7339077"><ele>84.0</ele><time>2026-04-12T09:42:57.146Z</time></trkpt><trkpt lat="43.8204213" lon="12.7337659"><ele>84.0</ele><time>2026-04-12T09:42:58.147Z</time></trkpt><trkpt lat="43.8202932" lon="12.7336274"><ele>85.0</ele><time>2026-04-12T09:42:59.143Z</time></trkpt><trkpt lat="43.8201645" lon="12.7334857"><ele>86.0</ele><time>2026-04-12T09:43:00.144Z</time></trkpt><trkpt lat="43.8200333" lon="12.7333477"><ele>87.0</ele><time>2026-04-12T09:43:01.144Z</time></trkpt><trkpt lat="43.8198999" lon="12.7332067"><ele>87.0</ele><time>2026-04-12T09:43:02.144Z</time></trkpt><trkpt lat="43.8197649" lon="12.733065"><ele>87.0</ele><time>2026-04-12T09:43:03.144Z</time></trkpt><trkpt lat="43.8196274" lon="12.7329231"><ele>87.0</ele><time>2026-04-12T09:43:04.142Z</time></trkpt><trkpt lat="43.8194877" lon="12.7327799"><ele>87.66666666666667</ele><time>2026-04-12T09:43:05.144Z</time></trkpt><trkpt lat="43.8193488" lon="12.732634"><ele>88.33333333333334</ele><time>2026-04-12T09:43:06.143Z</time></trkpt><trkpt lat="43.8192113" lon="12.7324876"><ele>89.0</ele><time>2026-04-12T09:43:07.145Z</time></trkpt><trkpt lat="43.8190744" lon="12.7323401"><ele>89.0</ele><time>2026-04-12T09:43:08.144Z</time></trkpt><trkpt lat="43.818937" lon="12.7321979"><ele>89.0</ele><time>2026-04-12T09:43:09.144Z</time></trkpt><trkpt lat="43.8187963" lon="12.7320613"><ele>89.0</ele><time>2026-04-12T09:43:10.142Z</time></trkpt><trkpt lat="43.8186518" lon="12.7319286"><ele>90.0</ele><time>2026-04-12T09:43:11.144Z</time></trkpt><trkpt lat="43.8184999" lon="12.7318142"><ele>91.0</ele><time>2026-04-12T09:43:12.145Z</time></trkpt><trkpt lat="43.8183398" lon="12.7317159"><ele>92.0</ele><time>2026-04-12T09:43:13.145Z</time></trkpt><trkpt lat="43.8181773" lon="12.7316333"><ele>92.0</ele><time>2026-04-12T09:43:14.144Z</time></trkpt><trkpt lat="43.8180149" lon="12.7315564"><ele>92.0</ele><time>2026-04-12T09:43:15.142Z</time></trkpt><trkpt lat="43.8178515" lon="12.7314754"><ele>92.0</ele><time>2026-04-12T09:43:16.143Z</time></trkpt><trkpt lat="43.8176881" lon="12.7313947"><ele>92.0</ele><time>2026-04-12T09:43:17.143Z</time></trkpt><trkpt lat="43.8175259" lon="12.7313049"><ele>92.0</ele><time>2026-04-12T09:43:18.145Z</time></trkpt><trkpt lat="43.817368" lon="12.7312159"><ele>92.0</ele><time>2026-04-12T09:43:19.144Z</time></trkpt><trkpt lat="43.8172124" lon="12.7311232"><ele>92.33333333333334</ele><time>2026-04-12T09:43:20.144Z</time></trkpt><trkpt lat="43.8170548" lon="12.7310325"><ele>92.66666666666667</ele><time>2026-04-12T09:43:21.143Z</time></trkpt><trkpt lat="43.8168918" lon="12.7309438"><ele>93.0</ele><time>2026-04-12T09:43:22.143Z</time></trkpt><trkpt lat="43.8167333" lon="12.730855"><ele>93.0</ele><time>2026-04-12T09:43:23.142Z</time></trkpt><trkpt lat="43.8165733" lon="12.7307533"><ele>93.0</ele><time>2026-04-12T09:43:24.144Z</time></trkpt><trkpt lat="43.816415" lon="12.7306517"><ele>93.0</ele><time>2026-04-12T09:43:25.143Z</time></trkpt><trkpt lat="43.816255" lon="12.7305467"><ele>93.0</ele><time>2026-04-12T09:43:26.145Z</time></trkpt><trkpt lat="43.8161" lon="12.7304283"><ele>93.0</ele><time>2026-04-12T09:43:27.143Z</time></trkpt><trkpt lat="43.8159483" lon="12.7303033"><ele>93.0</ele><time>2026-04-12T09:43:28.143Z</time></trkpt><trkpt lat="43.8157883" lon="12.73019"><ele>93.0</ele><time>2026-04-12T09:43:29.144Z</time></trkpt><trkpt lat="43.815635" lon="12.7300683"><ele>93.0</ele><time>2026-04-12T09:43:30.144Z</time></trkpt><trkpt lat="43.8154717" lon="12.729955"><ele>93.0</ele><time>2026-04-12T09:43:31.144Z</time></trkpt><trkpt lat="43.8153133" lon="12.7298267"><ele>92.0</ele><time>2026-04-12T09:43:32.144Z</time></trkpt><trkpt lat="43.8151517" lon="12.7296983"><ele>91.0</ele><time>2026-04-12T09:43:33.143Z</time></trkpt><trkpt lat="43.8149867" lon="12.7295717"><ele>90.0</ele><time>2026-04-12T09:43:34.144Z</time></trkpt><trkpt lat="43.814825" lon="12.7294483"><ele>91.33333333333333</ele><time>2026-04-12T09:43:35.144Z</time></trkpt><trkpt lat="43.81466" lon="12.72932"><ele>92.66666666666666</ele><time>2026-04-12T09:43:36.144Z</time></trkpt><trkpt lat="43.8145067" lon="12.7291867"><ele>94.0</ele><time>2026-04-12T09:43:37.143Z</time></trkpt><trkpt lat="43.8143517" lon="12.7290633"><ele>94.66666666666666</ele><time>2026-04-12T09:43:38.144Z</time></trkpt><trkpt lat="43.8141983" lon="12.728955"><ele>95.33333333333333</ele><time>2026-04-12T09:43:39.148Z</time></trkpt><trkpt lat="43.8140483" lon="12.7288333"><ele>96.0</ele><time>2026-04-12T09:43:40.142Z</time></trkpt><trkpt lat="43.8138967" lon="12.7287233"><ele>96.0</ele><time>2026-04-12T09:43:41.143Z</time></trkpt><trkpt lat="43.8137483" lon="12.7286067"><ele>96.0</ele><time>2026-04-12T09:43:42.144Z</time></trkpt><trkpt lat="43.8136017" lon="12.7284867"><ele>96.0</ele><time>2026-04-12T09:43:43.144Z</time></trkpt><trkpt lat="43.813455" lon="12.7283717"><ele>97.0</ele><time>2026-04-12T09:43:44.144Z</time></trkpt><trkpt lat="43.81332" lon="12.72825"><ele>98.0</ele><time>2026-04-12T09:43:45.143Z</time></trkpt><trkpt lat="43.8131783" lon="12.7281433"><ele>99.0</ele><time>2026-04-12T09:43:46.143Z</time></trkpt><trkpt lat="43.8130267" lon="12.7280433"><ele>99.0</ele><time>2026-04-12T09:43:47.143Z</time></trkpt><trkpt lat="43.8128733" lon="12.7279483"><ele>99.0</ele><time>2026-04-12T09:43:48.142Z</time></trkpt><trkpt lat="43.8127167" lon="12.7278783"><ele>99.0</ele><time>2026-04-12T09:43:49.144Z</time></trkpt><trkpt lat="43.8125617" lon="12.7278217"><ele>98.33333333333334</ele><time>2026-04-12T09:43:50.144Z</time></trkpt><trkpt lat="43.812405" lon="12.7277733"><ele>97.66666666666667</ele><time>2026-04-12T09:43:51.143Z</time></trkpt><trkpt lat="43.8122517" lon="12.7277317"><ele>97.0</ele><time>2026-04-12T09:43:52.142Z</time></trkpt><trkpt lat="43.8120967" lon="12.7276917"><ele>98.33333333333334</ele><time>2026-04-12T09:43:53.144Z</time></trkpt><trkpt lat="43.8119367" lon="12.7276583"><ele>99.66666666666666</ele><time>2026-04-12T09:43:54.144Z</time></trkpt><trkpt lat="43.8117783" lon="12.7276133"><ele>101.0</ele><time>2026-04-12T09:43:55.144Z</time></trkpt><trkpt lat="43.8116167" lon="12.7275767"><ele>101.0</ele><time>2026-04-12T09:43:56.144Z</time></trkpt><trkpt lat="43.8114633" lon="12.7275167"><ele>101.0</ele><time>2026-04-12T09:43:57.145Z</time></trkpt><trkpt lat="43.8113083" lon="12.7274433"><ele>101.0</ele><time>2026-04-12T09:43:58.142Z</time></trkpt><trkpt lat="43.811155" lon="12.7273567"><ele>101.0</ele><time>2026-04-12T09:43:59.143Z</time></trkpt><trkpt lat="43.8109983" lon="12.7272583"><ele>101.0</ele><time>2026-04-12T09:44:00.144Z</time></trkpt><trkpt lat="43.8108383" lon="12.7271717"><ele>101.0</ele><time>2026-04-12T09:44:01.143Z</time></trkpt><trkpt lat="43.8106767" lon="12.727075"><ele>98.66666666666666</ele><time>2026-04-12T09:44:02.144Z</time></trkpt><trkpt lat="43.8105117" lon="12.7269983"><ele>96.33333333333333</ele><time>2026-04-12T09:44:03.144Z</time></trkpt><trkpt lat="43.8103417" lon="12.7269417"><ele>94.0</ele><time>2026-04-12T09:44:04.142Z</time></trkpt><trkpt lat="43.8101733" lon="12.7269"><ele>96.66666666666666</ele><time>2026-04-12T09:44:05.144Z</time></trkpt><trkpt lat="43.81" lon="12.72687"><ele>99.33333333333333</ele><time>2026-04-12T09:44:06.144Z</time></trkpt><trkpt lat="43.8098317" lon="12.7268417"><ele>102.0</ele><time>2026-04-12T09:44:07.143Z</time></trkpt><trkpt lat="43.8096633" lon="12.72682"><ele>102.0</ele><time>2026-04-12T09:44:08.145Z</time></trkpt><trkpt lat="43.8094933" lon="12.7267967"><ele>102.0</ele><time>2026-04-12T09:44:09.144Z</time></trkpt><trkpt lat="43.80932" lon="12.726775"><ele>102.0</ele><time>2026-04-12T09:44:10.144Z</time></trkpt><trkpt lat="43.809145" lon="12.7267483"><ele>100.0</ele><time>2026-04-12T09:44:11.143Z</time></trkpt><trkpt lat="43.8089667" lon="12.72671"><ele>98.0</ele><time>2026-04-12T09:44:12.143Z</time></trkpt><trkpt lat="43.808785" lon="12.7266617"><ele>96.0</ele><time>2026-04-12T09:44:13.143Z</time></trkpt><trkpt lat="43.808605" lon="12.726595"><ele>95.0</ele><time>2026-04-12T09:44:14.145Z</time></trkpt><trkpt lat="43.80843" lon="12.726535"><ele>94.0</ele><time>2026-04-12T09:44:15.143Z</time></trkpt><trkpt lat="43.8082467" lon="12.726475"><ele>93.0</ele><time>2026-04-12T09:44:16.143Z</time></trkpt><trkpt lat="43.8080617" lon="12.7264183"><ele>93.0</ele><time>2026-04-12T09:44:17.143Z</time></trkpt><trkpt lat="43.8078917" lon="12.726355"><ele>93.0</ele><time>2026-04-12T09:44:18.144Z</time></trkpt><trkpt lat="43.80773" lon="12.7262967"><ele>93.0</ele><time>2026-04-12T09:44:19.143Z</time></trkpt><trkpt lat="43.80758" lon="12.726235"><ele>94.33333333333334</ele><time>2026-04-12T09:44:20.144Z</time></trkpt><trkpt lat="43.8074317" lon="12.726185"><ele>95.66666666666667</ele><time>2026-04-12T09:44:21.143Z</time></trkpt><trkpt lat="43.8072867" lon="12.72613"><ele>97.0</ele><time>2026-04-12T09:44:22.142Z</time></trkpt><trkpt lat="43.8071433" lon="12.7260767"><ele>96.66666666666667</ele><time>2026-04-12T09:44:23.142Z</time></trkpt><trkpt lat="43.807005" lon="12.72601"><ele>96.33333333333334</ele><time>2026-04-12T09:44:24.143Z</time></trkpt><trkpt lat="43.806865" lon="12.7259317"><ele>96.0</ele><time>2026-04-12T09:44:25.144Z</time></trkpt><trkpt lat="43.8067117" lon="12.72585"><ele>96.0</ele><time>2026-04-12T09:44:26.144Z</time></trkpt><trkpt lat="43.80654" lon="12.7257633"><ele>96.0</ele><time>2026-04-12T09:44:27.142Z</time></trkpt><trkpt lat="43.8063617" lon="12.7256583"><ele>96.0</ele><time>2026-04-12T09:44:28.143Z</time></trkpt><trkpt lat="43.8061817" lon="12.72554"><ele>96.0</ele><time>2026-04-12T09:44:29.143Z</time></trkpt><trkpt lat="43.8059983" lon="12.7254283"><ele>96.0</ele><time>2026-04-12T09:44:30.144Z</time></trkpt><trkpt lat="43.8057983" lon="12.7252917"><ele>96.0</ele><time>2026-04-12T09:44:31.143Z</time></trkpt><trkpt lat="43.80559" lon="12.72514"><ele>97.5</ele><time>2026-04-12T09:44:32.145Z</time></trkpt><trkpt lat="43.8053883" lon="12.7249617"><ele>99.0</ele><time>2026-04-12T09:44:33.145Z</time></trkpt><trkpt lat="43.8051867" lon="12.7247917"><ele>95.0</ele><time>2026-04-12T09:44:34.143Z</time></trkpt><trkpt lat="43.8049817" lon="12.7246383"><ele>91.0</ele><time>2026-04-12T09:44:35.145Z</time></trkpt><trkpt lat="43.8047733" lon="12.724505"><ele>92.66666666666666</ele><time>2026-04-12T09:44:36.145Z</time></trkpt><trkpt lat="43.80457" lon="12.72438"><ele>94.33333333333333</ele><time>2026-04-12T09:44:37.143Z</time></trkpt><trkpt lat="43.804375" lon="12.72425"><ele>96.0</ele><time>2026-04-12T09:44:38.144Z</time></trkpt><trkpt lat="43.8041867" lon="12.7241133"><ele>96.0</ele><time>2026-04-12T09:44:39.145Z</time></trkpt><trkpt lat="43.804" lon="12.72397"><ele>96.0</ele><time>2026-04-12T09:44:40.145Z</time></trkpt><trkpt lat="43.8038233" lon="12.7238183"><ele>96.0</ele><time>2026-04-12T09:44:41.143Z</time></trkpt><trkpt lat="43.8036483" lon="12.7236683"><ele>96.66666666666666</ele><time>2026-04-12T09:44:42.144Z</time></trkpt><trkpt lat="43.803475" lon="12.7235133"><ele>97.33333333333333</ele><time>2026-04-12T09:44:43.143Z</time></trkpt><trkpt lat="43.803305" lon="12.7233567"><ele>98.0</ele><time>2026-04-12T09:44:44.142Z</time></trkpt><trkpt lat="43.8031383" lon="12.7232033"><ele>98.0</ele><time>2026-04-12T09:44:45.143Z</time></trkpt><trkpt lat="43.8029717" lon="12.7230617"><ele>98.0</ele><time>2026-04-12T09:44:46.143Z</time></trkpt><trkpt lat="43.8028017" lon="12.7229367"><ele>98.0</ele><time>2026-04-12T09:44:47.143Z</time></trkpt><trkpt lat="43.8026217" lon="12.722825"><ele>95.33333333333333</ele><time>2026-04-12T09:44:48.143Z</time></trkpt><trkpt lat="43.8024333" lon="12.72273"><ele>92.66666666666666</ele><time>2026-04-12T09:44:49.142Z</time></trkpt><trkpt lat="43.80225" lon="12.722645"><ele>90.0</ele><time>2026-04-12T09:44:50.143Z</time></trkpt><trkpt lat="43.80206" lon="12.7225833"><ele>90.0</ele><time>2026-04-12T09:44:51.144Z</time></trkpt><trkpt lat="43.8018717" lon="12.7225367"><ele>90.0</ele><time>2026-04-12T09:44:52.143Z</time></trkpt><trkpt lat="43.8016817" lon="12.7225033"><ele>90.0</ele><time>2026-04-12T09:44:53.143Z</time></trkpt><trkpt lat="43.80149" lon="12.722485"><ele>90.33333333333333</ele><time>2026-04-12T09:44:54.142Z</time></trkpt><trkpt lat="43.8012967" lon="12.72249"><ele>90.66666666666666</ele><time>2026-04-12T09:44:55.142Z</time></trkpt><trkpt lat="43.8011083" lon="12.7225067"><ele>91.0</ele><time>2026-04-12T09:44:56.143Z</time></trkpt><trkpt lat="43.8009233" lon="12.7225367"><ele>93.66666666666666</ele><time>2026-04-12T09:44:57.144Z</time></trkpt><trkpt lat="43.800735" lon="12.72258"><ele>96.33333333333333</ele><time>2026-04-12T09:44:58.143Z</time></trkpt><trkpt lat="43.8005467" lon="12.72263"><ele>99.0</ele><time>2026-04-12T09:44:59.143Z</time></trkpt><trkpt lat="43.8003617" lon="12.7226867"><ele>98.0</ele><time>2026-04-12T09:45:00.143Z</time></trkpt><trkpt lat="43.8001767" lon="12.7227417"><ele>97.0</ele><time>2026-04-12T09:45:01.144Z</time></trkpt><trkpt lat="43.7999933" lon="12.7228"><ele>96.0</ele><time>2026-04-12T09:45:02.143Z</time></trkpt><trkpt lat="43.7998133" lon="12.72285"><ele>96.0</ele><time>2026-04-12T09:45:03.143Z</time></trkpt><trkpt lat="43.7996317" lon="12.7228883"><ele>96.0</ele><time>2026-04-12T09:45:04.143Z</time></trkpt><trkpt lat="43.79945" lon="12.7229167"><ele>96.0</ele><time>2026-04-12T09:45:05.144Z</time></trkpt><trkpt lat="43.7992682" lon="12.7229397"><ele>95.66666666666667</ele><time>2026-04-12T09:45:06.144Z</time></trkpt><trkpt lat="43.7990898" lon="12.7229416"><ele>95.33333333333334</ele><time>2026-04-12T09:45:07.143Z</time></trkpt><trkpt lat="43.7989091" lon="12.7229325"><ele>95.0</ele><time>2026-04-12T09:45:08.144Z</time></trkpt><trkpt lat="43.7987304" lon="12.7229221"><ele>95.0</ele><time>2026-04-12T09:45:09.144Z</time></trkpt><trkpt lat="43.7985544" lon="12.7229004"><ele>95.0</ele><time>2026-04-12T09:45:10.142Z</time></trkpt><trkpt lat="43.7983803" lon="12.7228706"><ele>95.0</ele><time>2026-04-12T09:45:11.145Z</time></trkpt><trkpt lat="43.7982064" lon="12.7228476"><ele>95.66666666666667</ele><time>2026-04-12T09:45:12.144Z</time></trkpt><trkpt lat="43.7980333" lon="12.7228267"><ele>96.33333333333334</ele><time>2026-04-12T09:45:13.144Z</time></trkpt><trkpt lat="43.7978619" lon="12.7228056"><ele>97.0</ele><time>2026-04-12T09:45:14.144Z</time></trkpt><trkpt lat="43.7976924" lon="12.7227839"><ele>97.33333333333334</ele><time>2026-04-12T09:45:15.143Z</time></trkpt><trkpt lat="43.7975311" lon="12.722759"><ele>97.66666666666666</ele><time>2026-04-12T09:45:16.143Z</time></trkpt><trkpt lat="43.7973791" lon="12.7227343"><ele>98.0</ele><time>2026-04-12T09:45:17.144Z</time></trkpt><trkpt lat="43.7972268" lon="12.7227118"><ele>99.75</ele><time>2026-04-12T09:45:18.144Z</time></trkpt><trkpt lat="43.79708" lon="12.7226893"><ele>101.5</ele><time>2026-04-12T09:45:19.143Z</time></trkpt><trkpt lat="43.7969467" lon="12.7226697"><ele>103.25</ele><time>2026-04-12T09:45:20.143Z</time></trkpt><trkpt lat="43.796831" lon="12.7226499"><ele>105.0</ele><time>2026-04-12T09:45:21.143Z</time></trkpt><trkpt lat="43.7967228" lon="12.7226088"><ele>105.25</ele><time>2026-04-12T09:45:22.144Z</time></trkpt><trkpt lat="43.7966343" lon="12.7225324"><ele>105.5</ele><time>2026-04-12T09:45:23.142Z</time></trkpt><trkpt lat="43.7965575" lon="12.7224295"><ele>105.75</ele><time>2026-04-12T09:45:24.144Z</time></trkpt><trkpt lat="43.7964816" lon="12.722307"><ele>106.0</ele><time>2026-04-12T09:45:25.144Z</time></trkpt><trkpt lat="43.796394" lon="12.7221742"><ele>106.0</ele><time>2026-04-12T09:45:26.144Z</time></trkpt><trkpt lat="43.7962954" lon="12.7220321"><ele>106.0</ele><time>2026-04-12T09:45:27.144Z</time></trkpt><trkpt lat="43.7961909" lon="12.7218778"><ele>106.0</ele><time>2026-04-12T09:45:28.143Z</time></trkpt><trkpt lat="43.7960794" lon="12.7217239"><ele>105.0</ele><time>2026-04-12T09:45:29.144Z</time></trkpt><trkpt lat="43.7959599" lon="12.7215689"><ele>104.0</ele><time>2026-04-12T09:45:30.144Z</time></trkpt><trkpt lat="43.7958333" lon="12.7214126"><ele>103.0</ele><time>2026-04-12T09:45:31.143Z</time></trkpt><trkpt lat="43.7956906" lon="12.7212561"><ele>103.0</ele><time>2026-04-12T09:45:32.144Z</time></trkpt><trkpt lat="43.7955381" lon="12.7210968"><ele>103.0</ele><time>2026-04-12T09:45:33.143Z</time></trkpt><trkpt lat="43.7953768" lon="12.720934"><ele>103.0</ele><time>2026-04-12T09:45:34.143Z</time></trkpt><trkpt lat="43.7952128" lon="12.7207712"><ele>103.66666666666667</ele><time>2026-04-12T09:45:35.142Z</time></trkpt><trkpt lat="43.7950527" lon="12.7206078"><ele>104.33333333333334</ele><time>2026-04-12T09:45:36.143Z</time></trkpt><trkpt lat="43.7948979" lon="12.7204454"><ele>105.0</ele><time>2026-04-12T09:45:37.142Z</time></trkpt><trkpt lat="43.7947485" lon="12.7202847"><ele>106.66666666666666</ele><time>2026-04-12T09:45:38.143Z</time></trkpt><trkpt lat="43.7946073" lon="12.7201165"><ele>108.33333333333333</ele><time>2026-04-12T09:45:39.144Z</time></trkpt><trkpt lat="43.794473" lon="12.7199318"><ele>110.0</ele><time>2026-04-12T09:45:40.142Z</time></trkpt><trkpt lat="43.7943486" lon="12.7197458"><ele>108.33333333333333</ele><time>2026-04-12T09:45:41.147Z</time></trkpt><trkpt lat="43.7942277" lon="12.7195724"><ele>106.66666666666666</ele><time>2026-04-12T09:45:42.143Z</time></trkpt><trkpt lat="43.7941123" lon="12.7194176"><ele>105.0</ele><time>2026-04-12T09:45:43.142Z</time></trkpt><trkpt lat="43.794007" lon="12.7192752"><ele>107.5</ele><time>2026-04-12T09:45:44.145Z</time></trkpt><trkpt lat="43.7939107" lon="12.7191399"><ele>110.0</ele><time>2026-04-12T09:45:45.143Z</time></trkpt><trkpt lat="43.7938236" lon="12.7190056"><ele>112.5</ele><time>2026-04-12T09:45:46.142Z</time></trkpt><trkpt lat="43.7937336" lon="12.7188746"><ele>115.0</ele><time>2026-04-12T09:45:47.143Z</time></trkpt><trkpt lat="43.7936319" lon="12.7187603"><ele>115.0</ele><time>2026-04-12T09:45:48.144Z</time></trkpt><trkpt lat="43.793521" lon="12.7186665"><ele>115.0</ele><time>2026-04-12T09:45:49.146Z</time></trkpt><trkpt lat="43.7933981" lon="12.7185991"><ele>115.0</ele><time>2026-04-12T09:45:50.145Z</time></trkpt><trkpt lat="43.7932686" lon="12.7185455"><ele>115.0</ele><time>2026-04-12T09:45:51.142Z</time></trkpt><trkpt lat="43.7931374" lon="12.7185048"><ele>114.75</ele><time>2026-04-12T09:45:52.142Z</time></trkpt><trkpt lat="43.7930051" lon="12.7184624"><ele>114.5</ele><time>2026-04-12T09:45:53.143Z</time></trkpt><trkpt lat="43.7928756" lon="12.7184203"><ele>114.25</ele><time>2026-04-12T09:45:54.142Z</time></trkpt><trkpt lat="43.7927495" lon="12.7183825"><ele>114.0</ele><time>2026-04-12T09:45:55.142Z</time></trkpt><trkpt lat="43.7926232" lon="12.7183447"><ele>115.5</ele><time>2026-04-12T09:45:56.143Z</time></trkpt><trkpt lat="43.7924953" lon="12.7183125"><ele>117.0</ele><time>2026-04-12T09:45:57.144Z</time></trkpt><trkpt lat="43.7923653" lon="12.7183007"><ele>118.5</ele><time>2026-04-12T09:45:58.143Z</time></trkpt><trkpt lat="43.7922353" lon="12.7183085"><ele>120.0</ele><time>2026-04-12T09:45:59.142Z</time></trkpt><trkpt lat="43.7921067" lon="12.7183413"><ele>120.0</ele><time>2026-04-12T09:46:00.148Z</time></trkpt><trkpt lat="43.791977" lon="12.7183968"><ele>120.0</ele><time>2026-04-12T09:46:01.142Z</time></trkpt><trkpt lat="43.791855" lon="12.7184772"><ele>120.0</ele><time>2026-04-12T09:46:02.143Z</time></trkpt><trkpt lat="43.7917445" lon="12.7185755"><ele>120.0</ele><time>2026-04-12T09:46:03.143Z</time></trkpt><trkpt lat="43.7916424" lon="12.7186865"><ele>116.5</ele><time>2026-04-12T09:46:04.143Z</time></trkpt><trkpt lat="43.7915449" lon="12.7188078"><ele>113.0</ele><time>2026-04-12T09:46:05.146Z</time></trkpt><trkpt lat="43.7914495" lon="12.7189333"><ele>109.5</ele><time>2026-04-12T09:46:06.143Z</time></trkpt><trkpt lat="43.7913438" lon="12.7190472"><ele>106.0</ele><time>2026-04-12T09:46:07.143Z</time></trkpt><trkpt lat="43.791227" lon="12.7191363"><ele>106.0</ele><time>2026-04-12T09:46:08.143Z</time></trkpt><trkpt lat="43.7911047" lon="12.719199"><ele>106.0</ele><time>2026-04-12T09:46:09.145Z</time></trkpt><trkpt lat="43.7909756" lon="12.7192325"><ele>106.0</ele><time>2026-04-12T09:46:10.144Z</time></trkpt><trkpt lat="43.7908438" lon="12.7192381"><ele>106.0</ele><time>2026-04-12T09:46:11.143Z</time></trkpt><trkpt lat="43.7907155" lon="12.7192189"><ele>107.75</ele><time>2026-04-12T09:46:12.144Z</time></trkpt><trkpt lat="43.7905901" lon="12.7191759"><ele>109.5</ele><time>2026-04-12T09:46:13.143Z</time></trkpt><trkpt lat="43.7904665" lon="12.7191201"><ele>111.25</ele><time>2026-04-12T09:46:14.144Z</time></trkpt><trkpt lat="43.7903435" lon="12.7190482"><ele>113.0</ele><time>2026-04-12T09:46:15.143Z</time></trkpt><trkpt lat="43.7902193" lon="12.718973"><ele>113.5</ele><time>2026-04-12T09:46:16.143Z</time></trkpt><trkpt lat="43.7901024" lon="12.7188935"><ele>114.0</ele><time>2026-04-12T09:46:17.143Z</time></trkpt><trkpt lat="43.7899848" lon="12.7188135"><ele>114.5</ele><time>2026-04-12T09:46:18.143Z</time></trkpt><trkpt lat="43.7898681" lon="12.7187385"><ele>115.0</ele><time>2026-04-12T09:46:19.143Z</time></trkpt><trkpt lat="43.7897551" lon="12.7186701"><ele>115.0</ele><time>2026-04-12T09:46:20.144Z</time></trkpt><trkpt lat="43.7896505" lon="12.7186011"><ele>115.0</ele><time>2026-04-12T09:46:21.143Z</time></trkpt><trkpt lat="43.7895401" lon="12.7185283"><ele>115.0</ele><time>2026-04-12T09:46:22.142Z</time></trkpt><trkpt lat="43.7894059" lon="12.7184432"><ele>115.0</ele><time>2026-04-12T09:46:23.142Z</time></trkpt><trkpt lat="43.7892579" lon="12.7183429"><ele>116.33333333333334</ele><time>2026-04-12T09:46:24.143Z</time></trkpt><trkpt lat="43.7891069" lon="12.7182353"><ele>117.66666666666666</ele><time>2026-04-12T09:46:25.143Z</time></trkpt><trkpt lat="43.7889468" lon="12.7181265"><ele>119.0</ele><time>2026-04-12T09:46:26.143Z</time></trkpt><trkpt lat="43.7887903" lon="12.7180282"><ele>119.0</ele><time>2026-04-12T09:46:27.143Z</time></trkpt><trkpt lat="43.7886491" lon="12.7179179"><ele>119.0</ele><time>2026-04-12T09:46:28.143Z</time></trkpt><trkpt lat="43.7885291" lon="12.7177993"><ele>119.0</ele><time>2026-04-12T09:46:29.143Z</time></trkpt><trkpt lat="43.7884208" lon="12.7176747"><ele>118.25</ele><time>2026-04-12T09:46:30.142Z</time></trkpt><trkpt lat="43.7883301" lon="12.7175513"><ele>117.5</ele><time>2026-04-12T09:46:31.142Z</time></trkpt><trkpt lat="43.7882495" lon="12.71743"><ele>116.75</ele><time>2026-04-12T09:46:32.145Z</time></trkpt><trkpt lat="43.7881727" lon="12.7173095"><ele>116.0</ele><time>2026-04-12T09:46:33.144Z</time></trkpt><trkpt lat="43.7881027" lon="12.7171887"><ele>116.0</ele><time>2026-04-12T09:46:34.143Z</time></trkpt><trkpt lat="43.7880394" lon="12.7170626"><ele>116.0</ele><time>2026-04-12T09:46:35.143Z</time></trkpt><trkpt lat="43.7879863" lon="12.7169334"><ele>116.0</ele><time>2026-04-12T09:46:36.142Z</time></trkpt><trkpt lat="43.7879367" lon="12.7168128"><ele>116.0</ele><time>2026-04-12T09:46:37.143Z</time></trkpt><trkpt lat="43.7878852" lon="12.7167011"><ele>116.0</ele><time>2026-04-12T09:46:38.143Z</time></trkpt><trkpt lat="43.7878346" lon="12.7165943"><ele>116.49999999999999</ele><time>2026-04-12T09:46:39.143Z</time></trkpt><trkpt lat="43.7877867" lon="12.7164944"><ele>117.0</ele><time>2026-04-12T09:46:40.143Z</time></trkpt><trkpt lat="43.7877401" lon="12.7164076"><ele>117.5</ele><time>2026-04-12T09:46:41.143Z</time></trkpt><trkpt lat="43.7876885" lon="12.7163323"><ele>118.0</ele><time>2026-04-12T09:46:42.142Z</time></trkpt><trkpt lat="43.7876329" lon="12.716281"><ele>118.49999999999999</ele><time>2026-04-12T09:46:43.142Z</time></trkpt><trkpt lat="43.7875646" lon="12.7162921"><ele>119.0</ele><time>2026-04-12T09:46:44.143Z</time></trkpt><trkpt lat="43.7874864" lon="12.7163446"><ele>117.0</ele><time>2026-04-12T09:46:45.143Z</time></trkpt><trkpt lat="43.7874017" lon="12.716449"><ele>115.0</ele><time>2026-04-12T09:46:46.142Z</time></trkpt><trkpt lat="43.7873078" lon="12.7165904"><ele>113.0</ele><time>2026-04-12T09:46:47.143Z</time></trkpt><trkpt lat="43.7871825" lon="12.7167545"><ele>111.0</ele><time>2026-04-12T09:46:48.143Z</time></trkpt><trkpt lat="43.7870454" lon="12.7169042"><ele>111.0</ele><time>2026-04-12T09:46:49.143Z</time></trkpt><trkpt lat="43.7869039" lon="12.7170165"><ele>111.0</ele><time>2026-04-12T09:46:50.143Z</time></trkpt><trkpt lat="43.7867585" lon="12.7170923"><ele>111.0</ele><time>2026-04-12T09:46:51.143Z</time></trkpt><trkpt lat="43.7866004" lon="12.7171239"><ele>109.5</ele><time>2026-04-12T09:46:52.142Z</time></trkpt><trkpt lat="43.7864409" lon="12.7171345"><ele>108.0</ele><time>2026-04-12T09:46:53.144Z</time></trkpt><trkpt lat="43.7862925" lon="12.7171309"><ele>106.5</ele><time>2026-04-12T09:46:54.143Z</time></trkpt><trkpt lat="43.7861512" lon="12.7171292"><ele>105.0</ele><time>2026-04-12T09:46:55.142Z</time></trkpt><trkpt lat="43.7860155" lon="12.7171279"><ele>105.0</ele><time>2026-04-12T09:46:56.143Z</time></trkpt><trkpt lat="43.7858811" lon="12.7171288"><ele>105.0</ele><time>2026-04-12T09:46:57.144Z</time></trkpt><trkpt lat="43.7857493" lon="12.7171289"><ele>105.0</ele><time>2026-04-12T09:46:58.143Z</time></trkpt><trkpt lat="43.7856172" lon="12.7171334"><ele>105.0</ele><time>2026-04-12T09:46:59.144Z</time></trkpt><trkpt lat="43.7854926" lon="12.7171445"><ele>105.0</ele><time>2026-04-12T09:47:00.143Z</time></trkpt><trkpt lat="43.7853731" lon="12.7171618"><ele>105.0</ele><time>2026-04-12T09:47:01.144Z</time></trkpt><trkpt lat="43.7852606" lon="12.7172061"><ele>105.0</ele><time>2026-04-12T09:47:02.144Z</time></trkpt><trkpt lat="43.78516" lon="12.7172732"><ele>105.0</ele><time>2026-04-12T09:47:03.142Z</time></trkpt><trkpt lat="43.785063" lon="12.7173682"><ele>104.5</ele><time>2026-04-12T09:47:04.142Z</time></trkpt><trkpt lat="43.7849757" lon="12.7174849"><ele>104.0</ele><time>2026-04-12T09:47:05.142Z</time></trkpt><trkpt lat="43.7848938" lon="12.7176168"><ele>103.5</ele><time>2026-04-12T09:47:06.142Z</time></trkpt><trkpt lat="43.7848189" lon="12.7177539"><ele>103.0</ele><time>2026-04-12T09:47:07.144Z</time></trkpt><trkpt lat="43.7847432" lon="12.7178907"><ele>103.0</ele><time>2026-04-12T09:47:08.144Z</time></trkpt><trkpt lat="43.7846689" lon="12.7180221"><ele>103.0</ele><time>2026-04-12T09:47:09.143Z</time></trkpt><trkpt lat="43.7845964" lon="12.7181459"><ele>103.0</ele><time>2026-04-12T09:47:10.145Z</time></trkpt><trkpt lat="43.7845289" lon="12.7182648"><ele>103.0</ele><time>2026-04-12T09:47:11.142Z</time></trkpt><trkpt lat="43.7844613" lon="12.7183775"><ele>103.0</ele><time>2026-04-12T09:47:12.142Z</time></trkpt><trkpt lat="43.7843963" lon="12.7184937"><ele>103.0</ele><time>2026-04-12T09:47:13.142Z</time></trkpt><trkpt lat="43.7843373" lon="12.7186032"><ele>103.0</ele><time>2026-04-12T09:47:14.144Z</time></trkpt><trkpt lat="43.7842796" lon="12.7187076"><ele>103.0</ele><time>2026-04-12T09:47:15.144Z</time></trkpt><trkpt lat="43.7842221" lon="12.7188135"><ele>103.0</ele><time>2026-04-12T09:47:16.142Z</time></trkpt><trkpt lat="43.7841759" lon="12.7189247"><ele>104.60000000000001</ele><time>2026-04-12T09:47:17.143Z</time></trkpt><trkpt lat="43.7841401" lon="12.7190364"><ele>106.2</ele><time>2026-04-12T09:47:18.144Z</time></trkpt><trkpt lat="43.7841142" lon="12.7191532"><ele>107.8</ele><time>2026-04-12T09:47:19.144Z</time></trkpt><trkpt lat="43.7841165" lon="12.7192811"><ele>109.4</ele><time>2026-04-12T09:47:20.144Z</time></trkpt><trkpt lat="43.7841345" lon="12.7194151"><ele>111.0</ele><time>2026-04-12T09:47:21.144Z</time></trkpt><trkpt lat="43.7841673" lon="12.7195465"><ele>112.6</ele><time>2026-04-12T09:47:22.144Z</time></trkpt><trkpt lat="43.7842154" lon="12.7196674"><ele>114.19999999999999</ele><time>2026-04-12T09:47:23.144Z</time></trkpt><trkpt lat="43.7842769" lon="12.719775"><ele>115.80000000000001</ele><time>2026-04-12T09:47:24.145Z</time></trkpt><trkpt lat="43.7843526" lon="12.7198599"><ele>117.4</ele><time>2026-04-12T09:47:25.144Z</time></trkpt><trkpt lat="43.7844314" lon="12.7199266"><ele>119.0</ele><time>2026-04-12T09:47:26.146Z</time></trkpt><trkpt lat="43.7845125" lon="12.7199864"><ele>119.0</ele><time>2026-04-12T09:47:27.143Z</time></trkpt><trkpt lat="43.7846017" lon="12.7200303"><ele>119.0</ele><time>2026-04-12T09:47:28.143Z</time></trkpt><trkpt lat="43.7846966" lon="12.7200611"><ele>119.0</ele><time>2026-04-12T09:47:29.144Z</time></trkpt><trkpt lat="43.7847962" lon="12.7200889"><ele>119.0</ele><time>2026-04-12T09:47:30.144Z</time></trkpt><trkpt lat="43.7848963" lon="12.7201226"><ele>119.0</ele><time>2026-04-12T09:47:31.142Z</time></trkpt><trkpt lat="43.7849809" lon="12.7201765"><ele>121.49999999999999</ele><time>2026-04-12T09:47:32.143Z</time></trkpt><trkpt lat="43.785045" lon="12.7202577"><ele>124.0</ele><time>2026-04-12T09:47:33.143Z</time></trkpt><trkpt lat="43.7850947" lon="12.7203557"><ele>126.5</ele><time>2026-04-12T09:47:34.142Z</time></trkpt><trkpt lat="43.7851035" lon="12.7204553"><ele>129.0</ele><time>2026-04-12T09:47:35.142Z</time></trkpt><trkpt lat="43.7850861" lon="12.7205486"><ele>131.5</ele><time>2026-04-12T09:47:36.143Z</time></trkpt><trkpt lat="43.7850616" lon="12.7206302"><ele>134.0</ele><time>2026-04-12T09:47:37.142Z</time></trkpt><trkpt lat="43.7850436" lon="12.7207702"><ele>134.0</ele><time>2026-04-12T09:47:39.143Z</time></trkpt><trkpt lat="43.7851051" lon="12.7208745"><ele>134.0</ele><time>2026-04-12T09:47:41.142Z</time></trkpt><trkpt lat="43.7851844" lon="12.7209029"><ele>134.0</ele><time>2026-04-12T09:47:42.142Z</time></trkpt><trkpt lat="43.7852795" lon="12.7209357"><ele>134.0</ele><time>2026-04-12T09:47:43.143Z</time></trkpt><trkpt lat="43.7853848" lon="12.7209758"><ele>134.0</ele><time>2026-04-12T09:47:44.142Z</time></trkpt><trkpt lat="43.7854893" lon="12.7210161"><ele>133.4</ele><time>2026-04-12T09:47:45.143Z</time></trkpt><trkpt lat="43.7855959" lon="12.72107"><ele>132.8</ele><time>2026-04-12T09:47:46.141Z</time></trkpt><trkpt lat="43.7856986" lon="12.7211346"><ele>132.2</ele><time>2026-04-12T09:47:47.144Z</time></trkpt><trkpt lat="43.7857975" lon="12.7212032"><ele>131.6</ele><time>2026-04-12T09:47:48.145Z</time></trkpt><trkpt lat="43.7858943" lon="12.7212652"><ele>131.0</ele><time>2026-04-12T09:47:49.144Z</time></trkpt><trkpt lat="43.7859978" lon="12.7213254"><ele>126.0</ele><time>2026-04-12T09:47:50.143Z</time></trkpt><trkpt lat="43.7861084" lon="12.7213919"><ele>121.0</ele><time>2026-04-12T09:47:51.143Z</time></trkpt><trkpt lat="43.7862272" lon="12.7214755"><ele>116.0</ele><time>2026-04-12T09:47:52.144Z</time></trkpt><trkpt lat="43.7863439" lon="12.7215697"><ele>111.0</ele><time>2026-04-12T09:47:53.144Z</time></trkpt><trkpt lat="43.7864583" lon="12.7216665"><ele>111.0</ele><time>2026-04-12T09:47:54.144Z</time></trkpt><trkpt lat="43.7865693" lon="12.7217561"><ele>111.0</ele><time>2026-04-12T09:47:55.144Z</time></trkpt><trkpt lat="43.7866777" lon="12.7218414"><ele>111.0</ele><time>2026-04-12T09:47:56.144Z</time></trkpt><trkpt lat="43.7867823" lon="12.7219221"><ele>111.0</ele><time>2026-04-12T09:47:57.142Z</time></trkpt><trkpt lat="43.7868923" lon="12.7220049"><ele>110.5</ele><time>2026-04-12T09:47:58.143Z</time></trkpt><trkpt lat="43.7870028" lon="12.7220908"><ele>110.0</ele><time>2026-04-12T09:47:59.143Z</time></trkpt><trkpt lat="43.7871131" lon="12.7221725"><ele>109.5</ele><time>2026-04-12T09:48:00.143Z</time></trkpt><trkpt lat="43.7872257" lon="12.7222527"><ele>109.0</ele><time>2026-04-12T09:48:01.144Z</time></trkpt><trkpt lat="43.7873352" lon="12.722336"><ele>109.0</ele><time>2026-04-12T09:48:02.143Z</time></trkpt><trkpt lat="43.7874422" lon="12.7224234"><ele>109.0</ele><time>2026-04-12T09:48:03.143Z</time></trkpt><trkpt lat="43.7875474" lon="12.7225092"><ele>109.0</ele><time>2026-04-12T09:48:04.142Z</time></trkpt><trkpt lat="43.7876526" lon="12.7225967"><ele>109.0</ele><time>2026-04-12T09:48:05.142Z</time></trkpt><trkpt lat="43.7877627" lon="12.7226771"><ele>108.5</ele><time>2026-04-12T09:48:06.144Z</time></trkpt><trkpt lat="43.787872" lon="12.7227507"><ele>108.0</ele><time>2026-04-12T09:48:07.143Z</time></trkpt><trkpt lat="43.7879791" lon="12.7228263"><ele>107.5</ele><time>2026-04-12T09:48:08.144Z</time></trkpt><trkpt lat="43.7880868" lon="12.7229062"><ele>107.0</ele><time>2026-04-12T09:48:09.145Z</time></trkpt><trkpt lat="43.7881922" lon="12.7229871"><ele>107.0</ele><time>2026-04-12T09:48:10.143Z</time></trkpt><trkpt lat="43.7882969" lon="12.723066"><ele>107.0</ele><time>2026-04-12T09:48:11.142Z</time></trkpt><trkpt lat="43.7883991" lon="12.7231472"><ele>107.0</ele><time>2026-04-12T09:48:12.144Z</time></trkpt><trkpt lat="43.7885002" lon="12.723228"><ele>107.0</ele><time>2026-04-12T09:48:13.142Z</time></trkpt><trkpt lat="43.7885974" lon="12.7233138"><ele>105.39999999999999</ele><time>2026-04-12T09:48:14.143Z</time></trkpt><trkpt lat="43.7886934" lon="12.7234038"><ele>103.79999999999998</ele><time>2026-04-12T09:48:15.143Z</time></trkpt><trkpt lat="43.7887866" lon="12.7235003"><ele>102.2</ele><time>2026-04-12T09:48:16.14Z</time></trkpt><trkpt lat="43.7888736" lon="12.7235998"><ele>100.6</ele><time>2026-04-12T09:48:17.142Z</time></trkpt><trkpt lat="43.788954" lon="12.7236921"><ele>99.0</ele><time>2026-04-12T09:48:18.142Z</time></trkpt><trkpt lat="43.7890222" lon="12.7237851"><ele>99.0</ele><time>2026-04-12T09:48:19.141Z</time></trkpt><trkpt lat="43.7890828" lon="12.7238781"><ele>99.0</ele><time>2026-04-12T09:48:20.142Z</time></trkpt><trkpt lat="43.7891416" lon="12.7239661"><ele>99.0</ele><time>2026-04-12T09:48:21.141Z</time></trkpt><trkpt lat="43.7891865" lon="12.7240535"><ele>99.0</ele><time>2026-04-12T09:48:22.141Z</time></trkpt><trkpt lat="43.789222" lon="12.7241294"><ele>99.0</ele><time>2026-04-12T09:48:23.141Z</time></trkpt><trkpt lat="43.7892958" lon="12.724221"><ele>99.0</ele><time>2026-04-12T09:48:25.143Z</time></trkpt><trkpt lat="43.7893824" lon="12.724223"><ele>98.83333333333333</ele><time>2026-04-12T09:48:27.142Z</time></trkpt><trkpt lat="43.7894627" lon="12.7241938"><ele>98.66666666666666</ele><time>2026-04-12T09:48:29.14Z</time></trkpt><trkpt lat="43.7895308" lon="12.7242033"><ele>98.5</ele><time>2026-04-12T09:48:31.142Z</time></trkpt><trkpt lat="43.7895996" lon="12.7242419"><ele>98.33333333333333</ele><time>2026-04-12T09:48:33.141Z</time></trkpt><trkpt lat="43.789658" lon="12.7242758"><ele>98.16666666666666</ele><time>2026-04-12T09:48:35.14Z</time></trkpt><trkpt lat="43.7897233" lon="12.7243086"><ele>98.0</ele><time>2026-04-12T09:48:51.142Z</time></trkpt><trkpt lat="43.789822" lon="12.7243358"><ele>98.0</ele><time>2026-04-12T09:48:52.142Z</time></trkpt><trkpt lat="43.7899411" lon="12.724368"><ele>98.0</ele><time>2026-04-12T09:48:53.141Z</time></trkpt><trkpt lat="43.790064" lon="12.7244023"><ele>98.0</ele><time>2026-04-12T09:48:54.142Z</time></trkpt><trkpt lat="43.7902042" lon="12.7244335"><ele>98.0</ele><time>2026-04-12T09:48:55.142Z</time></trkpt><trkpt lat="43.7903403" lon="12.7244764"><ele>101.0</ele><time>2026-04-12T09:48:56.141Z</time></trkpt><trkpt lat="43.7904741" lon="12.7245271"><ele>104.0</ele><time>2026-04-12T09:48:57.14Z</time></trkpt><trkpt lat="43.7906086" lon="12.7245602"><ele>107.0</ele><time>2026-04-12T09:48:58.141Z</time></trkpt><trkpt lat="43.7907347" lon="12.7245652"><ele>110.0</ele><time>2026-04-12T09:48:59.142Z</time></trkpt><trkpt lat="43.790856" lon="12.7245682"><ele>110.0</ele><time>2026-04-12T09:49:00.142Z</time></trkpt><trkpt lat="43.7909861" lon="12.7245532"><ele>110.0</ele><time>2026-04-12T09:49:01.142Z</time></trkpt><trkpt lat="43.7911033" lon="12.7245309"><ele>110.0</ele><time>2026-04-12T09:49:02.141Z</time></trkpt><trkpt lat="43.7912057" lon="12.7245048"><ele>110.0</ele><time>2026-04-12T09:49:03.142Z</time></trkpt><trkpt lat="43.7912919" lon="12.7244799"><ele>110.0</ele><time>2026-04-12T09:49:04.142Z</time></trkpt><trkpt lat="43.7913608" lon="12.7244544"><ele>110.85714285714285</ele><time>2026-04-12T09:49:05.142Z</time></trkpt><trkpt lat="43.7914271" lon="12.7244356"><ele>111.71428571428572</ele><time>2026-04-12T09:49:06.142Z</time></trkpt><trkpt lat="43.7914951" lon="12.724424"><ele>112.57142857142858</ele><time>2026-04-12T09:49:07.142Z</time></trkpt><trkpt lat="43.7915597" lon="12.7244372"><ele>113.42857142857143</ele><time>2026-04-12T09:49:08.141Z</time></trkpt><trkpt lat="43.7916157" lon="12.7244807"><ele>114.28571428571429</ele><time>2026-04-12T09:49:09.142Z</time></trkpt><trkpt lat="43.7916699" lon="12.7245489"><ele>115.14285714285715</ele><time>2026-04-12T09:49:10.142Z</time></trkpt><trkpt lat="43.7917213" lon="12.7246574"><ele>116.00000000000001</ele><time>2026-04-12T09:49:11.142Z</time></trkpt><trkpt lat="43.7917785" lon="12.7247923"><ele>116.6</ele><time>2026-04-12T09:49:12.142Z</time></trkpt><trkpt lat="43.7918431" lon="12.7249235"><ele>117.19999999999999</ele><time>2026-04-12T09:49:13.142Z</time></trkpt><trkpt lat="43.7919148" lon="12.7250284"><ele>117.80000000000001</ele><time>2026-04-12T09:49:14.142Z</time></trkpt><trkpt lat="43.7919911" lon="12.725099"><ele>118.4</ele><time>2026-04-12T09:49:15.142Z</time></trkpt><trkpt lat="43.7920656" lon="12.725141"><ele>119.0</ele><time>2026-04-12T09:49:16.141Z</time></trkpt><trkpt lat="43.7921342" lon="12.7251656"><ele>118.99999999999999</ele><time>2026-04-12T09:49:17.142Z</time></trkpt><trkpt lat="43.7922387" lon="12.7252093"><ele>119.0</ele><time>2026-04-12T09:49:19.142Z</time></trkpt><trkpt lat="43.7923053" lon="12.725276"><ele>119.0</ele><time>2026-04-12T09:49:21.142Z</time></trkpt><trkpt lat="43.7922963" lon="12.7253982"><ele>119.0</ele><time>2026-04-12T09:49:24.141Z</time></trkpt><trkpt lat="43.792208" lon="12.7254588"><ele>118.99999999999999</ele><time>2026-04-12T09:49:26.141Z</time></trkpt><trkpt lat="43.792144" lon="12.7254777"><ele>119.0</ele><time>2026-04-12T09:49:27.142Z</time></trkpt><trkpt lat="43.7920794" lon="12.7255179"><ele>120.6</ele><time>2026-04-12T09:49:28.142Z</time></trkpt><trkpt lat="43.7920142" lon="12.725586"><ele>122.2</ele><time>2026-04-12T09:49:29.142Z</time></trkpt><trkpt lat="43.7919494" lon="12.7256787"><ele>123.79999999999998</ele><time>2026-04-12T09:49:30.141Z</time></trkpt><trkpt lat="43.7918929" lon="12.7257828"><ele>125.39999999999999</ele><time>2026-04-12T09:49:31.141Z</time></trkpt><trkpt lat="43.791843" lon="12.7259042"><ele>127.0</ele><time>2026-04-12T09:49:32.141Z</time></trkpt><trkpt lat="43.7917962" lon="12.7260533"><ele>131.33333333333334</ele><time>2026-04-12T09:49:33.14Z</time></trkpt><trkpt lat="43.7917445" lon="12.7262436"><ele>135.66666666666666</ele><time>2026-04-12T09:49:34.141Z</time></trkpt><trkpt lat="43.7916889" lon="12.7264697"><ele>140.0</ele><time>2026-04-12T09:49:35.142Z</time></trkpt><trkpt lat="43.7916211" lon="12.7267291"><ele>143.66666666666666</ele><time>2026-04-12T09:49:36.143Z</time></trkpt><trkpt lat="43.7915505" lon="12.7269821"><ele>147.33333333333334</ele><time>2026-04-12T09:49:37.142Z</time></trkpt><trkpt lat="43.791489" lon="12.7272013"><ele>151.0</ele><time>2026-04-12T09:49:38.142Z</time></trkpt><trkpt lat="43.7914363" lon="12.7273894"><ele>151.0</ele><time>2026-04-12T09:49:39.141Z</time></trkpt><trkpt lat="43.7913935" lon="12.7275374"><ele>151.0</ele><time>2026-04-12T09:49:40.142Z</time></trkpt><trkpt lat="43.7913582" lon="12.727657"><ele>151.0</ele><time>2026-04-12T09:49:41.142Z</time></trkpt><trkpt lat="43.7913271" lon="12.7277482"><ele>151.0</ele><time>2026-04-12T09:49:42.142Z</time></trkpt><trkpt lat="43.7912978" lon="12.7278268"><ele>151.0</ele><time>2026-04-12T09:49:43.141Z</time></trkpt><trkpt lat="43.7912748" lon="12.7279103"><ele>151.0</ele><time>2026-04-12T09:49:44.144Z</time></trkpt><trkpt lat="43.7912609" lon="12.7280759"><ele>151.33333333333334</ele><time>2026-04-12T09:49:46.143Z</time></trkpt><trkpt lat="43.7912868" lon="12.7282421"><ele>151.66666666666669</ele><time>2026-04-12T09:49:48.143Z</time></trkpt><trkpt lat="43.7913242" lon="12.7283207"><ele>152.0</ele><time>2026-04-12T09:49:49.141Z</time></trkpt><trkpt lat="43.7913751" lon="12.7283883"><ele>152.33333333333334</ele><time>2026-04-12T09:49:50.147Z</time></trkpt><trkpt lat="43.7914325" lon="12.7284365"><ele>152.66666666666666</ele><time>2026-04-12T09:49:51.143Z</time></trkpt><trkpt lat="43.7914981" lon="12.7284606"><ele>153.0</ele><time>2026-04-12T09:49:52.141Z</time></trkpt><trkpt lat="43.7915728" lon="12.7284637"><ele>153.0</ele><time>2026-04-12T09:49:53.14Z</time></trkpt><trkpt lat="43.7916493" lon="12.7284585"><ele>153.0</ele><time>2026-04-12T09:49:54.141Z</time></trkpt><trkpt lat="43.7917244" lon="12.7284665"><ele>153.0</ele><time>2026-04-12T09:49:55.142Z</time></trkpt><trkpt lat="43.7918044" lon="12.7284893"><ele>153.0</ele><time>2026-04-12T09:49:56.142Z</time></trkpt><trkpt lat="43.7918815" lon="12.7285252"><ele>153.0</ele><time>2026-04-12T09:49:57.142Z</time></trkpt><trkpt lat="43.7919525" lon="12.7285808"><ele>153.0</ele><time>2026-04-12T09:49:58.14Z</time></trkpt><trkpt lat="43.792019" lon="12.7286441"><ele>154.0</ele><time>2026-04-12T09:49:59.141Z</time></trkpt><trkpt lat="43.7920779" lon="12.7287005"><ele>155.0</ele><time>2026-04-12T09:50:00.141Z</time></trkpt><trkpt lat="43.7921838" lon="12.7287946"><ele>156.0</ele><time>2026-04-12T09:50:02.141Z</time></trkpt><trkpt lat="43.7922448" lon="12.728838"><ele>157.0</ele><time>2026-04-12T09:50:03.141Z</time></trkpt><trkpt lat="43.7923083" lon="12.7288736"><ele>158.0</ele><time>2026-04-12T09:50:04.141Z</time></trkpt><trkpt lat="43.7923712" lon="12.7289012"><ele>159.0</ele><time>2026-04-12T09:50:05.141Z</time></trkpt><trkpt lat="43.7924381" lon="12.728922"><ele>159.0</ele><time>2026-04-12T09:50:06.141Z</time></trkpt><trkpt lat="43.7925612" lon="12.7289464"><ele>159.0</ele><time>2026-04-12T09:50:08.142Z</time></trkpt><trkpt lat="43.7926716" lon="12.7290061"><ele>159.0</ele><time>2026-04-12T09:50:10.143Z</time></trkpt><trkpt lat="43.7927655" lon="12.7290699"><ele>159.0</ele><time>2026-04-12T09:50:12.143Z</time></trkpt><trkpt lat="43.7928543" lon="12.7291224"><ele>159.0</ele><time>2026-04-12T09:50:14.143Z</time></trkpt><trkpt lat="43.7929598" lon="12.729205"><ele>161.0</ele><time>2026-04-12T09:50:16.14Z</time></trkpt><trkpt lat="43.7930501" lon="12.7292843"><ele>163.0</ele><time>2026-04-12T09:50:18.141Z</time></trkpt><trkpt lat="43.7931104" lon="12.7293552"><ele>165.0</ele><time>2026-04-12T09:50:20.142Z</time></trkpt><trkpt lat="43.7931496" lon="12.7294416"><ele>167.0</ele><time>2026-04-12T09:50:22.142Z</time></trkpt><trkpt lat="43.7931938" lon="12.7295593"><ele>169.0</ele><time>2026-04-12T09:50:24.14Z</time></trkpt><trkpt lat="43.7932195" lon="12.7296934"><ele>169.0</ele><time>2026-04-12T09:50:26.141Z</time></trkpt><trkpt lat="43.793247" lon="12.7297872"><ele>169.0</ele><time>2026-04-12T09:50:27.14Z</time></trkpt><trkpt lat="43.7932738" lon="12.7298852"><ele>169.0</ele><time>2026-04-12T09:50:28.14Z</time></trkpt><trkpt lat="43.7933024" lon="12.7299798"><ele>169.0</ele><time>2026-04-12T09:50:29.142Z</time></trkpt><trkpt lat="43.7933294" lon="12.7300601"><ele>169.0</ele><time>2026-04-12T09:50:30.142Z</time></trkpt><trkpt lat="43.7933878" lon="12.7302074"><ele>169.0</ele><time>2026-04-12T09:50:32.14Z</time></trkpt><trkpt lat="43.7934283" lon="12.7302926"><ele>169.66666666666669</ele><time>2026-04-12T09:50:33.141Z</time></trkpt><trkpt lat="43.7934759" lon="12.7303708"><ele>170.33333333333334</ele><time>2026-04-12T09:50:34.14Z</time></trkpt><trkpt lat="43.7935186" lon="12.730441"><ele>171.0</ele><time>2026-04-12T09:50:35.14Z</time></trkpt><trkpt lat="43.7936061" lon="12.7305423"><ele>171.66666666666666</ele><time>2026-04-12T09:50:37.141Z</time></trkpt><trkpt lat="43.7936956" lon="12.7306138"><ele>172.33333333333331</ele><time>2026-04-12T09:50:39.143Z</time></trkpt><trkpt lat="43.7937759" lon="12.7306675"><ele>173.0</ele><time>2026-04-12T09:50:41.143Z</time></trkpt><trkpt lat="43.7938647" lon="12.7307322"><ele>173.0</ele><time>2026-04-12T09:50:43.142Z</time></trkpt><trkpt lat="43.7939483" lon="12.7308106"><ele>173.0</ele><time>2026-04-12T09:50:45.141Z</time></trkpt><trkpt lat="43.7940323" lon="12.7308899"><ele>173.0</ele><time>2026-04-12T09:50:47.141Z</time></trkpt><trkpt lat="43.7941059" lon="12.7309728"><ele>173.0</ele><time>2026-04-12T09:50:49.141Z</time></trkpt><trkpt lat="43.7941408" lon="12.7310761"><ele>173.0</ele><time>2026-04-12T09:50:51.141Z</time></trkpt><trkpt lat="43.7940716" lon="12.7311975"><ele>172.33333333333331</ele><time>2026-04-12T09:50:53.141Z</time></trkpt><trkpt lat="43.7940134" lon="12.7312338"><ele>171.66666666666666</ele><time>2026-04-12T09:50:54.14Z</time></trkpt><trkpt lat="43.7939324" lon="12.7313057"><ele>171.0</ele><time>2026-04-12T09:50:56.141Z</time></trkpt><trkpt lat="43.7939086" lon="12.7314262"><ele>170.33333333333334</ele><time>2026-04-12T09:50:58.141Z</time></trkpt><trkpt lat="43.7939252" lon="12.731579"><ele>169.66666666666669</ele><time>2026-04-12T09:51:00.141Z</time></trkpt><trkpt lat="43.793952" lon="12.7316667"><ele>169.0</ele><time>2026-04-12T09:51:01.142Z</time></trkpt><trkpt lat="43.7939791" lon="12.7317525"><ele>169.0</ele><time>2026-04-12T09:51:02.141Z</time></trkpt><trkpt lat="43.7940099" lon="12.7318379"><ele>169.0</ele><time>2026-04-12T09:51:03.141Z</time></trkpt><trkpt lat="43.7940436" lon="12.7319163"><ele>169.0</ele><time>2026-04-12T09:51:04.141Z</time></trkpt><trkpt lat="43.7940975" lon="12.7320386"><ele>169.0</ele><time>2026-04-12T09:51:06.142Z</time></trkpt><trkpt lat="43.7941294" lon="12.7321463"><ele>169.0</ele><time>2026-04-12T09:51:08.141Z</time></trkpt><trkpt lat="43.7940935" lon="12.7322525"><ele>169.0</ele><time>2026-04-12T09:51:10.141Z</time></trkpt><trkpt lat="43.7940144" lon="12.7322984"><ele>172.0</ele><time>2026-04-12T09:51:12.142Z</time></trkpt><trkpt lat="43.7939549" lon="12.7322626"><ele>175.0</ele><time>2026-04-12T09:51:13.14Z</time></trkpt><trkpt lat="43.7938788" lon="12.7322164"><ele>178.0</ele><time>2026-04-12T09:51:14.141Z</time></trkpt><trkpt lat="43.7937971" lon="12.732172"><ele>181.0</ele><time>2026-04-12T09:51:15.142Z</time></trkpt><trkpt lat="43.7937055" lon="12.7321414"><ele>184.0</ele><time>2026-04-12T09:51:16.141Z</time></trkpt><trkpt lat="43.7936112" lon="12.7321113"><ele>187.0</ele><time>2026-04-12T09:51:17.143Z</time></trkpt><trkpt lat="43.7935091" lon="12.7320868"><ele>188.8</ele><time>2026-04-12T09:51:18.141Z</time></trkpt><trkpt lat="43.7934065" lon="12.7320691"><ele>190.6</ele><time>2026-04-12T09:51:19.14Z</time></trkpt><trkpt lat="43.7933148" lon="12.7320401"><ele>192.4</ele><time>2026-04-12T09:51:20.141Z</time></trkpt><trkpt lat="43.7932302" lon="12.731994"><ele>194.20000000000002</ele><time>2026-04-12T09:51:21.14Z</time></trkpt><trkpt lat="43.793154" lon="12.7319411"><ele>196.0</ele><time>2026-04-12T09:51:22.141Z</time></trkpt><trkpt lat="43.7930781" lon="12.7318983"><ele>196.66666666666666</ele><time>2026-04-12T09:51:23.141Z</time></trkpt><trkpt lat="43.7930018" lon="12.731873"><ele>197.33333333333331</ele><time>2026-04-12T09:51:24.142Z</time></trkpt><trkpt lat="43.7929305" lon="12.7318582"><ele>198.0</ele><time>2026-04-12T09:51:25.141Z</time></trkpt><trkpt lat="43.7928594" lon="12.7318381"><ele>198.66666666666669</ele><time>2026-04-12T09:51:26.141Z</time></trkpt><trkpt lat="43.7927471" lon="12.7318712"><ele>199.33333333333334</ele><time>2026-04-12T09:51:28.14Z</time></trkpt><trkpt lat="43.7926661" lon="12.7319305"><ele>200.0</ele><time>2026-04-12T09:51:30.14Z</time></trkpt><trkpt lat="43.7925689" lon="12.7319493"><ele>200.00000000000003</ele><time>2026-04-12T09:52:26.142Z</time></trkpt><trkpt lat="43.7924774" lon="12.7319928"><ele>200.0</ele><time>2026-04-12T09:52:28.141Z</time></trkpt><trkpt lat="43.7923905" lon="12.7320316"><ele>200.0</ele><time>2026-04-12T09:52:30.14Z</time></trkpt><trkpt lat="43.7923101" lon="12.7320698"><ele>200.0</ele><time>2026-04-12T09:52:32.141Z</time></trkpt><trkpt lat="43.7922384" lon="12.7321095"><ele>200.00000000000003</ele><time>2026-04-12T09:52:34.141Z</time></trkpt><trkpt lat="43.7921633" lon="12.7321333"><ele>200.0</ele><time>2026-04-12T09:52:36.14Z</time></trkpt><trkpt lat="43.7921133" lon="12.73219"><ele>200.00000000000003</ele><time>2026-04-12T09:52:38.14Z</time></trkpt><trkpt lat="43.7921533" lon="12.7322583"><ele>200.0</ele><time>2026-04-12T09:52:41.139Z</time></trkpt><trkpt lat="43.79219" lon="12.7321583"><ele>200.0</ele><time>2026-04-12T09:52:45.141Z</time></trkpt><trkpt lat="43.7922417" lon="12.7320917"><ele>200.0</ele><time>2026-04-12T09:52:47.14Z</time></trkpt><trkpt lat="43.79232" lon="12.732055"><ele>200.00000000000003</ele><time>2026-04-12T09:52:49.14Z</time></trkpt><trkpt lat="43.7924033" lon="12.7320183"><ele>200.0</ele><time>2026-04-12T09:52:51.14Z</time></trkpt><trkpt lat="43.7924817" lon="12.7319817"><ele>200.00000000000003</ele><time>2026-04-12T09:52:53.14Z</time></trkpt><trkpt lat="43.7925533" lon="12.7319467"><ele>200.0</ele><time>2026-04-12T09:52:55.141Z</time></trkpt><trkpt lat="43.7926233" lon="12.7319133"><ele>200.0</ele><time>2026-04-12T09:52:58.141Z</time></trkpt><trkpt lat="43.79269" lon="12.7318867"><ele>200.0</ele><time>2026-04-12T09:53:01.142Z</time></trkpt><trkpt lat="43.7927683" lon="12.7318583"><ele>200.00000000000003</ele><time>2026-04-12T09:53:06.141Z</time></trkpt><trkpt lat="43.7928433" lon="12.7318467"><ele>200.0</ele><time>2026-04-12T09:53:08.14Z</time></trkpt><trkpt lat="43.7929367" lon="12.7318317"><ele>199.2</ele><time>2026-04-12T09:53:10.14Z</time></trkpt><trkpt lat="43.7930367" lon="12.7318383"><ele>198.4</ele><time>2026-04-12T09:53:12.14Z</time></trkpt><trkpt lat="43.7931267" lon="12.731875"><ele>197.60000000000002</ele><time>2026-04-12T09:53:14.141Z</time></trkpt><trkpt lat="43.7932217" lon="12.7319317"><ele>196.8</ele><time>2026-04-12T09:53:16.139Z</time></trkpt><trkpt lat="43.7933217" lon="12.73199"><ele>196.0</ele><time>2026-04-12T09:53:18.141Z</time></trkpt><trkpt lat="43.7934283" lon="12.7320383"><ele>194.20000000000002</ele><time>2026-04-12T09:53:20.141Z</time></trkpt><trkpt lat="43.79353" lon="12.7320617"><ele>192.4</ele><time>2026-04-12T09:53:22.141Z</time></trkpt><trkpt lat="43.793635" lon="12.7320867"><ele>190.6</ele><time>2026-04-12T09:53:24.142Z</time></trkpt><trkpt lat="43.7937533" lon="12.732115"><ele>188.8</ele><time>2026-04-12T09:53:26.141Z</time></trkpt><trkpt lat="43.7938567" lon="12.7321533"><ele>187.0</ele><time>2026-04-12T09:53:28.14Z</time></trkpt><trkpt lat="43.7939467" lon="12.7322067"><ele>187.0</ele><time>2026-04-12T09:53:30.141Z</time></trkpt><trkpt lat="43.7940233" lon="12.7322433"><ele>187.0</ele><time>2026-04-12T09:53:32.141Z</time></trkpt><trkpt lat="43.7940867" lon="12.7321833"><ele>187.0</ele><time>2026-04-12T09:53:34.14Z</time></trkpt><trkpt lat="43.7941083" lon="12.7320717"><ele>187.0</ele><time>2026-04-12T09:53:36.142Z</time></trkpt><trkpt lat="43.7940817" lon="12.7319267"><ele>187.0</ele><time>2026-04-12T09:53:38.141Z</time></trkpt><trkpt lat="43.7940483" lon="12.7318483"><ele>187.0</ele><time>2026-04-12T09:53:39.141Z</time></trkpt><trkpt lat="43.79401" lon="12.7317767"><ele>184.0</ele><time>2026-04-12T09:53:40.14Z</time></trkpt><trkpt lat="43.79396" lon="12.7316333"><ele>181.0</ele><time>2026-04-12T09:53:42.141Z</time></trkpt><trkpt lat="43.79394" lon="12.7315"><ele>178.0</ele><time>2026-04-12T09:53:44.141Z</time></trkpt><trkpt lat="43.793935" lon="12.7313883"><ele>175.0</ele><time>2026-04-12T09:53:46.14Z</time></trkpt><trkpt lat="43.7939617" lon="12.7313"><ele>172.0</ele><time>2026-04-12T09:53:48.141Z</time></trkpt><trkpt lat="43.7940267" lon="12.7312317"><ele>169.0</ele><time>2026-04-12T09:53:50.14Z</time></trkpt><trkpt lat="43.7940933" lon="12.7311683"><ele>169.0</ele><time>2026-04-12T09:53:52.14Z</time></trkpt><trkpt lat="43.7941133" lon="12.7310633"><ele>169.0</ele><time>2026-04-12T09:53:54.139Z</time></trkpt><trkpt lat="43.7940717" lon="12.730945"><ele>169.0</ele><time>2026-04-12T09:53:56.144Z</time></trkpt><trkpt lat="43.793975" lon="12.7308583"><ele>169.0</ele><time>2026-04-12T09:53:58.14Z</time></trkpt><trkpt lat="43.7938867" lon="12.7307517"><ele>169.0</ele><time>2026-04-12T09:54:00.139Z</time></trkpt><trkpt lat="43.7937883" lon="12.7306667"><ele>169.79999999999998</ele><time>2026-04-12T09:54:02.14Z</time></trkpt><trkpt lat="43.7937" lon="12.7305933"><ele>170.6</ele><time>2026-04-12T09:54:04.139Z</time></trkpt><trkpt lat="43.7936183" lon="12.730535"><ele>171.4</ele><time>2026-04-12T09:54:06.139Z</time></trkpt><trkpt lat="43.7935317" lon="12.7304467"><ele>172.2</ele><time>2026-04-12T09:54:08.141Z</time></trkpt><trkpt lat="43.793455" lon="12.73033"><ele>173.0</ele><time>2026-04-12T09:54:10.14Z</time></trkpt><trkpt lat="43.79342" lon="12.7302533"><ele>172.42857142857142</ele><time>2026-04-12T09:54:11.142Z</time></trkpt><trkpt lat="43.7933883" lon="12.73017"><ele>171.85714285714286</ele><time>2026-04-12T09:54:12.14Z</time></trkpt><trkpt lat="43.79336" lon="12.73009"><ele>171.28571428571428</ele><time>2026-04-12T09:54:13.14Z</time></trkpt><trkpt lat="43.7933333" lon="12.73001"><ele>170.71428571428572</ele><time>2026-04-12T09:54:14.142Z</time></trkpt><trkpt lat="43.7933033" lon="12.7299283"><ele>170.14285714285714</ele><time>2026-04-12T09:54:15.14Z</time></trkpt><trkpt lat="43.7932733" lon="12.7298167"><ele>169.57142857142858</ele><time>2026-04-12T09:54:16.139Z</time></trkpt><trkpt lat="43.7932483" lon="12.7296883"><ele>169.0</ele><time>2026-04-12T09:54:17.14Z</time></trkpt><trkpt lat="43.79321" lon="12.7295717"><ele>169.0</ele><time>2026-04-12T09:54:18.143Z</time></trkpt><trkpt lat="43.7931683" lon="12.729465"><ele>169.0</ele><time>2026-04-12T09:54:19.14Z</time></trkpt><trkpt lat="43.79312" lon="12.7293833"><ele>169.0</ele><time>2026-04-12T09:54:20.14Z</time></trkpt><trkpt lat="43.79307" lon="12.7293217"><ele>169.0</ele><time>2026-04-12T09:54:21.14Z</time></trkpt><trkpt lat="43.792975" lon="12.7292417"><ele>169.0</ele><time>2026-04-12T09:54:23.139Z</time></trkpt><trkpt lat="43.7928983" lon="12.7291817"><ele>169.0</ele><time>2026-04-12T09:54:25.14Z</time></trkpt><trkpt lat="43.7928367" lon="12.7291167"><ele>167.33333333333334</ele><time>2026-04-12T09:54:36.138Z</time></trkpt><trkpt lat="43.7927533" lon="12.729075"><ele>165.66666666666669</ele><time>2026-04-12T09:54:38.142Z</time></trkpt><trkpt lat="43.7926433" lon="12.72901"><ele>164.0</ele><time>2026-04-12T09:54:40.14Z</time></trkpt><trkpt lat="43.79258" lon="12.7289717"><ele>162.33333333333334</ele><time>2026-04-12T09:54:41.139Z</time></trkpt><trkpt lat="43.7925083" lon="12.7289433"><ele>160.66666666666666</ele><time>2026-04-12T09:54:42.139Z</time></trkpt><trkpt lat="43.7924283" lon="12.7289183"><ele>159.0</ele><time>2026-04-12T09:54:43.138Z</time></trkpt><trkpt lat="43.7923417" lon="12.7288917"><ele>159.0</ele><time>2026-04-12T09:54:44.141Z</time></trkpt><trkpt lat="43.7922683" lon="12.72886"><ele>159.0</ele><time>2026-04-12T09:54:45.138Z</time></trkpt><trkpt lat="43.7921633" lon="12.7288133"><ele>159.0</ele><time>2026-04-12T09:54:47.139Z</time></trkpt><trkpt lat="43.7920783" lon="12.7287433"><ele>159.0</ele><time>2026-04-12T09:54:49.139Z</time></trkpt><trkpt lat="43.79199" lon="12.7286633"><ele>159.0</ele><time>2026-04-12T09:54:51.138Z</time></trkpt><trkpt lat="43.7918817" lon="12.7285633"><ele>158.0</ele><time>2026-04-12T09:54:53.139Z</time></trkpt><trkpt lat="43.7918183" lon="12.7285233"><ele>157.0</ele><time>2026-04-12T09:54:54.14Z</time></trkpt><trkpt lat="43.7917517" lon="12.728485"><ele>156.0</ele><time>2026-04-12T09:54:55.14Z</time></trkpt><trkpt lat="43.7916819" lon="12.7284641"><ele>155.0</ele><time>2026-04-12T09:54:56.139Z</time></trkpt><trkpt lat="43.7916158" lon="12.7284557"><ele>154.0</ele><time>2026-04-12T09:54:57.14Z</time></trkpt><trkpt lat="43.7914994" lon="12.728441"><ele>153.0</ele><time>2026-04-12T09:54:59.143Z</time></trkpt><trkpt lat="43.7913872" lon="12.7283872"><ele>153.0</ele><time>2026-04-12T09:55:01.14Z</time></trkpt><trkpt lat="43.7913017" lon="12.7282828"><ele>153.0</ele><time>2026-04-12T09:55:03.14Z</time></trkpt><trkpt lat="43.7912619" lon="12.7281543"><ele>153.0</ele><time>2026-04-12T09:55:05.14Z</time></trkpt><trkpt lat="43.7912524" lon="12.7280125"><ele>153.0</ele><time>2026-04-12T09:55:07.14Z</time></trkpt><trkpt lat="43.7912735" lon="12.7278561"><ele>153.0</ele><time>2026-04-12T09:55:09.138Z</time></trkpt><trkpt lat="43.7913036" lon="12.7277597"><ele>152.66666666666666</ele><time>2026-04-12T09:55:10.14Z</time></trkpt><trkpt lat="43.791343" lon="12.7276551"><ele>152.33333333333334</ele><time>2026-04-12T09:55:11.14Z</time></trkpt><trkpt lat="43.791383" lon="12.7275432"><ele>152.0</ele><time>2026-04-12T09:55:12.14Z</time></trkpt><trkpt lat="43.7914161" lon="12.7274247"><ele>151.66666666666669</ele><time>2026-04-12T09:55:13.139Z</time></trkpt><trkpt lat="43.7914461" lon="12.7273131"><ele>151.33333333333334</ele><time>2026-04-12T09:55:14.14Z</time></trkpt><trkpt lat="43.791479" lon="12.7272079"><ele>151.0</ele><time>2026-04-12T09:55:15.14Z</time></trkpt><trkpt lat="43.7915143" lon="12.7270936"><ele>151.0</ele><time>2026-04-12T09:55:16.138Z</time></trkpt><trkpt lat="43.7915504" lon="12.726972"><ele>151.0</ele><time>2026-04-12T09:55:17.14Z</time></trkpt><trkpt lat="43.7915842" lon="12.7268507"><ele>151.0</ele><time>2026-04-12T09:55:18.141Z</time></trkpt><trkpt lat="43.7916131" lon="12.7267366"><ele>151.0</ele><time>2026-04-12T09:55:19.14Z</time></trkpt><trkpt lat="43.7916453" lon="12.7266274"><ele>151.0</ele><time>2026-04-12T09:55:20.14Z</time></trkpt><trkpt lat="43.7916784" lon="12.7265168"><ele>151.0</ele><time>2026-04-12T09:55:21.139Z</time></trkpt><trkpt lat="43.7917125" lon="12.7264055"><ele>149.42857142857144</ele><time>2026-04-12T09:55:22.138Z</time></trkpt><trkpt lat="43.7917451" lon="12.7263006"><ele>147.85714285714286</ele><time>2026-04-12T09:55:23.14Z</time></trkpt><trkpt lat="43.791774" lon="12.7261965"><ele>146.28571428571428</ele><time>2026-04-12T09:55:24.139Z</time></trkpt><trkpt lat="43.7917958" lon="12.7261"><ele>144.71428571428572</ele><time>2026-04-12T09:55:25.139Z</time></trkpt><trkpt lat="43.7918212" lon="12.7260126"><ele>143.14285714285714</ele><time>2026-04-12T09:55:26.14Z</time></trkpt><trkpt lat="43.7918493" lon="12.7259282"><ele>141.57142857142858</ele><time>2026-04-12T09:55:27.141Z</time></trkpt><trkpt lat="43.7918786" lon="12.7258446"><ele>140.0</ele><time>2026-04-12T09:55:28.14Z</time></trkpt><trkpt lat="43.7919156" lon="12.725764"><ele>139.6</ele><time>2026-04-12T09:55:29.139Z</time></trkpt><trkpt lat="43.7919619" lon="12.7256936"><ele>139.2</ele><time>2026-04-12T09:55:30.139Z</time></trkpt><trkpt lat="43.7920496" lon="12.7255753"><ele>138.8</ele><time>2026-04-12T09:55:32.14Z</time></trkpt><trkpt lat="43.7921307" lon="12.7254853"><ele>138.4</ele><time>2026-04-12T09:55:34.14Z</time></trkpt><trkpt lat="43.7922014" lon="12.7254349"><ele>138.0</ele><time>2026-04-12T09:55:36.14Z</time></trkpt><trkpt lat="43.7922739" lon="12.7253809"><ele>138.0</ele><time>2026-04-12T09:55:39.139Z</time></trkpt><trkpt lat="43.7922845" lon="12.7252925"><ele>138.0</ele><time>2026-04-12T09:55:42.139Z</time></trkpt><trkpt lat="43.792205" lon="12.7252035"><ele>138.0</ele><time>2026-04-12T09:55:45.139Z</time></trkpt><trkpt lat="43.7920952" lon="12.7251522"><ele>138.0</ele><time>2026-04-12T09:55:47.14Z</time></trkpt><trkpt lat="43.7920182" lon="12.7251165"><ele>138.0</ele><time>2026-04-12T09:55:48.141Z</time></trkpt><trkpt lat="43.7919403" lon="12.7250563"><ele>134.83333333333334</ele><time>2026-04-12T09:55:49.139Z</time></trkpt><trkpt lat="43.7918664" lon="12.7249736"><ele>131.66666666666666</ele><time>2026-04-12T09:55:50.139Z</time></trkpt><trkpt lat="43.7918074" lon="12.7248743"><ele>128.5</ele><time>2026-04-12T09:55:51.138Z</time></trkpt><trkpt lat="43.7917568" lon="12.7247773"><ele>125.33333333333333</ele><time>2026-04-12T09:55:52.139Z</time></trkpt><trkpt lat="43.7917164" lon="12.7246839"><ele>122.16666666666666</ele><time>2026-04-12T09:55:53.139Z</time></trkpt><trkpt lat="43.7916772" lon="12.7246023"><ele>119.0</ele><time>2026-04-12T09:55:54.139Z</time></trkpt><trkpt lat="43.7916378" lon="12.7245297"><ele>118.4</ele><time>2026-04-12T09:55:55.139Z</time></trkpt><trkpt lat="43.7915475" lon="12.7244239"><ele>117.80000000000001</ele><time>2026-04-12T09:55:57.141Z</time></trkpt><trkpt lat="43.7914722" lon="12.7244118"><ele>117.19999999999999</ele><time>2026-04-12T09:55:58.139Z</time></trkpt><trkpt lat="43.7913861" lon="12.7244265"><ele>116.6</ele><time>2026-04-12T09:55:59.139Z</time></trkpt><trkpt lat="43.7912681" lon="12.7244765"><ele>116.0</ele><time>2026-04-12T09:56:00.139Z</time></trkpt><trkpt lat="43.7911508" lon="12.7245088"><ele>116.0</ele><time>2026-04-12T09:56:01.139Z</time></trkpt><trkpt lat="43.7910416" lon="12.7245297"><ele>116.0</ele><time>2026-04-12T09:56:02.139Z</time></trkpt><trkpt lat="43.7909454" lon="12.7245473"><ele>116.0</ele><time>2026-04-12T09:56:03.139Z</time></trkpt><trkpt lat="43.7908426" lon="12.7245613"><ele>116.0</ele><time>2026-04-12T09:56:04.14Z</time></trkpt><trkpt lat="43.7907199" lon="12.7245614"><ele>116.0</ele><time>2026-04-12T09:56:05.139Z</time></trkpt><trkpt lat="43.7905721" lon="12.7245429"><ele>114.0</ele><time>2026-04-12T09:56:06.138Z</time></trkpt><trkpt lat="43.7904045" lon="12.7245029"><ele>112.0</ele><time>2026-04-12T09:56:07.14Z</time></trkpt><trkpt lat="43.7902137" lon="12.7244454"><ele>110.0</ele><time>2026-04-12T09:56:08.14Z</time></trkpt><trkpt lat="43.7900342" lon="12.7243947"><ele>107.0</ele><time>2026-04-12T09:56:09.139Z</time></trkpt><trkpt lat="43.7898878" lon="12.7243495"><ele>104.0</ele><time>2026-04-12T09:56:10.139Z</time></trkpt><trkpt lat="43.7897662" lon="12.7243039"><ele>101.0</ele><time>2026-04-12T09:56:11.138Z</time></trkpt><trkpt lat="43.7896684" lon="12.7242655"><ele>98.0</ele><time>2026-04-12T09:56:12.139Z</time></trkpt><trkpt lat="43.7895937" lon="12.7242358"><ele>98.0</ele><time>2026-04-12T09:56:13.139Z</time></trkpt><trkpt lat="43.7894842" lon="12.7241958"><ele>98.0</ele><time>2026-04-12T09:56:15.139Z</time></trkpt><trkpt lat="43.7894195" lon="12.7241613"><ele>98.0</ele><time>2026-04-12T09:56:17.138Z</time></trkpt><trkpt lat="43.789383" lon="12.7240252"><ele>98.0</ele><time>2026-04-12T09:56:20.14Z</time></trkpt><trkpt lat="43.7894129" lon="12.7237656"><ele>98.0</ele><time>2026-04-12T09:56:22.14Z</time></trkpt><trkpt lat="43.789441" lon="12.7235316"><ele>98.0</ele><time>2026-04-12T09:56:23.138Z</time></trkpt><trkpt lat="43.789476" lon="12.7232596"><ele>98.0</ele><time>2026-04-12T09:56:24.14Z</time></trkpt><trkpt lat="43.7895039" lon="12.7229971"><ele>98.0</ele><time>2026-04-12T09:56:25.139Z</time></trkpt><trkpt lat="43.7895275" lon="12.7227384"><ele>98.0</ele><time>2026-04-12T09:56:26.14Z</time></trkpt><trkpt lat="43.7895402" lon="12.7224867"><ele>98.0</ele><time>2026-04-12T09:56:27.139Z</time></trkpt><trkpt lat="43.7895285" lon="12.7222392"><ele>98.33333333333333</ele><time>2026-04-12T09:56:28.139Z</time></trkpt><trkpt lat="43.7894878" lon="12.7220038"><ele>98.66666666666666</ele><time>2026-04-12T09:56:29.138Z</time></trkpt><trkpt lat="43.7894376" lon="12.7217864"><ele>99.0</ele><time>2026-04-12T09:56:30.138Z</time></trkpt><trkpt lat="43.7893889" lon="12.7215924"><ele>99.4</ele><time>2026-04-12T09:56:31.139Z</time></trkpt><trkpt lat="43.789356" lon="12.7214207"><ele>99.80000000000001</ele><time>2026-04-12T09:56:32.139Z</time></trkpt><trkpt lat="43.7893417" lon="12.7212691"><ele>100.19999999999999</ele><time>2026-04-12T09:56:33.138Z</time></trkpt><trkpt lat="43.7893422" lon="12.7211329"><ele>100.6</ele><time>2026-04-12T09:56:34.139Z</time></trkpt><trkpt lat="43.7893641" lon="12.7209995"><ele>101.0</ele><time>2026-04-12T09:56:35.139Z</time></trkpt><trkpt lat="43.7893934" lon="12.7208635"><ele>101.6</ele><time>2026-04-12T09:56:36.139Z</time></trkpt><trkpt lat="43.7894241" lon="12.7207206"><ele>102.19999999999999</ele><time>2026-04-12T09:56:37.139Z</time></trkpt><trkpt lat="43.7894553" lon="12.7205749"><ele>102.80000000000001</ele><time>2026-04-12T09:56:38.139Z</time></trkpt><trkpt lat="43.7894955" lon="12.7204262"><ele>103.4</ele><time>2026-04-12T09:56:39.138Z</time></trkpt><trkpt lat="43.7895352" lon="12.7202731"><ele>104.0</ele><time>2026-04-12T09:56:40.138Z</time></trkpt><trkpt lat="43.7895765" lon="12.7201296"><ele>105.49999999999999</ele><time>2026-04-12T09:56:41.139Z</time></trkpt><trkpt lat="43.789615" lon="12.7200076"><ele>107.0</ele><time>2026-04-12T09:56:42.139Z</time></trkpt><trkpt lat="43.78965" lon="12.719898"><ele>108.5</ele><time>2026-04-12T09:56:43.14Z</time></trkpt><trkpt lat="43.7896769" lon="12.7197922"><ele>110.0</ele><time>2026-04-12T09:56:44.14Z</time></trkpt><trkpt lat="43.7897005" lon="12.7196798"><ele>111.49999999999999</ele><time>2026-04-12T09:56:45.143Z</time></trkpt><trkpt lat="43.7897238" lon="12.7195584"><ele>113.0</ele><time>2026-04-12T09:56:46.138Z</time></trkpt><trkpt lat="43.7897542" lon="12.7194258"><ele>113.33333333333333</ele><time>2026-04-12T09:56:47.141Z</time></trkpt><trkpt lat="43.7897858" lon="12.7192958"><ele>113.66666666666666</ele><time>2026-04-12T09:56:48.142Z</time></trkpt><trkpt lat="43.7898133" lon="12.7191795"><ele>114.0</ele><time>2026-04-12T09:56:49.142Z</time></trkpt><trkpt lat="43.7898331" lon="12.7190782"><ele>114.33333333333334</ele><time>2026-04-12T09:56:50.139Z</time></trkpt><trkpt lat="43.7898472" lon="12.7189896"><ele>114.66666666666667</ele><time>2026-04-12T09:56:51.14Z</time></trkpt><trkpt lat="43.7898773" lon="12.7188642"><ele>115.0</ele><time>2026-04-12T09:56:53.143Z</time></trkpt><trkpt lat="43.7900006" lon="12.7188548"><ele>114.33333333333334</ele><time>2026-04-12T09:57:15.192Z</time></trkpt><trkpt lat="43.7901949" lon="12.7189682"><ele>113.66666666666666</ele><time>2026-04-12T09:57:17.142Z</time></trkpt><trkpt lat="43.790336" lon="12.7190461"><ele>113.0</ele><time>2026-04-12T09:57:18.143Z</time></trkpt><trkpt lat="43.7904742" lon="12.719124"><ele>113.0</ele><time>2026-04-12T09:57:19.138Z</time></trkpt><trkpt lat="43.7906245" lon="12.719195"><ele>113.0</ele><time>2026-04-12T09:57:20.141Z</time></trkpt><trkpt lat="43.7907897" lon="12.7192413"><ele>113.0</ele><time>2026-04-12T09:57:21.138Z</time></trkpt><trkpt lat="43.7909649" lon="12.7192399"><ele>110.66666666666666</ele><time>2026-04-12T09:57:22.139Z</time></trkpt><trkpt lat="43.7911475" lon="12.7191945"><ele>108.33333333333334</ele><time>2026-04-12T09:57:23.138Z</time></trkpt><trkpt lat="43.7913301" lon="12.7191146"><ele>106.0</ele><time>2026-04-12T09:57:24.138Z</time></trkpt><trkpt lat="43.7914974" lon="12.7189897"><ele>106.0</ele><time>2026-04-12T09:57:25.139Z</time></trkpt><trkpt lat="43.7916437" lon="12.7188133"><ele>106.0</ele><time>2026-04-12T09:57:26.138Z</time></trkpt><trkpt lat="43.7917802" lon="12.7186419"><ele>106.0</ele><time>2026-04-12T09:57:27.139Z</time></trkpt><trkpt lat="43.7919173" lon="12.7184928"><ele>110.66666666666667</ele><time>2026-04-12T09:57:28.139Z</time></trkpt><trkpt lat="43.7920651" lon="12.7183853"><ele>115.33333333333334</ele><time>2026-04-12T09:57:29.138Z</time></trkpt><trkpt lat="43.7922182" lon="12.7183125"><ele>120.0</ele><time>2026-04-12T09:57:30.138Z</time></trkpt><trkpt lat="43.7923908" lon="12.718297"><ele>120.0</ele><time>2026-04-12T09:57:31.139Z</time></trkpt><trkpt lat="43.7925691" lon="12.7183306"><ele>120.0</ele><time>2026-04-12T09:57:32.138Z</time></trkpt><trkpt lat="43.7927507" lon="12.7183848"><ele>120.0</ele><time>2026-04-12T09:57:33.14Z</time></trkpt><trkpt lat="43.7929224" lon="12.718442"><ele>118.0</ele><time>2026-04-12T09:57:34.14Z</time></trkpt><trkpt lat="43.7930885" lon="12.7185"><ele>116.0</ele><time>2026-04-12T09:57:35.14Z</time></trkpt><trkpt lat="43.7932442" lon="12.7185568"><ele>114.0</ele><time>2026-04-12T09:57:36.139Z</time></trkpt><trkpt lat="43.7933944" lon="12.7186155"><ele>114.33333333333334</ele><time>2026-04-12T09:57:37.14Z</time></trkpt><trkpt lat="43.7935305" lon="12.7186956"><ele>114.66666666666667</ele><time>2026-04-12T09:57:38.139Z</time></trkpt><trkpt lat="43.7936639" lon="12.7187979"><ele>115.0</ele><time>2026-04-12T09:57:39.139Z</time></trkpt><trkpt lat="43.7937877" lon="12.7189331"><ele>115.0</ele><time>2026-04-12T09:57:40.139Z</time></trkpt><trkpt lat="43.793914" lon="12.7190962"><ele>115.0</ele><time>2026-04-12T09:57:41.138Z</time></trkpt><trkpt lat="43.7940415" lon="12.7192809"><ele>115.0</ele><time>2026-04-12T09:57:42.14Z</time></trkpt><trkpt lat="43.7941736" lon="12.7194769"><ele>113.33333333333334</ele><time>2026-04-12T09:57:43.138Z</time></trkpt><trkpt lat="43.7943075" lon="12.7196814"><ele>111.66666666666666</ele><time>2026-04-12T09:57:44.139Z</time></trkpt><trkpt lat="43.7944528" lon="12.7198793"><ele>110.0</ele><time>2026-04-12T09:57:45.143Z</time></trkpt><trkpt lat="43.7946021" lon="12.7200758"><ele>108.33333333333333</ele><time>2026-04-12T09:57:46.139Z</time></trkpt><trkpt lat="43.7947605" lon="12.7202687"><ele>106.66666666666666</ele><time>2026-04-12T09:57:47.138Z</time></trkpt><trkpt lat="43.7949239" lon="12.7204604"><ele>105.0</ele><time>2026-04-12T09:57:48.137Z</time></trkpt><trkpt lat="43.7950886" lon="12.7206444"><ele>104.33333333333334</ele><time>2026-04-12T09:57:49.138Z</time></trkpt><trkpt lat="43.795261" lon="12.7208302"><ele>103.66666666666667</ele><time>2026-04-12T09:57:50.139Z</time></trkpt><trkpt lat="43.7954337" lon="12.7210085"><ele>103.0</ele><time>2026-04-12T09:57:51.137Z</time></trkpt><trkpt lat="43.7955953" lon="12.7211762"><ele>103.0</ele><time>2026-04-12T09:57:52.138Z</time></trkpt><trkpt lat="43.795749" lon="12.7213318"><ele>103.0</ele><time>2026-04-12T09:57:53.138Z</time></trkpt><trkpt lat="43.7958931" lon="12.7214799"><ele>103.0</ele><time>2026-04-12T09:57:54.138Z</time></trkpt><trkpt lat="43.7960101" lon="12.7216142"><ele>103.60000000000001</ele><time>2026-04-12T09:57:55.138Z</time></trkpt><trkpt lat="43.7961076" lon="12.7217374"><ele>104.2</ele><time>2026-04-12T09:57:56.14Z</time></trkpt><trkpt lat="43.7961868" lon="12.7218467"><ele>104.8</ele><time>2026-04-12T09:57:57.138Z</time></trkpt><trkpt lat="43.79625" lon="12.721944"><ele>105.4</ele><time>2026-04-12T09:57:58.138Z</time></trkpt><trkpt lat="43.7963011" lon="12.7220366"><ele>106.0</ele><time>2026-04-12T09:57:59.141Z</time></trkpt><trkpt lat="43.7963368" lon="12.7221263"><ele>106.00000000000001</ele><time>2026-04-12T09:58:00.137Z</time></trkpt><trkpt lat="43.7963436" lon="12.7222235"><ele>106.0</ele><time>2026-04-12T09:58:01.138Z</time></trkpt><trkpt lat="43.7963319" lon="12.7223356"><ele>106.0</ele><time>2026-04-12T09:58:02.138Z</time></trkpt><trkpt lat="43.7963206" lon="12.7224625"><ele>106.0</ele><time>2026-04-12T09:58:03.156Z</time></trkpt><trkpt lat="43.7963326" lon="12.7225837"><ele>106.00000000000001</ele><time>2026-04-12T09:58:04.138Z</time></trkpt><trkpt lat="43.7963755" lon="12.7226841"><ele>106.0</ele><time>2026-04-12T09:58:05.138Z</time></trkpt><trkpt lat="43.7964505" lon="12.7227502"><ele>103.33333333333334</ele><time>2026-04-12T09:58:06.138Z</time></trkpt><trkpt lat="43.7965638" lon="12.7227679"><ele>100.66666666666666</ele><time>2026-04-12T09:58:07.254Z</time></trkpt><trkpt lat="43.7968479" lon="12.7227675"><ele>98.0</ele><time>2026-04-12T09:58:09.137Z</time></trkpt><trkpt lat="43.7970204" lon="12.7227814"><ele>98.0</ele><time>2026-04-12T09:58:10.137Z</time></trkpt><trkpt lat="43.7972055" lon="12.7228003"><ele>98.0</ele><time>2026-04-12T09:58:11.138Z</time></trkpt><trkpt lat="43.7973989" lon="12.7228188"><ele>98.0</ele><time>2026-04-12T09:58:12.137Z</time></trkpt><trkpt lat="43.7975903" lon="12.7228474"><ele>97.66666666666666</ele><time>2026-04-12T09:58:13.138Z</time></trkpt><trkpt lat="43.7977771" lon="12.7228697"><ele>97.33333333333334</ele><time>2026-04-12T09:58:14.137Z</time></trkpt><trkpt lat="43.7979616" lon="12.722894"><ele>97.0</ele><time>2026-04-12T09:58:15.138Z</time></trkpt><trkpt lat="43.7981439" lon="12.722913"><ele>97.0</ele><time>2026-04-12T09:58:16.138Z</time></trkpt><trkpt lat="43.7983221" lon="12.7229269"><ele>97.0</ele><time>2026-04-12T09:58:17.138Z</time></trkpt><trkpt lat="43.7984964" lon="12.7229463"><ele>97.0</ele><time>2026-04-12T09:58:18.137Z</time></trkpt><trkpt lat="43.7986668" lon="12.722971"><ele>96.33333333333334</ele><time>2026-04-12T09:58:19.137Z</time></trkpt><trkpt lat="43.798827" lon="12.7229921"><ele>95.66666666666667</ele><time>2026-04-12T09:58:20.138Z</time></trkpt><trkpt lat="43.7989803" lon="12.7230037"><ele>95.0</ele><time>2026-04-12T09:58:21.137Z</time></trkpt><trkpt lat="43.7991294" lon="12.7230101"><ele>95.0</ele><time>2026-04-12T09:58:22.137Z</time></trkpt><trkpt lat="43.7992799" lon="12.7230027"><ele>95.0</ele><time>2026-04-12T09:58:23.137Z</time></trkpt><trkpt lat="43.7994298" lon="12.7229917"><ele>95.0</ele><time>2026-04-12T09:58:24.138Z</time></trkpt><trkpt lat="43.7995809" lon="12.7229682"><ele>95.33333333333334</ele><time>2026-04-12T09:58:25.138Z</time></trkpt><trkpt lat="43.7997324" lon="12.7229368"><ele>95.66666666666667</ele><time>2026-04-12T09:58:26.137Z</time></trkpt><trkpt lat="43.7998867" lon="12.7228954"><ele>96.0</ele><time>2026-04-12T09:58:27.137Z</time></trkpt><trkpt lat="43.8000417" lon="12.7228464"><ele>97.0</ele><time>2026-04-12T09:58:28.138Z</time></trkpt><trkpt lat="43.8001992" lon="12.7228006"><ele>98.0</ele><time>2026-04-12T09:58:29.138Z</time></trkpt><trkpt lat="43.8003576" lon="12.7227562"><ele>99.0</ele><time>2026-04-12T09:58:30.138Z</time></trkpt><trkpt lat="43.8005211" lon="12.7227136"><ele>99.0</ele><time>2026-04-12T09:58:31.137Z</time></trkpt><trkpt lat="43.8006823" lon="12.722673"><ele>99.0</ele><time>2026-04-12T09:58:32.138Z</time></trkpt><trkpt lat="43.8008429" lon="12.7226311"><ele>99.0</ele><time>2026-04-12T09:58:33.138Z</time></trkpt><trkpt lat="43.8010082" lon="12.7225963"><ele>96.33333333333333</ele><time>2026-04-12T09:58:34.138Z</time></trkpt><trkpt lat="43.801178" lon="12.7225716"><ele>93.66666666666666</ele><time>2026-04-12T09:58:35.138Z</time></trkpt><trkpt lat="43.801351" lon="12.7225533"><ele>91.0</ele><time>2026-04-12T09:58:36.138Z</time></trkpt><trkpt lat="43.8015238" lon="12.7225543"><ele>91.0</ele><time>2026-04-12T09:58:37.138Z</time></trkpt><trkpt lat="43.8016998" lon="12.7225731"><ele>91.0</ele><time>2026-04-12T09:58:38.139Z</time></trkpt><trkpt lat="43.8018731" lon="12.7226005"><ele>91.0</ele><time>2026-04-12T09:58:39.136Z</time></trkpt><trkpt lat="43.8020503" lon="12.7226376"><ele>90.66666666666666</ele><time>2026-04-12T09:58:40.139Z</time></trkpt><trkpt lat="43.8022232" lon="12.7226912"><ele>90.33333333333333</ele><time>2026-04-12T09:58:41.137Z</time></trkpt><trkpt lat="43.8023937" lon="12.7227548"><ele>90.0</ele><time>2026-04-12T09:58:42.137Z</time></trkpt><trkpt lat="43.8025621" lon="12.722826"><ele>92.66666666666666</ele><time>2026-04-12T09:58:43.137Z</time></trkpt><trkpt lat="43.8027236" lon="12.7229134"><ele>95.33333333333333</ele><time>2026-04-12T09:58:44.138Z</time></trkpt><trkpt lat="43.8028796" lon="12.7230124"><ele>98.0</ele><time>2026-04-12T09:58:45.137Z</time></trkpt><trkpt lat="43.8030322" lon="12.7231243"><ele>98.0</ele><time>2026-04-12T09:58:46.138Z</time></trkpt><trkpt lat="43.8031789" lon="12.7232524"><ele>98.0</ele><time>2026-04-12T09:58:47.137Z</time></trkpt><trkpt lat="43.8033248" lon="12.7233851"><ele>98.0</ele><time>2026-04-12T09:58:48.139Z</time></trkpt><trkpt lat="43.8034721" lon="12.7235164"><ele>97.33333333333333</ele><time>2026-04-12T09:58:49.138Z</time></trkpt><trkpt lat="43.8036185" lon="12.7236454"><ele>96.66666666666666</ele><time>2026-04-12T09:58:50.139Z</time></trkpt><trkpt lat="43.8037624" lon="12.7237827"><ele>96.0</ele><time>2026-04-12T09:58:51.138Z</time></trkpt><trkpt lat="43.8039045" lon="12.7239225"><ele>96.0</ele><time>2026-04-12T09:58:52.138Z</time></trkpt><trkpt lat="43.8040467" lon="12.7240517"><ele>96.0</ele><time>2026-04-12T09:58:53.137Z</time></trkpt><trkpt lat="43.8041989" lon="12.7241722"><ele>96.0</ele><time>2026-04-12T09:58:54.138Z</time></trkpt><trkpt lat="43.804354" lon="12.7242875"><ele>94.33333333333333</ele><time>2026-04-12T09:58:55.138Z</time></trkpt><trkpt lat="43.8045164" lon="12.7243974"><ele>92.66666666666666</ele><time>2026-04-12T09:58:56.138Z</time></trkpt><trkpt lat="43.8046833" lon="12.7244983"><ele>91.0</ele><time>2026-04-12T09:58:57.138Z</time></trkpt><trkpt lat="43.8048536" lon="12.7245991"><ele>91.0</ele><time>2026-04-12T09:58:58.137Z</time></trkpt><trkpt lat="43.805023" lon="12.7247085"><ele>91.0</ele><time>2026-04-12T09:58:59.137Z</time></trkpt><trkpt lat="43.8051891" lon="12.7248245"><ele>91.0</ele><time>2026-04-12T09:59:00.137Z</time></trkpt><trkpt lat="43.8053555" lon="12.7249501"><ele>90.33333333333333</ele><time>2026-04-12T09:59:01.138Z</time></trkpt><trkpt lat="43.8055191" lon="12.7250836"><ele>89.66666666666667</ele><time>2026-04-12T09:59:02.138Z</time></trkpt><trkpt lat="43.8056848" lon="12.7252158"><ele>89.0</ele><time>2026-04-12T09:59:03.139Z</time></trkpt><trkpt lat="43.80585" lon="12.7253457"><ele>91.33333333333334</ele><time>2026-04-12T09:59:04.138Z</time></trkpt><trkpt lat="43.8060166" lon="12.7254642"><ele>93.66666666666667</ele><time>2026-04-12T09:59:05.138Z</time></trkpt><trkpt lat="43.8061899" lon="12.7255747"><ele>96.0</ele><time>2026-04-12T09:59:06.139Z</time></trkpt><trkpt lat="43.8063662" lon="12.7256803"><ele>96.0</ele><time>2026-04-12T09:59:07.138Z</time></trkpt><trkpt lat="43.8065418" lon="12.7257897"><ele>96.0</ele><time>2026-04-12T09:59:08.137Z</time></trkpt><trkpt lat="43.8067141" lon="12.7258918"><ele>96.0</ele><time>2026-04-12T09:59:09.136Z</time></trkpt><trkpt lat="43.8068817" lon="12.7259846"><ele>96.33333333333334</ele><time>2026-04-12T09:59:10.137Z</time></trkpt><trkpt lat="43.8070448" lon="12.7260795"><ele>96.66666666666667</ele><time>2026-04-12T09:59:11.138Z</time></trkpt><trkpt lat="43.8072063" lon="12.7261593"><ele>97.0</ele><time>2026-04-12T09:59:12.137Z</time></trkpt><trkpt lat="43.8073677" lon="12.7262241"><ele>97.0</ele><time>2026-04-12T09:59:13.138Z</time></trkpt><trkpt lat="43.8075307" lon="12.7262771"><ele>97.0</ele><time>2026-04-12T09:59:14.138Z</time></trkpt><trkpt lat="43.8076954" lon="12.7263281"><ele>97.0</ele><time>2026-04-12T09:59:15.137Z</time></trkpt><trkpt lat="43.8078613" lon="12.7263801"><ele>95.66666666666667</ele><time>2026-04-12T09:59:16.137Z</time></trkpt><trkpt lat="43.8080297" lon="12.7264303"><ele>94.33333333333334</ele><time>2026-04-12T09:59:17.137Z</time></trkpt><trkpt lat="43.8082066" lon="12.7264889"><ele>93.0</ele><time>2026-04-12T09:59:18.138Z</time></trkpt><trkpt lat="43.8083885" lon="12.7265496"><ele>94.0</ele><time>2026-04-12T09:59:19.139Z</time></trkpt><trkpt lat="43.8085726" lon="12.7266081"><ele>95.0</ele><time>2026-04-12T09:59:20.139Z</time></trkpt><trkpt lat="43.8087592" lon="12.7266644"><ele>96.0</ele><time>2026-04-12T09:59:21.138Z</time></trkpt><trkpt lat="43.8089451" lon="12.7267239"><ele>96.0</ele><time>2026-04-12T09:59:22.137Z</time></trkpt><trkpt lat="43.8091323" lon="12.7267737"><ele>96.0</ele><time>2026-04-12T09:59:23.143Z</time></trkpt><trkpt lat="43.80932" lon="12.7268128"><ele>96.0</ele><time>2026-04-12T09:59:24.138Z</time></trkpt><trkpt lat="43.8095086" lon="12.7268476"><ele>98.0</ele><time>2026-04-12T09:59:25.137Z</time></trkpt><trkpt lat="43.8096962" lon="12.7268753"><ele>100.0</ele><time>2026-04-12T09:59:26.139Z</time></trkpt><trkpt lat="43.8098825" lon="12.7268997"><ele>102.0</ele><time>2026-04-12T09:59:27.138Z</time></trkpt><trkpt lat="43.8100674" lon="12.7269259"><ele>99.33333333333333</ele><time>2026-04-12T09:59:28.138Z</time></trkpt><trkpt lat="43.8102532" lon="12.7269592"><ele>96.66666666666666</ele><time>2026-04-12T09:59:29.138Z</time></trkpt><trkpt lat="43.8104426" lon="12.7270054"><ele>94.0</ele><time>2026-04-12T09:59:30.137Z</time></trkpt><trkpt lat="43.8106293" lon="12.7270791"><ele>94.0</ele><time>2026-04-12T09:59:31.138Z</time></trkpt><trkpt lat="43.8108057" lon="12.7271647"><ele>94.0</ele><time>2026-04-12T09:59:32.138Z</time></trkpt><trkpt lat="43.8109761" lon="12.727264"><ele>94.0</ele><time>2026-04-12T09:59:33.137Z</time></trkpt><trkpt lat="43.8111414" lon="12.7273691"><ele>96.33333333333333</ele><time>2026-04-12T09:59:34.138Z</time></trkpt><trkpt lat="43.8113069" lon="12.7274614"><ele>98.66666666666666</ele><time>2026-04-12T09:59:35.137Z</time></trkpt><trkpt lat="43.8114716" lon="12.7275374"><ele>101.0</ele><time>2026-04-12T09:59:36.138Z</time></trkpt><trkpt lat="43.8116361" lon="12.7276"><ele>101.0</ele><time>2026-04-12T09:59:37.138Z</time></trkpt><trkpt lat="43.8118079" lon="12.7276551"><ele>101.0</ele><time>2026-04-12T09:59:38.14Z</time></trkpt><trkpt lat="43.8119842" lon="12.7277019"><ele>101.0</ele><time>2026-04-12T09:59:39.139Z</time></trkpt><trkpt lat="43.8121602" lon="12.7277472"><ele>100.33333333333333</ele><time>2026-04-12T09:59:40.137Z</time></trkpt><trkpt lat="43.8123338" lon="12.7277956"><ele>99.66666666666666</ele><time>2026-04-12T09:59:41.138Z</time></trkpt><trkpt lat="43.8125072" lon="12.7278524"><ele>99.0</ele><time>2026-04-12T09:59:42.14Z</time></trkpt><trkpt lat="43.8126842" lon="12.7279154"><ele>99.0</ele><time>2026-04-12T09:59:43.138Z</time></trkpt><trkpt lat="43.8128623" lon="12.7279873"><ele>99.0</ele><time>2026-04-12T09:59:44.138Z</time></trkpt><trkpt lat="43.813033" lon="12.7280751"><ele>99.0</ele><time>2026-04-12T09:59:45.138Z</time></trkpt><trkpt lat="43.8131997" lon="12.7281878"><ele>99.0</ele><time>2026-04-12T09:59:46.136Z</time></trkpt><trkpt lat="43.8133661" lon="12.7283184"><ele>99.0</ele><time>2026-04-12T09:59:47.138Z</time></trkpt><trkpt lat="43.8135334" lon="12.7284458"><ele>99.0</ele><time>2026-04-12T09:59:48.138Z</time></trkpt><trkpt lat="43.8137003" lon="12.7285743"><ele>98.0</ele><time>2026-04-12T09:59:49.139Z</time></trkpt><trkpt lat="43.8138654" lon="12.7287084"><ele>97.0</ele><time>2026-04-12T09:59:50.137Z</time></trkpt><trkpt lat="43.8140312" lon="12.7288401"><ele>96.0</ele><time>2026-04-12T09:59:51.137Z</time></trkpt><trkpt lat="43.8141938" lon="12.7289748"><ele>95.33333333333333</ele><time>2026-04-12T09:59:52.137Z</time></trkpt><trkpt lat="43.8143594" lon="12.7291075"><ele>94.66666666666666</ele><time>2026-04-12T09:59:53.138Z</time></trkpt><trkpt lat="43.8145245" lon="12.7292368"><ele>94.0</ele><time>2026-04-12T09:59:54.138Z</time></trkpt><trkpt lat="43.8146882" lon="12.7293615"><ele>93.66666666666666</ele><time>2026-04-12T09:59:55.137Z</time></trkpt><trkpt lat="43.8148528" lon="12.7294854"><ele>93.33333333333333</ele><time>2026-04-12T09:59:56.138Z</time></trkpt><trkpt lat="43.8150155" lon="12.7296181"><ele>93.0</ele><time>2026-04-12T09:59:57.137Z</time></trkpt><trkpt lat="43.8151784" lon="12.7297424"><ele>93.0</ele><time>2026-04-12T09:59:58.137Z</time></trkpt><trkpt lat="43.8153377" lon="12.7298667"><ele>93.0</ele><time>2026-04-12T09:59:59.137Z</time></trkpt><trkpt lat="43.8154921" lon="12.7299899"><ele>93.0</ele><time>2026-04-12T10:00:00.138Z</time></trkpt><trkpt lat="43.8156477" lon="12.7301109"><ele>93.0</ele><time>2026-04-12T10:00:01.138Z</time></trkpt><trkpt lat="43.8157997" lon="12.7302248"><ele>93.0</ele><time>2026-04-12T10:00:02.138Z</time></trkpt><trkpt lat="43.8159481" lon="12.7303369"><ele>93.0</ele><time>2026-04-12T10:00:03.138Z</time></trkpt><trkpt lat="43.8160947" lon="12.7304525"><ele>93.0</ele><time>2026-04-12T10:00:04.138Z</time></trkpt><trkpt lat="43.8162422" lon="12.7305575"><ele>93.0</ele><time>2026-04-12T10:00:05.138Z</time></trkpt><trkpt lat="43.8163853" lon="12.7306621"><ele>93.0</ele><time>2026-04-12T10:00:06.137Z</time></trkpt><trkpt lat="43.8165285" lon="12.7307594"><ele>93.0</ele><time>2026-04-12T10:00:07.137Z</time></trkpt><trkpt lat="43.8166719" lon="12.7308464"><ele>93.0</ele><time>2026-04-12T10:00:08.138Z</time></trkpt><trkpt lat="43.8168187" lon="12.7309328"><ele>93.0</ele><time>2026-04-12T10:00:09.138Z</time></trkpt><trkpt lat="43.8169683" lon="12.7310186"><ele>92.66666666666667</ele><time>2026-04-12T10:00:10.139Z</time></trkpt><trkpt lat="43.8171183" lon="12.7311074"><ele>92.33333333333334</ele><time>2026-04-12T10:00:11.138Z</time></trkpt><trkpt lat="43.8172685" lon="12.7312"><ele>92.0</ele><time>2026-04-12T10:00:12.138Z</time></trkpt><trkpt lat="43.8174226" lon="12.7312919"><ele>92.0</ele><time>2026-04-12T10:00:13.137Z</time></trkpt><trkpt lat="43.8175804" lon="12.7313836"><ele>92.0</ele><time>2026-04-12T10:00:14.14Z</time></trkpt><trkpt lat="43.8177355" lon="12.7314774"><ele>92.0</ele><time>2026-04-12T10:00:15.137Z</time></trkpt><trkpt lat="43.8178928" lon="12.7315628"><ele>92.0</ele><time>2026-04-12T10:00:16.138Z</time></trkpt><trkpt lat="43.818054" lon="12.7316449"><ele>92.0</ele><time>2026-04-12T10:00:17.138Z</time></trkpt><trkpt lat="43.8182194" lon="12.7317257"><ele>92.0</ele><time>2026-04-12T10:00:18.138Z</time></trkpt><trkpt lat="43.8183817" lon="12.73181"><ele>91.0</ele><time>2026-04-12T10:00:19.138Z</time></trkpt><trkpt lat="43.8185404" lon="12.7319092"><ele>90.0</ele><time>2026-04-12T10:00:20.138Z</time></trkpt><trkpt lat="43.8186956" lon="12.7320218"><ele>89.0</ele><time>2026-04-12T10:00:21.137Z</time></trkpt><trkpt lat="43.8188458" lon="12.7321545"><ele>89.0</ele><time>2026-04-12T10:00:22.138Z</time></trkpt><trkpt lat="43.8189888" lon="12.7322994"><ele>89.0</ele><time>2026-04-12T10:00:23.142Z</time></trkpt><trkpt lat="43.8191285" lon="12.7324449"><ele>89.0</ele><time>2026-04-12T10:00:24.137Z</time></trkpt><trkpt lat="43.8192677" lon="12.732589"><ele>88.33333333333334</ele><time>2026-04-12T10:00:25.138Z</time></trkpt><trkpt lat="43.819407" lon="12.732736"><ele>87.66666666666667</ele><time>2026-04-12T10:00:26.137Z</time></trkpt><trkpt lat="43.8195467" lon="12.7328847"><ele>87.0</ele><time>2026-04-12T10:00:27.136Z</time></trkpt><trkpt lat="43.8196867" lon="12.7330288"><ele>87.0</ele><time>2026-04-12T10:00:28.136Z</time></trkpt><trkpt lat="43.8198281" lon="12.7331704"><ele>87.0</ele><time>2026-04-12T10:00:29.139Z</time></trkpt><trkpt lat="43.8199685" lon="12.7333067"><ele>87.0</ele><time>2026-04-12T10:00:30.138Z</time></trkpt><trkpt lat="43.8201061" lon="12.7334497"><ele>86.0</ele><time>2026-04-12T10:00:31.138Z</time></trkpt><trkpt lat="43.8202428" lon="12.7335954"><ele>85.0</ele><time>2026-04-12T10:00:32.138Z</time></trkpt><trkpt lat="43.8203768" lon="12.7337395"><ele>84.0</ele><time>2026-04-12T10:00:33.138Z</time></trkpt><trkpt lat="43.8205112" lon="12.7338859"><ele>84.0</ele><time>2026-04-12T10:00:34.136Z</time></trkpt><trkpt lat="43.8206467" lon="12.7340376"><ele>84.0</ele><time>2026-04-12T10:00:35.138Z</time></trkpt><trkpt lat="43.82078" lon="12.7341924"><ele>84.0</ele><time>2026-04-12T10:00:36.137Z</time></trkpt><trkpt lat="43.8209052" lon="12.7343516"><ele>84.66666666666667</ele><time>2026-04-12T10:00:37.138Z</time></trkpt><trkpt lat="43.8210177" lon="12.7345194"><ele>85.33333333333334</ele><time>2026-04-12T10:00:38.138Z</time></trkpt><trkpt lat="43.8211226" lon="12.7346904"><ele>86.0</ele><time>2026-04-12T10:00:39.137Z</time></trkpt><trkpt lat="43.8212247" lon="12.7348545"><ele>86.0</ele><time>2026-04-12T10:00:40.137Z</time></trkpt><trkpt lat="43.821328" lon="12.7350125"><ele>86.0</ele><time>2026-04-12T10:00:41.138Z</time></trkpt><trkpt lat="43.8214337" lon="12.7351628"><ele>86.0</ele><time>2026-04-12T10:00:42.137Z</time></trkpt><trkpt lat="43.8215429" lon="12.7353103"><ele>85.75</ele><time>2026-04-12T10:00:43.138Z</time></trkpt><trkpt lat="43.8216519" lon="12.735451"><ele>85.5</ele><time>2026-04-12T10:00:44.139Z</time></trkpt><trkpt lat="43.8217606" lon="12.7355863"><ele>85.25</ele><time>2026-04-12T10:00:45.139Z</time></trkpt><trkpt lat="43.821877" lon="12.735716"><ele>85.0</ele><time>2026-04-12T10:00:46.138Z</time></trkpt><trkpt lat="43.8219962" lon="12.7358386"><ele>85.0</ele><time>2026-04-12T10:00:47.138Z</time></trkpt><trkpt lat="43.8221143" lon="12.7359658"><ele>85.0</ele><time>2026-04-12T10:00:48.138Z</time></trkpt><trkpt lat="43.8222379" lon="12.7360867"><ele>85.0</ele><time>2026-04-12T10:00:49.139Z</time></trkpt><trkpt lat="43.8223652" lon="12.7362026"><ele>84.25</ele><time>2026-04-12T10:00:50.138Z</time></trkpt><trkpt lat="43.8224874" lon="12.736318"><ele>83.5</ele><time>2026-04-12T10:00:51.137Z</time></trkpt><trkpt lat="43.8226115" lon="12.736435"><ele>82.75</ele><time>2026-04-12T10:00:52.138Z</time></trkpt><trkpt lat="43.8227361" lon="12.7365425"><ele>82.0</ele><time>2026-04-12T10:00:53.138Z</time></trkpt><trkpt lat="43.8228596" lon="12.7366512"><ele>82.0</ele><time>2026-04-12T10:00:54.137Z</time></trkpt><trkpt lat="43.8229806" lon="12.7367567"><ele>82.0</ele><time>2026-04-12T10:00:55.136Z</time></trkpt><trkpt lat="43.8230996" lon="12.7368575"><ele>82.0</ele><time>2026-04-12T10:00:56.137Z</time></trkpt><trkpt lat="43.8232206" lon="12.736963"><ele>82.0</ele><time>2026-04-12T10:00:57.139Z</time></trkpt><trkpt lat="43.8233373" lon="12.7370591"><ele>82.0</ele><time>2026-04-12T10:00:58.139Z</time></trkpt><trkpt lat="43.8234452" lon="12.7371543"><ele>82.0</ele><time>2026-04-12T10:00:59.146Z</time></trkpt><trkpt lat="43.8235465" lon="12.7372465"><ele>82.0</ele><time>2026-04-12T10:01:00.138Z</time></trkpt><trkpt lat="43.8236409" lon="12.737332"><ele>82.0</ele><time>2026-04-12T10:01:01.137Z</time></trkpt><trkpt lat="43.8237351" lon="12.7374168"><ele>82.0</ele><time>2026-04-12T10:01:02.138Z</time></trkpt><trkpt lat="43.8238309" lon="12.7375039"><ele>82.0</ele><time>2026-04-12T10:01:03.138Z</time></trkpt><trkpt lat="43.8239299" lon="12.7375959"><ele>82.0</ele><time>2026-04-12T10:01:04.137Z</time></trkpt><trkpt lat="43.8240299" lon="12.7376922"><ele>82.0</ele><time>2026-04-12T10:01:05.137Z</time></trkpt><trkpt lat="43.82413" lon="12.737791"><ele>82.0</ele><time>2026-04-12T10:01:06.138Z</time></trkpt><trkpt lat="43.8242301" lon="12.7378925"><ele>82.0</ele><time>2026-04-12T10:01:07.139Z</time></trkpt><trkpt lat="43.8243289" lon="12.738001"><ele>82.0</ele><time>2026-04-12T10:01:08.138Z</time></trkpt><trkpt lat="43.8244272" lon="12.738114"><ele>82.0</ele><time>2026-04-12T10:01:09.139Z</time></trkpt><trkpt lat="43.824524" lon="12.7382355"><ele>82.0</ele><time>2026-04-12T10:01:10.138Z</time></trkpt><trkpt lat="43.8246198" lon="12.7383546"><ele>82.0</ele><time>2026-04-12T10:01:11.138Z</time></trkpt><trkpt lat="43.8247122" lon="12.7384826"><ele>82.0</ele><time>2026-04-12T10:01:12.139Z</time></trkpt><trkpt lat="43.8248032" lon="12.738613"><ele>82.0</ele><time>2026-04-12T10:01:13.138Z</time></trkpt><trkpt lat="43.8248905" lon="12.7387424"><ele>82.0</ele><time>2026-04-12T10:01:14.139Z</time></trkpt><trkpt lat="43.8249759" lon="12.7388719"><ele>82.0</ele><time>2026-04-12T10:01:15.137Z</time></trkpt><trkpt lat="43.8250599" lon="12.7389978"><ele>82.0</ele><time>2026-04-12T10:01:16.136Z</time></trkpt><trkpt lat="43.8251488" lon="12.7391189"><ele>82.0</ele><time>2026-04-12T10:01:17.138Z</time></trkpt><trkpt lat="43.825242" lon="12.7392373"><ele>82.0</ele><time>2026-04-12T10:01:18.138Z</time></trkpt><trkpt lat="43.825341" lon="12.7393567"><ele>82.0</ele><time>2026-04-12T10:01:19.139Z</time></trkpt><trkpt lat="43.8254426" lon="12.7394809"><ele>82.0</ele><time>2026-04-12T10:01:20.139Z</time></trkpt><trkpt lat="43.8255446" lon="12.7396074"><ele>82.0</ele><time>2026-04-12T10:01:21.138Z</time></trkpt><trkpt lat="43.8256492" lon="12.7397308"><ele>81.5</ele><time>2026-04-12T10:01:22.137Z</time></trkpt><trkpt lat="43.8257528" lon="12.7398504"><ele>81.0</ele><time>2026-04-12T10:01:23.138Z</time></trkpt><trkpt lat="43.825856" lon="12.7399692"><ele>80.5</ele><time>2026-04-12T10:01:24.139Z</time></trkpt><trkpt lat="43.8259566" lon="12.7400937"><ele>80.0</ele><time>2026-04-12T10:01:25.138Z</time></trkpt><trkpt lat="43.8260567" lon="12.7402167"><ele>79.5</ele><time>2026-04-12T10:01:26.138Z</time></trkpt><trkpt lat="43.826155" lon="12.7403483"><ele>79.0</ele><time>2026-04-12T10:01:27.136Z</time></trkpt><trkpt lat="43.8262533" lon="12.7404817"><ele>78.5</ele><time>2026-04-12T10:01:28.137Z</time></trkpt><trkpt lat="43.8263433" lon="12.740625"><ele>78.0</ele><time>2026-04-12T10:01:29.137Z</time></trkpt><trkpt lat="43.826425" lon="12.7407783"><ele>78.0</ele><time>2026-04-12T10:01:30.137Z</time></trkpt><trkpt lat="43.8264967" lon="12.7409383"><ele>78.0</ele><time>2026-04-12T10:01:31.138Z</time></trkpt><trkpt lat="43.82656" lon="12.741105"><ele>78.0</ele><time>2026-04-12T10:01:32.139Z</time></trkpt><trkpt lat="43.826615" lon="12.7412833"><ele>78.0</ele><time>2026-04-12T10:01:33.138Z</time></trkpt><trkpt lat="43.8266633" lon="12.741465"><ele>77.75</ele><time>2026-04-12T10:01:34.137Z</time></trkpt><trkpt lat="43.82671" lon="12.74165"><ele>77.5</ele><time>2026-04-12T10:01:35.137Z</time></trkpt><trkpt lat="43.8267617" lon="12.74183"><ele>77.25</ele><time>2026-04-12T10:01:36.138Z</time></trkpt><trkpt lat="43.8268217" lon="12.742005"><ele>77.0</ele><time>2026-04-12T10:01:37.136Z</time></trkpt><trkpt lat="43.8268767" lon="12.742185"><ele>76.75</ele><time>2026-04-12T10:01:38.138Z</time></trkpt><trkpt lat="43.8269267" lon="12.74237"><ele>76.5</ele><time>2026-04-12T10:01:39.151Z</time></trkpt><trkpt lat="43.8269733" lon="12.742555"><ele>76.25</ele><time>2026-04-12T10:01:40.139Z</time></trkpt><trkpt lat="43.82702" lon="12.7427383"><ele>76.0</ele><time>2026-04-12T10:01:41.137Z</time></trkpt><trkpt lat="43.827075" lon="12.7429217"><ele>76.0</ele><time>2026-04-12T10:01:42.137Z</time></trkpt><trkpt lat="43.8271333" lon="12.743095"><ele>76.0</ele><time>2026-04-12T10:01:43.137Z</time></trkpt><trkpt lat="43.827205" lon="12.743265"><ele>76.0</ele><time>2026-04-12T10:01:44.138Z</time></trkpt><trkpt lat="43.8272817" lon="12.743425"><ele>76.0</ele><time>2026-04-12T10:01:45.137Z</time></trkpt><trkpt lat="43.827365" lon="12.743585"><ele>76.0</ele><time>2026-04-12T10:01:46.137Z</time></trkpt><trkpt lat="43.82745" lon="12.7437433"><ele>76.0</ele><time>2026-04-12T10:01:47.138Z</time></trkpt><trkpt lat="43.8275367" lon="12.7439033"><ele>76.0</ele><time>2026-04-12T10:01:48.137Z</time></trkpt><trkpt lat="43.82763" lon="12.7440483"><ele>76.0</ele><time>2026-04-12T10:01:49.138Z</time></trkpt><trkpt lat="43.82772" lon="12.744205"><ele>76.25</ele><time>2026-04-12T10:01:50.138Z</time></trkpt><trkpt lat="43.82781" lon="12.7443567"><ele>76.5</ele><time>2026-04-12T10:01:51.138Z</time></trkpt><trkpt lat="43.827905" lon="12.7445083"><ele>76.75</ele><time>2026-04-12T10:01:52.137Z</time></trkpt><trkpt lat="43.8280067" lon="12.7446533"><ele>77.0</ele><time>2026-04-12T10:01:53.137Z</time></trkpt><trkpt lat="43.8281183" lon="12.74478"><ele>77.0</ele><time>2026-04-12T10:01:54.138Z</time></trkpt><trkpt lat="43.8282333" lon="12.7448967"><ele>77.0</ele><time>2026-04-12T10:01:55.137Z</time></trkpt><trkpt lat="43.828355" lon="12.744995"><ele>77.0</ele><time>2026-04-12T10:01:56.137Z</time></trkpt><trkpt lat="43.82848" lon="12.7450883"><ele>77.0</ele><time>2026-04-12T10:01:57.137Z</time></trkpt><trkpt lat="43.82861" lon="12.7451717"><ele>76.0</ele><time>2026-04-12T10:01:58.139Z</time></trkpt><trkpt lat="43.8287433" lon="12.745245"><ele>75.0</ele><time>2026-04-12T10:01:59.138Z</time></trkpt><trkpt lat="43.828885" lon="12.7453033"><ele>74.0</ele><time>2026-04-12T10:02:00.136Z</time></trkpt><trkpt lat="43.8290283" lon="12.7453533"><ele>73.0</ele><time>2026-04-12T10:02:01.139Z</time></trkpt><trkpt lat="43.8291666" lon="12.745389"><ele>73.0</ele><time>2026-04-12T10:02:02.138Z</time></trkpt><trkpt lat="43.8293033" lon="12.7454141"><ele>73.0</ele><time>2026-04-12T10:02:03.136Z</time></trkpt><trkpt lat="43.8294509" lon="12.7454297"><ele>73.0</ele><time>2026-04-12T10:02:04.136Z</time></trkpt><trkpt lat="43.8295968" lon="12.7454415"><ele>73.0</ele><time>2026-04-12T10:02:05.137Z</time></trkpt><trkpt lat="43.8297397" lon="12.7454536"><ele>73.25</ele><time>2026-04-12T10:02:06.138Z</time></trkpt><trkpt lat="43.8298692" lon="12.7454648"><ele>73.5</ele><time>2026-04-12T10:02:07.137Z</time></trkpt><trkpt lat="43.8299981" lon="12.7454749"><ele>73.75</ele><time>2026-04-12T10:02:08.138Z</time></trkpt><trkpt lat="43.8301239" lon="12.7454727"><ele>74.0</ele><time>2026-04-12T10:02:09.137Z</time></trkpt><trkpt lat="43.8302417" lon="12.7454745"><ele>74.0</ele><time>2026-04-12T10:02:10.138Z</time></trkpt><trkpt lat="43.8303511" lon="12.7454842"><ele>74.0</ele><time>2026-04-12T10:02:11.137Z</time></trkpt><trkpt lat="43.8304596" lon="12.7454971"><ele>74.0</ele><time>2026-04-12T10:02:12.136Z</time></trkpt><trkpt lat="43.830563" lon="12.7455091"><ele>74.0</ele><time>2026-04-12T10:02:13.136Z</time></trkpt><trkpt lat="43.8306637" lon="12.745527"><ele>74.0</ele><time>2026-04-12T10:02:14.137Z</time></trkpt><trkpt lat="43.8307582" lon="12.7455578"><ele>74.0</ele><time>2026-04-12T10:02:15.135Z</time></trkpt><trkpt lat="43.8308477" lon="12.7455861"><ele>74.0</ele><time>2026-04-12T10:02:16.136Z</time></trkpt><trkpt lat="43.8309221" lon="12.7456143"><ele>74.0</ele><time>2026-04-12T10:02:17.137Z</time></trkpt><trkpt lat="43.830987" lon="12.7456411"><ele>74.0</ele><time>2026-04-12T10:02:18.137Z</time></trkpt><trkpt lat="43.8310507" lon="12.7456623"><ele>74.0</ele><time>2026-04-12T10:02:19.136Z</time></trkpt><trkpt lat="43.8311138" lon="12.7456585"><ele>74.0</ele><time>2026-04-12T10:02:20.136Z</time></trkpt><trkpt lat="43.8311749" lon="12.7456327"><ele>74.0</ele><time>2026-04-12T10:02:21.136Z</time></trkpt><trkpt lat="43.8312147" lon="12.7454675"><ele>74.0</ele><time>2026-04-12T10:02:23.136Z</time></trkpt><trkpt lat="43.831199" lon="12.7453738"><ele>74.0</ele><time>2026-04-12T10:02:24.136Z</time></trkpt><trkpt lat="43.8311422" lon="12.7453005"><ele>74.0</ele><time>2026-04-12T10:02:25.135Z</time></trkpt><trkpt lat="43.8310769" lon="12.7452524"><ele>74.0</ele><time>2026-04-12T10:02:26.136Z</time></trkpt><trkpt lat="43.8309932" lon="12.7452727"><ele>74.0</ele><time>2026-04-12T10:02:27.136Z</time></trkpt><trkpt lat="43.8309204" lon="12.7453274"><ele>74.0</ele><time>2026-04-12T10:02:28.137Z</time></trkpt><trkpt lat="43.8308488" lon="12.7453869"><ele>74.0</ele><time>2026-04-12T10:02:29.136Z</time></trkpt><trkpt lat="43.8307712" lon="12.7454284"><ele>74.0</ele><time>2026-04-12T10:02:30.136Z</time></trkpt><trkpt lat="43.830681" lon="12.7454518"><ele>74.0</ele><time>2026-04-12T10:02:31.135Z</time></trkpt><trkpt lat="43.8305833" lon="12.7454562"><ele>74.0</ele><time>2026-04-12T10:02:32.137Z</time></trkpt><trkpt lat="43.8304802" lon="12.7454441"><ele>74.0</ele><time>2026-04-12T10:02:33.137Z</time></trkpt><trkpt lat="43.8303664" lon="12.7454429"><ele>74.0</ele><time>2026-04-12T10:02:34.136Z</time></trkpt><trkpt lat="43.8302473" lon="12.7454379"><ele>74.0</ele><time>2026-04-12T10:02:35.137Z</time></trkpt><trkpt lat="43.8301274" lon="12.7454282"><ele>74.0</ele><time>2026-04-12T10:02:36.136Z</time></trkpt><trkpt lat="43.8300052" lon="12.7454182"><ele>74.0</ele><time>2026-04-12T10:02:37.137Z</time></trkpt><trkpt lat="43.8298782" lon="12.7454157"><ele>74.0</ele><time>2026-04-12T10:02:38.137Z</time></trkpt><trkpt lat="43.8297473" lon="12.74541"><ele>74.0</ele><time>2026-04-12T10:02:39.137Z</time></trkpt><trkpt lat="43.8296165" lon="12.745406"><ele>74.0</ele><time>2026-04-12T10:02:40.136Z</time></trkpt><trkpt lat="43.8294833" lon="12.7453982"><ele>74.0</ele><time>2026-04-12T10:02:41.136Z</time></trkpt><trkpt lat="43.8293496" lon="12.7453859"><ele>73.75</ele><time>2026-04-12T10:02:42.135Z</time></trkpt><trkpt lat="43.8292129" lon="12.7453679"><ele>73.5</ele><time>2026-04-12T10:02:43.137Z</time></trkpt><trkpt lat="43.8290731" lon="12.7453378"><ele>73.25</ele><time>2026-04-12T10:02:44.137Z</time></trkpt><trkpt lat="43.828931" lon="12.7452876"><ele>73.0</ele><time>2026-04-12T10:02:45.136Z</time></trkpt><trkpt lat="43.82878" lon="12.7452374"><ele>73.66666666666666</ele><time>2026-04-12T10:02:46.137Z</time></trkpt><trkpt lat="43.8286222" lon="12.7451611"><ele>74.33333333333333</ele><time>2026-04-12T10:02:47.137Z</time></trkpt><trkpt lat="43.8284674" lon="12.7450547"><ele>75.0</ele><time>2026-04-12T10:02:48.137Z</time></trkpt><trkpt lat="43.828319" lon="12.7449298"><ele>75.0</ele><time>2026-04-12T10:02:49.137Z</time></trkpt><trkpt lat="43.8281741" lon="12.7447895"><ele>75.0</ele><time>2026-04-12T10:02:50.136Z</time></trkpt><trkpt lat="43.8280307" lon="12.7446416"><ele>75.0</ele><time>2026-04-12T10:02:51.137Z</time></trkpt><trkpt lat="43.8278939" lon="12.7444829"><ele>75.33333333333333</ele><time>2026-04-12T10:02:52.136Z</time></trkpt><trkpt lat="43.8277741" lon="12.7443046"><ele>75.66666666666666</ele><time>2026-04-12T10:02:53.135Z</time></trkpt><trkpt lat="43.8276627" lon="12.7441186"><ele>76.0</ele><time>2026-04-12T10:02:54.136Z</time></trkpt><trkpt lat="43.8275561" lon="12.7439304"><ele>76.0</ele><time>2026-04-12T10:02:55.136Z</time></trkpt><trkpt lat="43.8274468" lon="12.7437458"><ele>76.0</ele><time>2026-04-12T10:02:56.137Z</time></trkpt><trkpt lat="43.8273466" lon="12.7435563"><ele>76.0</ele><time>2026-04-12T10:02:57.135Z</time></trkpt><trkpt lat="43.8272492" lon="12.7433637"><ele>76.0</ele><time>2026-04-12T10:02:58.136Z</time></trkpt><trkpt lat="43.8271635" lon="12.7431592"><ele>76.0</ele><time>2026-04-12T10:02:59.136Z</time></trkpt><trkpt lat="43.8270819" lon="12.7429458"><ele>76.0</ele><time>2026-04-12T10:03:00.136Z</time></trkpt><trkpt lat="43.8270118" lon="12.7427238"><ele>76.0</ele><time>2026-04-12T10:03:01.136Z</time></trkpt><trkpt lat="43.82695" lon="12.7424966"><ele>76.0</ele><time>2026-04-12T10:03:02.136Z</time></trkpt><trkpt lat="43.8268882" lon="12.7422713"><ele>76.0</ele><time>2026-04-12T10:03:03.136Z</time></trkpt><trkpt lat="43.8268242" lon="12.7420434"><ele>76.33333333333333</ele><time>2026-04-12T10:03:04.136Z</time></trkpt><trkpt lat="43.826766" lon="12.7418091"><ele>76.66666666666667</ele><time>2026-04-12T10:03:05.136Z</time></trkpt><trkpt lat="43.8267016" lon="12.7415763"><ele>77.0</ele><time>2026-04-12T10:03:06.136Z</time></trkpt><trkpt lat="43.8266353" lon="12.7413418"><ele>77.0</ele><time>2026-04-12T10:03:07.135Z</time></trkpt><trkpt lat="43.8265645" lon="12.7411105"><ele>77.0</ele><time>2026-04-12T10:03:08.136Z</time></trkpt><trkpt lat="43.8264817" lon="12.740885"><ele>77.0</ele><time>2026-04-12T10:03:09.137Z</time></trkpt><trkpt lat="43.826385" lon="12.7406767"><ele>77.33333333333334</ele><time>2026-04-12T10:03:10.137Z</time></trkpt><trkpt lat="43.82628" lon="12.74049"><ele>77.66666666666667</ele><time>2026-04-12T10:03:11.136Z</time></trkpt><trkpt lat="43.8261567" lon="12.7403183"><ele>78.0</ele><time>2026-04-12T10:03:12.137Z</time></trkpt><trkpt lat="43.8260233" lon="12.7401567"><ele>78.66666666666667</ele><time>2026-04-12T10:03:13.135Z</time></trkpt><trkpt lat="43.825895" lon="12.7399917"><ele>79.33333333333334</ele><time>2026-04-12T10:03:14.136Z</time></trkpt><trkpt lat="43.8257567" lon="12.73984"><ele>80.0</ele><time>2026-04-12T10:03:15.135Z</time></trkpt><trkpt lat="43.8256267" lon="12.73969"><ele>80.0</ele><time>2026-04-12T10:03:16.136Z</time></trkpt><trkpt lat="43.8255017" lon="12.7395383"><ele>80.0</ele><time>2026-04-12T10:03:17.135Z</time></trkpt><trkpt lat="43.8253833" lon="12.7394"><ele>80.0</ele><time>2026-04-12T10:03:18.137Z</time></trkpt><trkpt lat="43.8252767" lon="12.739275"><ele>80.0</ele><time>2026-04-12T10:03:19.135Z</time></trkpt><trkpt lat="43.8251867" lon="12.739155"><ele>80.0</ele><time>2026-04-12T10:03:20.137Z</time></trkpt><trkpt lat="43.8251067" lon="12.7390533"><ele>80.0</ele><time>2026-04-12T10:03:21.136Z</time></trkpt><trkpt lat="43.8250283" lon="12.7389467"><ele>80.0</ele><time>2026-04-12T10:03:22.135Z</time></trkpt><trkpt lat="43.8249433" lon="12.7388367"><ele>80.0</ele><time>2026-04-12T10:03:23.137Z</time></trkpt><trkpt lat="43.8248633" lon="12.738705"><ele>80.0</ele><time>2026-04-12T10:03:24.136Z</time></trkpt><trkpt lat="43.824775" lon="12.7385717"><ele>80.0</ele><time>2026-04-12T10:03:25.136Z</time></trkpt><trkpt lat="43.8246733" lon="12.7384383"><ele>80.0</ele><time>2026-04-12T10:03:26.137Z</time></trkpt><trkpt lat="43.8245733" lon="12.738295"><ele>80.5</ele><time>2026-04-12T10:03:27.137Z</time></trkpt><trkpt lat="43.8244683" lon="12.7381517"><ele>81.0</ele><time>2026-04-12T10:03:28.136Z</time></trkpt><trkpt lat="43.8243567" lon="12.7380217"><ele>81.5</ele><time>2026-04-12T10:03:29.137Z</time></trkpt><trkpt lat="43.824235" lon="12.7378967"><ele>82.0</ele><time>2026-04-12T10:03:30.137Z</time></trkpt><trkpt lat="43.8241183" lon="12.7377817"><ele>82.0</ele><time>2026-04-12T10:03:31.135Z</time></trkpt><trkpt lat="43.824005" lon="12.737675"><ele>82.0</ele><time>2026-04-12T10:03:32.136Z</time></trkpt><trkpt lat="43.8238983" lon="12.7375767"><ele>82.0</ele><time>2026-04-12T10:03:33.137Z</time></trkpt><trkpt lat="43.8238" lon="12.737485"><ele>82.0</ele><time>2026-04-12T10:03:34.136Z</time></trkpt><trkpt lat="43.8237117" lon="12.7374"><ele>82.0</ele><time>2026-04-12T10:03:35.136Z</time></trkpt><trkpt lat="43.823635" lon="12.7373267"><ele>82.0</ele><time>2026-04-12T10:03:36.137Z</time></trkpt><trkpt lat="43.823575" lon="12.7372683"><ele>82.0</ele><time>2026-04-12T10:03:37.137Z</time></trkpt><trkpt lat="43.82348" lon="12.7372517"><ele>82.0</ele><time>2026-04-12T10:03:39.136Z</time></trkpt><trkpt lat="43.82341" lon="12.7373467"><ele>82.0</ele><time>2026-04-12T10:03:41.136Z</time></trkpt><trkpt lat="43.823345" lon="12.7375133"><ele>81.71428571428571</ele><time>2026-04-12T10:03:43.136Z</time></trkpt><trkpt lat="43.8233183" lon="12.7376083"><ele>81.42857142857143</ele><time>2026-04-12T10:03:44.136Z</time></trkpt><trkpt lat="43.8232917" lon="12.7377083"><ele>81.14285714285714</ele><time>2026-04-12T10:03:45.137Z</time></trkpt><trkpt lat="43.8232633" lon="12.7377983"><ele>80.85714285714286</ele><time>2026-04-12T10:03:46.135Z</time></trkpt><trkpt lat="43.823235" lon="12.7378867"><ele>80.57142857142857</ele><time>2026-04-12T10:03:47.136Z</time></trkpt><trkpt lat="43.823205" lon="12.737975"><ele>80.28571428571428</ele><time>2026-04-12T10:03:48.136Z</time></trkpt><trkpt lat="43.8231717" lon="12.738065"><ele>80.0</ele><time>2026-04-12T10:03:49.136Z</time></trkpt><trkpt lat="43.823135" lon="12.7381567"><ele>79.33333333333334</ele><time>2026-04-12T10:03:50.137Z</time></trkpt><trkpt lat="43.823095" lon="12.7382433"><ele>78.66666666666667</ele><time>2026-04-12T10:03:51.135Z</time></trkpt><trkpt lat="43.8230583" lon="12.738335"><ele>78.0</ele><time>2026-04-12T10:03:52.136Z</time></trkpt><trkpt lat="43.8230183" lon="12.7384367"><ele>77.33333333333333</ele><time>2026-04-12T10:03:53.135Z</time></trkpt><trkpt lat="43.822985" lon="12.7385483"><ele>76.66666666666666</ele><time>2026-04-12T10:03:54.139Z</time></trkpt><trkpt lat="43.8229433" lon="12.7386567"><ele>76.0</ele><time>2026-04-12T10:03:55.136Z</time></trkpt><trkpt lat="43.8228983" lon="12.738765"><ele>74.6</ele><time>2026-04-12T10:03:56.137Z</time></trkpt><trkpt lat="43.8228533" lon="12.7388717"><ele>73.19999999999999</ele><time>2026-04-12T10:03:57.136Z</time></trkpt><trkpt lat="43.822805" lon="12.73898"><ele>71.80000000000001</ele><time>2026-04-12T10:03:58.135Z</time></trkpt><trkpt lat="43.822755" lon="12.7390933"><ele>70.4</ele><time>2026-04-12T10:03:59.136Z</time></trkpt><trkpt lat="43.822705" lon="12.7392167"><ele>69.0</ele><time>2026-04-12T10:04:00.135Z</time></trkpt><trkpt lat="43.8226517" lon="12.7393367"><ele>67.8</ele><time>2026-04-12T10:04:01.135Z</time></trkpt><trkpt lat="43.8225983" lon="12.73946"><ele>66.60000000000001</ele><time>2026-04-12T10:04:02.136Z</time></trkpt><trkpt lat="43.822545" lon="12.7395833"><ele>65.4</ele><time>2026-04-12T10:04:03.136Z</time></trkpt><trkpt lat="43.8224967" lon="12.7397033"><ele>64.2</ele><time>2026-04-12T10:04:04.136Z</time></trkpt><trkpt lat="43.8224517" lon="12.739815"><ele>63.0</ele><time>2026-04-12T10:04:05.136Z</time></trkpt><trkpt lat="43.822405" lon="12.7399283"><ele>63.0</ele><time>2026-04-12T10:04:06.137Z</time></trkpt><trkpt lat="43.8223533" lon="12.7400483"><ele>63.0</ele><time>2026-04-12T10:04:07.135Z</time></trkpt><trkpt lat="43.8222983" lon="12.740165"><ele>63.0</ele><time>2026-04-12T10:04:08.137Z</time></trkpt><trkpt lat="43.822255" lon="12.7402817"><ele>63.0</ele><time>2026-04-12T10:04:09.136Z</time></trkpt><trkpt lat="43.8222067" lon="12.7403917"><ele>63.0</ele><time>2026-04-12T10:04:10.136Z</time></trkpt><trkpt lat="43.8221667" lon="12.7404917"><ele>62.85714285714286</ele><time>2026-04-12T10:04:11.136Z</time></trkpt><trkpt lat="43.8221283" lon="12.7405783"><ele>62.714285714285715</ele><time>2026-04-12T10:04:12.135Z</time></trkpt><trkpt lat="43.822095" lon="12.7406633"><ele>62.57142857142857</ele><time>2026-04-12T10:04:13.136Z</time></trkpt><trkpt lat="43.8220617" lon="12.740755"><ele>62.42857142857143</ele><time>2026-04-12T10:04:14.137Z</time></trkpt><trkpt lat="43.8220333" lon="12.7408433"><ele>62.28571428571429</ele><time>2026-04-12T10:04:15.136Z</time></trkpt><trkpt lat="43.8219967" lon="12.7409333"><ele>62.142857142857146</ele><time>2026-04-12T10:04:16.135Z</time></trkpt><trkpt lat="43.8219667" lon="12.741015"><ele>62.0</ele><time>2026-04-12T10:04:17.137Z</time></trkpt><trkpt lat="43.8219333" lon="12.74109"><ele>62.00000000000001</ele><time>2026-04-12T10:04:18.136Z</time></trkpt><trkpt lat="43.8219017" lon="12.7411683"><ele>62.0</ele><time>2026-04-12T10:04:19.137Z</time></trkpt><trkpt lat="43.8218683" lon="12.741245"><ele>62.0</ele><time>2026-04-12T10:04:20.135Z</time></trkpt><trkpt lat="43.8218267" lon="12.7413233"><ele>62.0</ele><time>2026-04-12T10:04:21.136Z</time></trkpt><trkpt lat="43.8217867" lon="12.7414083"><ele>62.00000000000001</ele><time>2026-04-12T10:04:22.135Z</time></trkpt><trkpt lat="43.8217517" lon="12.7414883"><ele>62.0</ele><time>2026-04-12T10:04:23.135Z</time></trkpt><trkpt lat="43.8216967" lon="12.7416317"><ele>62.66666666666667</ele><time>2026-04-12T10:04:25.135Z</time></trkpt><trkpt lat="43.821655" lon="12.7417383"><ele>63.333333333333336</ele><time>2026-04-12T10:04:27.136Z</time></trkpt><trkpt lat="43.821605" lon="12.7418283"><ele>64.0</ele><time>2026-04-12T10:04:29.136Z</time></trkpt><trkpt lat="43.8215383" lon="12.7418583"><ele>64.66666666666667</ele><time>2026-04-12T10:04:31.136Z</time></trkpt><trkpt lat="43.8214617" lon="12.74176"><ele>65.33333333333333</ele><time>2026-04-12T10:04:33.135Z</time></trkpt><trkpt lat="43.821415" lon="12.7416917"><ele>66.0</ele><time>2026-04-12T10:04:34.136Z</time></trkpt><trkpt lat="43.8213683" lon="12.7416117"><ele>66.0</ele><time>2026-04-12T10:04:35.136Z</time></trkpt><trkpt lat="43.8212767" lon="12.74151"><ele>66.0</ele><time>2026-04-12T10:04:37.135Z</time></trkpt><trkpt lat="43.8211533" lon="12.7415067"><ele>66.0</ele><time>2026-04-12T10:04:39.136Z</time></trkpt><trkpt lat="43.8210633" lon="12.7416367"><ele>66.0</ele><time>2026-04-12T10:04:41.136Z</time></trkpt><trkpt lat="43.8210483" lon="12.741755"><ele>66.0</ele><time>2026-04-12T10:04:42.136Z</time></trkpt><trkpt lat="43.82103" lon="12.7418717"><ele>66.0</ele><time>2026-04-12T10:04:43.135Z</time></trkpt><trkpt lat="43.8210217" lon="12.7419883"><ele>66.0</ele><time>2026-04-12T10:04:44.135Z</time></trkpt><trkpt lat="43.8210117" lon="12.7421083"><ele>66.0</ele><time>2026-04-12T10:04:45.135Z</time></trkpt><trkpt lat="43.8210167" lon="12.7422317"><ele>66.0</ele><time>2026-04-12T10:04:46.136Z</time></trkpt><trkpt lat="43.82103" lon="12.7423583"><ele>66.0</ele><time>2026-04-12T10:04:47.135Z</time></trkpt><trkpt lat="43.8210467" lon="12.7424833"><ele>66.0</ele><time>2026-04-12T10:04:48.138Z</time></trkpt><trkpt lat="43.82107" lon="12.7426117"><ele>66.0</ele><time>2026-04-12T10:04:49.137Z</time></trkpt><trkpt lat="43.8210933" lon="12.7427417"><ele>66.0</ele><time>2026-04-12T10:04:50.136Z</time></trkpt><trkpt lat="43.8211217" lon="12.7428683"><ele>66.0</ele><time>2026-04-12T10:04:51.139Z</time></trkpt><trkpt lat="43.8211467" lon="12.743"><ele>66.0</ele><time>2026-04-12T10:04:52.137Z</time></trkpt><trkpt lat="43.821175" lon="12.7431267"><ele>66.0</ele><time>2026-04-12T10:04:53.135Z</time></trkpt><trkpt lat="43.821185" lon="12.743265"><ele>66.0</ele><time>2026-04-12T10:04:54.135Z</time></trkpt><trkpt lat="43.821215" lon="12.7434067"><ele>66.0</ele><time>2026-04-12T10:04:55.137Z</time></trkpt><trkpt lat="43.8212483" lon="12.743535"><ele>66.0</ele><time>2026-04-12T10:04:56.136Z</time></trkpt><trkpt lat="43.82129" lon="12.7436633"><ele>66.0</ele><time>2026-04-12T10:04:57.135Z</time></trkpt><trkpt lat="43.821335" lon="12.7437883"><ele>68.2</ele><time>2026-04-12T10:04:58.135Z</time></trkpt><trkpt lat="43.8213733" lon="12.74392"><ele>70.39999999999999</ele><time>2026-04-12T10:04:59.137Z</time></trkpt><trkpt lat="43.821415" lon="12.7440433"><ele>72.6</ele><time>2026-04-12T10:05:00.137Z</time></trkpt><trkpt lat="43.8214583" lon="12.7441617"><ele>74.8</ele><time>2026-04-12T10:05:01.135Z</time></trkpt><trkpt lat="43.8215017" lon="12.74427"><ele>77.0</ele><time>2026-04-12T10:05:02.137Z</time></trkpt><trkpt lat="43.821545" lon="12.744375"><ele>77.16666666666667</ele><time>2026-04-12T10:05:03.136Z</time></trkpt><trkpt lat="43.82158" lon="12.7444717"><ele>77.33333333333334</ele><time>2026-04-12T10:05:04.136Z</time></trkpt><trkpt lat="43.8216017" lon="12.7445667"><ele>77.5</ele><time>2026-04-12T10:05:05.136Z</time></trkpt><trkpt lat="43.8215967" lon="12.7446783"><ele>77.66666666666667</ele><time>2026-04-12T10:05:06.136Z</time></trkpt><trkpt lat="43.8215583" lon="12.7447733"><ele>77.83333333333333</ele><time>2026-04-12T10:05:07.137Z</time></trkpt><trkpt lat="43.82149" lon="12.7448283"><ele>78.0</ele><time>2026-04-12T10:05:08.135Z</time></trkpt><trkpt lat="43.8214067" lon="12.74486"><ele>78.0</ele><time>2026-04-12T10:05:09.136Z</time></trkpt><trkpt lat="43.821325" lon="12.7448883"><ele>78.0</ele><time>2026-04-12T10:05:10.136Z</time></trkpt><trkpt lat="43.8212483" lon="12.7449167"><ele>78.0</ele><time>2026-04-12T10:05:11.135Z</time></trkpt><trkpt lat="43.8211683" lon="12.7449417"><ele>78.0</ele><time>2026-04-12T10:05:12.135Z</time></trkpt><trkpt lat="43.821085" lon="12.7449683"><ele>78.0</ele><time>2026-04-12T10:05:13.136Z</time></trkpt><trkpt lat="43.8210067" lon="12.745"><ele>78.0</ele><time>2026-04-12T10:05:14.136Z</time></trkpt><trkpt lat="43.8209317" lon="12.745045"><ele>81.2</ele><time>2026-04-12T10:05:15.138Z</time></trkpt><trkpt lat="43.8208483" lon="12.74507"><ele>84.4</ele><time>2026-04-12T10:05:16.136Z</time></trkpt><trkpt lat="43.820765" lon="12.7451083"><ele>87.60000000000001</ele><time>2026-04-12T10:05:17.136Z</time></trkpt><trkpt lat="43.8206767" lon="12.745145"><ele>90.8</ele><time>2026-04-12T10:05:18.136Z</time></trkpt><trkpt lat="43.820585" lon="12.7451633"><ele>94.0</ele><time>2026-04-12T10:05:19.135Z</time></trkpt><trkpt lat="43.8204883" lon="12.74518"><ele>94.0</ele><time>2026-04-12T10:05:20.137Z</time></trkpt><trkpt lat="43.82039" lon="12.7452067"><ele>94.0</ele><time>2026-04-12T10:05:21.135Z</time></trkpt><trkpt lat="43.8202967" lon="12.7452383"><ele>94.0</ele><time>2026-04-12T10:05:22.136Z</time></trkpt><trkpt lat="43.8202167" lon="12.745275"><ele>94.0</ele><time>2026-04-12T10:05:23.135Z</time></trkpt><trkpt lat="43.820145" lon="12.745295"><ele>94.0</ele><time>2026-04-12T10:05:24.136Z</time></trkpt><trkpt lat="43.82008" lon="12.7452567"><ele>94.0</ele><time>2026-04-12T10:05:25.134Z</time></trkpt><trkpt lat="43.8200467" lon="12.7451817"><ele>94.0</ele><time>2026-04-12T10:05:26.137Z</time></trkpt><trkpt lat="43.820055" lon="12.7450583"><ele>94.0</ele><time>2026-04-12T10:05:27.135Z</time></trkpt><trkpt lat="43.8200817" lon="12.744905"><ele>94.0</ele><time>2026-04-12T10:05:28.137Z</time></trkpt><trkpt lat="43.8201367" lon="12.7447283"><ele>94.0</ele><time>2026-04-12T10:05:29.136Z</time></trkpt><trkpt lat="43.8201817" lon="12.7445583"><ele>94.0</ele><time>2026-04-12T10:05:30.136Z</time></trkpt><trkpt lat="43.8202533" lon="12.7444117"><ele>94.0</ele><time>2026-04-12T10:05:31.136Z</time></trkpt><trkpt lat="43.8203217" lon="12.7442767"><ele>94.0</ele><time>2026-04-12T10:05:32.135Z</time></trkpt><trkpt lat="43.8203717" lon="12.7441417"><ele>94.0</ele><time>2026-04-12T10:05:33.136Z</time></trkpt><trkpt lat="43.8204067" lon="12.7440033"><ele>94.5</ele><time>2026-04-12T10:05:34.135Z</time></trkpt><trkpt lat="43.8204367" lon="12.7438767"><ele>95.0</ele><time>2026-04-12T10:05:35.136Z</time></trkpt><trkpt lat="43.82044" lon="12.7437717"><ele>95.5</ele><time>2026-04-12T10:05:36.137Z</time></trkpt><trkpt lat="43.8204383" lon="12.7436617"><ele>96.0</ele><time>2026-04-12T10:05:37.135Z</time></trkpt><trkpt lat="43.8204083" lon="12.7435417"><ele>96.50000000000001</ele><time>2026-04-12T10:05:38.136Z</time></trkpt><trkpt lat="43.820355" lon="12.7434167"><ele>97.0</ele><time>2026-04-12T10:05:39.135Z</time></trkpt><trkpt lat="43.8202817" lon="12.743305"><ele>97.0</ele><time>2026-04-12T10:05:40.136Z</time></trkpt><trkpt lat="43.8202183" lon="12.743195"><ele>97.0</ele><time>2026-04-12T10:05:41.135Z</time></trkpt><trkpt lat="43.8201533" lon="12.7431017"><ele>97.0</ele><time>2026-04-12T10:05:42.135Z</time></trkpt><trkpt lat="43.8200867" lon="12.74302"><ele>97.0</ele><time>2026-04-12T10:05:43.136Z</time></trkpt><trkpt lat="43.8200233" lon="12.7429417"><ele>97.0</ele><time>2026-04-12T10:05:44.136Z</time></trkpt><trkpt lat="43.81995" lon="12.742875"><ele>101.00000000000001</ele><time>2026-04-12T10:05:45.135Z</time></trkpt><trkpt lat="43.81987" lon="12.7428133"><ele>105.0</ele><time>2026-04-12T10:05:46.134Z</time></trkpt><trkpt lat="43.819795" lon="12.7427567"><ele>109.0</ele><time>2026-04-12T10:05:47.138Z</time></trkpt><trkpt lat="43.8197083" lon="12.7427333"><ele>113.0</ele><time>2026-04-12T10:05:48.136Z</time></trkpt><trkpt lat="43.81962" lon="12.74275"><ele>117.00000000000001</ele><time>2026-04-12T10:05:49.136Z</time></trkpt><trkpt lat="43.8195417" lon="12.742815"><ele>121.0</ele><time>2026-04-12T10:05:50.135Z</time></trkpt><trkpt lat="43.8194783" lon="12.7429083"><ele>121.00000000000001</ele><time>2026-04-12T10:05:51.136Z</time></trkpt><trkpt lat="43.8194233" lon="12.74301"><ele>121.0</ele><time>2026-04-12T10:05:52.134Z</time></trkpt><trkpt lat="43.8193767" lon="12.7431117"><ele>121.0</ele><time>2026-04-12T10:05:53.134Z</time></trkpt><trkpt lat="43.81933" lon="12.7432083"><ele>121.0</ele><time>2026-04-12T10:05:54.134Z</time></trkpt><trkpt lat="43.8192717" lon="12.7432817"><ele>121.00000000000001</ele><time>2026-04-12T10:05:55.137Z</time></trkpt><trkpt lat="43.8192133" lon="12.7433433"><ele>121.0</ele><time>2026-04-12T10:05:56.137Z</time></trkpt><trkpt lat="43.8191433" lon="12.7433817"><ele>124.4</ele><time>2026-04-12T10:05:57.138Z</time></trkpt><trkpt lat="43.8190583" lon="12.74338"><ele>127.8</ele><time>2026-04-12T10:05:58.135Z</time></trkpt><trkpt lat="43.81897" lon="12.7433617"><ele>131.20000000000002</ele><time>2026-04-12T10:05:59.14Z</time></trkpt><trkpt lat="43.8188833" lon="12.7433467"><ele>134.6</ele><time>2026-04-12T10:06:00.137Z</time></trkpt><trkpt lat="43.818795" lon="12.7433567"><ele>138.0</ele><time>2026-04-12T10:06:01.136Z</time></trkpt><trkpt lat="43.8186933" lon="12.743395"><ele>138.0</ele><time>2026-04-12T10:06:02.137Z</time></trkpt><trkpt lat="43.8185983" lon="12.743455"><ele>138.0</ele><time>2026-04-12T10:06:03.141Z</time></trkpt><trkpt lat="43.8185117" lon="12.7435117"><ele>138.0</ele><time>2026-04-12T10:06:04.136Z</time></trkpt><trkpt lat="43.8184267" lon="12.74357"><ele>138.0</ele><time>2026-04-12T10:06:05.137Z</time></trkpt><trkpt lat="43.8183467" lon="12.7436183"><ele>138.0</ele><time>2026-04-12T10:06:06.138Z</time></trkpt><trkpt lat="43.8182533" lon="12.743645"><ele>140.0</ele><time>2026-04-12T10:06:07.138Z</time></trkpt><trkpt lat="43.8181633" lon="12.7436783"><ele>142.0</ele><time>2026-04-12T10:06:08.136Z</time></trkpt><trkpt lat="43.8180833" lon="12.7437167"><ele>144.0</ele><time>2026-04-12T10:06:09.137Z</time></trkpt><trkpt lat="43.8179983" lon="12.7437433"><ele>146.0</ele><time>2026-04-12T10:06:10.136Z</time></trkpt><trkpt lat="43.8179067" lon="12.7437483"><ele>148.0</ele><time>2026-04-12T10:06:11.137Z</time></trkpt><trkpt lat="43.8178133" lon="12.7437567"><ele>148.0</ele><time>2026-04-12T10:06:12.137Z</time></trkpt><trkpt lat="43.8177117" lon="12.7437667"><ele>148.0</ele><time>2026-04-12T10:06:13.136Z</time></trkpt><trkpt lat="43.8176083" lon="12.74377"><ele>148.0</ele><time>2026-04-12T10:06:14.137Z</time></trkpt><trkpt lat="43.8175033" lon="12.743775"><ele>148.0</ele><time>2026-04-12T10:06:15.136Z</time></trkpt><trkpt lat="43.817395" lon="12.7437967"><ele>148.0</ele><time>2026-04-12T10:06:16.135Z</time></trkpt><trkpt lat="43.8172883" lon="12.7438367"><ele>152.25</ele><time>2026-04-12T10:06:17.137Z</time></trkpt><trkpt lat="43.817185" lon="12.7438967"><ele>156.5</ele><time>2026-04-12T10:06:18.136Z</time></trkpt><trkpt lat="43.8170717" lon="12.7439367"><ele>160.75</ele><time>2026-04-12T10:06:19.135Z</time></trkpt><trkpt lat="43.816955" lon="12.7439983"><ele>165.0</ele><time>2026-04-12T10:06:20.136Z</time></trkpt><trkpt lat="43.8168417" lon="12.74405"><ele>167.83333333333334</ele><time>2026-04-12T10:06:21.134Z</time></trkpt><trkpt lat="43.8167317" lon="12.7441067"><ele>170.66666666666666</ele><time>2026-04-12T10:06:22.135Z</time></trkpt><trkpt lat="43.8166533" lon="12.7441633"><ele>173.5</ele><time>2026-04-12T10:06:23.136Z</time></trkpt><trkpt lat="43.8165817" lon="12.7442217"><ele>176.33333333333331</ele><time>2026-04-12T10:06:24.136Z</time></trkpt><trkpt lat="43.816515" lon="12.7442867"><ele>179.16666666666666</ele><time>2026-04-12T10:06:25.135Z</time></trkpt><trkpt lat="43.8164483" lon="12.7443367"><ele>182.0</ele><time>2026-04-12T10:06:26.136Z</time></trkpt><trkpt lat="43.8163733" lon="12.7443717"><ele>182.0</ele><time>2026-04-12T10:06:27.134Z</time></trkpt><trkpt lat="43.8162967" lon="12.744385"><ele>182.0</ele><time>2026-04-12T10:06:28.134Z</time></trkpt><trkpt lat="43.8162217" lon="12.74437"><ele>182.0</ele><time>2026-04-12T10:06:29.136Z</time></trkpt><trkpt lat="43.81614" lon="12.7443283"><ele>182.0</ele><time>2026-04-12T10:06:30.135Z</time></trkpt><trkpt lat="43.8160583" lon="12.74429"><ele>182.0</ele><time>2026-04-12T10:06:31.136Z</time></trkpt><trkpt lat="43.8159817" lon="12.744245"><ele>182.0</ele><time>2026-04-12T10:06:32.136Z</time></trkpt><trkpt lat="43.8159017" lon="12.7442117"><ele>183.39999999999998</ele><time>2026-04-12T10:06:33.136Z</time></trkpt><trkpt lat="43.8158133" lon="12.7441783"><ele>184.79999999999998</ele><time>2026-04-12T10:06:34.134Z</time></trkpt><trkpt lat="43.815725" lon="12.74413"><ele>186.2</ele><time>2026-04-12T10:06:35.137Z</time></trkpt><trkpt lat="43.815635" lon="12.7441033"><ele>187.6</ele><time>2026-04-12T10:06:36.135Z</time></trkpt><trkpt lat="43.8155417" lon="12.744105"><ele>189.0</ele><time>2026-04-12T10:06:37.136Z</time></trkpt><trkpt lat="43.8154417" lon="12.7441367"><ele>189.0</ele><time>2026-04-12T10:06:38.136Z</time></trkpt><trkpt lat="43.8153467" lon="12.7441667"><ele>189.0</ele><time>2026-04-12T10:06:39.135Z</time></trkpt><trkpt lat="43.81525" lon="12.74421"><ele>189.0</ele><time>2026-04-12T10:06:40.136Z</time></trkpt><trkpt lat="43.81516" lon="12.74428"><ele>189.0</ele><time>2026-04-12T10:06:41.137Z</time></trkpt><trkpt lat="43.8150783" lon="12.7443783"><ele>189.0</ele><time>2026-04-12T10:06:42.136Z</time></trkpt><trkpt lat="43.8150083" lon="12.74449"><ele>187.6</ele><time>2026-04-12T10:06:43.136Z</time></trkpt><trkpt lat="43.8149383" lon="12.7445967"><ele>186.2</ele><time>2026-04-12T10:06:44.136Z</time></trkpt><trkpt lat="43.814865" lon="12.7447033"><ele>184.79999999999998</ele><time>2026-04-12T10:06:45.135Z</time></trkpt><trkpt lat="43.8147917" lon="12.7448183"><ele>183.39999999999998</ele><time>2026-04-12T10:06:46.136Z</time></trkpt><trkpt lat="43.8147317" lon="12.7449467"><ele>182.0</ele><time>2026-04-12T10:06:47.135Z</time></trkpt><trkpt lat="43.814685" lon="12.74507"><ele>182.0</ele><time>2026-04-12T10:06:48.134Z</time></trkpt><trkpt lat="43.814635" lon="12.74521"><ele>182.0</ele><time>2026-04-12T10:06:49.135Z</time></trkpt><trkpt lat="43.814585" lon="12.7453417"><ele>182.0</ele><time>2026-04-12T10:06:50.137Z</time></trkpt><trkpt lat="43.81455" lon="12.7454733"><ele>182.0</ele><time>2026-04-12T10:06:51.135Z</time></trkpt><trkpt lat="43.8145183" lon="12.74559"><ele>182.0</ele><time>2026-04-12T10:06:52.135Z</time></trkpt><trkpt lat="43.81448" lon="12.7456817"><ele>183.16666666666666</ele><time>2026-04-12T10:06:53.134Z</time></trkpt><trkpt lat="43.8144233" lon="12.745735"><ele>184.33333333333331</ele><time>2026-04-12T10:06:54.137Z</time></trkpt><trkpt lat="43.8143483" lon="12.74573"><ele>185.5</ele><time>2026-04-12T10:06:55.135Z</time></trkpt><trkpt lat="43.8142733" lon="12.745685"><ele>186.66666666666666</ele><time>2026-04-12T10:06:56.137Z</time></trkpt><trkpt lat="43.8141583" lon="12.745655"><ele>187.83333333333334</ele><time>2026-04-12T10:06:58.134Z</time></trkpt><trkpt lat="43.8140767" lon="12.74567"><ele>189.0</ele><time>2026-04-12T10:06:59.135Z</time></trkpt><trkpt lat="43.813985" lon="12.7456917"><ele>189.0</ele><time>2026-04-12T10:07:00.136Z</time></trkpt><trkpt lat="43.81389" lon="12.7457233"><ele>189.0</ele><time>2026-04-12T10:07:01.135Z</time></trkpt><trkpt lat="43.813795" lon="12.7457567"><ele>189.0</ele><time>2026-04-12T10:07:02.137Z</time></trkpt><trkpt lat="43.8137017" lon="12.7457783"><ele>189.0</ele><time>2026-04-12T10:07:03.135Z</time></trkpt><trkpt lat="43.8136017" lon="12.7458033"><ele>189.0</ele><time>2026-04-12T10:07:04.136Z</time></trkpt><trkpt lat="43.8135083" lon="12.7458333"><ele>187.83333333333334</ele><time>2026-04-12T10:07:05.136Z</time></trkpt><trkpt lat="43.8134217" lon="12.7458433"><ele>186.66666666666666</ele><time>2026-04-12T10:07:06.137Z</time></trkpt><trkpt lat="43.8133433" lon="12.7458733"><ele>185.5</ele><time>2026-04-12T10:07:07.135Z</time></trkpt><trkpt lat="43.8132733" lon="12.7459217"><ele>184.33333333333331</ele><time>2026-04-12T10:07:08.136Z</time></trkpt><trkpt lat="43.813205" lon="12.74598"><ele>183.16666666666666</ele><time>2026-04-12T10:07:09.135Z</time></trkpt><trkpt lat="43.8131433" lon="12.7460517"><ele>182.0</ele><time>2026-04-12T10:07:10.134Z</time></trkpt><trkpt lat="43.8130917" lon="12.74613"><ele>182.0</ele><time>2026-04-12T10:07:11.135Z</time></trkpt><trkpt lat="43.813035" lon="12.7462117"><ele>182.0</ele><time>2026-04-12T10:07:12.135Z</time></trkpt><trkpt lat="43.8129783" lon="12.7462933"><ele>182.0</ele><time>2026-04-12T10:07:13.135Z</time></trkpt><trkpt lat="43.81293" lon="12.7463733"><ele>182.0</ele><time>2026-04-12T10:07:14.136Z</time></trkpt><trkpt lat="43.812875" lon="12.7464467"><ele>182.0</ele><time>2026-04-12T10:07:15.136Z</time></trkpt><trkpt lat="43.8128217" lon="12.74652"><ele>182.0</ele><time>2026-04-12T10:07:16.135Z</time></trkpt><trkpt lat="43.8127733" lon="12.7465817"><ele>182.0</ele><time>2026-04-12T10:07:17.136Z</time></trkpt><trkpt lat="43.8127133" lon="12.746635"><ele>182.0</ele><time>2026-04-12T10:07:18.135Z</time></trkpt><trkpt lat="43.8126467" lon="12.7466817"><ele>182.0</ele><time>2026-04-12T10:07:19.135Z</time></trkpt><trkpt lat="43.81258" lon="12.7467133"><ele>182.0</ele><time>2026-04-12T10:07:20.135Z</time></trkpt><trkpt lat="43.8125083" lon="12.74673"><ele>182.0</ele><time>2026-04-12T10:07:21.135Z</time></trkpt><trkpt lat="43.8124333" lon="12.7467233"><ele>182.0</ele><time>2026-04-12T10:07:22.135Z</time></trkpt><trkpt lat="43.8123583" lon="12.7466983"><ele>182.0</ele><time>2026-04-12T10:07:23.136Z</time></trkpt><trkpt lat="43.8122717" lon="12.7466583"><ele>187.2</ele><time>2026-04-12T10:07:24.137Z</time></trkpt><trkpt lat="43.812185" lon="12.74661"><ele>192.39999999999998</ele><time>2026-04-12T10:07:25.134Z</time></trkpt><trkpt lat="43.8120983" lon="12.7465433"><ele>197.60000000000002</ele><time>2026-04-12T10:07:26.134Z</time></trkpt><trkpt lat="43.8120083" lon="12.7464817"><ele>202.8</ele><time>2026-04-12T10:07:27.135Z</time></trkpt><trkpt lat="43.8119233" lon="12.7464083"><ele>208.0</ele><time>2026-04-12T10:07:28.134Z</time></trkpt><trkpt lat="43.8118417" lon="12.746325"><ele>206.66666666666666</ele><time>2026-04-12T10:07:29.136Z</time></trkpt><trkpt lat="43.8117683" lon="12.7462417"><ele>205.33333333333331</ele><time>2026-04-12T10:07:30.136Z</time></trkpt><trkpt lat="43.8117067" lon="12.7461767"><ele>204.0</ele><time>2026-04-12T10:07:31.135Z</time></trkpt><trkpt lat="43.81162" lon="12.7460767"><ele>202.66666666666669</ele><time>2026-04-12T10:07:33.135Z</time></trkpt><trkpt lat="43.8115883" lon="12.7459883"><ele>201.33333333333334</ele><time>2026-04-12T10:07:35.134Z</time></trkpt><trkpt lat="43.811635" lon="12.7459167"><ele>200.0</ele><time>2026-04-12T10:07:37.135Z</time></trkpt><trkpt lat="43.8117317" lon="12.7459433"><ele>203.50000000000003</ele><time>2026-04-12T10:07:39.135Z</time></trkpt><trkpt lat="43.8117967" lon="12.745995"><ele>207.0</ele><time>2026-04-12T10:07:40.134Z</time></trkpt><trkpt lat="43.8118667" lon="12.74603"><ele>210.5</ele><time>2026-04-12T10:07:41.134Z</time></trkpt><trkpt lat="43.8119483" lon="12.7460383"><ele>214.0</ele><time>2026-04-12T10:07:42.135Z</time></trkpt><trkpt lat="43.8120383" lon="12.746035"><ele>217.50000000000003</ele><time>2026-04-12T10:07:43.134Z</time></trkpt><trkpt lat="43.81213" lon="12.746025"><ele>221.0</ele><time>2026-04-12T10:07:44.135Z</time></trkpt><trkpt lat="43.8122217" lon="12.745995"><ele>221.60000000000002</ele><time>2026-04-12T10:07:45.134Z</time></trkpt><trkpt lat="43.8122967" lon="12.7459567"><ele>222.20000000000002</ele><time>2026-04-12T10:07:46.135Z</time></trkpt><trkpt lat="43.8123667" lon="12.7458583"><ele>222.79999999999998</ele><time>2026-04-12T10:07:48.134Z</time></trkpt><trkpt lat="43.8123283" lon="12.7457467"><ele>223.39999999999998</ele><time>2026-04-12T10:07:50.134Z</time></trkpt><trkpt lat="43.8122333" lon="12.7457233"><ele>224.0</ele><time>2026-04-12T10:07:51.134Z</time></trkpt><trkpt lat="43.8121467" lon="12.7457"><ele>224.00000000000003</ele><time>2026-04-12T10:07:52.134Z</time></trkpt><trkpt lat="43.8121" lon="12.7456283"><ele>224.0</ele><time>2026-04-12T10:07:53.134Z</time></trkpt><trkpt lat="43.812045" lon="12.7455517"><ele>224.0</ele><time>2026-04-12T10:07:54.135Z</time></trkpt><trkpt lat="43.81201" lon="12.7454483"><ele>224.0</ele><time>2026-04-12T10:07:55.134Z</time></trkpt><trkpt lat="43.812" lon="12.7453567"><ele>224.00000000000003</ele><time>2026-04-12T10:07:56.134Z</time></trkpt><trkpt lat="43.81209" lon="12.7452417"><ele>224.0</ele><time>2026-04-12T10:07:58.133Z</time></trkpt><trkpt lat="43.8121717" lon="12.7451717"><ele>226.33333333333334</ele><time>2026-04-12T10:07:59.134Z</time></trkpt><trkpt lat="43.8122267" lon="12.7450883"><ele>228.66666666666669</ele><time>2026-04-12T10:08:00.135Z</time></trkpt><trkpt lat="43.8122783" lon="12.7449983"><ele>231.0</ele><time>2026-04-12T10:08:01.133Z</time></trkpt><trkpt lat="43.8122833" lon="12.7449"><ele>233.33333333333331</ele><time>2026-04-12T10:08:02.134Z</time></trkpt><trkpt lat="43.8122617" lon="12.7448033"><ele>235.66666666666666</ele><time>2026-04-12T10:08:03.135Z</time></trkpt><trkpt lat="43.8122017" lon="12.744655"><ele>238.0</ele><time>2026-04-12T10:08:05.135Z</time></trkpt><trkpt lat="43.8120967" lon="12.7445317"><ele>238.0</ele><time>2026-04-12T10:08:07.135Z</time></trkpt><trkpt lat="43.8120417" lon="12.7444567"><ele>238.0</ele><time>2026-04-12T10:08:08.135Z</time></trkpt><trkpt lat="43.811995" lon="12.744375"><ele>238.0</ele><time>2026-04-12T10:08:09.134Z</time></trkpt><trkpt lat="43.8119617" lon="12.7442933"><ele>238.0</ele><time>2026-04-12T10:08:10.135Z</time></trkpt><trkpt lat="43.8119567" lon="12.7441917"><ele>238.0</ele><time>2026-04-12T10:08:11.135Z</time></trkpt><trkpt lat="43.8119467" lon="12.7440883"><ele>238.0</ele><time>2026-04-12T10:08:12.135Z</time></trkpt><trkpt lat="43.81194" lon="12.743985"><ele>238.0</ele><time>2026-04-12T10:08:13.134Z</time></trkpt><trkpt lat="43.8119367" lon="12.7438333"><ele>239.16666666666666</ele><time>2026-04-12T10:08:15.134Z</time></trkpt><trkpt lat="43.8118633" lon="12.74372"><ele>240.33333333333331</ele><time>2026-04-12T10:08:17.133Z</time></trkpt><trkpt lat="43.8117583" lon="12.743645"><ele>241.5</ele><time>2026-04-12T10:08:19.133Z</time></trkpt><trkpt lat="43.8116967" lon="12.74362"><ele>242.66666666666669</ele><time>2026-04-12T10:08:20.135Z</time></trkpt><trkpt lat="43.8116417" lon="12.7435733"><ele>243.83333333333334</ele><time>2026-04-12T10:08:21.133Z</time></trkpt><trkpt lat="43.8115833" lon="12.7435267"><ele>245.0</ele><time>2026-04-12T10:08:22.135Z</time></trkpt><trkpt lat="43.8115167" lon="12.7434767"><ele>246.57142857142856</ele><time>2026-04-12T10:08:23.134Z</time></trkpt><trkpt lat="43.8114533" lon="12.7434417"><ele>248.14285714285714</ele><time>2026-04-12T10:08:24.135Z</time></trkpt><trkpt lat="43.811375" lon="12.7434167"><ele>249.71428571428572</ele><time>2026-04-12T10:08:25.135Z</time></trkpt><trkpt lat="43.8113117" lon="12.7433833"><ele>251.28571428571428</ele><time>2026-04-12T10:08:26.135Z</time></trkpt><trkpt lat="43.81122" lon="12.7433783"><ele>252.85714285714283</ele><time>2026-04-12T10:08:27.134Z</time></trkpt><trkpt lat="43.8111483" lon="12.743365"><ele>254.42857142857142</ele><time>2026-04-12T10:08:28.136Z</time></trkpt><trkpt lat="43.8110833" lon="12.7433567"><ele>256.0</ele><time>2026-04-12T10:08:29.135Z</time></trkpt><trkpt lat="43.8109833" lon="12.74332"><ele>257.0</ele><time>2026-04-12T10:08:31.135Z</time></trkpt><trkpt lat="43.810875" lon="12.7432783"><ele>258.0</ele><time>2026-04-12T10:08:33.134Z</time></trkpt><trkpt lat="43.81076" lon="12.743225"><ele>259.0</ele><time>2026-04-12T10:08:35.135Z</time></trkpt><trkpt lat="43.8107067" lon="12.7431767"><ele>260.0</ele><time>2026-04-12T10:08:36.135Z</time></trkpt><trkpt lat="43.81065" lon="12.74313"><ele>261.0</ele><time>2026-04-12T10:08:37.134Z</time></trkpt><trkpt lat="43.8105367" lon="12.7430733"><ele>261.0</ele><time>2026-04-12T10:08:39.136Z</time></trkpt><trkpt lat="43.8104267" lon="12.7430067"><ele>261.0</ele><time>2026-04-12T10:08:41.135Z</time></trkpt><trkpt lat="43.8103133" lon="12.742945"><ele>261.0</ele><time>2026-04-12T10:08:43.136Z</time></trkpt><trkpt lat="43.81025" lon="12.7429233"><ele>261.0</ele><time>2026-04-12T10:08:44.135Z</time></trkpt><trkpt lat="43.810175" lon="12.7429167"><ele>261.0</ele><time>2026-04-12T10:08:45.135Z</time></trkpt><trkpt lat="43.8101017" lon="12.7429167"><ele>260.57142857142856</ele><time>2026-04-12T10:08:46.133Z</time></trkpt><trkpt lat="43.8100317" lon="12.7429167"><ele>260.1428571428571</ele><time>2026-04-12T10:08:47.134Z</time></trkpt><trkpt lat="43.8099617" lon="12.74292"><ele>259.71428571428567</ele><time>2026-04-12T10:08:48.134Z</time></trkpt><trkpt lat="43.8098833" lon="12.7429117"><ele>259.2857142857143</ele><time>2026-04-12T10:08:49.136Z</time></trkpt><trkpt lat="43.8098033" lon="12.7428933"><ele>258.85714285714283</ele><time>2026-04-12T10:08:50.139Z</time></trkpt><trkpt lat="43.8097317" lon="12.7428817"><ele>258.4285714285714</ele><time>2026-04-12T10:08:51.135Z</time></trkpt><trkpt lat="43.8096633" lon="12.7428567"><ele>258.0</ele><time>2026-04-12T10:08:52.133Z</time></trkpt><trkpt lat="43.809595" lon="12.7428217"><ele>258.0</ele><time>2026-04-12T10:08:53.135Z</time></trkpt><trkpt lat="43.8095283" lon="12.742775"><ele>258.0</ele><time>2026-04-12T10:08:54.134Z</time></trkpt><trkpt lat="43.8094417" lon="12.7427283"><ele>258.0</ele><time>2026-04-12T10:08:55.134Z</time></trkpt><trkpt lat="43.8093733" lon="12.74267"><ele>258.0</ele><time>2026-04-12T10:08:56.134Z</time></trkpt><trkpt lat="43.8093167" lon="12.7426017"><ele>258.0</ele><time>2026-04-12T10:08:57.136Z</time></trkpt><trkpt lat="43.8092683" lon="12.7425367"><ele>258.0</ele><time>2026-04-12T10:08:58.135Z</time></trkpt><trkpt lat="43.8092083" lon="12.7424783"><ele>261.5</ele><time>2026-04-12T10:08:59.135Z</time></trkpt><trkpt lat="43.8091383" lon="12.7424433"><ele>265.0</ele><time>2026-04-12T10:09:00.135Z</time></trkpt><trkpt lat="43.809065" lon="12.7424133"><ele>268.5</ele><time>2026-04-12T10:09:01.135Z</time></trkpt><trkpt lat="43.8089867" lon="12.7423967"><ele>272.0</ele><time>2026-04-12T10:09:02.135Z</time></trkpt><trkpt lat="43.8089183" lon="12.7423717"><ele>275.5</ele><time>2026-04-12T10:09:03.134Z</time></trkpt><trkpt lat="43.8088567" lon="12.742345"><ele>279.0</ele><time>2026-04-12T10:09:04.133Z</time></trkpt><trkpt lat="43.808765" lon="12.74234"><ele>279.0</ele><time>2026-04-12T10:09:06.135Z</time></trkpt><trkpt lat="43.8086583" lon="12.7423717"><ele>279.0</ele><time>2026-04-12T10:09:08.136Z</time></trkpt><trkpt lat="43.8085983" lon="12.74242"><ele>279.0</ele><time>2026-04-12T10:09:09.134Z</time></trkpt><trkpt lat="43.8085333" lon="12.7424667"><ele>279.0</ele><time>2026-04-12T10:09:10.135Z</time></trkpt><trkpt lat="43.8084767" lon="12.7425167"><ele>279.0</ele><time>2026-04-12T10:09:11.134Z</time></trkpt><trkpt lat="43.808425" lon="12.7425783"><ele>279.0</ele><time>2026-04-12T10:09:12.134Z</time></trkpt><trkpt lat="43.8083733" lon="12.74264"><ele>276.5</ele><time>2026-04-12T10:09:13.133Z</time></trkpt><trkpt lat="43.8083333" lon="12.74271"><ele>274.0</ele><time>2026-04-12T10:09:14.135Z</time></trkpt><trkpt lat="43.8082883" lon="12.7427833"><ele>271.5</ele><time>2026-04-12T10:09:15.134Z</time></trkpt><trkpt lat="43.80825" lon="12.7428567"><ele>269.0</ele><time>2026-04-12T10:09:16.133Z</time></trkpt><trkpt lat="43.8081783" lon="12.7429967"><ele>266.5</ele><time>2026-04-12T10:09:18.134Z</time></trkpt><trkpt lat="43.8081033" lon="12.743105"><ele>264.0</ele><time>2026-04-12T10:09:20.136Z</time></trkpt><trkpt lat="43.8079817" lon="12.7431767"><ele>264.0</ele><time>2026-04-12T10:09:22.136Z</time></trkpt><trkpt lat="43.8079083" lon="12.7431767"><ele>264.0</ele><time>2026-04-12T10:09:23.134Z</time></trkpt><trkpt lat="43.8078367" lon="12.7431783"><ele>264.0</ele><time>2026-04-12T10:09:24.133Z</time></trkpt><trkpt lat="43.8077267" lon="12.743135"><ele>264.0</ele><time>2026-04-12T10:09:26.134Z</time></trkpt><trkpt lat="43.8075983" lon="12.7430867"><ele>264.0</ele><time>2026-04-12T10:09:28.134Z</time></trkpt><trkpt lat="43.807545" lon="12.74304"><ele>264.2</ele><time>2026-04-12T10:09:29.133Z</time></trkpt><trkpt lat="43.8074667" lon="12.742935"><ele>264.4</ele><time>2026-04-12T10:09:31.134Z</time></trkpt><trkpt lat="43.8073967" lon="12.7427967"><ele>264.6</ele><time>2026-04-12T10:09:33.134Z</time></trkpt><trkpt lat="43.807325" lon="12.74266"><ele>264.8</ele><time>2026-04-12T10:09:35.135Z</time></trkpt><trkpt lat="43.80728" lon="12.7425933"><ele>265.0</ele><time>2026-04-12T10:09:36.134Z</time></trkpt><trkpt lat="43.8071867" lon="12.7424717"><ele>265.0</ele><time>2026-04-12T10:09:38.135Z</time></trkpt><trkpt lat="43.8071283" lon="12.7424267"><ele>265.0</ele><time>2026-04-12T10:09:39.135Z</time></trkpt><trkpt lat="43.8070217" lon="12.7423333"><ele>265.0</ele><time>2026-04-12T10:09:41.134Z</time></trkpt><trkpt lat="43.8069117" lon="12.7422633"><ele>265.0</ele><time>2026-04-12T10:09:43.134Z</time></trkpt><trkpt lat="43.8068033" lon="12.7422167"><ele>265.0</ele><time>2026-04-12T10:09:45.133Z</time></trkpt><trkpt lat="43.8066817" lon="12.7421867"><ele>268.3333333333333</ele><time>2026-04-12T10:09:47.135Z</time></trkpt><trkpt lat="43.8066133" lon="12.742185"><ele>271.66666666666663</ele><time>2026-04-12T10:09:48.134Z</time></trkpt><trkpt lat="43.80654" lon="12.7421767"><ele>275.0</ele><time>2026-04-12T10:09:49.134Z</time></trkpt><trkpt lat="43.8064583" lon="12.74217"><ele>278.3333333333333</ele><time>2026-04-12T10:09:50.134Z</time></trkpt><trkpt lat="43.8063767" lon="12.7421683"><ele>281.6666666666667</ele><time>2026-04-12T10:09:51.134Z</time></trkpt><trkpt lat="43.8062883" lon="12.7421617"><ele>285.0</ele><time>2026-04-12T10:09:52.133Z</time></trkpt><trkpt lat="43.8062033" lon="12.74217"><ele>285.0</ele><time>2026-04-12T10:09:53.133Z</time></trkpt><trkpt lat="43.8061283" lon="12.742175"><ele>285.0</ele><time>2026-04-12T10:09:54.134Z</time></trkpt><trkpt lat="43.8060533" lon="12.742185"><ele>285.0</ele><time>2026-04-12T10:09:55.133Z</time></trkpt><trkpt lat="43.8059335" lon="12.7422275"><ele>285.0</ele><time>2026-04-12T10:09:57.139Z</time></trkpt><trkpt lat="43.8058703" lon="12.7422693"><ele>285.0</ele><time>2026-04-12T10:09:58.134Z</time></trkpt><trkpt lat="43.8058051" lon="12.7423174"><ele>285.0</ele><time>2026-04-12T10:09:59.134Z</time></trkpt><trkpt lat="43.8057374" lon="12.7423568"><ele>286.7142857142857</ele><time>2026-04-12T10:10:00.134Z</time></trkpt><trkpt lat="43.8056763" lon="12.7423903"><ele>288.42857142857144</ele><time>2026-04-12T10:10:01.134Z</time></trkpt><trkpt lat="43.8056089" lon="12.7424098"><ele>290.14285714285717</ele><time>2026-04-12T10:10:02.135Z</time></trkpt><trkpt lat="43.8055405" lon="12.7424368"><ele>291.8571428571429</ele><time>2026-04-12T10:10:03.135Z</time></trkpt><trkpt lat="43.8054683" lon="12.7424625"><ele>293.5714285714286</ele><time>2026-04-12T10:10:04.134Z</time></trkpt><trkpt lat="43.8054031" lon="12.7424958"><ele>295.2857142857143</ele><time>2026-04-12T10:10:05.135Z</time></trkpt><trkpt lat="43.8053328" lon="12.7425328"><ele>297.0</ele><time>2026-04-12T10:10:06.134Z</time></trkpt><trkpt lat="43.805259" lon="12.7425807"><ele>297.0</ele><time>2026-04-12T10:10:07.134Z</time></trkpt><trkpt lat="43.8051956" lon="12.7426392"><ele>297.0</ele><time>2026-04-12T10:10:08.133Z</time></trkpt><trkpt lat="43.805129" lon="12.7427021"><ele>297.0</ele><time>2026-04-12T10:10:09.135Z</time></trkpt><trkpt lat="43.8050655" lon="12.7427671"><ele>297.0</ele><time>2026-04-12T10:10:10.134Z</time></trkpt><trkpt lat="43.8050161" lon="12.7428438"><ele>297.0</ele><time>2026-04-12T10:10:11.135Z</time></trkpt><trkpt lat="43.8049731" lon="12.7429235"><ele>297.0</ele><time>2026-04-12T10:10:12.133Z</time></trkpt><trkpt lat="43.8049404" lon="12.7430108"><ele>300.7142857142857</ele><time>2026-04-12T10:10:13.134Z</time></trkpt><trkpt lat="43.8049159" lon="12.743104"><ele>304.42857142857144</ele><time>2026-04-12T10:10:14.133Z</time></trkpt><trkpt lat="43.8049083" lon="12.7432023"><ele>308.14285714285717</ele><time>2026-04-12T10:10:15.134Z</time></trkpt><trkpt lat="43.8049039" lon="12.7433012"><ele>311.8571428571429</ele><time>2026-04-12T10:10:16.134Z</time></trkpt><trkpt lat="43.8049035" lon="12.743395"><ele>315.57142857142856</ele><time>2026-04-12T10:10:17.133Z</time></trkpt><trkpt lat="43.8049106" lon="12.7434917"><ele>319.28571428571433</ele><time>2026-04-12T10:10:18.133Z</time></trkpt><trkpt lat="43.8049269" lon="12.7435821"><ele>323.0</ele><time>2026-04-12T10:10:19.134Z</time></trkpt><trkpt lat="43.8049345" lon="12.7436753"><ele>323.00000000000006</ele><time>2026-04-12T10:10:20.134Z</time></trkpt><trkpt lat="43.8049287" lon="12.7437679"><ele>323.0</ele><time>2026-04-12T10:10:21.134Z</time></trkpt><trkpt lat="43.8049021" lon="12.7438526"><ele>323.0</ele><time>2026-04-12T10:10:22.134Z</time></trkpt><trkpt lat="43.8048628" lon="12.743931"><ele>323.0</ele><time>2026-04-12T10:10:23.134Z</time></trkpt><trkpt lat="43.8048167" lon="12.7439983"><ele>323.0</ele><time>2026-04-12T10:10:24.134Z</time></trkpt><trkpt lat="43.8047629" lon="12.7440655"><ele>323.00000000000006</ele><time>2026-04-12T10:10:25.136Z</time></trkpt><trkpt lat="43.8047077" lon="12.7441205"><ele>323.0</ele><time>2026-04-12T10:10:26.137Z</time></trkpt><trkpt lat="43.8045956" lon="12.744191"><ele>323.0</ele><time>2026-04-12T10:10:28.135Z</time></trkpt><trkpt lat="43.8045323" lon="12.7442051"><ele>323.0</ele><time>2026-04-12T10:10:29.137Z</time></trkpt><trkpt lat="43.8044141" lon="12.7441506"><ele>323.0</ele><time>2026-04-12T10:10:31.136Z</time></trkpt><trkpt lat="43.804355" lon="12.7440883"><ele>323.0</ele><time>2026-04-12T10:10:32.135Z</time></trkpt><trkpt lat="43.8042944" lon="12.7440133"><ele>323.0</ele><time>2026-04-12T10:10:33.14Z</time></trkpt><trkpt lat="43.8042342" lon="12.7439449"><ele>323.0</ele><time>2026-04-12T10:10:34.134Z</time></trkpt><trkpt lat="43.8041707" lon="12.7438878"><ele>324.5</ele><time>2026-04-12T10:10:35.134Z</time></trkpt><trkpt lat="43.8041047" lon="12.7438321"><ele>326.0</ele><time>2026-04-12T10:10:36.135Z</time></trkpt><trkpt lat="43.8040335" lon="12.7437999"><ele>327.5</ele><time>2026-04-12T10:10:37.134Z</time></trkpt><trkpt lat="43.8039606" lon="12.7437731"><ele>329.0</ele><time>2026-04-12T10:10:38.136Z</time></trkpt><trkpt lat="43.8038842" lon="12.7437487"><ele>330.5</ele><time>2026-04-12T10:10:39.135Z</time></trkpt><trkpt lat="43.80381" lon="12.7437205"><ele>332.0</ele><time>2026-04-12T10:10:40.135Z</time></trkpt><trkpt lat="43.80373" lon="12.7437046"><ele>332.0</ele><time>2026-04-12T10:10:41.134Z</time></trkpt><trkpt lat="43.8036466" lon="12.7437022"><ele>332.0</ele><time>2026-04-12T10:10:42.135Z</time></trkpt><trkpt lat="43.8035641" lon="12.7437062"><ele>332.0</ele><time>2026-04-12T10:10:43.134Z</time></trkpt><trkpt lat="43.8034865" lon="12.7437087"><ele>332.0</ele><time>2026-04-12T10:10:44.135Z</time></trkpt><trkpt lat="43.8034045" lon="12.7437014"><ele>332.0</ele><time>2026-04-12T10:10:45.135Z</time></trkpt><trkpt lat="43.8033303" lon="12.7436942"><ele>332.0</ele><time>2026-04-12T10:10:46.134Z</time></trkpt><trkpt lat="43.8032576" lon="12.7436745"><ele>331.40000000000003</ele><time>2026-04-12T10:10:47.134Z</time></trkpt><trkpt lat="43.8031892" lon="12.7436527"><ele>330.8</ele><time>2026-04-12T10:10:48.134Z</time></trkpt><trkpt lat="43.8030711" lon="12.7436242"><ele>330.2</ele><time>2026-04-12T10:10:50.133Z</time></trkpt><trkpt lat="43.8029662" lon="12.7436022"><ele>329.6</ele><time>2026-04-12T10:10:52.133Z</time></trkpt><trkpt lat="43.8028504" lon="12.7435566"><ele>329.0</ele><time>2026-04-12T10:10:54.133Z</time></trkpt><trkpt lat="43.8027846" lon="12.7435323"><ele>330.85714285714283</ele><time>2026-04-12T10:10:55.134Z</time></trkpt><trkpt lat="43.8027144" lon="12.7435039"><ele>332.7142857142857</ele><time>2026-04-12T10:10:56.134Z</time></trkpt><trkpt lat="43.8026404" lon="12.7434714"><ele>334.57142857142856</ele><time>2026-04-12T10:10:57.134Z</time></trkpt><trkpt lat="43.8025716" lon="12.7434356"><ele>336.42857142857144</ele><time>2026-04-12T10:10:58.134Z</time></trkpt><trkpt lat="43.8025039" lon="12.7434051"><ele>338.2857142857143</ele><time>2026-04-12T10:10:59.134Z</time></trkpt><trkpt lat="43.8024351" lon="12.7433723"><ele>340.1428571428571</ele><time>2026-04-12T10:11:00.134Z</time></trkpt><trkpt lat="43.8023613" lon="12.7433404"><ele>342.0</ele><time>2026-04-12T10:11:01.133Z</time></trkpt><trkpt lat="43.8022852" lon="12.7433098"><ele>342.0</ele><time>2026-04-12T10:11:02.134Z</time></trkpt><trkpt lat="43.8022055" lon="12.7432799"><ele>342.0</ele><time>2026-04-12T10:11:03.133Z</time></trkpt><trkpt lat="43.8021211" lon="12.743244"><ele>342.0</ele><time>2026-04-12T10:11:04.134Z</time></trkpt><trkpt lat="43.8020384" lon="12.7432132"><ele>342.0</ele><time>2026-04-12T10:11:05.134Z</time></trkpt><trkpt lat="43.8019551" lon="12.7431789"><ele>342.0</ele><time>2026-04-12T10:11:06.132Z</time></trkpt><trkpt lat="43.8018691" lon="12.7431442"><ele>342.0</ele><time>2026-04-12T10:11:07.134Z</time></trkpt><trkpt lat="43.8017841" lon="12.7431153"><ele>342.1666666666667</ele><time>2026-04-12T10:11:08.133Z</time></trkpt><trkpt lat="43.801702" lon="12.7430869"><ele>342.3333333333333</ele><time>2026-04-12T10:11:09.134Z</time></trkpt><trkpt lat="43.8016217" lon="12.7430601"><ele>342.5</ele><time>2026-04-12T10:11:10.135Z</time></trkpt><trkpt lat="43.8015394" lon="12.7430447"><ele>342.66666666666663</ele><time>2026-04-12T10:11:11.132Z</time></trkpt><trkpt lat="43.8014591" lon="12.7430226"><ele>342.8333333333333</ele><time>2026-04-12T10:11:12.133Z</time></trkpt><trkpt lat="43.8013807" lon="12.7430053"><ele>343.0</ele><time>2026-04-12T10:11:13.132Z</time></trkpt><trkpt lat="43.8013027" lon="12.7429854"><ele>343.0</ele><time>2026-04-12T10:11:14.134Z</time></trkpt><trkpt lat="43.801234" lon="12.7429578"><ele>343.0</ele><time>2026-04-12T10:11:15.133Z</time></trkpt><trkpt lat="43.8011727" lon="12.7429228"><ele>343.0</ele><time>2026-04-12T10:11:16.132Z</time></trkpt><trkpt lat="43.8011108" lon="12.7428983"><ele>343.0</ele><time>2026-04-12T10:11:17.134Z</time></trkpt><trkpt lat="43.8009943" lon="12.7428984"><ele>343.0</ele><time>2026-04-12T10:11:19.134Z</time></trkpt><trkpt lat="43.8008787" lon="12.7429578"><ele>343.0</ele><time>2026-04-12T10:11:21.133Z</time></trkpt><trkpt lat="43.8008012" lon="12.7429913"><ele>343.5</ele><time>2026-04-12T10:11:22.134Z</time></trkpt><trkpt lat="43.8007197" lon="12.7430202"><ele>344.0</ele><time>2026-04-12T10:11:23.133Z</time></trkpt><trkpt lat="43.800639" lon="12.7430441"><ele>344.5</ele><time>2026-04-12T10:11:24.134Z</time></trkpt><trkpt lat="43.8005616" lon="12.7430613"><ele>345.0</ele><time>2026-04-12T10:11:25.136Z</time></trkpt><trkpt lat="43.8004835" lon="12.7430759"><ele>345.5</ele><time>2026-04-12T10:11:26.133Z</time></trkpt><trkpt lat="43.800412" lon="12.743077"><ele>346.0</ele><time>2026-04-12T10:11:27.133Z</time></trkpt><trkpt lat="43.8003374" lon="12.7430817"><ele>346.0</ele><time>2026-04-12T10:11:28.132Z</time></trkpt><trkpt lat="43.8002591" lon="12.7431079"><ele>346.0</ele><time>2026-04-12T10:11:29.133Z</time></trkpt><trkpt lat="43.8001685" lon="12.7431526"><ele>346.0</ele><time>2026-04-12T10:11:30.135Z</time></trkpt><trkpt lat="43.8000679" lon="12.743192"><ele>346.0</ele><time>2026-04-12T10:11:31.133Z</time></trkpt><trkpt lat="43.799967" lon="12.7432311"><ele>346.0</ele><time>2026-04-12T10:11:32.133Z</time></trkpt><trkpt lat="43.7998664" lon="12.7432721"><ele>346.4</ele><time>2026-04-12T10:11:33.134Z</time></trkpt><trkpt lat="43.7997739" lon="12.7433262"><ele>346.8</ele><time>2026-04-12T10:11:34.134Z</time></trkpt><trkpt lat="43.7996833" lon="12.7433917"><ele>347.2</ele><time>2026-04-12T10:11:35.135Z</time></trkpt><trkpt lat="43.7996" lon="12.74347"><ele>347.59999999999997</ele><time>2026-04-12T10:11:36.134Z</time></trkpt><trkpt lat="43.7995217" lon="12.743545"><ele>348.0</ele><time>2026-04-12T10:11:37.138Z</time></trkpt><trkpt lat="43.7994433" lon="12.7436217"><ele>347.1666666666667</ele><time>2026-04-12T10:11:38.135Z</time></trkpt><trkpt lat="43.7993683" lon="12.74369"><ele>346.3333333333333</ele><time>2026-04-12T10:11:39.134Z</time></trkpt><trkpt lat="43.799305" lon="12.74374"><ele>345.5</ele><time>2026-04-12T10:11:40.133Z</time></trkpt><trkpt lat="43.7992467" lon="12.7437967"><ele>344.66666666666663</ele><time>2026-04-12T10:11:41.134Z</time></trkpt><trkpt lat="43.7991883" lon="12.7438633"><ele>343.8333333333333</ele><time>2026-04-12T10:11:42.139Z</time></trkpt><trkpt lat="43.7991383" lon="12.7439317"><ele>343.0</ele><time>2026-04-12T10:11:43.138Z</time></trkpt><trkpt lat="43.7990883" lon="12.7440067"><ele>343.0</ele><time>2026-04-12T10:11:44.133Z</time></trkpt><trkpt lat="43.7990767" lon="12.7441683"><ele>343.0</ele><time>2026-04-12T10:11:46.133Z</time></trkpt><trkpt lat="43.7990733" lon="12.74427"><ele>343.0</ele><time>2026-04-12T10:11:47.133Z</time></trkpt><trkpt lat="43.7990883" lon="12.744355"><ele>343.0</ele><time>2026-04-12T10:11:48.134Z</time></trkpt><trkpt lat="43.7990883" lon="12.7444533"><ele>343.0</ele><time>2026-04-12T10:11:49.133Z</time></trkpt><trkpt lat="43.7990867" lon="12.744555"><ele>343.0</ele><time>2026-04-12T10:11:50.133Z</time></trkpt><trkpt lat="43.7990933" lon="12.744645"><ele>342.42857142857144</ele><time>2026-04-12T10:11:51.135Z</time></trkpt><trkpt lat="43.799115" lon="12.7447433"><ele>341.8571428571429</ele><time>2026-04-12T10:11:52.133Z</time></trkpt><trkpt lat="43.7991267" lon="12.7448317"><ele>341.2857142857143</ele><time>2026-04-12T10:11:53.135Z</time></trkpt><trkpt lat="43.7991433" lon="12.7449333"><ele>340.7142857142857</ele><time>2026-04-12T10:11:54.134Z</time></trkpt><trkpt lat="43.7991617" lon="12.745035"><ele>340.14285714285717</ele><time>2026-04-12T10:11:55.135Z</time></trkpt><trkpt lat="43.7991967" lon="12.7451317"><ele>339.57142857142856</ele><time>2026-04-12T10:11:56.135Z</time></trkpt><trkpt lat="43.7992217" lon="12.7452217"><ele>339.0</ele><time>2026-04-12T10:11:57.134Z</time></trkpt><trkpt lat="43.79925" lon="12.7453883"><ele>339.0</ele><time>2026-04-12T10:11:59.135Z</time></trkpt><trkpt lat="43.7992583" lon="12.745495"><ele>339.0</ele><time>2026-04-12T10:12:00.133Z</time></trkpt><trkpt lat="43.7992717" lon="12.7455933"><ele>339.0</ele><time>2026-04-12T10:12:01.134Z</time></trkpt><trkpt lat="43.79929" lon="12.7456917"><ele>339.0</ele><time>2026-04-12T10:12:02.133Z</time></trkpt><trkpt lat="43.7993067" lon="12.7457933"><ele>339.0</ele><time>2026-04-12T10:12:03.134Z</time></trkpt><trkpt lat="43.7993167" lon="12.7459017"><ele>339.0</ele><time>2026-04-12T10:12:04.134Z</time></trkpt><trkpt lat="43.7993267" lon="12.7459967"><ele>339.0</ele><time>2026-04-12T10:12:05.134Z</time></trkpt><trkpt lat="43.79933" lon="12.74609"><ele>337.6666666666667</ele><time>2026-04-12T10:12:06.132Z</time></trkpt><trkpt lat="43.7993283" lon="12.74618"><ele>336.3333333333333</ele><time>2026-04-12T10:12:07.133Z</time></trkpt><trkpt lat="43.7993167" lon="12.7462783"><ele>335.0</ele><time>2026-04-12T10:12:08.134Z</time></trkpt><trkpt lat="43.79926" lon="12.7464367"><ele>333.66666666666663</ele><time>2026-04-12T10:12:10.133Z</time></trkpt><trkpt lat="43.7992167" lon="12.7465183"><ele>332.3333333333333</ele><time>2026-04-12T10:12:11.133Z</time></trkpt><trkpt lat="43.79917" lon="12.7466083"><ele>331.0</ele><time>2026-04-12T10:12:12.134Z</time></trkpt><trkpt lat="43.7991283" lon="12.7467"><ele>331.0</ele><time>2026-04-12T10:12:13.134Z</time></trkpt><trkpt lat="43.7990933" lon="12.7467983"><ele>331.0</ele><time>2026-04-12T10:12:14.134Z</time></trkpt><trkpt lat="43.79906" lon="12.746895"><ele>331.0</ele><time>2026-04-12T10:12:15.133Z</time></trkpt><trkpt lat="43.7990283" lon="12.746995"><ele>331.0</ele><time>2026-04-12T10:12:16.133Z</time></trkpt><trkpt lat="43.7989967" lon="12.7470933"><ele>331.0</ele><time>2026-04-12T10:12:17.132Z</time></trkpt><trkpt lat="43.7989567" lon="12.7471867"><ele>331.0</ele><time>2026-04-12T10:12:18.134Z</time></trkpt><trkpt lat="43.7989183" lon="12.7472833"><ele>329.0</ele><time>2026-04-12T10:12:19.133Z</time></trkpt><trkpt lat="43.7988817" lon="12.7473783"><ele>327.0</ele><time>2026-04-12T10:12:20.135Z</time></trkpt><trkpt lat="43.798835" lon="12.7474717"><ele>325.0</ele><time>2026-04-12T10:12:21.133Z</time></trkpt><trkpt lat="43.7987917" lon="12.747565"><ele>323.0</ele><time>2026-04-12T10:12:22.133Z</time></trkpt><trkpt lat="43.7987533" lon="12.7476567"><ele>321.0</ele><time>2026-04-12T10:12:23.134Z</time></trkpt><trkpt lat="43.7987033" lon="12.74775"><ele>319.0</ele><time>2026-04-12T10:12:24.134Z</time></trkpt><trkpt lat="43.7986517" lon="12.7478217"><ele>319.66666666666663</ele><time>2026-04-12T10:12:25.132Z</time></trkpt><trkpt lat="43.7986067" lon="12.74789"><ele>320.3333333333333</ele><time>2026-04-12T10:12:26.133Z</time></trkpt><trkpt lat="43.798555" lon="12.7479783"><ele>321.0</ele><time>2026-04-12T10:12:27.133Z</time></trkpt><trkpt lat="43.7984933" lon="12.7480667"><ele>321.6666666666667</ele><time>2026-04-12T10:12:28.132Z</time></trkpt><trkpt lat="43.7984367" lon="12.748155"><ele>322.33333333333337</ele><time>2026-04-12T10:12:29.132Z</time></trkpt><trkpt lat="43.798375" lon="12.74825"><ele>323.0</ele><time>2026-04-12T10:12:30.132Z</time></trkpt><trkpt lat="43.7983117" lon="12.7483433"><ele>323.0</ele><time>2026-04-12T10:12:31.133Z</time></trkpt><trkpt lat="43.7982333" lon="12.7484217"><ele>323.0</ele><time>2026-04-12T10:12:32.132Z</time></trkpt><trkpt lat="43.7981733" lon="12.7485017"><ele>323.0</ele><time>2026-04-12T10:12:33.133Z</time></trkpt><trkpt lat="43.7981017" lon="12.748575"><ele>323.0</ele><time>2026-04-12T10:12:34.132Z</time></trkpt><trkpt lat="43.79804" lon="12.7486383"><ele>323.0</ele><time>2026-04-12T10:12:35.133Z</time></trkpt><trkpt lat="43.7979683" lon="12.7486967"><ele>323.0</ele><time>2026-04-12T10:12:36.132Z</time></trkpt><trkpt lat="43.7979017" lon="12.74874"><ele>321.2</ele><time>2026-04-12T10:12:37.132Z</time></trkpt><trkpt lat="43.7978367" lon="12.7487817"><ele>319.4</ele><time>2026-04-12T10:12:38.132Z</time></trkpt><trkpt lat="43.7977683" lon="12.74883"><ele>317.59999999999997</ele><time>2026-04-12T10:12:39.137Z</time></trkpt><trkpt lat="43.79771" lon="12.7488733"><ele>315.79999999999995</ele><time>2026-04-12T10:12:40.132Z</time></trkpt><trkpt lat="43.7975967" lon="12.7489267"><ele>314.0</ele><time>2026-04-12T10:12:42.133Z</time></trkpt><trkpt lat="43.7974833" lon="12.7489867"><ele>314.0</ele><time>2026-04-12T10:12:44.134Z</time></trkpt><trkpt lat="43.7973667" lon="12.74904"><ele>314.0</ele><time>2026-04-12T10:12:46.133Z</time></trkpt><trkpt lat="43.7973033" lon="12.7490567"><ele>314.0</ele><time>2026-04-12T10:12:47.133Z</time></trkpt><trkpt lat="43.79724" lon="12.7490833"><ele>314.0</ele><time>2026-04-12T10:12:48.134Z</time></trkpt><trkpt lat="43.7971467" lon="12.74913"><ele>314.0</ele><time>2026-04-12T10:12:50.135Z</time></trkpt><trkpt lat="43.797115" lon="12.7492117"><ele>314.0</ele><time>2026-04-12T10:12:52.133Z</time></trkpt><trkpt lat="43.7971067" lon="12.7493383"><ele>311.5</ele><time>2026-04-12T10:12:55.131Z</time></trkpt><trkpt lat="43.79715" lon="12.7494033"><ele>309.0</ele><time>2026-04-12T10:12:57.131Z</time></trkpt><trkpt lat="43.797205" lon="12.7494633"><ele>306.5</ele><time>2026-04-12T10:12:59.132Z</time></trkpt><trkpt lat="43.7972767" lon="12.7495083"><ele>304.0</ele><time>2026-04-12T10:13:01.132Z</time></trkpt><trkpt lat="43.7973583" lon="12.7495767"><ele>301.5</ele><time>2026-04-12T10:13:03.133Z</time></trkpt><trkpt lat="43.7974567" lon="12.7496883"><ele>299.0</ele><time>2026-04-12T10:13:05.132Z</time></trkpt><trkpt lat="43.7975083" lon="12.74974"><ele>299.0</ele><time>2026-04-12T10:13:06.133Z</time></trkpt><trkpt lat="43.7976083" lon="12.74983"><ele>299.0</ele><time>2026-04-12T10:13:08.135Z</time></trkpt><trkpt lat="43.7976917" lon="12.7498983"><ele>299.0</ele><time>2026-04-12T10:13:10.136Z</time></trkpt><trkpt lat="43.7977717" lon="12.749965"><ele>299.0</ele><time>2026-04-12T10:13:12.134Z</time></trkpt><trkpt lat="43.7978617" lon="12.7500183"><ele>299.0</ele><time>2026-04-12T10:13:14.133Z</time></trkpt><trkpt lat="43.7979483" lon="12.750055"><ele>298.8</ele><time>2026-04-12T10:13:16.135Z</time></trkpt><trkpt lat="43.7980424" lon="12.750069"><ele>298.59999999999997</ele><time>2026-04-12T10:13:18.132Z</time></trkpt><trkpt lat="43.7981218" lon="12.7500714"><ele>298.4</ele><time>2026-04-12T10:13:20.132Z</time></trkpt><trkpt lat="43.7982435" lon="12.75009"><ele>298.2</ele><time>2026-04-12T10:13:41.144Z</time></trkpt><trkpt lat="43.7983859" lon="12.7501011"><ele>298.0</ele><time>2026-04-12T10:13:44.148Z</time></trkpt><trkpt lat="43.7984922" lon="12.7501834"><ele>294.75</ele><time>2026-04-12T10:13:46.151Z</time></trkpt><trkpt lat="43.7985955" lon="12.7503222"><ele>291.5</ele><time>2026-04-12T10:13:48.153Z</time></trkpt><trkpt lat="43.7986916" lon="12.7504786"><ele>288.25</ele><time>2026-04-12T10:13:50.156Z</time></trkpt><trkpt lat="43.7987692" lon="12.750649"><ele>285.0</ele><time>2026-04-12T10:13:52.133Z</time></trkpt><trkpt lat="43.7988194" lon="12.7508415"><ele>285.0</ele><time>2026-04-12T10:13:54.162Z</time></trkpt><trkpt lat="43.7988927" lon="12.750999"><ele>285.0</ele><time>2026-04-12T10:13:57.165Z</time></trkpt><trkpt lat="43.7989398" lon="12.751148"><ele>285.0</ele><time>2026-04-12T10:13:59.132Z</time></trkpt><trkpt lat="43.7989805" lon="12.7512668"><ele>285.0</ele><time>2026-04-12T10:14:01.132Z</time></trkpt><trkpt lat="43.7990235" lon="12.751381"><ele>285.0</ele><time>2026-04-12T10:14:03.132Z</time></trkpt><trkpt lat="43.7990566" lon="12.7514842"><ele>284.4</ele><time>2026-04-12T10:14:05.132Z</time></trkpt><trkpt lat="43.7990851" lon="12.7515893"><ele>283.8</ele><time>2026-04-12T10:14:07.132Z</time></trkpt><trkpt lat="43.7991017" lon="12.7517112"><ele>283.2</ele><time>2026-04-12T10:14:10.132Z</time></trkpt><trkpt lat="43.7991628" lon="12.7518087"><ele>282.6</ele><time>2026-04-12T10:14:12.132Z</time></trkpt><trkpt lat="43.7992337" lon="12.7519121"><ele>282.0</ele><time>2026-04-12T10:14:14.133Z</time></trkpt><trkpt lat="43.7992963" lon="12.7520027"><ele>283.2</ele><time>2026-04-12T10:14:16.131Z</time></trkpt><trkpt lat="43.7993676" lon="12.7521115"><ele>284.4</ele><time>2026-04-12T10:14:18.133Z</time></trkpt><trkpt lat="43.7994561" lon="12.7522141"><ele>285.6</ele><time>2026-04-12T10:14:20.133Z</time></trkpt><trkpt lat="43.7995254" lon="12.7523088"><ele>286.8</ele><time>2026-04-12T10:14:22.132Z</time></trkpt><trkpt lat="43.79958" lon="12.7523806"><ele>288.0</ele><time>2026-04-12T10:14:24.133Z</time></trkpt><trkpt lat="43.7996237" lon="12.7524647"><ele>288.0</ele><time>2026-04-12T10:14:26.133Z</time></trkpt><trkpt lat="43.7996688" lon="12.752554"><ele>288.0</ele><time>2026-04-12T10:14:28.132Z</time></trkpt><trkpt lat="43.7997049" lon="12.7526605"><ele>288.0</ele><time>2026-04-12T10:14:30.135Z</time></trkpt><trkpt lat="43.7997291" lon="12.7527802"><ele>288.0</ele><time>2026-04-12T10:14:32.134Z</time></trkpt><trkpt lat="43.7997732" lon="12.7529076"><ele>288.0</ele><time>2026-04-12T10:14:34.132Z</time></trkpt><trkpt lat="43.799828" lon="12.7530291"><ele>287.1666666666667</ele><time>2026-04-12T10:14:36.134Z</time></trkpt><trkpt lat="43.7998843" lon="12.7531142"><ele>286.3333333333333</ele><time>2026-04-12T10:14:38.132Z</time></trkpt><trkpt lat="43.799938" lon="12.7531774"><ele>285.5</ele><time>2026-04-12T10:14:40.133Z</time></trkpt><trkpt lat="43.8000335" lon="12.7532197"><ele>284.66666666666663</ele><time>2026-04-12T10:14:42.133Z</time></trkpt><trkpt lat="43.8001101" lon="12.7532334"><ele>283.8333333333333</ele><time>2026-04-12T10:14:44.132Z</time></trkpt><trkpt lat="43.8001809" lon="12.753254"><ele>283.0</ele><time>2026-04-12T10:14:46.133Z</time></trkpt><trkpt lat="43.8002666" lon="12.7532844"><ele>283.0</ele><time>2026-04-12T10:14:48.133Z</time></trkpt><trkpt lat="43.8003468" lon="12.7533326"><ele>283.0</ele><time>2026-04-12T10:14:50.133Z</time></trkpt><trkpt lat="43.8004104" lon="12.7534086"><ele>283.0</ele><time>2026-04-12T10:14:52.133Z</time></trkpt><trkpt lat="43.8004712" lon="12.7535055"><ele>283.0</ele><time>2026-04-12T10:14:54.132Z</time></trkpt><trkpt lat="43.8005114" lon="12.7536219"><ele>283.0</ele><time>2026-04-12T10:14:56.131Z</time></trkpt><trkpt lat="43.8005517" lon="12.7537332"><ele>283.0</ele><time>2026-04-12T10:14:58.132Z</time></trkpt><trkpt lat="43.8005912" lon="12.7538325"><ele>285.5</ele><time>2026-04-12T10:15:01.132Z</time></trkpt><trkpt lat="43.8006487" lon="12.7539201"><ele>288.0</ele><time>2026-04-12T10:15:03.133Z</time></trkpt><trkpt lat="43.8007141" lon="12.7539769"><ele>290.5</ele><time>2026-04-12T10:15:05.132Z</time></trkpt><trkpt lat="43.8007904" lon="12.7540338"><ele>293.0</ele><time>2026-04-12T10:15:07.133Z</time></trkpt><trkpt lat="43.8008796" lon="12.7540869"><ele>295.5</ele><time>2026-04-12T10:15:09.131Z</time></trkpt><trkpt lat="43.8009446" lon="12.7540934"><ele>298.0</ele><time>2026-04-12T10:15:11.132Z</time></trkpt><trkpt lat="43.8008617" lon="12.7540667"><ele>298.0</ele><time>2026-04-12T10:16:07.131Z</time></trkpt><trkpt lat="43.800785" lon="12.75404"><ele>298.0</ele><time>2026-04-12T10:16:11.133Z</time></trkpt><trkpt lat="43.80073" lon="12.7539967"><ele>298.0</ele><time>2026-04-12T10:16:13.131Z</time></trkpt><trkpt lat="43.8006783" lon="12.753935"><ele>298.0</ele><time>2026-04-12T10:16:15.131Z</time></trkpt><trkpt lat="43.800625" lon="12.7538517"><ele>298.0</ele><time>2026-04-12T10:16:17.13Z</time></trkpt><trkpt lat="43.8005817" lon="12.7537467"><ele>298.0</ele><time>2026-04-12T10:16:19.131Z</time></trkpt><trkpt lat="43.8005583" lon="12.7536317"><ele>297.3333333333333</ele><time>2026-04-12T10:16:21.131Z</time></trkpt><trkpt lat="43.80051" lon="12.753525"><ele>296.66666666666663</ele><time>2026-04-12T10:16:23.132Z</time></trkpt><trkpt lat="43.8004517" lon="12.7534133"><ele>296.0</ele><time>2026-04-12T10:16:25.133Z</time></trkpt><trkpt lat="43.800385" lon="12.7533383"><ele>295.3333333333333</ele><time>2026-04-12T10:16:27.133Z</time></trkpt><trkpt lat="43.8003133" lon="12.7532933"><ele>294.6666666666667</ele><time>2026-04-12T10:16:29.131Z</time></trkpt><trkpt lat="43.800235" lon="12.7532967"><ele>294.0</ele><time>2026-04-12T10:16:31.131Z</time></trkpt><trkpt lat="43.8001617" lon="12.7532967"><ele>294.0</ele><time>2026-04-12T10:16:33.133Z</time></trkpt><trkpt lat="43.8000867" lon="12.753255"><ele>294.0</ele><time>2026-04-12T10:16:35.131Z</time></trkpt><trkpt lat="43.8000083" lon="12.753215"><ele>294.0</ele><time>2026-04-12T10:16:37.132Z</time></trkpt><trkpt lat="43.7999333" lon="12.753135"><ele>294.0</ele><time>2026-04-12T10:16:39.131Z</time></trkpt><trkpt lat="43.7998583" lon="12.7530167"><ele>294.0</ele><time>2026-04-12T10:16:41.131Z</time></trkpt><trkpt lat="43.799815" lon="12.7529217"><ele>294.0</ele><time>2026-04-12T10:16:42.132Z</time></trkpt><trkpt lat="43.799775" lon="12.752795"><ele>294.0</ele><time>2026-04-12T10:16:43.132Z</time></trkpt><trkpt lat="43.7997117" lon="12.7526583"><ele>294.0</ele><time>2026-04-12T10:16:44.132Z</time></trkpt><trkpt lat="43.7996483" lon="12.75254"><ele>294.0</ele><time>2026-04-12T10:16:45.131Z</time></trkpt><trkpt lat="43.7995833" lon="12.7524467"><ele>294.0</ele><time>2026-04-12T10:16:46.132Z</time></trkpt><trkpt lat="43.7995217" lon="12.7523517"><ele>292.8</ele><time>2026-04-12T10:16:47.131Z</time></trkpt><trkpt lat="43.799455" lon="12.7522333"><ele>291.59999999999997</ele><time>2026-04-12T10:16:48.133Z</time></trkpt><trkpt lat="43.799385" lon="12.75215"><ele>290.4</ele><time>2026-04-12T10:16:49.131Z</time></trkpt><trkpt lat="43.7993183" lon="12.7520733"><ele>289.2</ele><time>2026-04-12T10:16:50.133Z</time></trkpt><trkpt lat="43.7992567" lon="12.7519933"><ele>288.0</ele><time>2026-04-12T10:16:51.131Z</time></trkpt><trkpt lat="43.799205" lon="12.75191"><ele>287.0</ele><time>2026-04-12T10:16:52.135Z</time></trkpt><trkpt lat="43.7991617" lon="12.7518267"><ele>286.0</ele><time>2026-04-12T10:16:53.131Z</time></trkpt><trkpt lat="43.7991217" lon="12.75174"><ele>285.0</ele><time>2026-04-12T10:16:54.133Z</time></trkpt><trkpt lat="43.7990817" lon="12.7516517"><ele>284.0</ele><time>2026-04-12T10:16:55.132Z</time></trkpt><trkpt lat="43.7990517" lon="12.7515583"><ele>283.0</ele><time>2026-04-12T10:16:56.132Z</time></trkpt><trkpt lat="43.7990167" lon="12.75146"><ele>282.0</ele><time>2026-04-12T10:16:57.179Z</time></trkpt><trkpt lat="43.798985" lon="12.7513133"><ele>282.0</ele><time>2026-04-12T10:16:58.132Z</time></trkpt><trkpt lat="43.798945" lon="12.7511517"><ele>282.0</ele><time>2026-04-12T10:16:59.132Z</time></trkpt><trkpt lat="43.7989017" lon="12.7510033"><ele>282.0</ele><time>2026-04-12T10:17:00.132Z</time></trkpt><trkpt lat="43.7988533" lon="12.75087"><ele>282.0</ele><time>2026-04-12T10:17:01.133Z</time></trkpt><trkpt lat="43.7988067" lon="12.7507633"><ele>282.0</ele><time>2026-04-12T10:17:02.13Z</time></trkpt><trkpt lat="43.7987633" lon="12.7506633"><ele>282.42857142857144</ele><time>2026-04-12T10:17:03.131Z</time></trkpt><trkpt lat="43.79872" lon="12.7505683"><ele>282.85714285714283</ele><time>2026-04-12T10:17:04.132Z</time></trkpt><trkpt lat="43.798675" lon="12.750475"><ele>283.2857142857143</ele><time>2026-04-12T10:17:05.131Z</time></trkpt><trkpt lat="43.7986233" lon="12.75039"><ele>283.7142857142857</ele><time>2026-04-12T10:17:06.136Z</time></trkpt><trkpt lat="43.7985783" lon="12.7503083"><ele>284.14285714285717</ele><time>2026-04-12T10:17:07.131Z</time></trkpt><trkpt lat="43.7985383" lon="12.7502333"><ele>284.57142857142856</ele><time>2026-04-12T10:17:08.13Z</time></trkpt><trkpt lat="43.7984917" lon="12.7501733"><ele>285.0</ele><time>2026-04-12T10:17:09.132Z</time></trkpt><trkpt lat="43.7984367" lon="12.7501267"><ele>287.6</ele><time>2026-04-12T10:17:10.13Z</time></trkpt><trkpt lat="43.7983433" lon="12.7500733"><ele>290.2</ele><time>2026-04-12T10:17:12.131Z</time></trkpt><trkpt lat="43.7982217" lon="12.750085"><ele>292.8</ele><time>2026-04-12T10:17:14.133Z</time></trkpt><trkpt lat="43.79815" lon="12.7500867"><ele>295.4</ele><time>2026-04-12T10:17:15.133Z</time></trkpt><trkpt lat="43.798055" lon="12.7500733"><ele>298.0</ele><time>2026-04-12T10:17:16.132Z</time></trkpt><trkpt lat="43.7979683" lon="12.7500417"><ele>298.0</ele><time>2026-04-12T10:17:17.131Z</time></trkpt><trkpt lat="43.7978867" lon="12.750015"><ele>298.0</ele><time>2026-04-12T10:17:18.131Z</time></trkpt><trkpt lat="43.7978033" lon="12.74998"><ele>298.0</ele><time>2026-04-12T10:17:19.13Z</time></trkpt><trkpt lat="43.797715" lon="12.74993"><ele>298.0</ele><time>2026-04-12T10:17:20.132Z</time></trkpt><trkpt lat="43.7976317" lon="12.7498783"><ele>298.0</ele><time>2026-04-12T10:17:21.13Z</time></trkpt><trkpt lat="43.7975533" lon="12.7498233"><ele>298.0</ele><time>2026-04-12T10:17:22.13Z</time></trkpt><trkpt lat="43.797485" lon="12.7497583"><ele>298.2</ele><time>2026-04-12T10:17:23.131Z</time></trkpt><trkpt lat="43.797425" lon="12.7496883"><ele>298.4</ele><time>2026-04-12T10:17:24.13Z</time></trkpt><trkpt lat="43.7973683" lon="12.7496083"><ele>298.59999999999997</ele><time>2026-04-12T10:17:25.129Z</time></trkpt><trkpt lat="43.7972667" lon="12.749525"><ele>298.8</ele><time>2026-04-12T10:17:27.13Z</time></trkpt><trkpt lat="43.7971617" lon="12.7494333"><ele>299.0</ele><time>2026-04-12T10:17:29.131Z</time></trkpt><trkpt lat="43.7971117" lon="12.74929"><ele>302.0</ele><time>2026-04-12T10:17:31.131Z</time></trkpt><trkpt lat="43.7971733" lon="12.7491317"><ele>305.0</ele><time>2026-04-12T10:17:33.13Z</time></trkpt><trkpt lat="43.7972417" lon="12.7490817"><ele>308.0</ele><time>2026-04-12T10:17:34.133Z</time></trkpt><trkpt lat="43.797335" lon="12.7490583"><ele>311.0</ele><time>2026-04-12T10:17:35.131Z</time></trkpt><trkpt lat="43.7974567" lon="12.7490033"><ele>314.0</ele><time>2026-04-12T10:17:36.131Z</time></trkpt><trkpt lat="43.7976117" lon="12.7489217"><ele>313.6666666666667</ele><time>2026-04-12T10:17:37.131Z</time></trkpt><trkpt lat="43.7977667" lon="12.74884"><ele>313.3333333333333</ele><time>2026-04-12T10:17:38.131Z</time></trkpt><trkpt lat="43.7979017" lon="12.7487567"><ele>313.0</ele><time>2026-04-12T10:17:39.131Z</time></trkpt><trkpt lat="43.79802" lon="12.74866"><ele>313.0</ele><time>2026-04-12T10:17:40.133Z</time></trkpt><trkpt lat="43.7981317" lon="12.7485467"><ele>313.0</ele><time>2026-04-12T10:17:41.131Z</time></trkpt><trkpt lat="43.7982367" lon="12.7484183"><ele>313.0</ele><time>2026-04-12T10:17:42.13Z</time></trkpt><trkpt lat="43.798355" lon="12.74827"><ele>313.0</ele><time>2026-04-12T10:17:43.131Z</time></trkpt><trkpt lat="43.7984783" lon="12.7481017"><ele>315.0</ele><time>2026-04-12T10:17:44.131Z</time></trkpt><trkpt lat="43.798595" lon="12.7479217"><ele>317.0</ele><time>2026-04-12T10:17:45.13Z</time></trkpt><trkpt lat="43.798695" lon="12.7477483"><ele>319.0</ele><time>2026-04-12T10:17:46.131Z</time></trkpt><trkpt lat="43.7987733" lon="12.7475683"><ele>319.0</ele><time>2026-04-12T10:17:47.131Z</time></trkpt><trkpt lat="43.7988467" lon="12.7474133"><ele>319.0</ele><time>2026-04-12T10:17:48.131Z</time></trkpt><trkpt lat="43.79892" lon="12.7472583"><ele>319.0</ele><time>2026-04-12T10:17:49.131Z</time></trkpt><trkpt lat="43.7989883" lon="12.747085"><ele>319.0</ele><time>2026-04-12T10:17:50.131Z</time></trkpt><trkpt lat="43.7990467" lon="12.7469083"><ele>321.4</ele><time>2026-04-12T10:17:51.13Z</time></trkpt><trkpt lat="43.799105" lon="12.7467533"><ele>323.79999999999995</ele><time>2026-04-12T10:17:52.131Z</time></trkpt><trkpt lat="43.7991567" lon="12.7466133"><ele>326.20000000000005</ele><time>2026-04-12T10:17:53.132Z</time></trkpt><trkpt lat="43.7992167" lon="12.746495"><ele>328.6</ele><time>2026-04-12T10:17:54.131Z</time></trkpt><trkpt lat="43.799275" lon="12.746395"><ele>331.0</ele><time>2026-04-12T10:17:55.132Z</time></trkpt><trkpt lat="43.79932" lon="12.746295"><ele>332.6</ele><time>2026-04-12T10:17:56.131Z</time></trkpt><trkpt lat="43.7993483" lon="12.7461717"><ele>334.20000000000005</ele><time>2026-04-12T10:17:57.131Z</time></trkpt><trkpt lat="43.7993467" lon="12.7460267"><ele>335.79999999999995</ele><time>2026-04-12T10:17:58.131Z</time></trkpt><trkpt lat="43.7993383" lon="12.7458817"><ele>337.4</ele><time>2026-04-12T10:17:59.131Z</time></trkpt><trkpt lat="43.7993233" lon="12.7457433"><ele>339.0</ele><time>2026-04-12T10:18:00.133Z</time></trkpt><trkpt lat="43.7992933" lon="12.7456033"><ele>339.0</ele><time>2026-04-12T10:18:01.131Z</time></trkpt><trkpt lat="43.7992633" lon="12.7454733"><ele>339.0</ele><time>2026-04-12T10:18:02.131Z</time></trkpt><trkpt lat="43.7992267" lon="12.7453417"><ele>339.0</ele><time>2026-04-12T10:18:03.131Z</time></trkpt><trkpt lat="43.799185" lon="12.7452083"><ele>339.0</ele><time>2026-04-12T10:18:04.13Z</time></trkpt><trkpt lat="43.799145" lon="12.7450767"><ele>339.0</ele><time>2026-04-12T10:18:05.13Z</time></trkpt><trkpt lat="43.7991167" lon="12.7449433"><ele>339.0</ele><time>2026-04-12T10:18:06.132Z</time></trkpt><trkpt lat="43.7991" lon="12.74481"><ele>339.0</ele><time>2026-04-12T10:18:07.132Z</time></trkpt><trkpt lat="43.7990917" lon="12.7446867"><ele>339.0</ele><time>2026-04-12T10:18:08.132Z</time></trkpt><trkpt lat="43.7990817" lon="12.7445733"><ele>339.0</ele><time>2026-04-12T10:18:09.13Z</time></trkpt><trkpt lat="43.799075" lon="12.7444633"><ele>339.0</ele><time>2026-04-12T10:18:10.131Z</time></trkpt><trkpt lat="43.7990733" lon="12.74436"><ele>339.0</ele><time>2026-04-12T10:18:11.13Z</time></trkpt><trkpt lat="43.7990717" lon="12.74426"><ele>339.6666666666667</ele><time>2026-04-12T10:18:12.13Z</time></trkpt><trkpt lat="43.799075" lon="12.7441533"><ele>340.3333333333333</ele><time>2026-04-12T10:18:13.131Z</time></trkpt><trkpt lat="43.7990917" lon="12.744045"><ele>341.0</ele><time>2026-04-12T10:18:14.13Z</time></trkpt><trkpt lat="43.7991233" lon="12.74394"><ele>341.66666666666663</ele><time>2026-04-12T10:18:15.129Z</time></trkpt><trkpt lat="43.7991667" lon="12.7438433"><ele>342.3333333333333</ele><time>2026-04-12T10:18:16.131Z</time></trkpt><trkpt lat="43.7992233" lon="12.7437733"><ele>343.0</ele><time>2026-04-12T10:18:17.13Z</time></trkpt><trkpt lat="43.7992867" lon="12.7437133"><ele>343.8333333333333</ele><time>2026-04-12T10:18:18.131Z</time></trkpt><trkpt lat="43.7993433" lon="12.7436433"><ele>344.66666666666663</ele><time>2026-04-12T10:18:19.13Z</time></trkpt><trkpt lat="43.7994083" lon="12.7435833"><ele>345.5</ele><time>2026-04-12T10:18:20.132Z</time></trkpt><trkpt lat="43.79948" lon="12.74352"><ele>346.3333333333333</ele><time>2026-04-12T10:18:21.131Z</time></trkpt><trkpt lat="43.799555" lon="12.7434567"><ele>347.1666666666667</ele><time>2026-04-12T10:18:22.13Z</time></trkpt><trkpt lat="43.7996317" lon="12.7433933"><ele>348.0</ele><time>2026-04-12T10:18:23.13Z</time></trkpt><trkpt lat="43.79971" lon="12.74334"><ele>348.0</ele><time>2026-04-12T10:18:24.13Z</time></trkpt><trkpt lat="43.7997917" lon="12.7433033"><ele>348.0</ele><time>2026-04-12T10:18:25.131Z</time></trkpt><trkpt lat="43.7998667" lon="12.7432617"><ele>348.0</ele><time>2026-04-12T10:18:26.132Z</time></trkpt><trkpt lat="43.7999467" lon="12.743225"><ele>348.0</ele><time>2026-04-12T10:18:27.13Z</time></trkpt><trkpt lat="43.8000317" lon="12.7432017"><ele>348.0</ele><time>2026-04-12T10:18:28.131Z</time></trkpt><trkpt lat="43.80011" lon="12.7431783"><ele>348.0</ele><time>2026-04-12T10:18:29.131Z</time></trkpt><trkpt lat="43.8001867" lon="12.7431517"><ele>347.6666666666667</ele><time>2026-04-12T10:18:30.131Z</time></trkpt><trkpt lat="43.8002517" lon="12.7431267"><ele>347.3333333333333</ele><time>2026-04-12T10:18:31.13Z</time></trkpt><trkpt lat="43.8003217" lon="12.7430983"><ele>347.0</ele><time>2026-04-12T10:18:32.131Z</time></trkpt><trkpt lat="43.8003817" lon="12.7430717"><ele>346.66666666666663</ele><time>2026-04-12T10:18:33.131Z</time></trkpt><trkpt lat="43.8005067" lon="12.74305"><ele>346.3333333333333</ele><time>2026-04-12T10:18:35.135Z</time></trkpt><trkpt lat="43.80057" lon="12.7430433"><ele>346.0</ele><time>2026-04-12T10:18:36.132Z</time></trkpt><trkpt lat="43.8006467" lon="12.7430267"><ele>346.0</ele><time>2026-04-12T10:18:37.131Z</time></trkpt><trkpt lat="43.8007217" lon="12.74301"><ele>346.0</ele><time>2026-04-12T10:18:38.131Z</time></trkpt><trkpt lat="43.8007883" lon="12.7429967"><ele>346.0</ele><time>2026-04-12T10:18:39.13Z</time></trkpt><trkpt lat="43.8008567" lon="12.7429817"><ele>346.0</ele><time>2026-04-12T10:18:40.129Z</time></trkpt><trkpt lat="43.8009183" lon="12.7429617"><ele>346.0</ele><time>2026-04-12T10:18:41.131Z</time></trkpt><trkpt lat="43.801015" lon="12.74292"><ele>346.0</ele><time>2026-04-12T10:18:43.131Z</time></trkpt><trkpt lat="43.801095" lon="12.742915"><ele>345.4</ele><time>2026-04-12T10:18:45.131Z</time></trkpt><trkpt lat="43.8012017" lon="12.7429417"><ele>344.8</ele><time>2026-04-12T10:18:47.131Z</time></trkpt><trkpt lat="43.8012617" lon="12.7429683"><ele>344.2</ele><time>2026-04-12T10:18:48.131Z</time></trkpt><trkpt lat="43.8013783" lon="12.743015"><ele>343.59999999999997</ele><time>2026-04-12T10:18:50.131Z</time></trkpt><trkpt lat="43.8014983" lon="12.7430567"><ele>343.0</ele><time>2026-04-12T10:18:52.129Z</time></trkpt><trkpt lat="43.8016183" lon="12.743105"><ele>343.0</ele><time>2026-04-12T10:18:54.13Z</time></trkpt><trkpt lat="43.801685" lon="12.7431333"><ele>343.0</ele><time>2026-04-12T10:18:55.129Z</time></trkpt><trkpt lat="43.8017533" lon="12.7431583"><ele>343.0</ele><time>2026-04-12T10:18:56.131Z</time></trkpt><trkpt lat="43.8018233" lon="12.74318"><ele>343.0</ele><time>2026-04-12T10:18:57.13Z</time></trkpt><trkpt lat="43.8018983" lon="12.7432067"><ele>343.0</ele><time>2026-04-12T10:18:58.13Z</time></trkpt><trkpt lat="43.8019733" lon="12.7432217"><ele>343.0</ele><time>2026-04-12T10:18:59.13Z</time></trkpt><trkpt lat="43.8020433" lon="12.7432383"><ele>343.0</ele><time>2026-04-12T10:19:00.131Z</time></trkpt><trkpt lat="43.8021117" lon="12.743265"><ele>342.79999999999995</ele><time>2026-04-12T10:19:01.131Z</time></trkpt><trkpt lat="43.8021767" lon="12.74329"><ele>342.6</ele><time>2026-04-12T10:19:02.131Z</time></trkpt><trkpt lat="43.802275" lon="12.7433367"><ele>342.4</ele><time>2026-04-12T10:19:04.13Z</time></trkpt><trkpt lat="43.8024083" lon="12.743375"><ele>342.20000000000005</ele><time>2026-04-12T10:19:06.13Z</time></trkpt><trkpt lat="43.8024717" lon="12.7433883"><ele>342.0</ele><time>2026-04-12T10:19:07.131Z</time></trkpt><trkpt lat="43.80258" lon="12.7434317"><ele>342.0</ele><time>2026-04-12T10:19:09.131Z</time></trkpt><trkpt lat="43.8026533" lon="12.7434783"><ele>342.0</ele><time>2026-04-12T10:19:11.131Z</time></trkpt><trkpt lat="43.802715" lon="12.7435333"><ele>342.0</ele><time>2026-04-12T10:19:14.13Z</time></trkpt><trkpt lat="43.80278" lon="12.7435317"><ele>342.0</ele><time>2026-04-12T10:20:11.13Z</time></trkpt><trkpt lat="43.8028767" lon="12.743555"><ele>342.0</ele><time>2026-04-12T10:20:13.131Z</time></trkpt><trkpt lat="43.803" lon="12.7435933"><ele>342.0</ele><time>2026-04-12T10:20:15.131Z</time></trkpt><trkpt lat="43.8030717" lon="12.743595"><ele>340.3333333333333</ele><time>2026-04-12T10:20:16.129Z</time></trkpt><trkpt lat="43.8031417" lon="12.7436117"><ele>338.6666666666667</ele><time>2026-04-12T10:20:17.129Z</time></trkpt><trkpt lat="43.803255" lon="12.7436567"><ele>337.0</ele><time>2026-04-12T10:20:19.134Z</time></trkpt><trkpt lat="43.8033283" lon="12.7436933"><ele>335.33333333333337</ele><time>2026-04-12T10:20:20.13Z</time></trkpt><trkpt lat="43.8034117" lon="12.7437217"><ele>333.6666666666667</ele><time>2026-04-12T10:20:21.13Z</time></trkpt><trkpt lat="43.803495" lon="12.7437333"><ele>332.0</ele><time>2026-04-12T10:20:22.129Z</time></trkpt><trkpt lat="43.8035717" lon="12.7437367"><ele>332.0</ele><time>2026-04-12T10:20:23.13Z</time></trkpt><trkpt lat="43.803655" lon="12.7437483"><ele>332.0</ele><time>2026-04-12T10:20:24.13Z</time></trkpt><trkpt lat="43.803745" lon="12.7437567"><ele>332.0</ele><time>2026-04-12T10:20:25.129Z</time></trkpt><trkpt lat="43.803825" lon="12.743765"><ele>332.0</ele><time>2026-04-12T10:20:26.13Z</time></trkpt><trkpt lat="43.803915" lon="12.7437783"><ele>332.0</ele><time>2026-04-12T10:20:27.129Z</time></trkpt><trkpt lat="43.8039917" lon="12.7437967"><ele>332.0</ele><time>2026-04-12T10:20:28.131Z</time></trkpt><trkpt lat="43.8040617" lon="12.7438183"><ele>332.0</ele><time>2026-04-12T10:20:29.13Z</time></trkpt><trkpt lat="43.8041433" lon="12.7438517"><ele>332.0</ele><time>2026-04-12T10:20:30.13Z</time></trkpt><trkpt lat="43.80422" lon="12.7438983"><ele>332.0</ele><time>2026-04-12T10:20:31.131Z</time></trkpt><trkpt lat="43.8042967" lon="12.7439567"><ele>332.0</ele><time>2026-04-12T10:20:32.132Z</time></trkpt><trkpt lat="43.804345" lon="12.7440367"><ele>332.0</ele><time>2026-04-12T10:20:33.129Z</time></trkpt><trkpt lat="43.8043983" lon="12.7441183"><ele>332.0</ele><time>2026-04-12T10:20:34.13Z</time></trkpt><trkpt lat="43.8044583" lon="12.74418"><ele>330.5</ele><time>2026-04-12T10:20:35.131Z</time></trkpt><trkpt lat="43.80452" lon="12.74422"><ele>329.0</ele><time>2026-04-12T10:20:36.131Z</time></trkpt><trkpt lat="43.8046483" lon="12.7442033"><ele>327.5</ele><time>2026-04-12T10:20:38.131Z</time></trkpt><trkpt lat="43.8047117" lon="12.7441517"><ele>326.0</ele><time>2026-04-12T10:20:39.129Z</time></trkpt><trkpt lat="43.8047717" lon="12.7440917"><ele>324.5</ele><time>2026-04-12T10:20:40.131Z</time></trkpt><trkpt lat="43.804835" lon="12.7440317"><ele>323.0</ele><time>2026-04-12T10:20:41.13Z</time></trkpt><trkpt lat="43.8048883" lon="12.7439517"><ele>323.0</ele><time>2026-04-12T10:20:42.131Z</time></trkpt><trkpt lat="43.8049333" lon="12.743865"><ele>323.0</ele><time>2026-04-12T10:20:43.129Z</time></trkpt><trkpt lat="43.804955" lon="12.74376"><ele>323.0</ele><time>2026-04-12T10:20:44.133Z</time></trkpt><trkpt lat="43.8049567" lon="12.743655"><ele>323.0</ele><time>2026-04-12T10:20:45.129Z</time></trkpt><trkpt lat="43.804975" lon="12.7435383"><ele>323.0</ele><time>2026-04-12T10:20:46.13Z</time></trkpt><trkpt lat="43.8049733" lon="12.7434317"><ele>323.0</ele><time>2026-04-12T10:20:47.129Z</time></trkpt><trkpt lat="43.8049667" lon="12.743325"><ele>323.1666666666667</ele><time>2026-04-12T10:20:48.129Z</time></trkpt><trkpt lat="43.8049767" lon="12.7432183"><ele>323.33333333333337</ele><time>2026-04-12T10:20:49.129Z</time></trkpt><trkpt lat="43.805" lon="12.74311"><ele>323.5</ele><time>2026-04-12T10:20:50.132Z</time></trkpt><trkpt lat="43.8050283" lon="12.7430117"><ele>323.6666666666667</ele><time>2026-04-12T10:20:51.129Z</time></trkpt><trkpt lat="43.8050633" lon="12.7429267"><ele>323.8333333333333</ele><time>2026-04-12T10:20:52.13Z</time></trkpt><trkpt lat="43.8051117" lon="12.7428433"><ele>324.0</ele><time>2026-04-12T10:20:53.129Z</time></trkpt><trkpt lat="43.8051633" lon="12.74277"><ele>319.5</ele><time>2026-04-12T10:20:54.129Z</time></trkpt><trkpt lat="43.8052167" lon="12.7427"><ele>315.0</ele><time>2026-04-12T10:20:55.13Z</time></trkpt><trkpt lat="43.805275" lon="12.7426317"><ele>310.5</ele><time>2026-04-12T10:20:56.131Z</time></trkpt><trkpt lat="43.8053417" lon="12.7425683"><ele>306.0</ele><time>2026-04-12T10:20:57.13Z</time></trkpt><trkpt lat="43.8054183" lon="12.7425167"><ele>301.5</ele><time>2026-04-12T10:20:58.13Z</time></trkpt><trkpt lat="43.8055" lon="12.74247"><ele>297.0</ele><time>2026-04-12T10:20:59.129Z</time></trkpt><trkpt lat="43.8055917" lon="12.7424333"><ele>297.0</ele><time>2026-04-12T10:21:00.131Z</time></trkpt><trkpt lat="43.80568" lon="12.74237"><ele>297.0</ele><time>2026-04-12T10:21:01.13Z</time></trkpt><trkpt lat="43.8057617" lon="12.7422933"><ele>297.0</ele><time>2026-04-12T10:21:02.13Z</time></trkpt><trkpt lat="43.8058333" lon="12.7422267"><ele>297.0</ele><time>2026-04-12T10:21:03.13Z</time></trkpt><trkpt lat="43.805915" lon="12.7421817"><ele>297.0</ele><time>2026-04-12T10:21:04.129Z</time></trkpt><trkpt lat="43.8059967" lon="12.74216"><ele>294.6</ele><time>2026-04-12T10:21:05.129Z</time></trkpt><trkpt lat="43.80609" lon="12.742145"><ele>292.2</ele><time>2026-04-12T10:21:06.13Z</time></trkpt><trkpt lat="43.8061867" lon="12.7421317"><ele>289.8</ele><time>2026-04-12T10:21:07.13Z</time></trkpt><trkpt lat="43.806285" lon="12.742135"><ele>287.4</ele><time>2026-04-12T10:21:08.13Z</time></trkpt><trkpt lat="43.8063883" lon="12.7421417"><ele>285.0</ele><time>2026-04-12T10:21:09.13Z</time></trkpt><trkpt lat="43.806485" lon="12.7421467"><ele>285.0</ele><time>2026-04-12T10:21:10.129Z</time></trkpt><trkpt lat="43.8065733" lon="12.74214"><ele>285.0</ele><time>2026-04-12T10:21:11.129Z</time></trkpt><trkpt lat="43.8066433" lon="12.742145"><ele>285.0</ele><time>2026-04-12T10:21:12.129Z</time></trkpt><trkpt lat="43.8067133" lon="12.7421467"><ele>285.0</ele><time>2026-04-12T10:21:13.129Z</time></trkpt><trkpt lat="43.8067817" lon="12.7421467"><ele>285.0</ele><time>2026-04-12T10:21:14.129Z</time></trkpt><trkpt lat="43.8068467" lon="12.7421583"><ele>285.0</ele><time>2026-04-12T10:21:15.13Z</time></trkpt><trkpt lat="43.80696" lon="12.7422083"><ele>281.6666666666667</ele><time>2026-04-12T10:21:17.129Z</time></trkpt><trkpt lat="43.8070233" lon="12.7422617"><ele>278.3333333333333</ele><time>2026-04-12T10:21:18.129Z</time></trkpt><trkpt lat="43.8070867" lon="12.7423283"><ele>275.0</ele><time>2026-04-12T10:21:19.128Z</time></trkpt><trkpt lat="43.8071517" lon="12.7424117"><ele>271.66666666666663</ele><time>2026-04-12T10:21:20.131Z</time></trkpt><trkpt lat="43.8072183" lon="12.74248"><ele>268.3333333333333</ele><time>2026-04-12T10:21:21.129Z</time></trkpt><trkpt lat="43.8072767" lon="12.7425617"><ele>265.0</ele><time>2026-04-12T10:21:22.129Z</time></trkpt><trkpt lat="43.8073333" lon="12.7426533"><ele>264.85714285714283</ele><time>2026-04-12T10:21:23.127Z</time></trkpt><trkpt lat="43.80738" lon="12.7427417"><ele>264.7142857142857</ele><time>2026-04-12T10:21:24.128Z</time></trkpt><trkpt lat="43.8074183" lon="12.7428267"><ele>264.57142857142856</ele><time>2026-04-12T10:21:25.13Z</time></trkpt><trkpt lat="43.8074567" lon="12.7429033"><ele>264.42857142857144</ele><time>2026-04-12T10:21:26.131Z</time></trkpt><trkpt lat="43.807505" lon="12.7429783"><ele>264.2857142857143</ele><time>2026-04-12T10:21:27.128Z</time></trkpt><trkpt lat="43.8075683" lon="12.7430317"><ele>264.1428571428571</ele><time>2026-04-12T10:21:28.13Z</time></trkpt><trkpt lat="43.8076433" lon="12.743065"><ele>264.0</ele><time>2026-04-12T10:21:29.129Z</time></trkpt><trkpt lat="43.8077033" lon="12.7430933"><ele>264.0</ele><time>2026-04-12T10:21:30.129Z</time></trkpt><trkpt lat="43.8077767" lon="12.7431167"><ele>264.0</ele><time>2026-04-12T10:21:31.128Z</time></trkpt><trkpt lat="43.80785" lon="12.7431283"><ele>264.0</ele><time>2026-04-12T10:21:32.129Z</time></trkpt><trkpt lat="43.807925" lon="12.7431367"><ele>264.0</ele><time>2026-04-12T10:21:33.129Z</time></trkpt><trkpt lat="43.8079983" lon="12.7431317"><ele>264.0</ele><time>2026-04-12T10:21:34.128Z</time></trkpt><trkpt lat="43.808075" lon="12.7431067"><ele>264.0</ele><time>2026-04-12T10:21:35.129Z</time></trkpt><trkpt lat="43.8081433" lon="12.7430533"><ele>264.0</ele><time>2026-04-12T10:21:36.129Z</time></trkpt><trkpt lat="43.8082067" lon="12.742975"><ele>264.0</ele><time>2026-04-12T10:21:37.129Z</time></trkpt><trkpt lat="43.8082633" lon="12.7428683"><ele>264.0</ele><time>2026-04-12T10:21:38.129Z</time></trkpt><trkpt lat="43.8083167" lon="12.7427583"><ele>264.0</ele><time>2026-04-12T10:21:39.129Z</time></trkpt><trkpt lat="43.808375" lon="12.7426567"><ele>264.0</ele><time>2026-04-12T10:21:40.129Z</time></trkpt><trkpt lat="43.8084317" lon="12.742565"><ele>263.8</ele><time>2026-04-12T10:21:41.129Z</time></trkpt><trkpt lat="43.80849" lon="12.742495"><ele>263.59999999999997</ele><time>2026-04-12T10:21:42.13Z</time></trkpt><trkpt lat="43.8085433" lon="12.74243"><ele>263.4</ele><time>2026-04-12T10:21:43.128Z</time></trkpt><trkpt lat="43.8085983" lon="12.7423817"><ele>263.2</ele><time>2026-04-12T10:21:44.129Z</time></trkpt><trkpt lat="43.8087167" lon="12.7423283"><ele>263.0</ele><time>2026-04-12T10:21:46.129Z</time></trkpt><trkpt lat="43.80883" lon="12.7423117"><ele>266.2</ele><time>2026-04-12T10:21:48.129Z</time></trkpt><trkpt lat="43.8089583" lon="12.7423417"><ele>269.4</ele><time>2026-04-12T10:21:50.129Z</time></trkpt><trkpt lat="43.8090367" lon="12.7423517"><ele>272.59999999999997</ele><time>2026-04-12T10:21:51.13Z</time></trkpt><trkpt lat="43.8091183" lon="12.7424067"><ele>275.8</ele><time>2026-04-12T10:21:52.129Z</time></trkpt><trkpt lat="43.8091983" lon="12.742465"><ele>279.0</ele><time>2026-04-12T10:21:53.13Z</time></trkpt><trkpt lat="43.8092767" lon="12.7425417"><ele>277.0</ele><time>2026-04-12T10:21:54.129Z</time></trkpt><trkpt lat="43.8093533" lon="12.7426133"><ele>275.0</ele><time>2026-04-12T10:21:55.128Z</time></trkpt><trkpt lat="43.8094267" lon="12.7426867"><ele>273.0</ele><time>2026-04-12T10:21:56.129Z</time></trkpt><trkpt lat="43.8094933" lon="12.7427483"><ele>271.0</ele><time>2026-04-12T10:21:57.129Z</time></trkpt><trkpt lat="43.8095733" lon="12.7428067"><ele>269.0</ele><time>2026-04-12T10:21:58.129Z</time></trkpt><trkpt lat="43.8096483" lon="12.7428567"><ele>267.0</ele><time>2026-04-12T10:21:59.13Z</time></trkpt><trkpt lat="43.8097233" lon="12.7428833"><ele>266.0</ele><time>2026-04-12T10:22:00.128Z</time></trkpt><trkpt lat="43.80981" lon="12.7429117"><ele>265.0</ele><time>2026-04-12T10:22:01.129Z</time></trkpt><trkpt lat="43.8098867" lon="12.7429217"><ele>264.0</ele><time>2026-04-12T10:22:02.13Z</time></trkpt><trkpt lat="43.809965" lon="12.7429333"><ele>263.0</ele><time>2026-04-12T10:22:03.129Z</time></trkpt><trkpt lat="43.8100533" lon="12.7429267"><ele>262.0</ele><time>2026-04-12T10:22:04.129Z</time></trkpt><trkpt lat="43.81014" lon="12.7429233"><ele>261.0</ele><time>2026-04-12T10:22:05.129Z</time></trkpt><trkpt lat="43.8102367" lon="12.7429483"><ele>261.0</ele><time>2026-04-12T10:22:06.13Z</time></trkpt><trkpt lat="43.8103167" lon="12.7429783"><ele>261.0</ele><time>2026-04-12T10:22:07.128Z</time></trkpt><trkpt lat="43.8103967" lon="12.7430117"><ele>261.0</ele><time>2026-04-12T10:22:08.129Z</time></trkpt><trkpt lat="43.81048" lon="12.743055"><ele>261.0</ele><time>2026-04-12T10:22:09.131Z</time></trkpt><trkpt lat="43.8105633" lon="12.7431033"><ele>261.0</ele><time>2026-04-12T10:22:10.128Z</time></trkpt><trkpt lat="43.8106333" lon="12.7431617"><ele>261.0</ele><time>2026-04-12T10:22:11.13Z</time></trkpt><trkpt lat="43.8107133" lon="12.7432167"><ele>261.0</ele><time>2026-04-12T10:22:12.138Z</time></trkpt><trkpt lat="43.8107817" lon="12.7432633"><ele>261.0</ele><time>2026-04-12T10:22:13.129Z</time></trkpt><trkpt lat="43.8108583" lon="12.7433033"><ele>261.0</ele><time>2026-04-12T10:22:14.129Z</time></trkpt><trkpt lat="43.81094" lon="12.743345"><ele>261.0</ele><time>2026-04-12T10:22:15.128Z</time></trkpt><trkpt lat="43.8110233" lon="12.743375"><ele>261.0</ele><time>2026-04-12T10:22:16.132Z</time></trkpt><trkpt lat="43.811095" lon="12.7433983"><ele>261.0</ele><time>2026-04-12T10:22:17.128Z</time></trkpt><trkpt lat="43.8111617" lon="12.743405"><ele>260.2857142857143</ele><time>2026-04-12T10:22:18.132Z</time></trkpt><trkpt lat="43.811225" lon="12.7434183"><ele>259.57142857142856</ele><time>2026-04-12T10:22:19.129Z</time></trkpt><trkpt lat="43.81129" lon="12.7434367"><ele>258.85714285714283</ele><time>2026-04-12T10:22:20.13Z</time></trkpt><trkpt lat="43.811365" lon="12.7434617"><ele>258.1428571428571</ele><time>2026-04-12T10:22:21.13Z</time></trkpt><trkpt lat="43.8114383" lon="12.7434933"><ele>257.4285714285714</ele><time>2026-04-12T10:22:22.128Z</time></trkpt><trkpt lat="43.81151" lon="12.7435317"><ele>256.7142857142857</ele><time>2026-04-12T10:22:23.131Z</time></trkpt><trkpt lat="43.811575" lon="12.743575"><ele>256.0</ele><time>2026-04-12T10:22:24.128Z</time></trkpt><trkpt lat="43.81164" lon="12.7436033"><ele>255.4</ele><time>2026-04-12T10:22:25.129Z</time></trkpt><trkpt lat="43.8117417" lon="12.7436417"><ele>254.8</ele><time>2026-04-12T10:22:27.128Z</time></trkpt><trkpt lat="43.8118383" lon="12.7437217"><ele>254.20000000000002</ele><time>2026-04-12T10:22:29.13Z</time></trkpt><trkpt lat="43.81188" lon="12.7438317"><ele>253.60000000000002</ele><time>2026-04-12T10:22:31.129Z</time></trkpt><trkpt lat="43.8118983" lon="12.7439717"><ele>253.0</ele><time>2026-04-12T10:22:33.129Z</time></trkpt><trkpt lat="43.8119083" lon="12.7441033"><ele>251.4</ele><time>2026-04-12T10:22:35.129Z</time></trkpt><trkpt lat="43.8119217" lon="12.7442267"><ele>249.8</ele><time>2026-04-12T10:22:37.129Z</time></trkpt><trkpt lat="43.811965" lon="12.744355"><ele>248.2</ele><time>2026-04-12T10:22:39.129Z</time></trkpt><trkpt lat="43.8120417" lon="12.74448"><ele>246.6</ele><time>2026-04-12T10:22:41.128Z</time></trkpt><trkpt lat="43.8120933" lon="12.7445417"><ele>245.0</ele><time>2026-04-12T10:22:42.128Z</time></trkpt><trkpt lat="43.8121433" lon="12.744615"><ele>243.6</ele><time>2026-04-12T10:22:43.127Z</time></trkpt><trkpt lat="43.8122" lon="12.7447483"><ele>242.2</ele><time>2026-04-12T10:22:45.129Z</time></trkpt><trkpt lat="43.8122267" lon="12.74489"><ele>240.8</ele><time>2026-04-12T10:22:47.129Z</time></trkpt><trkpt lat="43.812205" lon="12.7450383"><ele>239.4</ele><time>2026-04-12T10:22:49.128Z</time></trkpt><trkpt lat="43.81212" lon="12.7451533"><ele>238.0</ele><time>2026-04-12T10:22:51.13Z</time></trkpt><trkpt lat="43.81203" lon="12.7452533"><ele>235.2</ele><time>2026-04-12T10:22:53.13Z</time></trkpt><trkpt lat="43.8119683" lon="12.7453667"><ele>232.4</ele><time>2026-04-12T10:22:55.129Z</time></trkpt><trkpt lat="43.8119767" lon="12.7455083"><ele>229.59999999999997</ele><time>2026-04-12T10:22:57.127Z</time></trkpt><trkpt lat="43.8120467" lon="12.7456467"><ele>226.79999999999998</ele><time>2026-04-12T10:22:59.129Z</time></trkpt><trkpt lat="43.812105" lon="12.7457"><ele>224.0</ele><time>2026-04-12T10:23:00.13Z</time></trkpt><trkpt lat="43.8121617" lon="12.7457383"><ele>224.0</ele><time>2026-04-12T10:23:01.129Z</time></trkpt><trkpt lat="43.8122683" lon="12.7457733"><ele>223.99999999999997</ele><time>2026-04-12T10:23:03.128Z</time></trkpt><trkpt lat="43.812325" lon="12.74587"><ele>223.99999999999997</ele><time>2026-04-12T10:23:06.128Z</time></trkpt><trkpt lat="43.8122817" lon="12.7459617"><ele>224.0</ele><time>2026-04-12T10:23:08.129Z</time></trkpt><trkpt lat="43.8121783" lon="12.7460067"><ele>224.0</ele><time>2026-04-12T10:23:10.128Z</time></trkpt><trkpt lat="43.8121017" lon="12.7460117"><ele>224.00000000000003</ele><time>2026-04-12T10:23:11.13Z</time></trkpt><trkpt lat="43.8120317" lon="12.7460283"><ele>224.0</ele><time>2026-04-12T10:23:12.13Z</time></trkpt><trkpt lat="43.8119517" lon="12.746025"><ele>224.0</ele><time>2026-04-12T10:23:13.129Z</time></trkpt><trkpt lat="43.81188" lon="12.7459967"><ele>224.0</ele><time>2026-04-12T10:23:14.129Z</time></trkpt><trkpt lat="43.811815" lon="12.74596"><ele>224.00000000000003</ele><time>2026-04-12T10:23:15.13Z</time></trkpt><trkpt lat="43.8117017" lon="12.745915"><ele>224.0</ele><time>2026-04-12T10:23:17.131Z</time></trkpt><trkpt lat="43.811625" lon="12.74589"><ele>223.50000000000003</ele><time>2026-04-12T10:23:19.128Z</time></trkpt><trkpt lat="43.811605" lon="12.746005"><ele>223.0</ele><time>2026-04-12T10:23:22.13Z</time></trkpt><trkpt lat="43.8116733" lon="12.746115"><ele>222.5</ele><time>2026-04-12T10:23:24.129Z</time></trkpt><trkpt lat="43.811725" lon="12.7461817"><ele>222.0</ele><time>2026-04-12T10:23:25.129Z</time></trkpt><trkpt lat="43.8117683" lon="12.74625"><ele>221.50000000000003</ele><time>2026-04-12T10:23:26.129Z</time></trkpt><trkpt lat="43.8118283" lon="12.7463083"><ele>221.0</ele><time>2026-04-12T10:23:27.128Z</time></trkpt><trkpt lat="43.811885" lon="12.7463667"><ele>218.83333333333334</ele><time>2026-04-12T10:23:28.129Z</time></trkpt><trkpt lat="43.8119433" lon="12.7464267"><ele>216.66666666666669</ele><time>2026-04-12T10:23:29.128Z</time></trkpt><trkpt lat="43.812" lon="12.7464883"><ele>214.5</ele><time>2026-04-12T10:23:30.13Z</time></trkpt><trkpt lat="43.8120767" lon="12.74654"><ele>212.33333333333331</ele><time>2026-04-12T10:23:31.129Z</time></trkpt><trkpt lat="43.8121467" lon="12.74659"><ele>210.16666666666666</ele><time>2026-04-12T10:23:32.13Z</time></trkpt><trkpt lat="43.8122117" lon="12.7466317"><ele>208.0</ele><time>2026-04-12T10:23:33.127Z</time></trkpt><trkpt lat="43.81228" lon="12.7466717"><ele>208.0</ele><time>2026-04-12T10:23:34.128Z</time></trkpt><trkpt lat="43.8123433" lon="12.7467067"><ele>208.0</ele><time>2026-04-12T10:23:35.129Z</time></trkpt><trkpt lat="43.8124117" lon="12.746735"><ele>208.0</ele><time>2026-04-12T10:23:36.13Z</time></trkpt><trkpt lat="43.812475" lon="12.7467483"><ele>208.0</ele><time>2026-04-12T10:23:37.13Z</time></trkpt><trkpt lat="43.8126" lon="12.746745"><ele>208.0</ele><time>2026-04-12T10:23:39.128Z</time></trkpt><trkpt lat="43.8127267" lon="12.746685"><ele>203.66666666666666</ele><time>2026-04-12T10:23:41.129Z</time></trkpt><trkpt lat="43.8127917" lon="12.7466383"><ele>199.33333333333331</ele><time>2026-04-12T10:23:42.129Z</time></trkpt><trkpt lat="43.8128533" lon="12.7465767"><ele>195.0</ele><time>2026-04-12T10:23:43.127Z</time></trkpt><trkpt lat="43.81292" lon="12.7464967"><ele>190.66666666666666</ele><time>2026-04-12T10:23:44.129Z</time></trkpt><trkpt lat="43.8129783" lon="12.7464133"><ele>186.33333333333331</ele><time>2026-04-12T10:23:45.133Z</time></trkpt><trkpt lat="43.8130317" lon="12.7463217"><ele>182.0</ele><time>2026-04-12T10:23:46.128Z</time></trkpt><trkpt lat="43.8130733" lon="12.7462383"><ele>182.0</ele><time>2026-04-12T10:23:47.129Z</time></trkpt><trkpt lat="43.8131167" lon="12.746155"><ele>182.0</ele><time>2026-04-12T10:23:48.13Z</time></trkpt><trkpt lat="43.81316" lon="12.7460733"><ele>182.0</ele><time>2026-04-12T10:23:49.13Z</time></trkpt><trkpt lat="43.8132183" lon="12.7460017"><ele>182.0</ele><time>2026-04-12T10:23:50.134Z</time></trkpt><trkpt lat="43.8132917" lon="12.7459433"><ele>182.0</ele><time>2026-04-12T10:23:51.129Z</time></trkpt><trkpt lat="43.8133583" lon="12.745885"><ele>182.0</ele><time>2026-04-12T10:23:52.129Z</time></trkpt><trkpt lat="43.81343" lon="12.7458317"><ele>183.16666666666666</ele><time>2026-04-12T10:23:53.129Z</time></trkpt><trkpt lat="43.8135067" lon="12.74582"><ele>184.33333333333331</ele><time>2026-04-12T10:23:54.129Z</time></trkpt><trkpt lat="43.8135817" lon="12.745795"><ele>185.5</ele><time>2026-04-12T10:23:55.129Z</time></trkpt><trkpt lat="43.8136617" lon="12.7457867"><ele>186.66666666666666</ele><time>2026-04-12T10:23:56.129Z</time></trkpt><trkpt lat="43.8137417" lon="12.74578"><ele>187.83333333333334</ele><time>2026-04-12T10:23:57.128Z</time></trkpt><trkpt lat="43.81382" lon="12.745755"><ele>189.0</ele><time>2026-04-12T10:23:58.129Z</time></trkpt><trkpt lat="43.8139" lon="12.7457217"><ele>189.0</ele><time>2026-04-12T10:23:59.13Z</time></trkpt><trkpt lat="43.813975" lon="12.7456933"><ele>189.0</ele><time>2026-04-12T10:24:00.129Z</time></trkpt><trkpt lat="43.8140433" lon="12.7456633"><ele>189.0</ele><time>2026-04-12T10:24:01.129Z</time></trkpt><trkpt lat="43.8141083" lon="12.7456583"><ele>189.0</ele><time>2026-04-12T10:24:02.129Z</time></trkpt><trkpt lat="43.814225" lon="12.745695"><ele>189.0</ele><time>2026-04-12T10:24:04.128Z</time></trkpt><trkpt lat="43.8142867" lon="12.745735"><ele>189.0</ele><time>2026-04-12T10:24:05.129Z</time></trkpt><trkpt lat="43.8143567" lon="12.74576"><ele>186.71428571428572</ele><time>2026-04-12T10:24:06.129Z</time></trkpt><trkpt lat="43.8144233" lon="12.74577"><ele>184.42857142857144</ele><time>2026-04-12T10:24:07.129Z</time></trkpt><trkpt lat="43.8144817" lon="12.7457333"><ele>182.14285714285714</ele><time>2026-04-12T10:24:08.128Z</time></trkpt><trkpt lat="43.8145283" lon="12.7456683"><ele>179.85714285714286</ele><time>2026-04-12T10:24:09.13Z</time></trkpt><trkpt lat="43.81456" lon="12.7455717"><ele>177.57142857142858</ele><time>2026-04-12T10:24:10.129Z</time></trkpt><trkpt lat="43.8145883" lon="12.7454617"><ele>175.28571428571428</ele><time>2026-04-12T10:24:11.128Z</time></trkpt><trkpt lat="43.8146183" lon="12.7453433"><ele>173.0</ele><time>2026-04-12T10:24:12.129Z</time></trkpt><trkpt lat="43.814655" lon="12.7452167"><ele>174.5</ele><time>2026-04-12T10:24:13.128Z</time></trkpt><trkpt lat="43.8146967" lon="12.7450983"><ele>176.0</ele><time>2026-04-12T10:24:14.128Z</time></trkpt><trkpt lat="43.8147367" lon="12.7449883"><ele>177.5</ele><time>2026-04-12T10:24:15.127Z</time></trkpt><trkpt lat="43.8147767" lon="12.74488"><ele>179.0</ele><time>2026-04-12T10:24:16.129Z</time></trkpt><trkpt lat="43.81483" lon="12.744785"><ele>180.5</ele><time>2026-04-12T10:24:17.127Z</time></trkpt><trkpt lat="43.8148817" lon="12.7446967"><ele>182.0</ele><time>2026-04-12T10:24:18.128Z</time></trkpt><trkpt lat="43.8149367" lon="12.7446067"><ele>182.0</ele><time>2026-04-12T10:24:19.129Z</time></trkpt><trkpt lat="43.8149933" lon="12.744505"><ele>182.0</ele><time>2026-04-12T10:24:20.128Z</time></trkpt><trkpt lat="43.815055" lon="12.7444217"><ele>182.0</ele><time>2026-04-12T10:24:21.129Z</time></trkpt><trkpt lat="43.8151267" lon="12.744345"><ele>182.0</ele><time>2026-04-12T10:24:22.13Z</time></trkpt><trkpt lat="43.815205" lon="12.7442667"><ele>182.0</ele><time>2026-04-12T10:24:23.129Z</time></trkpt><trkpt lat="43.8152833" lon="12.7442067"><ele>183.16666666666666</ele><time>2026-04-12T10:24:24.129Z</time></trkpt><trkpt lat="43.815365" lon="12.7441667"><ele>184.33333333333331</ele><time>2026-04-12T10:24:25.128Z</time></trkpt><trkpt lat="43.8154383" lon="12.7441367"><ele>185.5</ele><time>2026-04-12T10:24:26.131Z</time></trkpt><trkpt lat="43.815515" lon="12.7441"><ele>186.66666666666666</ele><time>2026-04-12T10:24:27.129Z</time></trkpt><trkpt lat="43.8156067" lon="12.74409"><ele>187.83333333333334</ele><time>2026-04-12T10:24:28.128Z</time></trkpt><trkpt lat="43.8157" lon="12.74411"><ele>189.0</ele><time>2026-04-12T10:24:29.129Z</time></trkpt><trkpt lat="43.8157867" lon="12.7441417"><ele>189.0</ele><time>2026-04-12T10:24:30.131Z</time></trkpt><trkpt lat="43.815865" lon="12.7441717"><ele>189.0</ele><time>2026-04-12T10:24:31.129Z</time></trkpt><trkpt lat="43.8159433" lon="12.744205"><ele>189.0</ele><time>2026-04-12T10:24:32.129Z</time></trkpt><trkpt lat="43.8160133" lon="12.74424"><ele>189.0</ele><time>2026-04-12T10:24:33.13Z</time></trkpt><trkpt lat="43.816085" lon="12.7442733"><ele>189.0</ele><time>2026-04-12T10:24:34.129Z</time></trkpt><trkpt lat="43.8161567" lon="12.7443133"><ele>189.0</ele><time>2026-04-12T10:24:35.13Z</time></trkpt><trkpt lat="43.8162267" lon="12.7443533"><ele>188.0</ele><time>2026-04-12T10:24:36.13Z</time></trkpt><trkpt lat="43.8162933" lon="12.7443917"><ele>187.0</ele><time>2026-04-12T10:24:37.129Z</time></trkpt><trkpt lat="43.8163617" lon="12.744415"><ele>186.0</ele><time>2026-04-12T10:24:38.129Z</time></trkpt><trkpt lat="43.81643" lon="12.7444217"><ele>185.0</ele><time>2026-04-12T10:24:39.129Z</time></trkpt><trkpt lat="43.8164967" lon="12.74439"><ele>184.0</ele><time>2026-04-12T10:24:40.128Z</time></trkpt><trkpt lat="43.8165617" lon="12.7443317"><ele>183.0</ele><time>2026-04-12T10:24:41.129Z</time></trkpt><trkpt lat="43.81663" lon="12.7442683"><ele>182.0</ele><time>2026-04-12T10:24:42.13Z</time></trkpt><trkpt lat="43.8167" lon="12.7442183"><ele>182.0</ele><time>2026-04-12T10:24:43.128Z</time></trkpt><trkpt lat="43.8167683" lon="12.744185"><ele>182.0</ele><time>2026-04-12T10:24:44.129Z</time></trkpt><trkpt lat="43.8168433" lon="12.7441617"><ele>182.0</ele><time>2026-04-12T10:24:45.129Z</time></trkpt><trkpt lat="43.81691" lon="12.744125"><ele>182.0</ele><time>2026-04-12T10:24:46.129Z</time></trkpt><trkpt lat="43.8169833" lon="12.7440883"><ele>182.0</ele><time>2026-04-12T10:24:47.129Z</time></trkpt><trkpt lat="43.8170517" lon="12.74406"><ele>182.0</ele><time>2026-04-12T10:24:48.128Z</time></trkpt><trkpt lat="43.8171233" lon="12.74402"><ele>182.0</ele><time>2026-04-12T10:24:49.129Z</time></trkpt><trkpt lat="43.817195" lon="12.743975"><ele>179.16666666666666</ele><time>2026-04-12T10:24:50.128Z</time></trkpt><trkpt lat="43.8172667" lon="12.7439283"><ele>176.33333333333331</ele><time>2026-04-12T10:24:51.129Z</time></trkpt><trkpt lat="43.817345" lon="12.7438883"><ele>173.5</ele><time>2026-04-12T10:24:52.128Z</time></trkpt><trkpt lat="43.817425" lon="12.7438633"><ele>170.66666666666666</ele><time>2026-04-12T10:24:53.129Z</time></trkpt><trkpt lat="43.8175" lon="12.743845"><ele>167.83333333333334</ele><time>2026-04-12T10:24:54.128Z</time></trkpt><trkpt lat="43.8175767" lon="12.74383"><ele>165.0</ele><time>2026-04-12T10:24:55.128Z</time></trkpt><trkpt lat="43.8176433" lon="12.7438183"><ele>162.16666666666666</ele><time>2026-04-12T10:24:56.129Z</time></trkpt><trkpt lat="43.8177167" lon="12.743805"><ele>159.33333333333334</ele><time>2026-04-12T10:24:57.129Z</time></trkpt><trkpt lat="43.81779" lon="12.7437983"><ele>156.5</ele><time>2026-04-12T10:24:58.128Z</time></trkpt><trkpt lat="43.8178667" lon="12.7437867"><ele>153.66666666666669</ele><time>2026-04-12T10:24:59.134Z</time></trkpt><trkpt lat="43.8179383" lon="12.7437717"><ele>150.83333333333334</ele><time>2026-04-12T10:25:00.128Z</time></trkpt><trkpt lat="43.8180133" lon="12.743745"><ele>148.0</ele><time>2026-04-12T10:25:01.127Z</time></trkpt><trkpt lat="43.818095" lon="12.7437133"><ele>148.0</ele><time>2026-04-12T10:25:02.135Z</time></trkpt><trkpt lat="43.81818" lon="12.7436867"><ele>148.0</ele><time>2026-04-12T10:25:03.128Z</time></trkpt><trkpt lat="43.8182633" lon="12.7436433"><ele>148.0</ele><time>2026-04-12T10:25:04.128Z</time></trkpt><trkpt lat="43.818345" lon="12.7435933"><ele>148.0</ele><time>2026-04-12T10:25:05.129Z</time></trkpt><trkpt lat="43.818435" lon="12.7435417"><ele>148.0</ele><time>2026-04-12T10:25:06.128Z</time></trkpt><trkpt lat="43.8185183" lon="12.7434933"><ele>146.33333333333334</ele><time>2026-04-12T10:25:07.129Z</time></trkpt><trkpt lat="43.8185983" lon="12.74344"><ele>144.66666666666669</ele><time>2026-04-12T10:25:08.129Z</time></trkpt><trkpt lat="43.8186667" lon="12.74339"><ele>143.0</ele><time>2026-04-12T10:25:09.129Z</time></trkpt><trkpt lat="43.81873" lon="12.7433533"><ele>141.33333333333334</ele><time>2026-04-12T10:25:10.129Z</time></trkpt><trkpt lat="43.8187883" lon="12.74331"><ele>139.66666666666666</ele><time>2026-04-12T10:25:11.129Z</time></trkpt><trkpt lat="43.8188633" lon="12.743285"><ele>138.0</ele><time>2026-04-12T10:25:12.129Z</time></trkpt><trkpt lat="43.818955" lon="12.7433"><ele>138.0</ele><time>2026-04-12T10:25:13.127Z</time></trkpt><trkpt lat="43.81904" lon="12.7433067"><ele>138.0</ele><time>2026-04-12T10:25:14.129Z</time></trkpt><trkpt lat="43.8191217" lon="12.743305"><ele>138.0</ele><time>2026-04-12T10:25:15.127Z</time></trkpt><trkpt lat="43.81921" lon="12.743275"><ele>138.0</ele><time>2026-04-12T10:25:16.128Z</time></trkpt><trkpt lat="43.8192783" lon="12.7432283"><ele>138.0</ele><time>2026-04-12T10:25:17.129Z</time></trkpt><trkpt lat="43.8193433" lon="12.7431583"><ele>138.0</ele><time>2026-04-12T10:25:18.135Z</time></trkpt><trkpt lat="43.819405" lon="12.7430683"><ele>135.57142857142858</ele><time>2026-04-12T10:25:19.128Z</time></trkpt><trkpt lat="43.8194567" lon="12.7429833"><ele>133.14285714285717</ele><time>2026-04-12T10:25:20.141Z</time></trkpt><trkpt lat="43.8195" lon="12.742905"><ele>130.71428571428572</ele><time>2026-04-12T10:25:21.127Z</time></trkpt><trkpt lat="43.8195517" lon="12.7428383"><ele>128.28571428571428</ele><time>2026-04-12T10:25:22.128Z</time></trkpt><trkpt lat="43.8196117" lon="12.7427917"><ele>125.85714285714285</ele><time>2026-04-12T10:25:23.126Z</time></trkpt><trkpt lat="43.819675" lon="12.7427617"><ele>123.42857142857142</ele><time>2026-04-12T10:25:24.127Z</time></trkpt><trkpt lat="43.8197483" lon="12.7427617"><ele>121.0</ele><time>2026-04-12T10:25:25.127Z</time></trkpt><trkpt lat="43.8198267" lon="12.7428083"><ele>121.00000000000001</ele><time>2026-04-12T10:25:26.127Z</time></trkpt><trkpt lat="43.8199117" lon="12.7428467"><ele>121.0</ele><time>2026-04-12T10:25:27.126Z</time></trkpt><trkpt lat="43.8199917" lon="12.74285"><ele>121.0</ele><time>2026-04-12T10:25:28.127Z</time></trkpt><trkpt lat="43.8200583" lon="12.7429283"><ele>121.0</ele><time>2026-04-12T10:25:29.129Z</time></trkpt><trkpt lat="43.8201133" lon="12.7430183"><ele>121.00000000000001</ele><time>2026-04-12T10:25:30.127Z</time></trkpt><trkpt lat="43.8201683" lon="12.7431017"><ele>121.0</ele><time>2026-04-12T10:25:31.128Z</time></trkpt><trkpt lat="43.8202217" lon="12.7431833"><ele>117.66666666666667</ele><time>2026-04-12T10:25:32.128Z</time></trkpt><trkpt lat="43.8202667" lon="12.7432683"><ele>114.33333333333334</ele><time>2026-04-12T10:25:33.127Z</time></trkpt><trkpt lat="43.8203167" lon="12.74335"><ele>111.0</ele><time>2026-04-12T10:25:34.128Z</time></trkpt><trkpt lat="43.820365" lon="12.7434417"><ele>107.66666666666666</ele><time>2026-04-12T10:25:35.127Z</time></trkpt><trkpt lat="43.82039" lon="12.743545"><ele>104.33333333333333</ele><time>2026-04-12T10:25:36.128Z</time></trkpt><trkpt lat="43.82041" lon="12.7436517"><ele>101.0</ele><time>2026-04-12T10:25:37.128Z</time></trkpt><trkpt lat="43.8204167" lon="12.7437567"><ele>100.99999999999999</ele><time>2026-04-12T10:25:38.127Z</time></trkpt><trkpt lat="43.820415" lon="12.7438633"><ele>101.0</ele><time>2026-04-12T10:25:39.128Z</time></trkpt><trkpt lat="43.8204083" lon="12.74397"><ele>101.0</ele><time>2026-04-12T10:25:40.126Z</time></trkpt><trkpt lat="43.820395" lon="12.7440717"><ele>101.0</ele><time>2026-04-12T10:25:41.128Z</time></trkpt><trkpt lat="43.8203667" lon="12.74417"><ele>100.99999999999999</ele><time>2026-04-12T10:25:42.127Z</time></trkpt><trkpt lat="43.820335" lon="12.7442567"><ele>101.0</ele><time>2026-04-12T10:25:43.129Z</time></trkpt><trkpt lat="43.820305" lon="12.7443517"><ele>101.57142857142857</ele><time>2026-04-12T10:25:44.128Z</time></trkpt><trkpt lat="43.8202717" lon="12.7444467"><ele>102.14285714285714</ele><time>2026-04-12T10:25:45.127Z</time></trkpt><trkpt lat="43.8202283" lon="12.74453"><ele>102.71428571428572</ele><time>2026-04-12T10:25:46.127Z</time></trkpt><trkpt lat="43.8201917" lon="12.7446167"><ele>103.28571428571428</ele><time>2026-04-12T10:25:47.128Z</time></trkpt><trkpt lat="43.82016" lon="12.744695"><ele>103.85714285714286</ele><time>2026-04-12T10:25:48.128Z</time></trkpt><trkpt lat="43.820135" lon="12.7447783"><ele>104.42857142857143</ele><time>2026-04-12T10:25:49.127Z</time></trkpt><trkpt lat="43.8201133" lon="12.74487"><ele>105.0</ele><time>2026-04-12T10:25:50.128Z</time></trkpt><trkpt lat="43.820065" lon="12.7450217"><ele>105.0</ele><time>2026-04-12T10:25:52.128Z</time></trkpt><trkpt lat="43.8200367" lon="12.74516"><ele>105.0</ele><time>2026-04-12T10:25:54.128Z</time></trkpt><trkpt lat="43.8201" lon="12.7452517"><ele>105.0</ele><time>2026-04-12T10:25:56.129Z</time></trkpt><trkpt lat="43.8202283" lon="12.7452367"><ele>105.0</ele><time>2026-04-12T10:25:58.126Z</time></trkpt><trkpt lat="43.8203183" lon="12.745215"><ele>105.0</ele><time>2026-04-12T10:25:59.128Z</time></trkpt><trkpt lat="43.820415" lon="12.74519"><ele>102.25</ele><time>2026-04-12T10:26:00.128Z</time></trkpt><trkpt lat="43.820515" lon="12.7451733"><ele>99.5</ele><time>2026-04-12T10:26:01.128Z</time></trkpt><trkpt lat="43.8206317" lon="12.74515"><ele>96.75</ele><time>2026-04-12T10:26:02.128Z</time></trkpt><trkpt lat="43.8207617" lon="12.7451183"><ele>94.0</ele><time>2026-04-12T10:26:03.126Z</time></trkpt><trkpt lat="43.820885" lon="12.7450767"><ele>90.0</ele><time>2026-04-12T10:26:04.127Z</time></trkpt><trkpt lat="43.821005" lon="12.7450283"><ele>86.0</ele><time>2026-04-12T10:26:05.126Z</time></trkpt><trkpt lat="43.82112" lon="12.7449867"><ele>82.0</ele><time>2026-04-12T10:26:06.127Z</time></trkpt><trkpt lat="43.82123" lon="12.7449483"><ele>78.0</ele><time>2026-04-12T10:26:07.127Z</time></trkpt><trkpt lat="43.82133" lon="12.7449133"><ele>78.0</ele><time>2026-04-12T10:26:08.128Z</time></trkpt><trkpt lat="43.8214217" lon="12.7448733"><ele>78.0</ele><time>2026-04-12T10:26:09.128Z</time></trkpt><trkpt lat="43.8214967" lon="12.7448233"><ele>78.0</ele><time>2026-04-12T10:26:10.127Z</time></trkpt><trkpt lat="43.8215617" lon="12.744765"><ele>78.0</ele><time>2026-04-12T10:26:11.127Z</time></trkpt><trkpt lat="43.821605" lon="12.7446817"><ele>78.0</ele><time>2026-04-12T10:26:12.126Z</time></trkpt><trkpt lat="43.8216117" lon="12.7445817"><ele>78.0</ele><time>2026-04-12T10:26:13.127Z</time></trkpt><trkpt lat="43.8215933" lon="12.7444633"><ele>77.75</ele><time>2026-04-12T10:26:14.128Z</time></trkpt><trkpt lat="43.8215533" lon="12.7443417"><ele>77.5</ele><time>2026-04-12T10:26:15.128Z</time></trkpt><trkpt lat="43.8214933" lon="12.7441933"><ele>77.25</ele><time>2026-04-12T10:26:16.127Z</time></trkpt><trkpt lat="43.8214267" lon="12.7440417"><ele>77.0</ele><time>2026-04-12T10:26:17.129Z</time></trkpt><trkpt lat="43.8213683" lon="12.7439067"><ele>77.0</ele><time>2026-04-12T10:26:18.126Z</time></trkpt><trkpt lat="43.821315" lon="12.74378"><ele>77.0</ele><time>2026-04-12T10:26:19.127Z</time></trkpt><trkpt lat="43.8212717" lon="12.74366"><ele>77.0</ele><time>2026-04-12T10:26:20.128Z</time></trkpt><trkpt lat="43.8212317" lon="12.7435433"><ele>77.0</ele><time>2026-04-12T10:26:21.126Z</time></trkpt><trkpt lat="43.8211983" lon="12.74343"><ele>77.0</ele><time>2026-04-12T10:26:22.126Z</time></trkpt><trkpt lat="43.8211733" lon="12.74332"><ele>75.16666666666667</ele><time>2026-04-12T10:26:23.127Z</time></trkpt><trkpt lat="43.8211533" lon="12.7432117"><ele>73.33333333333334</ele><time>2026-04-12T10:26:24.128Z</time></trkpt><trkpt lat="43.8211417" lon="12.7431033"><ele>71.5</ele><time>2026-04-12T10:26:25.127Z</time></trkpt><trkpt lat="43.82113" lon="12.7429967"><ele>69.66666666666667</ele><time>2026-04-12T10:26:26.128Z</time></trkpt><trkpt lat="43.82112" lon="12.7428917"><ele>67.83333333333333</ele><time>2026-04-12T10:26:27.127Z</time></trkpt><trkpt lat="43.8211117" lon="12.742785"><ele>66.0</ele><time>2026-04-12T10:26:28.132Z</time></trkpt><trkpt lat="43.8210967" lon="12.74268"><ele>65.83333333333333</ele><time>2026-04-12T10:26:29.128Z</time></trkpt><trkpt lat="43.821075" lon="12.742575"><ele>65.66666666666667</ele><time>2026-04-12T10:26:30.133Z</time></trkpt><trkpt lat="43.821055" lon="12.7424767"><ele>65.5</ele><time>2026-04-12T10:26:31.13Z</time></trkpt><trkpt lat="43.8210317" lon="12.742375"><ele>65.33333333333334</ele><time>2026-04-12T10:26:32.127Z</time></trkpt><trkpt lat="43.8210217" lon="12.7422683"><ele>65.16666666666667</ele><time>2026-04-12T10:26:33.13Z</time></trkpt><trkpt lat="43.8210183" lon="12.7421617"><ele>65.0</ele><time>2026-04-12T10:26:34.13Z</time></trkpt><trkpt lat="43.8210233" lon="12.742055"><ele>65.2</ele><time>2026-04-12T10:26:35.126Z</time></trkpt><trkpt lat="43.82104" lon="12.7418483"><ele>65.4</ele><time>2026-04-12T10:26:37.128Z</time></trkpt><trkpt lat="43.8210517" lon="12.7417517"><ele>65.6</ele><time>2026-04-12T10:26:38.13Z</time></trkpt><trkpt lat="43.8210683" lon="12.7416617"><ele>65.8</ele><time>2026-04-12T10:26:39.127Z</time></trkpt><trkpt lat="43.8211417" lon="12.74153"><ele>66.0</ele><time>2026-04-12T10:26:41.126Z</time></trkpt><trkpt lat="43.82122" lon="12.7414767"><ele>66.0</ele><time>2026-04-12T10:26:43.127Z</time></trkpt><trkpt lat="43.8213017" lon="12.7415533"><ele>66.0</ele><time>2026-04-12T10:26:45.128Z</time></trkpt><trkpt lat="43.821355" lon="12.741625"><ele>66.0</ele><time>2026-04-12T10:26:47.127Z</time></trkpt><trkpt lat="43.8213983" lon="12.741695"><ele>66.0</ele><time>2026-04-12T10:26:50.127Z</time></trkpt><trkpt lat="43.8214567" lon="12.7417633"><ele>66.0</ele><time>2026-04-12T10:27:18.126Z</time></trkpt><trkpt lat="43.82151" lon="12.7418483"><ele>66.0</ele><time>2026-04-12T10:27:21.127Z</time></trkpt><trkpt lat="43.8215833" lon="12.7418567"><ele>66.0</ele><time>2026-04-12T10:27:23.127Z</time></trkpt><trkpt lat="43.821645" lon="12.7417567"><ele>66.0</ele><time>2026-04-12T10:27:25.127Z</time></trkpt><trkpt lat="43.8217017" lon="12.741625"><ele>66.0</ele><time>2026-04-12T10:27:27.127Z</time></trkpt><trkpt lat="43.8217583" lon="12.7414817"><ele>66.0</ele><time>2026-04-12T10:27:29.129Z</time></trkpt><trkpt lat="43.8217967" lon="12.741395"><ele>66.0</ele><time>2026-04-12T10:27:30.126Z</time></trkpt><trkpt lat="43.8218317" lon="12.7413033"><ele>65.33333333333333</ele><time>2026-04-12T10:27:31.126Z</time></trkpt><trkpt lat="43.82187" lon="12.7412017"><ele>64.66666666666667</ele><time>2026-04-12T10:27:32.127Z</time></trkpt><trkpt lat="43.8219183" lon="12.7411217"><ele>64.0</ele><time>2026-04-12T10:27:33.128Z</time></trkpt><trkpt lat="43.8219617" lon="12.7410317"><ele>63.333333333333336</ele><time>2026-04-12T10:27:34.127Z</time></trkpt><trkpt lat="43.821995" lon="12.7409433"><ele>62.66666666666667</ele><time>2026-04-12T10:27:35.127Z</time></trkpt><trkpt lat="43.8220367" lon="12.7408433"><ele>62.0</ele><time>2026-04-12T10:27:36.126Z</time></trkpt><trkpt lat="43.8220817" lon="12.740735"><ele>62.0</ele><time>2026-04-12T10:27:37.127Z</time></trkpt><trkpt lat="43.8221283" lon="12.74062"><ele>62.0</ele><time>2026-04-12T10:27:38.127Z</time></trkpt><trkpt lat="43.8221783" lon="12.7404867"><ele>62.0</ele><time>2026-04-12T10:27:39.126Z</time></trkpt><trkpt lat="43.822235" lon="12.74034"><ele>62.0</ele><time>2026-04-12T10:27:40.126Z</time></trkpt><trkpt lat="43.822305" lon="12.7401667"><ele>62.333333333333336</ele><time>2026-04-12T10:27:41.128Z</time></trkpt><trkpt lat="43.8223817" lon="12.7399767"><ele>62.66666666666667</ele><time>2026-04-12T10:27:42.128Z</time></trkpt><trkpt lat="43.82247" lon="12.7397733"><ele>63.0</ele><time>2026-04-12T10:27:43.127Z</time></trkpt><trkpt lat="43.822555" lon="12.7395717"><ele>63.66666666666667</ele><time>2026-04-12T10:27:44.128Z</time></trkpt><trkpt lat="43.8226367" lon="12.7393683"><ele>64.33333333333334</ele><time>2026-04-12T10:27:45.128Z</time></trkpt><trkpt lat="43.8227133" lon="12.73918"><ele>65.0</ele><time>2026-04-12T10:27:46.126Z</time></trkpt><trkpt lat="43.8227833" lon="12.739015"><ele>66.0</ele><time>2026-04-12T10:27:47.127Z</time></trkpt><trkpt lat="43.82285" lon="12.7388583"><ele>67.0</ele><time>2026-04-12T10:27:48.127Z</time></trkpt><trkpt lat="43.8229217" lon="12.738705"><ele>68.0</ele><time>2026-04-12T10:27:49.128Z</time></trkpt><trkpt lat="43.8229817" lon="12.7385467"><ele>69.0</ele><time>2026-04-12T10:27:50.128Z</time></trkpt><trkpt lat="43.823045" lon="12.7383917"><ele>70.4</ele><time>2026-04-12T10:27:51.128Z</time></trkpt><trkpt lat="43.8231017" lon="12.7382533"><ele>71.80000000000001</ele><time>2026-04-12T10:27:52.127Z</time></trkpt><trkpt lat="43.8231517" lon="12.7381183"><ele>73.19999999999999</ele><time>2026-04-12T10:27:53.128Z</time></trkpt><trkpt lat="43.8231983" lon="12.7379917"><ele>74.6</ele><time>2026-04-12T10:27:54.127Z</time></trkpt><trkpt lat="43.82325" lon="12.73787"><ele>76.0</ele><time>2026-04-12T10:27:55.129Z</time></trkpt><trkpt lat="43.8233017" lon="12.7377483"><ele>76.66666666666666</ele><time>2026-04-12T10:27:56.128Z</time></trkpt><trkpt lat="43.823345" lon="12.73763"><ele>77.33333333333333</ele><time>2026-04-12T10:27:57.129Z</time></trkpt><trkpt lat="43.82338" lon="12.7375217"><ele>78.0</ele><time>2026-04-12T10:27:58.127Z</time></trkpt><trkpt lat="43.82342" lon="12.7374267"><ele>78.66666666666667</ele><time>2026-04-12T10:27:59.127Z</time></trkpt><trkpt lat="43.823455" lon="12.7373467"><ele>79.33333333333334</ele><time>2026-04-12T10:28:00.127Z</time></trkpt><trkpt lat="43.8235017" lon="12.7372683"><ele>80.0</ele><time>2026-04-12T10:28:02.127Z</time></trkpt><trkpt lat="43.82357" lon="12.737305"><ele>80.5</ele><time>2026-04-12T10:28:05.126Z</time></trkpt><trkpt lat="43.8236783" lon="12.737375"><ele>81.0</ele><time>2026-04-12T10:28:07.126Z</time></trkpt><trkpt lat="43.8237867" lon="12.7374617"><ele>81.5</ele><time>2026-04-12T10:28:08.129Z</time></trkpt><trkpt lat="43.8239067" lon="12.7375767"><ele>82.0</ele><time>2026-04-12T10:28:09.129Z</time></trkpt><trkpt lat="43.8240333" lon="12.7377083"><ele>82.0</ele><time>2026-04-12T10:28:10.127Z</time></trkpt><trkpt lat="43.8241833" lon="12.7378483"><ele>82.0</ele><time>2026-04-12T10:28:11.128Z</time></trkpt><trkpt lat="43.8243583" lon="12.738005"><ele>82.0</ele><time>2026-04-12T10:28:12.129Z</time></trkpt><trkpt lat="43.82452" lon="12.7381833"><ele>82.0</ele><time>2026-04-12T10:28:13.128Z</time></trkpt><trkpt lat="43.8246633" lon="12.73838"><ele>82.0</ele><time>2026-04-12T10:28:14.127Z</time></trkpt><trkpt lat="43.8247967" lon="12.7385667"><ele>82.0</ele><time>2026-04-12T10:28:15.127Z</time></trkpt><trkpt lat="43.8249183" lon="12.7387683"><ele>82.0</ele><time>2026-04-12T10:28:16.127Z</time></trkpt><trkpt lat="43.825035" lon="12.73892"><ele>82.0</ele><time>2026-04-12T10:28:17.127Z</time></trkpt><trkpt lat="43.825155" lon="12.73906"><ele>82.0</ele><time>2026-04-12T10:28:18.128Z</time></trkpt><trkpt lat="43.8252733" lon="12.7392067"><ele>82.0</ele><time>2026-04-12T10:28:19.128Z</time></trkpt><trkpt lat="43.8253933" lon="12.73936"><ele>82.0</ele><time>2026-04-12T10:28:20.127Z</time></trkpt><trkpt lat="43.8255283" lon="12.7394967"><ele>82.0</ele><time>2026-04-12T10:28:21.126Z</time></trkpt><trkpt lat="43.8256417" lon="12.7396583"><ele>81.33333333333333</ele><time>2026-04-12T10:28:22.126Z</time></trkpt><trkpt lat="43.8257683" lon="12.7398067"><ele>80.66666666666667</ele><time>2026-04-12T10:28:23.128Z</time></trkpt><trkpt lat="43.825895" lon="12.7399433"><ele>80.0</ele><time>2026-04-12T10:28:24.127Z</time></trkpt><trkpt lat="43.82601" lon="12.7401"><ele>79.33333333333334</ele><time>2026-04-12T10:28:25.126Z</time></trkpt><trkpt lat="43.8261267" lon="12.7402517"><ele>78.66666666666667</ele><time>2026-04-12T10:28:26.128Z</time></trkpt><trkpt lat="43.82624" lon="12.7404117"><ele>78.0</ele><time>2026-04-12T10:28:27.126Z</time></trkpt><trkpt lat="43.8263483" lon="12.740585"><ele>78.0</ele><time>2026-04-12T10:28:28.128Z</time></trkpt><trkpt lat="43.82644" lon="12.74077"><ele>78.0</ele><time>2026-04-12T10:28:29.128Z</time></trkpt><trkpt lat="43.8265233" lon="12.7409633"><ele>78.0</ele><time>2026-04-12T10:28:30.127Z</time></trkpt><trkpt lat="43.8265917" lon="12.7411633"><ele>77.66666666666667</ele><time>2026-04-12T10:28:31.128Z</time></trkpt><trkpt lat="43.82665" lon="12.7413667"><ele>77.33333333333334</ele><time>2026-04-12T10:28:32.126Z</time></trkpt><trkpt lat="43.826705" lon="12.7415867"><ele>77.0</ele><time>2026-04-12T10:28:33.128Z</time></trkpt><trkpt lat="43.8267567" lon="12.7417983"><ele>76.66666666666667</ele><time>2026-04-12T10:28:34.129Z</time></trkpt><trkpt lat="43.826815" lon="12.7420117"><ele>76.33333333333333</ele><time>2026-04-12T10:28:35.13Z</time></trkpt><trkpt lat="43.82687" lon="12.7422283"><ele>76.0</ele><time>2026-04-12T10:28:36.126Z</time></trkpt><trkpt lat="43.8269267" lon="12.74244"><ele>76.0</ele><time>2026-04-12T10:28:37.125Z</time></trkpt><trkpt lat="43.8269833" lon="12.74266"><ele>76.0</ele><time>2026-04-12T10:28:38.127Z</time></trkpt><trkpt lat="43.8270417" lon="12.7428767"><ele>76.0</ele><time>2026-04-12T10:28:39.125Z</time></trkpt><trkpt lat="43.8271133" lon="12.743085"><ele>76.0</ele><time>2026-04-12T10:28:40.125Z</time></trkpt><trkpt lat="43.827195" lon="12.7432867"><ele>76.0</ele><time>2026-04-12T10:28:41.124Z</time></trkpt><trkpt lat="43.8272933" lon="12.7434783"><ele>76.0</ele><time>2026-04-12T10:28:42.127Z</time></trkpt><trkpt lat="43.8273933" lon="12.743665"><ele>76.0</ele><time>2026-04-12T10:28:43.126Z</time></trkpt><trkpt lat="43.8274983" lon="12.7438467"><ele>76.0</ele><time>2026-04-12T10:28:44.126Z</time></trkpt><trkpt lat="43.8276017" lon="12.7440217"><ele>76.0</ele><time>2026-04-12T10:28:45.124Z</time></trkpt><trkpt lat="43.8277067" lon="12.74419"><ele>76.33333333333333</ele><time>2026-04-12T10:28:46.126Z</time></trkpt><trkpt lat="43.8278133" lon="12.7443633"><ele>76.66666666666667</ele><time>2026-04-12T10:28:47.128Z</time></trkpt><trkpt lat="43.8279233" lon="12.7445283"><ele>77.0</ele><time>2026-04-12T10:28:48.127Z</time></trkpt><trkpt lat="43.828035" lon="12.744685"><ele>76.33333333333334</ele><time>2026-04-12T10:28:49.126Z</time></trkpt><trkpt lat="43.8281633" lon="12.7448317"><ele>75.66666666666667</ele><time>2026-04-12T10:28:50.127Z</time></trkpt><trkpt lat="43.8283033" lon="12.744955"><ele>75.0</ele><time>2026-04-12T10:28:51.127Z</time></trkpt><trkpt lat="43.82845" lon="12.74507"><ele>75.66666666666667</ele><time>2026-04-12T10:28:52.127Z</time></trkpt><trkpt lat="43.8286017" lon="12.7451717"><ele>76.33333333333334</ele><time>2026-04-12T10:28:53.127Z</time></trkpt><trkpt lat="43.8287617" lon="12.7452533"><ele>77.0</ele><time>2026-04-12T10:28:54.127Z</time></trkpt><trkpt lat="43.8289283" lon="12.74532"><ele>76.0</ele><time>2026-04-12T10:28:55.126Z</time></trkpt><trkpt lat="43.8291017" lon="12.7453733"><ele>75.0</ele><time>2026-04-12T10:28:56.127Z</time></trkpt><trkpt lat="43.8292733" lon="12.7454067"><ele>74.0</ele><time>2026-04-12T10:28:57.127Z</time></trkpt><trkpt lat="43.8294483" lon="12.745435"><ele>74.0</ele><time>2026-04-12T10:28:58.127Z</time></trkpt><trkpt lat="43.8296117" lon="12.74545"><ele>74.0</ele><time>2026-04-12T10:28:59.127Z</time></trkpt><trkpt lat="43.8297717" lon="12.7454583"><ele>74.0</ele><time>2026-04-12T10:29:00.127Z</time></trkpt><trkpt lat="43.8299183" lon="12.7454617"><ele>74.0</ele><time>2026-04-12T10:29:01.126Z</time></trkpt><trkpt lat="43.8300617" lon="12.745465"><ele>74.0</ele><time>2026-04-12T10:29:02.127Z</time></trkpt><trkpt lat="43.8301967" lon="12.745465"><ele>74.0</ele><time>2026-04-12T10:29:03.126Z</time></trkpt><trkpt lat="43.830325" lon="12.7454733"><ele>74.0</ele><time>2026-04-12T10:29:04.126Z</time></trkpt><trkpt lat="43.8304417" lon="12.745485"><ele>74.0</ele><time>2026-04-12T10:29:05.126Z</time></trkpt><trkpt lat="43.8305517" lon="12.7455"><ele>74.0</ele><time>2026-04-12T10:29:06.126Z</time></trkpt><trkpt lat="43.830655" lon="12.7455183"><ele>74.0</ele><time>2026-04-12T10:29:07.126Z</time></trkpt><trkpt lat="43.8307533" lon="12.7455483"><ele>74.0</ele><time>2026-04-12T10:29:08.125Z</time></trkpt><trkpt lat="43.8308517" lon="12.7455867"><ele>74.0</ele><time>2026-04-12T10:29:09.126Z</time></trkpt><trkpt lat="43.83094" lon="12.7456317"><ele>73.60000000000001</ele><time>2026-04-12T10:29:10.126Z</time></trkpt><trkpt lat="43.8310233" lon="12.7456633"><ele>73.2</ele><time>2026-04-12T10:29:11.126Z</time></trkpt><trkpt lat="43.8311117" lon="12.7456667"><ele>72.80000000000001</ele><time>2026-04-12T10:29:12.126Z</time></trkpt><trkpt lat="43.8312067" lon="12.745615"><ele>72.4</ele><time>2026-04-12T10:29:13.125Z</time></trkpt><trkpt lat="43.8313083" lon="12.74557"><ele>72.0</ele><time>2026-04-12T10:29:14.125Z</time></trkpt><trkpt lat="43.8314183" lon="12.745535"><ele>72.0</ele><time>2026-04-12T10:29:15.127Z</time></trkpt><trkpt lat="43.831535" lon="12.7455433"><ele>72.0</ele><time>2026-04-12T10:29:16.126Z</time></trkpt><trkpt lat="43.8316517" lon="12.745565"><ele>72.0</ele><time>2026-04-12T10:29:17.127Z</time></trkpt><trkpt lat="43.831775" lon="12.7455883"><ele>72.0</ele><time>2026-04-12T10:29:18.126Z</time></trkpt><trkpt lat="43.831905" lon="12.7456133"><ele>71.75</ele><time>2026-04-12T10:29:19.127Z</time></trkpt><trkpt lat="43.8320367" lon="12.7456483"><ele>71.5</ele><time>2026-04-12T10:29:20.127Z</time></trkpt><trkpt lat="43.8321683" lon="12.7456817"><ele>71.25</ele><time>2026-04-12T10:29:21.126Z</time></trkpt><trkpt lat="43.8323017" lon="12.7457183"><ele>71.0</ele><time>2026-04-12T10:29:22.127Z</time></trkpt><trkpt lat="43.8324333" lon="12.74575"><ele>71.0</ele><time>2026-04-12T10:29:23.126Z</time></trkpt><trkpt lat="43.8325667" lon="12.7457783"><ele>71.0</ele><time>2026-04-12T10:29:24.126Z</time></trkpt><trkpt lat="43.8326967" lon="12.7458033"><ele>71.0</ele><time>2026-04-12T10:29:25.127Z</time></trkpt><trkpt lat="43.8328233" lon="12.7458233"><ele>71.0</ele><time>2026-04-12T10:29:26.127Z</time></trkpt><trkpt lat="43.832935" lon="12.7458317"><ele>70.8</ele><time>2026-04-12T10:29:27.126Z</time></trkpt><trkpt lat="43.833035" lon="12.7458333"><ele>70.6</ele><time>2026-04-12T10:29:28.126Z</time></trkpt><trkpt lat="43.83313" lon="12.745835"><ele>70.4</ele><time>2026-04-12T10:29:29.126Z</time></trkpt><trkpt lat="43.8332217" lon="12.74584"><ele>70.2</ele><time>2026-04-12T10:29:30.126Z</time></trkpt><trkpt lat="43.833315" lon="12.74584"><ele>70.0</ele><time>2026-04-12T10:29:31.125Z</time></trkpt><trkpt lat="43.83341" lon="12.74584"><ele>70.16666666666666</ele><time>2026-04-12T10:29:32.125Z</time></trkpt><trkpt lat="43.8334967" lon="12.745845"><ele>70.33333333333333</ele><time>2026-04-12T10:29:33.126Z</time></trkpt><trkpt lat="43.8335833" lon="12.745865"><ele>70.5</ele><time>2026-04-12T10:29:34.125Z</time></trkpt><trkpt lat="43.8336633" lon="12.7459217"><ele>70.66666666666667</ele><time>2026-04-12T10:29:35.127Z</time></trkpt><trkpt lat="43.8337317" lon="12.7459867"><ele>70.83333333333334</ele><time>2026-04-12T10:29:36.127Z</time></trkpt><trkpt lat="43.8338033" lon="12.746065"><ele>71.0</ele><time>2026-04-12T10:29:37.125Z</time></trkpt><trkpt lat="43.8338617" lon="12.7461483"><ele>71.0</ele><time>2026-04-12T10:29:38.126Z</time></trkpt><trkpt lat="43.8339317" lon="12.7461967"><ele>71.0</ele><time>2026-04-12T10:29:39.125Z</time></trkpt><trkpt lat="43.8340017" lon="12.7462067"><ele>71.0</ele><time>2026-04-12T10:29:40.126Z</time></trkpt><trkpt lat="43.834065" lon="12.7461817"><ele>71.0</ele><time>2026-04-12T10:29:41.126Z</time></trkpt><trkpt lat="43.8341183" lon="12.7461117"><ele>71.0</ele><time>2026-04-12T10:29:42.126Z</time></trkpt><trkpt lat="43.834175" lon="12.7460483"><ele>71.0</ele><time>2026-04-12T10:29:43.125Z</time></trkpt><trkpt lat="43.834245" lon="12.746015"><ele>71.0</ele><time>2026-04-12T10:29:44.126Z</time></trkpt><trkpt lat="43.8343283" lon="12.746015"><ele>70.83333333333334</ele><time>2026-04-12T10:29:45.125Z</time></trkpt><trkpt lat="43.8344167" lon="12.7460367"><ele>70.66666666666667</ele><time>2026-04-12T10:29:46.126Z</time></trkpt><trkpt lat="43.8345017" lon="12.74606"><ele>70.5</ele><time>2026-04-12T10:29:47.126Z</time></trkpt><trkpt lat="43.8345817" lon="12.746085"><ele>70.33333333333333</ele><time>2026-04-12T10:29:48.126Z</time></trkpt><trkpt lat="43.83466" lon="12.7461"><ele>70.16666666666666</ele><time>2026-04-12T10:29:49.126Z</time></trkpt><trkpt lat="43.8347467" lon="12.7461183"><ele>70.0</ele><time>2026-04-12T10:29:50.126Z</time></trkpt><trkpt lat="43.8348433" lon="12.7461433"><ele>70.0</ele><time>2026-04-12T10:29:51.127Z</time></trkpt><trkpt lat="43.8349433" lon="12.7461717"><ele>70.0</ele><time>2026-04-12T10:29:52.126Z</time></trkpt><trkpt lat="43.8350517" lon="12.7461983"><ele>70.0</ele><time>2026-04-12T10:29:53.125Z</time></trkpt><trkpt lat="43.8351717" lon="12.7462233"><ele>70.0</ele><time>2026-04-12T10:29:54.126Z</time></trkpt><trkpt lat="43.8353017" lon="12.746235"><ele>70.0</ele><time>2026-04-12T10:29:55.126Z</time></trkpt><trkpt lat="43.8354583" lon="12.7462283"><ele>70.0</ele><time>2026-04-12T10:29:56.127Z</time></trkpt><trkpt lat="43.835645" lon="12.7462067"><ele>70.0</ele><time>2026-04-12T10:29:57.126Z</time></trkpt><trkpt lat="43.8358467" lon="12.7461883"><ele>69.33333333333333</ele><time>2026-04-12T10:29:58.125Z</time></trkpt><trkpt lat="43.8360567" lon="12.7461733"><ele>68.66666666666667</ele><time>2026-04-12T10:29:59.126Z</time></trkpt><trkpt lat="43.8362533" lon="12.7461517"><ele>68.0</ele><time>2026-04-12T10:30:00.126Z</time></trkpt><trkpt lat="43.8364333" lon="12.74613"><ele>68.0</ele><time>2026-04-12T10:30:01.127Z</time></trkpt><trkpt lat="43.8366033" lon="12.7461033"><ele>68.0</ele><time>2026-04-12T10:30:02.134Z</time></trkpt><trkpt lat="43.8367617" lon="12.7460767"><ele>68.0</ele><time>2026-04-12T10:30:03.129Z</time></trkpt><trkpt lat="43.836905" lon="12.7460467"><ele>68.0</ele><time>2026-04-12T10:30:04.126Z</time></trkpt><trkpt lat="43.8370317" lon="12.74602"><ele>68.0</ele><time>2026-04-12T10:30:05.128Z</time></trkpt><trkpt lat="43.837145" lon="12.7460017"><ele>68.0</ele><time>2026-04-12T10:30:06.128Z</time></trkpt><trkpt lat="43.8372433" lon="12.745995"><ele>68.0</ele><time>2026-04-12T10:30:07.127Z</time></trkpt><trkpt lat="43.8373417" lon="12.74603"><ele>68.0</ele><time>2026-04-12T10:30:08.126Z</time></trkpt><trkpt lat="43.8374383" lon="12.7460983"><ele>68.0</ele><time>2026-04-12T10:30:09.126Z</time></trkpt><trkpt lat="43.8375283" lon="12.7461583"><ele>68.0</ele><time>2026-04-12T10:30:10.126Z</time></trkpt><trkpt lat="43.8376183" lon="12.7461883"><ele>68.0</ele><time>2026-04-12T10:30:11.126Z</time></trkpt><trkpt lat="43.8376983" lon="12.7461467"><ele>68.0</ele><time>2026-04-12T10:30:12.127Z</time></trkpt><trkpt lat="43.83777" lon="12.7460833"><ele>68.0</ele><time>2026-04-12T10:30:13.126Z</time></trkpt><trkpt lat="43.83781" lon="12.74595"><ele>68.0</ele><time>2026-04-12T10:30:14.126Z</time></trkpt><trkpt lat="43.8378267" lon="12.7458033"><ele>68.0</ele><time>2026-04-12T10:30:15.125Z</time></trkpt><trkpt lat="43.8378333" lon="12.745635"><ele>68.0</ele><time>2026-04-12T10:30:16.126Z</time></trkpt><trkpt lat="43.8378667" lon="12.7454633"><ele>68.0</ele><time>2026-04-12T10:30:17.126Z</time></trkpt><trkpt lat="43.8379333" lon="12.745275"><ele>67.0</ele><time>2026-04-12T10:30:18.128Z</time></trkpt><trkpt lat="43.838015" lon="12.745085"><ele>66.0</ele><time>2026-04-12T10:30:19.126Z</time></trkpt><trkpt lat="43.8381033" lon="12.74489"><ele>65.0</ele><time>2026-04-12T10:30:20.127Z</time></trkpt><trkpt lat="43.8381983" lon="12.744685"><ele>65.0</ele><time>2026-04-12T10:30:21.126Z</time></trkpt><trkpt lat="43.8382967" lon="12.744475"><ele>65.0</ele><time>2026-04-12T10:30:22.126Z</time></trkpt><trkpt lat="43.8383933" lon="12.7442617"><ele>65.0</ele><time>2026-04-12T10:30:23.127Z</time></trkpt><trkpt lat="43.83849" lon="12.7440417"><ele>65.33333333333334</ele><time>2026-04-12T10:30:24.127Z</time></trkpt><trkpt lat="43.83859" lon="12.7438133"><ele>65.66666666666667</ele><time>2026-04-12T10:30:25.125Z</time></trkpt><trkpt lat="43.8386883" lon="12.743585"><ele>66.0</ele><time>2026-04-12T10:30:26.127Z</time></trkpt><trkpt lat="43.8387783" lon="12.7433417"><ele>66.0</ele><time>2026-04-12T10:30:27.126Z</time></trkpt><trkpt lat="43.8388533" lon="12.7430817"><ele>66.0</ele><time>2026-04-12T10:30:28.126Z</time></trkpt><trkpt lat="43.83891" lon="12.74281"><ele>66.0</ele><time>2026-04-12T10:30:29.125Z</time></trkpt><trkpt lat="43.8389417" lon="12.7425267"><ele>65.66666666666667</ele><time>2026-04-12T10:30:30.127Z</time></trkpt><trkpt lat="43.8389483" lon="12.742245"><ele>65.33333333333334</ele><time>2026-04-12T10:30:31.126Z</time></trkpt><trkpt lat="43.8389433" lon="12.7419567"><ele>65.0</ele><time>2026-04-12T10:30:32.126Z</time></trkpt><trkpt lat="43.8389367" lon="12.7416683"><ele>64.66666666666667</ele><time>2026-04-12T10:30:33.127Z</time></trkpt><trkpt lat="43.83893" lon="12.7413817"><ele>64.33333333333333</ele><time>2026-04-12T10:30:34.126Z</time></trkpt><trkpt lat="43.83892" lon="12.7410917"><ele>64.0</ele><time>2026-04-12T10:30:35.125Z</time></trkpt><trkpt lat="43.8389117" lon="12.7408033"><ele>65.0</ele><time>2026-04-12T10:30:36.126Z</time></trkpt><trkpt lat="43.8389017" lon="12.740515"><ele>66.0</ele><time>2026-04-12T10:30:37.126Z</time></trkpt><trkpt lat="43.838895" lon="12.740225"><ele>67.0</ele><time>2026-04-12T10:30:38.126Z</time></trkpt><trkpt lat="43.8388883" lon="12.7399333"><ele>67.0</ele><time>2026-04-12T10:30:39.125Z</time></trkpt><trkpt lat="43.83888" lon="12.739645"><ele>67.0</ele><time>2026-04-12T10:30:40.124Z</time></trkpt><trkpt lat="43.838875" lon="12.7393517"><ele>67.0</ele><time>2026-04-12T10:30:41.126Z</time></trkpt><trkpt lat="43.838865" lon="12.7390517"><ele>66.66666666666666</ele><time>2026-04-12T10:30:42.127Z</time></trkpt><trkpt lat="43.8388617" lon="12.738755"><ele>66.33333333333333</ele><time>2026-04-12T10:30:43.126Z</time></trkpt><trkpt lat="43.8388533" lon="12.7384517"><ele>66.0</ele><time>2026-04-12T10:30:44.126Z</time></trkpt><trkpt lat="43.8388483" lon="12.7381367"><ele>66.0</ele><time>2026-04-12T10:30:45.13Z</time></trkpt><trkpt lat="43.838845" lon="12.7378117"><ele>66.0</ele><time>2026-04-12T10:30:46.125Z</time></trkpt><trkpt lat="43.8388383" lon="12.7374783"><ele>66.0</ele><time>2026-04-12T10:30:47.135Z</time></trkpt><trkpt lat="43.8388283" lon="12.7371433"><ele>66.0</ele><time>2026-04-12T10:30:48.125Z</time></trkpt><trkpt lat="43.838815" lon="12.7368083"><ele>66.5</ele><time>2026-04-12T10:30:49.126Z</time></trkpt><trkpt lat="43.838795" lon="12.7364767"><ele>67.0</ele><time>2026-04-12T10:30:50.127Z</time></trkpt><trkpt lat="43.8387633" lon="12.73615"><ele>67.5</ele><time>2026-04-12T10:30:51.129Z</time></trkpt><trkpt lat="43.838715" lon="12.7358267"><ele>68.0</ele><time>2026-04-12T10:30:52.125Z</time></trkpt><trkpt lat="43.83866" lon="12.7355083"><ele>68.5</ele><time>2026-04-12T10:30:53.128Z</time></trkpt><trkpt lat="43.8385933" lon="12.735195"><ele>69.0</ele><time>2026-04-12T10:30:54.126Z</time></trkpt><trkpt lat="43.83852" lon="12.7348883"><ele>69.0</ele><time>2026-04-12T10:30:55.13Z</time></trkpt><trkpt lat="43.8384433" lon="12.734585"><ele>69.0</ele><time>2026-04-12T10:30:56.127Z</time></trkpt><trkpt lat="43.8383667" lon="12.734285"><ele>69.0</ele><time>2026-04-12T10:30:57.127Z</time></trkpt><trkpt lat="43.8382917" lon="12.733985"><ele>69.0</ele><time>2026-04-12T10:30:58.127Z</time></trkpt><trkpt lat="43.838215" lon="12.73369"><ele>69.33333333333333</ele><time>2026-04-12T10:30:59.126Z</time></trkpt><trkpt lat="43.83814" lon="12.7333967"><ele>69.66666666666666</ele><time>2026-04-12T10:31:00.125Z</time></trkpt><trkpt lat="43.8380667" lon="12.7331033"><ele>70.0</ele><time>2026-04-12T10:31:01.126Z</time></trkpt><trkpt lat="43.8379933" lon="12.73281"><ele>69.66666666666666</ele><time>2026-04-12T10:31:02.125Z</time></trkpt><trkpt lat="43.8379183" lon="12.7325217"><ele>69.33333333333333</ele><time>2026-04-12T10:31:03.126Z</time></trkpt><trkpt lat="43.83784" lon="12.732235"><ele>69.0</ele><time>2026-04-12T10:31:04.125Z</time></trkpt><trkpt lat="43.8377667" lon="12.7319483"><ele>69.66666666666667</ele><time>2026-04-12T10:31:05.126Z</time></trkpt><trkpt lat="43.83768" lon="12.731665"><ele>70.33333333333334</ele><time>2026-04-12T10:31:06.129Z</time></trkpt><trkpt lat="43.8375967" lon="12.7313817"><ele>71.0</ele><time>2026-04-12T10:31:07.125Z</time></trkpt><trkpt lat="43.8375133" lon="12.7311033"><ele>72.33333333333334</ele><time>2026-04-12T10:31:08.125Z</time></trkpt><trkpt lat="43.8374267" lon="12.73083"><ele>73.66666666666667</ele><time>2026-04-12T10:31:09.125Z</time></trkpt><trkpt lat="43.83734" lon="12.7305583"><ele>75.0</ele><time>2026-04-12T10:31:10.126Z</time></trkpt><trkpt lat="43.8372567" lon="12.7302917"><ele>74.66666666666667</ele><time>2026-04-12T10:31:11.126Z</time></trkpt><trkpt lat="43.837175" lon="12.73003"><ele>74.33333333333334</ele><time>2026-04-12T10:31:12.127Z</time></trkpt><trkpt lat="43.8371" lon="12.72978"><ele>74.0</ele><time>2026-04-12T10:31:13.126Z</time></trkpt><trkpt lat="43.837035" lon="12.729545"><ele>74.0</ele><time>2026-04-12T10:31:14.128Z</time></trkpt><trkpt lat="43.8369783" lon="12.7293167"><ele>74.0</ele><time>2026-04-12T10:31:15.126Z</time></trkpt><trkpt lat="43.8369333" lon="12.7290883"><ele>74.0</ele><time>2026-04-12T10:31:16.125Z</time></trkpt><trkpt lat="43.8369183" lon="12.7288517"><ele>74.0</ele><time>2026-04-12T10:31:17.126Z</time></trkpt><trkpt lat="43.83693" lon="12.7286067"><ele>74.0</ele><time>2026-04-12T10:31:18.127Z</time></trkpt><trkpt lat="43.83695" lon="12.7283683"><ele>74.0</ele><time>2026-04-12T10:31:19.126Z</time></trkpt><trkpt lat="43.8369733" lon="12.728125"><ele>73.66666666666667</ele><time>2026-04-12T10:31:20.125Z</time></trkpt><trkpt lat="43.8370017" lon="12.7278817"><ele>73.33333333333333</ele><time>2026-04-12T10:31:21.126Z</time></trkpt><trkpt lat="43.83703" lon="12.7276417"><ele>73.0</ele><time>2026-04-12T10:31:22.126Z</time></trkpt><trkpt lat="43.837055" lon="12.7274083"><ele>72.33333333333333</ele><time>2026-04-12T10:31:23.126Z</time></trkpt><trkpt lat="43.8370767" lon="12.72719"><ele>71.66666666666667</ele><time>2026-04-12T10:31:24.126Z</time></trkpt><trkpt lat="43.8370983" lon="12.72698"><ele>71.0</ele><time>2026-04-12T10:31:25.126Z</time></trkpt><trkpt lat="43.8371217" lon="12.7267867"><ele>70.75</ele><time>2026-04-12T10:31:26.126Z</time></trkpt><trkpt lat="43.8371417" lon="12.72661"><ele>70.5</ele><time>2026-04-12T10:31:27.125Z</time></trkpt><trkpt lat="43.8371617" lon="12.7264433"><ele>70.25</ele><time>2026-04-12T10:31:28.126Z</time></trkpt><trkpt lat="43.83718" lon="12.726285"><ele>70.0</ele><time>2026-04-12T10:31:29.125Z</time></trkpt><trkpt lat="43.8371963" lon="12.7261301"><ele>69.8</ele><time>2026-04-12T10:31:30.126Z</time></trkpt><trkpt lat="43.8372188" lon="12.7259829"><ele>69.6</ele><time>2026-04-12T10:31:31.126Z</time></trkpt><trkpt lat="43.8372377" lon="12.7258382"><ele>69.4</ele><time>2026-04-12T10:31:32.126Z</time></trkpt><trkpt lat="43.8372563" lon="12.7257006"><ele>69.2</ele><time>2026-04-12T10:31:33.127Z</time></trkpt><trkpt lat="43.8372532" lon="12.7255553"><ele>69.0</ele><time>2026-04-12T10:31:34.125Z</time></trkpt><trkpt lat="43.83721" lon="12.7254014"><ele>69.0</ele><time>2026-04-12T10:31:35.126Z</time></trkpt><trkpt lat="43.8371265" lon="12.7252326"><ele>69.0</ele><time>2026-04-12T10:31:36.126Z</time></trkpt><trkpt lat="43.8370185" lon="12.725034"><ele>69.0</ele><time>2026-04-12T10:31:37.128Z</time></trkpt><trkpt lat="43.8368705" lon="12.7248159"><ele>70.5</ele><time>2026-04-12T10:31:38.126Z</time></trkpt><trkpt lat="43.8366936" lon="12.7245937"><ele>72.0</ele><time>2026-04-12T10:31:39.126Z</time></trkpt><trkpt lat="43.8365016" lon="12.7243787"><ele>72.0</ele><time>2026-04-12T10:31:40.126Z</time></trkpt><trkpt lat="43.8363253" lon="12.7241772"><ele>72.0</ele><time>2026-04-12T10:31:41.125Z</time></trkpt><trkpt lat="43.8361657" lon="12.7239744"><ele>72.0</ele><time>2026-04-12T10:31:42.125Z</time></trkpt><trkpt lat="43.8360334" lon="12.7237403"><ele>73.5</ele><time>2026-04-12T10:31:43.126Z</time></trkpt><trkpt lat="43.8359384" lon="12.723465"><ele>75.0</ele><time>2026-04-12T10:31:44.127Z</time></trkpt><trkpt lat="43.8358862" lon="12.7231368"><ele>75.0</ele><time>2026-04-12T10:31:45.126Z</time></trkpt><trkpt lat="43.8358602" lon="12.7227705"><ele>75.0</ele><time>2026-04-12T10:31:46.126Z</time></trkpt><trkpt lat="43.8358371" lon="12.7223749"><ele>75.5</ele><time>2026-04-12T10:31:47.124Z</time></trkpt><trkpt lat="43.8358071" lon="12.7219537"><ele>76.0</ele><time>2026-04-12T10:31:48.127Z</time></trkpt><trkpt lat="43.8357744" lon="12.7215126"><ele>76.0</ele><time>2026-04-12T10:31:49.126Z</time></trkpt><trkpt lat="43.835746" lon="12.721078"><ele>76.0</ele><time>2026-04-12T10:31:50.126Z</time></trkpt><trkpt lat="43.8357231" lon="12.720678"><ele>76.0</ele><time>2026-04-12T10:31:51.124Z</time></trkpt><trkpt lat="43.8357007" lon="12.7203052"><ele>76.0</ele><time>2026-04-12T10:31:52.126Z</time></trkpt><trkpt lat="43.8356814" lon="12.7199515"><ele>76.0</ele><time>2026-04-12T10:31:53.124Z</time></trkpt><trkpt lat="43.8356584" lon="12.719613"><ele>76.0</ele><time>2026-04-12T10:31:54.124Z</time></trkpt><trkpt lat="43.8356379" lon="12.719295"><ele>76.0</ele><time>2026-04-12T10:31:55.124Z</time></trkpt><trkpt lat="43.8356182" lon="12.7189961"><ele>76.0</ele><time>2026-04-12T10:31:56.126Z</time></trkpt><trkpt lat="43.8355987" lon="12.7187135"><ele>76.0</ele><time>2026-04-12T10:31:57.124Z</time></trkpt><trkpt lat="43.8355805" lon="12.7184495"><ele>76.0</ele><time>2026-04-12T10:31:58.126Z</time></trkpt><trkpt lat="43.8355651" lon="12.718209"><ele>76.0</ele><time>2026-04-12T10:31:59.125Z</time></trkpt><trkpt lat="43.835555" lon="12.7179879"><ele>76.0</ele><time>2026-04-12T10:32:00.125Z</time></trkpt><trkpt lat="43.8355591" lon="12.7178085"><ele>75.6</ele><time>2026-04-12T10:32:01.125Z</time></trkpt><trkpt lat="43.8355672" lon="12.7176645"><ele>75.19999999999999</ele><time>2026-04-12T10:32:02.125Z</time></trkpt><trkpt lat="43.8356067" lon="12.7175467"><ele>74.80000000000001</ele><time>2026-04-12T10:32:03.125Z</time></trkpt><trkpt lat="43.83568" lon="12.7174217"><ele>74.4</ele><time>2026-04-12T10:32:04.124Z</time></trkpt><trkpt lat="43.8357717" lon="12.717325"><ele>74.0</ele><time>2026-04-12T10:32:05.125Z</time></trkpt><trkpt lat="43.83592" lon="12.71731"><ele>73.33333333333334</ele><time>2026-04-12T10:32:06.125Z</time></trkpt><trkpt lat="43.8360983" lon="12.7173317"><ele>72.66666666666667</ele><time>2026-04-12T10:32:07.123Z</time></trkpt><trkpt lat="43.8363" lon="12.717355"><ele>72.0</ele><time>2026-04-12T10:32:08.125Z</time></trkpt><trkpt lat="43.8365167" lon="12.7173783"><ele>72.0</ele><time>2026-04-12T10:32:09.124Z</time></trkpt><trkpt lat="43.83676" lon="12.7174133"><ele>72.0</ele><time>2026-04-12T10:32:10.125Z</time></trkpt><trkpt lat="43.8370233" lon="12.7174533"><ele>70.5</ele><time>2026-04-12T10:32:11.125Z</time></trkpt><trkpt lat="43.8372867" lon="12.717485"><ele>69.0</ele><time>2026-04-12T10:32:12.124Z</time></trkpt><trkpt lat="43.837555" lon="12.717515"><ele>68.5</ele><time>2026-04-12T10:32:13.125Z</time></trkpt><trkpt lat="43.83783" lon="12.7175483"><ele>68.0</ele><time>2026-04-12T10:32:14.125Z</time></trkpt><trkpt lat="43.8381067" lon="12.7175833"><ele>68.0</ele><time>2026-04-12T10:32:15.124Z</time></trkpt><trkpt lat="43.8383767" lon="12.7176317"><ele>68.0</ele><time>2026-04-12T10:32:16.124Z</time></trkpt><trkpt lat="43.8386433" lon="12.7177067"><ele>67.5</ele><time>2026-04-12T10:32:17.125Z</time></trkpt><trkpt lat="43.8389067" lon="12.717805"><ele>67.0</ele><time>2026-04-12T10:32:18.124Z</time></trkpt><trkpt lat="43.8391633" lon="12.717935"><ele>67.0</ele><time>2026-04-12T10:32:19.124Z</time></trkpt><trkpt lat="43.8394183" lon="12.71808"><ele>67.0</ele><time>2026-04-12T10:32:20.125Z</time></trkpt><trkpt lat="43.8396733" lon="12.7182217"><ele>67.0</ele><time>2026-04-12T10:32:21.124Z</time></trkpt><trkpt lat="43.83993" lon="12.718365"><ele>67.0</ele><time>2026-04-12T10:32:22.125Z</time></trkpt><trkpt lat="43.8401883" lon="12.7185067"><ele>67.0</ele><time>2026-04-12T10:32:23.124Z</time></trkpt><trkpt lat="43.840445" lon="12.7186483"><ele>67.0</ele><time>2026-04-12T10:32:24.125Z</time></trkpt><trkpt lat="43.8407033" lon="12.7187933"><ele>67.0</ele><time>2026-04-12T10:32:25.124Z</time></trkpt><trkpt lat="43.8409617" lon="12.7189383"><ele>67.0</ele><time>2026-04-12T10:32:26.125Z</time></trkpt><trkpt lat="43.8412167" lon="12.71908"><ele>66.5</ele><time>2026-04-12T10:32:27.125Z</time></trkpt><trkpt lat="43.84147" lon="12.7192217"><ele>66.0</ele><time>2026-04-12T10:32:28.125Z</time></trkpt><trkpt lat="43.841725" lon="12.719345"><ele>64.5</ele><time>2026-04-12T10:32:29.126Z</time></trkpt><trkpt lat="43.8419833" lon="12.7194517"><ele>63.0</ele><time>2026-04-12T10:32:30.125Z</time></trkpt><trkpt lat="43.8422483" lon="12.7195433"><ele>63.0</ele><time>2026-04-12T10:32:31.125Z</time></trkpt><trkpt lat="43.84251" lon="12.7196283"><ele>63.0</ele><time>2026-04-12T10:32:32.126Z</time></trkpt><trkpt lat="43.8427717" lon="12.7197133"><ele>61.5</ele><time>2026-04-12T10:32:33.125Z</time></trkpt><trkpt lat="43.8430333" lon="12.7197983"><ele>60.0</ele><time>2026-04-12T10:32:34.125Z</time></trkpt><trkpt lat="43.8432917" lon="12.71988"><ele>61.0</ele><time>2026-04-12T10:32:35.123Z</time></trkpt><trkpt lat="43.8435467" lon="12.7199583"><ele>62.0</ele><time>2026-04-12T10:32:36.123Z</time></trkpt><trkpt lat="43.8438017" lon="12.7200367"><ele>62.0</ele><time>2026-04-12T10:32:37.125Z</time></trkpt><trkpt lat="43.8440533" lon="12.720115"><ele>62.0</ele><time>2026-04-12T10:32:38.125Z</time></trkpt><trkpt lat="43.844305" lon="12.72019"><ele>61.5</ele><time>2026-04-12T10:32:39.125Z</time></trkpt><trkpt lat="43.8445533" lon="12.7202683"><ele>61.0</ele><time>2026-04-12T10:32:40.124Z</time></trkpt><trkpt lat="43.8447933" lon="12.720345"><ele>61.0</ele><time>2026-04-12T10:32:41.125Z</time></trkpt><trkpt lat="43.845015" lon="12.72041"><ele>61.0</ele><time>2026-04-12T10:32:42.124Z</time></trkpt><trkpt lat="43.845225" lon="12.7204667"><ele>61.0</ele><time>2026-04-12T10:32:43.125Z</time></trkpt><trkpt lat="43.8454283" lon="12.7205267"><ele>61.0</ele><time>2026-04-12T10:32:44.126Z</time></trkpt><trkpt lat="43.8456233" lon="12.720575"><ele>61.0</ele><time>2026-04-12T10:32:45.125Z</time></trkpt><trkpt lat="43.8458017" lon="12.720615"><ele>61.0</ele><time>2026-04-12T10:32:46.124Z</time></trkpt><trkpt lat="43.8459767" lon="12.7206483"><ele>58.33333333333333</ele><time>2026-04-12T10:32:47.123Z</time></trkpt><trkpt lat="43.84615" lon="12.7206683"><ele>55.66666666666667</ele><time>2026-04-12T10:32:48.124Z</time></trkpt><trkpt lat="43.8463133" lon="12.7206667"><ele>53.0</ele><time>2026-04-12T10:32:49.124Z</time></trkpt><trkpt lat="43.846465" lon="12.72064"><ele>53.0</ele><time>2026-04-12T10:32:50.125Z</time></trkpt><trkpt lat="43.8466" lon="12.7206"><ele>53.0</ele><time>2026-04-12T10:32:51.125Z</time></trkpt><trkpt lat="43.8467267" lon="12.72057"><ele>53.0</ele><time>2026-04-12T10:32:52.125Z</time></trkpt><trkpt lat="43.8468267" lon="12.7205533"><ele>53.0</ele><time>2026-04-12T10:32:53.125Z</time></trkpt><trkpt lat="43.8469133" lon="12.7205417"><ele>53.00000000000001</ele><time>2026-04-12T10:32:54.124Z</time></trkpt><trkpt lat="43.84698" lon="12.7205383"><ele>53.0</ele><time>2026-04-12T10:32:55.124Z</time></trkpt><trkpt lat="43.847095" lon="12.7205467"><ele>53.0</ele><time>2026-04-12T10:32:57.125Z</time></trkpt><trkpt lat="43.8472067" lon="12.72056"><ele>53.0</ele><time>2026-04-12T10:32:59.125Z</time></trkpt><trkpt lat="43.84728" lon="12.72055"><ele>53.00000000000001</ele><time>2026-04-12T10:33:00.125Z</time></trkpt><trkpt lat="43.8473467" lon="12.7205017"><ele>53.0</ele><time>2026-04-12T10:33:01.125Z</time></trkpt><trkpt lat="43.847385" lon="12.720365"><ele>53.333333333333336</ele><time>2026-04-12T10:33:02.124Z</time></trkpt><trkpt lat="43.84739" lon="12.7201883"><ele>53.66666666666667</ele><time>2026-04-12T10:33:03.125Z</time></trkpt><trkpt lat="43.8473867" lon="12.7199767"><ele>54.0</ele><time>2026-04-12T10:33:04.124Z</time></trkpt><trkpt lat="43.8473683" lon="12.71972"><ele>54.0</ele><time>2026-04-12T10:33:05.125Z</time></trkpt><trkpt lat="43.84732" lon="12.7194183"><ele>54.0</ele><time>2026-04-12T10:33:06.125Z</time></trkpt><trkpt lat="43.847265" lon="12.7190767"><ele>54.0</ele><time>2026-04-12T10:33:07.124Z</time></trkpt><trkpt lat="43.8472033" lon="12.71871"><ele>54.0</ele><time>2026-04-12T10:33:08.124Z</time></trkpt><trkpt lat="43.8471383" lon="12.7183267"><ele>54.0</ele><time>2026-04-12T10:33:09.125Z</time></trkpt><trkpt lat="43.84707" lon="12.7179317"><ele>54.0</ele><time>2026-04-12T10:33:10.125Z</time></trkpt><trkpt lat="43.847" lon="12.71753"><ele>54.0</ele><time>2026-04-12T10:33:11.124Z</time></trkpt><trkpt lat="43.8469317" lon="12.7171317"><ele>54.0</ele><time>2026-04-12T10:33:12.125Z</time></trkpt><trkpt lat="43.8468683" lon="12.7167667"><ele>54.0</ele><time>2026-04-12T10:33:13.124Z</time></trkpt><trkpt lat="43.84681" lon="12.7164217"><ele>54.0</ele><time>2026-04-12T10:33:14.124Z</time></trkpt><trkpt lat="43.8467467" lon="12.7160833"><ele>54.5</ele><time>2026-04-12T10:33:15.124Z</time></trkpt><trkpt lat="43.8466433" lon="12.71574"><ele>55.0</ele><time>2026-04-12T10:33:16.125Z</time></trkpt><trkpt lat="43.8465" lon="12.7154033"><ele>54.0</ele><time>2026-04-12T10:33:17.124Z</time></trkpt><trkpt lat="43.846325" lon="12.7150717"><ele>53.0</ele><time>2026-04-12T10:33:18.124Z</time></trkpt><trkpt lat="43.8461333" lon="12.7147217"><ele>55.5</ele><time>2026-04-12T10:33:19.124Z</time></trkpt><trkpt lat="43.8459383" lon="12.714365"><ele>58.0</ele><time>2026-04-12T10:33:20.125Z</time></trkpt><trkpt lat="43.845745" lon="12.7140083"><ele>58.0</ele><time>2026-04-12T10:33:21.125Z</time></trkpt><trkpt lat="43.8455483" lon="12.713645"><ele>58.0</ele><time>2026-04-12T10:33:22.125Z</time></trkpt><trkpt lat="43.845345" lon="12.71328"><ele>57.5</ele><time>2026-04-12T10:33:23.126Z</time></trkpt><trkpt lat="43.8451467" lon="12.712925"><ele>57.0</ele><time>2026-04-12T10:33:24.124Z</time></trkpt><trkpt lat="43.844955" lon="12.7125883"><ele>57.0</ele><time>2026-04-12T10:33:25.124Z</time></trkpt><trkpt lat="43.8447733" lon="12.712255"><ele>57.0</ele><time>2026-04-12T10:33:26.124Z</time></trkpt><trkpt lat="43.84459" lon="12.71193"><ele>57.5</ele><time>2026-04-12T10:33:27.126Z</time></trkpt><trkpt lat="43.84441" lon="12.711615"><ele>58.0</ele><time>2026-04-12T10:33:28.126Z</time></trkpt><trkpt lat="43.8442433" lon="12.7113083"><ele>58.0</ele><time>2026-04-12T10:33:29.123Z</time></trkpt><trkpt lat="43.84409" lon="12.7110183"><ele>58.0</ele><time>2026-04-12T10:33:30.127Z</time></trkpt><trkpt lat="43.8439433" lon="12.7107483"><ele>58.0</ele><time>2026-04-12T10:33:31.126Z</time></trkpt><trkpt lat="43.8438" lon="12.7104883"><ele>58.0</ele><time>2026-04-12T10:33:32.125Z</time></trkpt><trkpt lat="43.8436583" lon="12.71025"><ele>58.5</ele><time>2026-04-12T10:33:33.124Z</time></trkpt><trkpt lat="43.8434983" lon="12.71003"><ele>59.0</ele><time>2026-04-12T10:33:34.124Z</time></trkpt><trkpt lat="43.8433083" lon="12.7098417"><ele>59.0</ele><time>2026-04-12T10:33:35.125Z</time></trkpt><trkpt lat="43.8430983" lon="12.7096733"><ele>59.0</ele><time>2026-04-12T10:33:36.125Z</time></trkpt><trkpt lat="43.8428817" lon="12.7095167"><ele>61.5</ele><time>2026-04-12T10:33:37.125Z</time></trkpt><trkpt lat="43.8426683" lon="12.7093717"><ele>64.0</ele><time>2026-04-12T10:33:38.125Z</time></trkpt><trkpt lat="43.8424617" lon="12.70922"><ele>64.0</ele><time>2026-04-12T10:33:39.125Z</time></trkpt><trkpt lat="43.8422583" lon="12.7090733"><ele>64.0</ele><time>2026-04-12T10:33:40.124Z</time></trkpt><trkpt lat="43.8420633" lon="12.7089217"><ele>64.0</ele><time>2026-04-12T10:33:41.124Z</time></trkpt><trkpt lat="43.8418817" lon="12.7087483"><ele>64.0</ele><time>2026-04-12T10:33:42.125Z</time></trkpt><trkpt lat="43.8417183" lon="12.70854"><ele>64.0</ele><time>2026-04-12T10:33:43.124Z</time></trkpt><trkpt lat="43.8415783" lon="12.7082917"><ele>65.5</ele><time>2026-04-12T10:33:44.125Z</time></trkpt><trkpt lat="43.8414333" lon="12.70803"><ele>67.0</ele><time>2026-04-12T10:33:45.125Z</time></trkpt><trkpt lat="43.8412941" lon="12.7077669"><ele>69.5</ele><time>2026-04-12T10:33:46.124Z</time></trkpt><trkpt lat="43.8411616" lon="12.7075035"><ele>72.0</ele><time>2026-04-12T10:33:47.125Z</time></trkpt><trkpt lat="43.8410317" lon="12.7072413"><ele>70.5</ele><time>2026-04-12T10:33:48.125Z</time></trkpt><trkpt lat="43.8409029" lon="12.7069782"><ele>69.0</ele><time>2026-04-12T10:33:49.125Z</time></trkpt><trkpt lat="43.8407764" lon="12.706721"><ele>69.0</ele><time>2026-04-12T10:33:50.125Z</time></trkpt><trkpt lat="43.840653" lon="12.7064672"><ele>69.0</ele><time>2026-04-12T10:33:51.125Z</time></trkpt><trkpt lat="43.8405316" lon="12.7062222"><ele>69.0</ele><time>2026-04-12T10:33:52.124Z</time></trkpt><trkpt lat="43.8404176" lon="12.7059887"><ele>69.33333333333333</ele><time>2026-04-12T10:33:53.124Z</time></trkpt><trkpt lat="43.8403134" lon="12.7057755"><ele>69.66666666666666</ele><time>2026-04-12T10:33:54.125Z</time></trkpt><trkpt lat="43.8402196" lon="12.7055828"><ele>70.0</ele><time>2026-04-12T10:33:55.125Z</time></trkpt><trkpt lat="43.8401447" lon="12.7054253"><ele>70.16666666666666</ele><time>2026-04-12T10:33:56.125Z</time></trkpt><trkpt lat="43.840092" lon="12.7053053"><ele>70.33333333333333</ele><time>2026-04-12T10:33:57.125Z</time></trkpt><trkpt lat="43.8400568" lon="12.705218"><ele>70.5</ele><time>2026-04-12T10:33:58.124Z</time></trkpt><trkpt lat="43.8400039" lon="12.7051052"><ele>70.66666666666667</ele><time>2026-04-12T10:34:00.124Z</time></trkpt><trkpt lat="43.8399682" lon="12.7050304"><ele>70.83333333333334</ele><time>2026-04-12T10:34:01.126Z</time></trkpt><trkpt lat="43.8399204" lon="12.7049362"><ele>71.0</ele><time>2026-04-12T10:34:02.125Z</time></trkpt><trkpt lat="43.8398571" lon="12.7048219"><ele>71.0</ele><time>2026-04-12T10:34:03.124Z</time></trkpt><trkpt lat="43.839791" lon="12.7047016"><ele>71.0</ele><time>2026-04-12T10:34:04.124Z</time></trkpt><trkpt lat="43.839732" lon="12.7045979"><ele>71.0</ele><time>2026-04-12T10:34:05.123Z</time></trkpt><trkpt lat="43.8396922" lon="12.7045163"><ele>71.0</ele><time>2026-04-12T10:34:06.124Z</time></trkpt><trkpt lat="43.8396729" lon="12.7043912"><ele>71.0</ele><time>2026-04-12T10:34:08.124Z</time></trkpt><trkpt lat="43.8397657" lon="12.7042905"><ele>71.0</ele><time>2026-04-12T10:34:10.128Z</time></trkpt><trkpt lat="43.8398713" lon="12.7042522"><ele>71.0</ele><time>2026-04-12T10:34:12.124Z</time></trkpt><trkpt lat="43.8399666" lon="12.704384"><ele>71.0</ele><time>2026-04-12T10:34:14.126Z</time></trkpt><trkpt lat="43.8400099" lon="12.7045055"><ele>71.0</ele><time>2026-04-12T10:34:16.123Z</time></trkpt><trkpt lat="43.8399651" lon="12.7046015"><ele>71.0</ele><time>2026-04-12T10:34:18.125Z</time></trkpt><trkpt lat="43.8398697" lon="12.7046695"><ele>71.0</ele><time>2026-04-12T10:34:20.124Z</time></trkpt><trkpt lat="43.8398717" lon="12.70477"><ele>71.0</ele><time>2026-04-12T10:34:31.123Z</time></trkpt><trkpt lat="43.8399183" lon="12.7048983"><ele>71.0</ele><time>2026-04-12T10:34:32.128Z</time></trkpt><trkpt lat="43.8399917" lon="12.7050433"><ele>71.0</ele><time>2026-04-12T10:34:33.124Z</time></trkpt><trkpt lat="43.8400683" lon="12.7052017"><ele>71.0</ele><time>2026-04-12T10:34:34.124Z</time></trkpt><trkpt lat="43.8401517" lon="12.705385"><ele>70.66666666666667</ele><time>2026-04-12T10:34:35.126Z</time></trkpt><trkpt lat="43.8402483" lon="12.7055833"><ele>70.33333333333333</ele><time>2026-04-12T10:34:36.125Z</time></trkpt><trkpt lat="43.8403483" lon="12.7057933"><ele>70.0</ele><time>2026-04-12T10:34:37.126Z</time></trkpt><trkpt lat="43.8404417" lon="12.7059917"><ele>69.75</ele><time>2026-04-12T10:34:38.126Z</time></trkpt><trkpt lat="43.8405267" lon="12.706175"><ele>69.5</ele><time>2026-04-12T10:34:39.128Z</time></trkpt><trkpt lat="43.8406017" lon="12.7063383"><ele>69.25</ele><time>2026-04-12T10:34:40.123Z</time></trkpt><trkpt lat="43.8406633" lon="12.70647"><ele>69.0</ele><time>2026-04-12T10:34:41.124Z</time></trkpt><trkpt lat="43.8407167" lon="12.706575"><ele>69.0</ele><time>2026-04-12T10:34:42.123Z</time></trkpt><trkpt lat="43.8407533" lon="12.7066533"><ele>69.0</ele><time>2026-04-12T10:34:43.125Z</time></trkpt><trkpt lat="43.8408" lon="12.7067583"><ele>69.0</ele><time>2026-04-12T10:34:45.124Z</time></trkpt><trkpt lat="43.84084" lon="12.7068267"><ele>69.0</ele><time>2026-04-12T10:34:48.124Z</time></trkpt><trkpt lat="43.84091" lon="12.706795"><ele>69.0</ele><time>2026-04-12T10:34:50.124Z</time></trkpt><trkpt lat="43.8409817" lon="12.706695"><ele>69.0</ele><time>2026-04-12T10:34:51.125Z</time></trkpt><trkpt lat="43.8410517" lon="12.7066167"><ele>69.0</ele><time>2026-04-12T10:34:52.124Z</time></trkpt><trkpt lat="43.8410983" lon="12.70655"><ele>69.0</ele><time>2026-04-12T10:34:53.125Z</time></trkpt><trkpt lat="43.841125" lon="12.70646"><ele>69.0</ele><time>2026-04-12T10:34:55.125Z</time></trkpt><trkpt lat="43.8410917" lon="12.7063333"><ele>69.0</ele><time>2026-04-12T10:40:37.12Z</time></trkpt><trkpt lat="43.8410083" lon="12.7061867"><ele>69.0</ele><time>2026-04-12T10:40:39.121Z</time></trkpt><trkpt lat="43.8409617" lon="12.7060983"><ele>69.0</ele><time>2026-04-12T10:40:40.121Z</time></trkpt><trkpt lat="43.840905" lon="12.705985"><ele>69.25</ele><time>2026-04-12T10:40:41.122Z</time></trkpt><trkpt lat="43.8408367" lon="12.7058467"><ele>69.5</ele><time>2026-04-12T10:40:42.121Z</time></trkpt><trkpt lat="43.840755" lon="12.7056783"><ele>69.75</ele><time>2026-04-12T10:40:43.122Z</time></trkpt><trkpt lat="43.8406583" lon="12.7054817"><ele>70.0</ele><time>2026-04-12T10:40:44.121Z</time></trkpt><trkpt lat="43.840555" lon="12.705265"><ele>70.5</ele><time>2026-04-12T10:40:45.121Z</time></trkpt><trkpt lat="43.8404617" lon="12.7050667"><ele>71.0</ele><time>2026-04-12T10:40:46.12Z</time></trkpt><trkpt lat="43.8403817" lon="12.7049"><ele>71.5</ele><time>2026-04-12T10:40:47.121Z</time></trkpt><trkpt lat="43.8403133" lon="12.70476"><ele>72.0</ele><time>2026-04-12T10:40:48.121Z</time></trkpt><trkpt lat="43.840255" lon="12.704635"><ele>72.0</ele><time>2026-04-12T10:40:49.121Z</time></trkpt><trkpt lat="43.84021" lon="12.7045333"><ele>72.0</ele><time>2026-04-12T10:40:50.122Z</time></trkpt><trkpt lat="43.8401467" lon="12.7044333"><ele>72.0</ele><time>2026-04-12T10:40:52.12Z</time></trkpt><trkpt lat="43.8400633" lon="12.7044767"><ele>72.0</ele><time>2026-04-12T10:40:54.121Z</time></trkpt><trkpt lat="43.8400033" lon="12.7045433"><ele>72.0</ele><time>2026-04-12T10:40:55.121Z</time></trkpt><trkpt lat="43.8399467" lon="12.7046067"><ele>72.0</ele><time>2026-04-12T10:40:56.121Z</time></trkpt><trkpt lat="43.8398733" lon="12.70469"><ele>71.8</ele><time>2026-04-12T10:40:58.122Z</time></trkpt><trkpt lat="43.8398033" lon="12.70469"><ele>71.6</ele><time>2026-04-12T10:41:05.14Z</time></trkpt><trkpt lat="43.8397617" lon="12.7046133"><ele>71.39999999999999</ele><time>2026-04-12T10:41:06.123Z</time></trkpt><trkpt lat="43.8397133" lon="12.7045067"><ele>71.2</ele><time>2026-04-12T10:41:07.121Z</time></trkpt><trkpt lat="43.8396517" lon="12.7043883"><ele>71.0</ele><time>2026-04-12T10:41:08.122Z</time></trkpt><trkpt lat="43.8395767" lon="12.7042517"><ele>72.33333333333334</ele><time>2026-04-12T10:41:09.12Z</time></trkpt><trkpt lat="43.8394983" lon="12.7040917"><ele>73.66666666666667</ele><time>2026-04-12T10:41:10.121Z</time></trkpt><trkpt lat="43.8394217" lon="12.70389"><ele>75.0</ele><time>2026-04-12T10:41:11.121Z</time></trkpt><trkpt lat="43.8393567" lon="12.7036583"><ele>74.66666666666667</ele><time>2026-04-12T10:41:12.121Z</time></trkpt><trkpt lat="43.8393133" lon="12.7033867"><ele>74.33333333333334</ele><time>2026-04-12T10:41:13.121Z</time></trkpt><trkpt lat="43.83929" lon="12.7030867"><ele>74.0</ele><time>2026-04-12T10:41:14.121Z</time></trkpt><trkpt lat="43.8392883" lon="12.702775"><ele>74.5</ele><time>2026-04-12T10:41:15.12Z</time></trkpt><trkpt lat="43.8392917" lon="12.7024617"><ele>75.0</ele><time>2026-04-12T10:41:16.121Z</time></trkpt><trkpt lat="43.8393" lon="12.702145"><ele>79.0</ele><time>2026-04-12T10:41:17.121Z</time></trkpt><trkpt lat="43.8393017" lon="12.70183"><ele>83.0</ele><time>2026-04-12T10:41:18.121Z</time></trkpt><trkpt lat="43.8393033" lon="12.70152"><ele>83.0</ele><time>2026-04-12T10:41:19.124Z</time></trkpt><trkpt lat="43.8393033" lon="12.7012083"><ele>83.0</ele><time>2026-04-12T10:41:20.12Z</time></trkpt><trkpt lat="43.8393033" lon="12.7009067"><ele>83.0</ele><time>2026-04-12T10:41:21.122Z</time></trkpt><trkpt lat="43.8392967" lon="12.700615"><ele>82.0</ele><time>2026-04-12T10:41:22.121Z</time></trkpt><trkpt lat="43.839285" lon="12.700335"><ele>81.0</ele><time>2026-04-12T10:41:23.122Z</time></trkpt><trkpt lat="43.8392483" lon="12.700055"><ele>80.0</ele><time>2026-04-12T10:41:24.121Z</time></trkpt><trkpt lat="43.8391817" lon="12.6997967"><ele>80.0</ele><time>2026-04-12T10:41:25.119Z</time></trkpt><trkpt lat="43.8390983" lon="12.6995483"><ele>80.0</ele><time>2026-04-12T10:41:26.12Z</time></trkpt><trkpt lat="43.83901" lon="12.6993167"><ele>80.0</ele><time>2026-04-12T10:41:27.119Z</time></trkpt><trkpt lat="43.8389183" lon="12.6991033"><ele>80.66666666666667</ele><time>2026-04-12T10:41:28.12Z</time></trkpt><trkpt lat="43.8388317" lon="12.6989033"><ele>81.33333333333333</ele><time>2026-04-12T10:41:29.12Z</time></trkpt><trkpt lat="43.838755" lon="12.698715"><ele>82.0</ele><time>2026-04-12T10:41:30.12Z</time></trkpt><trkpt lat="43.83868" lon="12.6985417"><ele>81.75</ele><time>2026-04-12T10:41:31.12Z</time></trkpt><trkpt lat="43.8386083" lon="12.698375"><ele>81.5</ele><time>2026-04-12T10:41:32.12Z</time></trkpt><trkpt lat="43.8385367" lon="12.69821"><ele>81.25</ele><time>2026-04-12T10:41:33.12Z</time></trkpt><trkpt lat="43.83847" lon="12.6980467"><ele>81.0</ele><time>2026-04-12T10:41:34.12Z</time></trkpt><trkpt lat="43.8384067" lon="12.6978833"><ele>81.25</ele><time>2026-04-12T10:41:35.119Z</time></trkpt><trkpt lat="43.838345" lon="12.6977267"><ele>81.5</ele><time>2026-04-12T10:41:36.119Z</time></trkpt><trkpt lat="43.838285" lon="12.6975783"><ele>81.75</ele><time>2026-04-12T10:41:37.12Z</time></trkpt><trkpt lat="43.83823" lon="12.69744"><ele>82.0</ele><time>2026-04-12T10:41:38.122Z</time></trkpt><trkpt lat="43.8381767" lon="12.69731"><ele>82.0</ele><time>2026-04-12T10:41:39.12Z</time></trkpt><trkpt lat="43.838125" lon="12.697185"><ele>82.0</ele><time>2026-04-12T10:41:40.119Z</time></trkpt><trkpt lat="43.838075" lon="12.697055"><ele>82.0</ele><time>2026-04-12T10:41:41.12Z</time></trkpt><trkpt lat="43.83802" lon="12.6969133"><ele>82.0</ele><time>2026-04-12T10:41:42.122Z</time></trkpt><trkpt lat="43.8379617" lon="12.696765"><ele>82.0</ele><time>2026-04-12T10:41:43.119Z</time></trkpt><trkpt lat="43.8379017" lon="12.696605"><ele>82.25</ele><time>2026-04-12T10:41:44.12Z</time></trkpt><trkpt lat="43.837835" lon="12.69644"><ele>82.5</ele><time>2026-04-12T10:41:45.123Z</time></trkpt><trkpt lat="43.8377633" lon="12.6962667"><ele>82.75</ele><time>2026-04-12T10:41:46.12Z</time></trkpt><trkpt lat="43.83769" lon="12.696085"><ele>83.0</ele><time>2026-04-12T10:41:47.12Z</time></trkpt><trkpt lat="43.8376117" lon="12.6958983"><ele>82.0</ele><time>2026-04-12T10:41:48.121Z</time></trkpt><trkpt lat="43.8375283" lon="12.6957083"><ele>81.0</ele><time>2026-04-12T10:41:49.12Z</time></trkpt><trkpt lat="43.83744" lon="12.6955083"><ele>80.0</ele><time>2026-04-12T10:41:50.121Z</time></trkpt><trkpt lat="43.83735" lon="12.6953033"><ele>80.0</ele><time>2026-04-12T10:41:51.12Z</time></trkpt><trkpt lat="43.8372583" lon="12.6950883"><ele>80.0</ele><time>2026-04-12T10:41:52.12Z</time></trkpt><trkpt lat="43.8371767" lon="12.6948633"><ele>80.0</ele><time>2026-04-12T10:41:53.121Z</time></trkpt><trkpt lat="43.8370883" lon="12.6946367"><ele>81.0</ele><time>2026-04-12T10:41:54.121Z</time></trkpt><trkpt lat="43.8369933" lon="12.69441"><ele>82.0</ele><time>2026-04-12T10:41:55.12Z</time></trkpt><trkpt lat="43.8369017" lon="12.6941817"><ele>83.0</ele><time>2026-04-12T10:41:56.121Z</time></trkpt><trkpt lat="43.8368167" lon="12.69395"><ele>83.0</ele><time>2026-04-12T10:41:57.12Z</time></trkpt><trkpt lat="43.8367317" lon="12.6937183"><ele>83.0</ele><time>2026-04-12T10:41:58.123Z</time></trkpt><trkpt lat="43.83664" lon="12.6934867"><ele>83.0</ele><time>2026-04-12T10:41:59.122Z</time></trkpt><trkpt lat="43.8364483" lon="12.6930367"><ele>83.0</ele><time>2026-04-12T10:42:01.123Z</time></trkpt><trkpt lat="43.836355" lon="12.6928167"><ele>83.0</ele><time>2026-04-12T10:42:02.122Z</time></trkpt><trkpt lat="43.8362633" lon="12.6925967"><ele>83.0</ele><time>2026-04-12T10:42:03.124Z</time></trkpt><trkpt lat="43.836175" lon="12.692375"><ele>84.0</ele><time>2026-04-12T10:42:04.121Z</time></trkpt><trkpt lat="43.8360983" lon="12.692155"><ele>85.0</ele><time>2026-04-12T10:42:05.122Z</time></trkpt><trkpt lat="43.8360283" lon="12.6919367"><ele>86.0</ele><time>2026-04-12T10:42:06.126Z</time></trkpt><trkpt lat="43.8359067" lon="12.691505"><ele>86.0</ele><time>2026-04-12T10:42:08.122Z</time></trkpt><trkpt lat="43.8358633" lon="12.69129"><ele>86.0</ele><time>2026-04-12T10:42:09.121Z</time></trkpt><trkpt lat="43.8358217" lon="12.691075"><ele>86.0</ele><time>2026-04-12T10:42:10.121Z</time></trkpt><trkpt lat="43.8357667" lon="12.6908717"><ele>85.66666666666667</ele><time>2026-04-12T10:42:11.121Z</time></trkpt><trkpt lat="43.8357233" lon="12.690665"><ele>85.33333333333333</ele><time>2026-04-12T10:42:12.119Z</time></trkpt><trkpt lat="43.83568" lon="12.6904583"><ele>85.0</ele><time>2026-04-12T10:42:13.12Z</time></trkpt><trkpt lat="43.835635" lon="12.6902567"><ele>85.66666666666666</ele><time>2026-04-12T10:42:14.123Z</time></trkpt><trkpt lat="43.8355867" lon="12.6900583"><ele>86.33333333333333</ele><time>2026-04-12T10:42:15.125Z</time></trkpt><trkpt lat="43.8355383" lon="12.6898617"><ele>87.0</ele><time>2026-04-12T10:42:16.12Z</time></trkpt><trkpt lat="43.8354917" lon="12.689665"><ele>87.0</ele><time>2026-04-12T10:42:17.124Z</time></trkpt><trkpt lat="43.8354433" lon="12.6894733"><ele>87.0</ele><time>2026-04-12T10:42:18.124Z</time></trkpt><trkpt lat="43.8353917" lon="12.689285"><ele>87.0</ele><time>2026-04-12T10:42:19.13Z</time></trkpt><trkpt lat="43.8353467" lon="12.689095"><ele>87.0</ele><time>2026-04-12T10:42:20.121Z</time></trkpt><trkpt lat="43.8352983" lon="12.6889017"><ele>87.33333333333333</ele><time>2026-04-12T10:42:21.12Z</time></trkpt><trkpt lat="43.8352567" lon="12.6887033"><ele>87.66666666666666</ele><time>2026-04-12T10:42:22.119Z</time></trkpt><trkpt lat="43.83521" lon="12.6885017"><ele>88.0</ele><time>2026-04-12T10:42:23.12Z</time></trkpt><trkpt lat="43.8351627" lon="12.688296"><ele>88.0</ele><time>2026-04-12T10:42:24.12Z</time></trkpt><trkpt lat="43.8351093" lon="12.6880868"><ele>88.0</ele><time>2026-04-12T10:42:25.12Z</time></trkpt><trkpt lat="43.835054" lon="12.6878803"><ele>88.0</ele><time>2026-04-12T10:42:26.121Z</time></trkpt><trkpt lat="43.8349953" lon="12.6876737"><ele>88.0</ele><time>2026-04-12T10:42:27.12Z</time></trkpt><trkpt lat="43.8349298" lon="12.6874702"><ele>88.0</ele><time>2026-04-12T10:42:28.121Z</time></trkpt><trkpt lat="43.8348485" lon="12.6872787"><ele>88.0</ele><time>2026-04-12T10:42:29.12Z</time></trkpt><trkpt lat="43.8347547" lon="12.6871039"><ele>88.0</ele><time>2026-04-12T10:42:30.12Z</time></trkpt><trkpt lat="43.8346466" lon="12.6869524"><ele>88.0</ele><time>2026-04-12T10:42:31.12Z</time></trkpt><trkpt lat="43.8345233" lon="12.6868229"><ele>88.0</ele><time>2026-04-12T10:42:32.12Z</time></trkpt><trkpt lat="43.8343912" lon="12.6867107"><ele>87.0</ele><time>2026-04-12T10:42:33.12Z</time></trkpt><trkpt lat="43.834265" lon="12.6866093"><ele>86.0</ele><time>2026-04-12T10:42:34.12Z</time></trkpt><trkpt lat="43.8341386" lon="12.6865044"><ele>85.0</ele><time>2026-04-12T10:42:35.12Z</time></trkpt><trkpt lat="43.8340183" lon="12.6864061"><ele>84.0</ele><time>2026-04-12T10:42:36.121Z</time></trkpt><trkpt lat="43.8338963" lon="12.6863009"><ele>84.0</ele><time>2026-04-12T10:42:37.121Z</time></trkpt><trkpt lat="43.8337759" lon="12.6861949"><ele>84.0</ele><time>2026-04-12T10:42:38.121Z</time></trkpt><trkpt lat="43.8336555" lon="12.6860944"><ele>84.0</ele><time>2026-04-12T10:42:39.121Z</time></trkpt><trkpt lat="43.8335337" lon="12.685985"><ele>84.0</ele><time>2026-04-12T10:42:40.12Z</time></trkpt><trkpt lat="43.8334071" lon="12.6858724"><ele>84.0</ele><time>2026-04-12T10:42:41.121Z</time></trkpt><trkpt lat="43.8332752" lon="12.6857619"><ele>84.0</ele><time>2026-04-12T10:42:42.121Z</time></trkpt><trkpt lat="43.8331328" lon="12.6856431"><ele>84.0</ele><time>2026-04-12T10:42:43.121Z</time></trkpt><trkpt lat="43.8329801" lon="12.6855044"><ele>84.0</ele><time>2026-04-12T10:42:44.12Z</time></trkpt><trkpt lat="43.8328205" lon="12.6853583"><ele>84.0</ele><time>2026-04-12T10:42:45.12Z</time></trkpt><trkpt lat="43.832652" lon="12.685217"><ele>84.0</ele><time>2026-04-12T10:42:46.119Z</time></trkpt><trkpt lat="43.8324897" lon="12.6850723"><ele>82.66666666666667</ele><time>2026-04-12T10:42:47.121Z</time></trkpt><trkpt lat="43.8323404" lon="12.6849335"><ele>81.33333333333334</ele><time>2026-04-12T10:42:48.126Z</time></trkpt><trkpt lat="43.832208" lon="12.6848023"><ele>80.0</ele><time>2026-04-12T10:42:49.126Z</time></trkpt><trkpt lat="43.832084" lon="12.6846727"><ele>80.0</ele><time>2026-04-12T10:42:50.12Z</time></trkpt><trkpt lat="43.8319695" lon="12.6845497"><ele>80.0</ele><time>2026-04-12T10:42:51.124Z</time></trkpt><trkpt lat="43.831861" lon="12.6844525"><ele>80.0</ele><time>2026-04-12T10:42:52.12Z</time></trkpt><trkpt lat="43.8317659" lon="12.6843789"><ele>80.0</ele><time>2026-04-12T10:42:53.119Z</time></trkpt><trkpt lat="43.8316955" lon="12.6843252"><ele>80.25</ele><time>2026-04-12T10:42:54.134Z</time></trkpt><trkpt lat="43.8316041" lon="12.6843102"><ele>80.5</ele><time>2026-04-12T10:42:56.121Z</time></trkpt><trkpt lat="43.8315192" lon="12.684457"><ele>80.75</ele><time>2026-04-12T10:42:58.12Z</time></trkpt><trkpt lat="43.8314711" lon="12.6845734"><ele>81.0</ele><time>2026-04-12T10:42:59.123Z</time></trkpt><trkpt lat="43.8313963" lon="12.6847252"><ele>81.0</ele><time>2026-04-12T10:43:00.121Z</time></trkpt><trkpt lat="43.8313115" lon="12.6848951"><ele>81.0</ele><time>2026-04-12T10:43:01.123Z</time></trkpt><trkpt lat="43.8312281" lon="12.685049"><ele>81.0</ele><time>2026-04-12T10:43:02.127Z</time></trkpt><trkpt lat="43.8311453" lon="12.6851716"><ele>81.0</ele><time>2026-04-12T10:43:03.122Z</time></trkpt><trkpt lat="43.8310668" lon="12.6852623"><ele>81.0</ele><time>2026-04-12T10:43:04.121Z</time></trkpt><trkpt lat="43.8309869" lon="12.6853212"><ele>81.0</ele><time>2026-04-12T10:43:05.131Z</time></trkpt><trkpt lat="43.8309104" lon="12.6853542"><ele>81.0</ele><time>2026-04-12T10:43:06.121Z</time></trkpt><trkpt lat="43.8308387" lon="12.6853534"><ele>81.0</ele><time>2026-04-12T10:43:07.12Z</time></trkpt><trkpt lat="43.8307457" lon="12.6852643"><ele>81.0</ele><time>2026-04-12T10:43:09.123Z</time></trkpt><trkpt lat="43.8307475" lon="12.6851433"><ele>81.0</ele><time>2026-04-12T10:43:11.119Z</time></trkpt><trkpt lat="43.8308287" lon="12.6850394"><ele>81.0</ele><time>2026-04-12T10:43:13.12Z</time></trkpt><trkpt lat="43.830844" lon="12.6849467"><ele>81.0</ele><time>2026-04-12T10:43:16.119Z</time></trkpt><trkpt lat="43.8307346" lon="12.6848296"><ele>81.0</ele><time>2026-04-12T10:43:18.119Z</time></trkpt><trkpt lat="43.8306734" lon="12.6847795"><ele>81.0</ele><time>2026-04-12T10:43:19.119Z</time></trkpt><trkpt lat="43.8305833" lon="12.6847241"><ele>81.0</ele><time>2026-04-12T10:43:21.119Z</time></trkpt></trkseg></trk></gpx>